<?xml version='1.0' encoding='UTF-8'?><gpx version="1.1" creator="JPX - https://github.com/jenetics/jpx" xmlns="http://www.topografix.com/GPX/1/1"><trk><trkseg><trkpt lat="43.79645915436991" lon="11.33397654954838"><ele>259.0</ele><time>2026-04-23T07:51:16Z</time></trkpt><trkpt lat="43.79650792096185" lon="11.333902946966068"><ele>259.0</ele><time>2026-04-23T07:51:19Z</time></trkpt><trkpt lat="43.79654483923732" lon="11.333827141314394"><ele>259.0</ele><time>2026-04-23T07:51:21Z</time></trkpt><trkpt lat="43.79660796404936" lon="11.333692014605761"><ele>259.0</ele><time>2026-04-23T07:51:29Z</time></trkpt><trkpt lat="43.79667281239042" lon="11.333656755601728"><ele>259.0</ele><time>2026-04-23T07:51:30Z</time></trkpt><trkpt lat="43.79675556207917" lon="11.333669192448571"><ele>259.0</ele><time>2026-04-23T07:51:31Z</time></trkpt><trkpt lat="43.79684474958085" lon="11.333747028580838"><ele>258.4</ele><time>2026-04-23T07:51:32Z</time></trkpt><trkpt lat="43.79694284485045" lon="11.33376061493971"><ele>257.79999999999995</ele><time>2026-04-23T07:51:33Z</time></trkpt><trkpt lat="43.79703890277271" lon="11.333809886027273"><ele>257.20000000000005</ele><time>2026-04-23T07:51:34Z</time></trkpt><trkpt lat="43.79713858779685" lon="11.333858264324538"><ele>256.6</ele><time>2026-04-23T07:51:35Z</time></trkpt><trkpt lat="43.797199984120056" lon="11.333935316782796"><ele>256.0</ele><time>2026-04-23T07:51:36Z</time></trkpt><trkpt lat="43.79726285087647" lon="11.333993770321028"><ele>255.99999999999997</ele><time>2026-04-23T07:51:37Z</time></trkpt><trkpt lat="43.79732980318173" lon="11.334062029203606"><ele>256.0</ele><time>2026-04-23T07:51:38Z</time></trkpt><trkpt lat="43.797400189861506" lon="11.334125414185326"><ele>256.0</ele><time>2026-04-23T07:51:38.999Z</time></trkpt><trkpt lat="43.797470029166654" lon="11.334209020642946"><ele>256.0</ele><time>2026-04-23T07:51:39.999Z</time></trkpt><trkpt lat="43.797529942792124" lon="11.334304856618127"><ele>255.99999999999997</ele><time>2026-04-23T07:51:40.999Z</time></trkpt><trkpt lat="43.797581251642384" lon="11.334394460799476"><ele>256.0</ele><time>2026-04-23T07:51:41.999Z</time></trkpt><trkpt lat="43.79762792944748" lon="11.33451560489561"><ele>254.16666666666666</ele><time>2026-04-23T07:51:42.999Z</time></trkpt><trkpt lat="43.79767549634748" lon="11.334628806760255"><ele>252.33333333333331</ele><time>2026-04-23T07:51:43.999Z</time></trkpt><trkpt lat="43.7977259091827" lon="11.33472986356417"><ele>250.5</ele><time>2026-04-23T07:51:44.999Z</time></trkpt><trkpt lat="43.797764179117806" lon="11.334799539978045"><ele>248.66666666666669</ele><time>2026-04-23T07:51:45.999Z</time></trkpt><trkpt lat="43.79787000638386" lon="11.334775925437716"><ele>246.83333333333334</ele><time>2026-04-23T07:51:47.999Z</time></trkpt><trkpt lat="43.79790243852046" lon="11.334700936821474"><ele>245.0</ele><time>2026-04-23T07:51:48.999Z</time></trkpt><trkpt lat="43.79789422597373" lon="11.334590955681534"><ele>245.0</ele><time>2026-04-23T07:51:49.999Z</time></trkpt><trkpt lat="43.797897106935636" lon="11.334430618374316"><ele>245.0</ele><time>2026-04-23T07:51:50.999Z</time></trkpt><trkpt lat="43.79791622901654" lon="11.334284524894443"><ele>245.0</ele><time>2026-04-23T07:51:51.999Z</time></trkpt><trkpt lat="43.79794711498075" lon="11.334124326274887"><ele>245.0</ele><time>2026-04-23T07:51:52.999Z</time></trkpt><trkpt lat="43.7979801244577" lon="11.333946489514796"><ele>245.0</ele><time>2026-04-23T07:51:53.999Z</time></trkpt><trkpt lat="43.79802966069186" lon="11.333848959990833"><ele>245.0</ele><time>2026-04-23T07:51:54.999Z</time></trkpt><trkpt lat="43.79807485500616" lon="11.333777455274818"><ele>245.0</ele><time>2026-04-23T07:51:55.999Z</time></trkpt><trkpt lat="43.79817412973177" lon="11.333757401682844"><ele>245.0</ele><time>2026-04-23T07:51:57.999Z</time></trkpt><trkpt lat="43.798241600109286" lon="11.333933145125114"><ele>245.0</ele><time>2026-04-23T07:51:59.999Z</time></trkpt><trkpt lat="43.79825967715766" lon="11.334025149144365"><ele>245.00000000000003</ele><time>2026-04-23T07:52:00.999Z</time></trkpt><trkpt lat="43.798273415653256" lon="11.334128219813945"><ele>245.0</ele><time>2026-04-23T07:52:01.999Z</time></trkpt><trkpt lat="43.79827069361481" lon="11.33424027787643"><ele>245.0</ele><time>2026-04-23T07:52:02.999Z</time></trkpt><trkpt lat="43.798233801375964" lon="11.334335493258168"><ele>245.0</ele><time>2026-04-23T07:52:03.999Z</time></trkpt><trkpt lat="43.79818628729539" lon="11.334445919577881"><ele>245.00000000000003</ele><time>2026-04-23T07:52:04.999Z</time></trkpt><trkpt lat="43.79814971092602" lon="11.334551548378407"><ele>245.0</ele><time>2026-04-23T07:52:05.999Z</time></trkpt><trkpt lat="43.79814502034088" lon="11.334656755318541"><ele>244.33333333333334</ele><time>2026-04-23T07:52:06.999Z</time></trkpt><trkpt lat="43.79820488137581" lon="11.334777052735687"><ele>243.66666666666669</ele><time>2026-04-23T07:52:07.999Z</time></trkpt><trkpt lat="43.79821249018106" lon="11.33487662406715"><ele>243.0</ele><time>2026-04-23T07:52:08.999Z</time></trkpt><trkpt lat="43.79823813410021" lon="11.334966035492993"><ele>242.33333333333331</ele><time>2026-04-23T07:52:09.999Z</time></trkpt><trkpt lat="43.79830471413111" lon="11.335098115994734"><ele>241.66666666666666</ele><time>2026-04-23T07:52:11.999Z</time></trkpt><trkpt lat="43.798359568941045" lon="11.335157280780537"><ele>241.0</ele><time>2026-04-23T07:52:12.999Z</time></trkpt><trkpt lat="43.79842979088304" lon="11.335215916613427"><ele>241.0</ele><time>2026-04-23T07:52:13.999Z</time></trkpt><trkpt lat="43.798499495010525" lon="11.335273147373403"><ele>241.00000000000003</ele><time>2026-04-23T07:52:14.999Z</time></trkpt><trkpt lat="43.79858107699292" lon="11.335322680412952"><ele>241.00000000000003</ele><time>2026-04-23T07:52:15.999Z</time></trkpt><trkpt lat="43.79865473280365" lon="11.335397506781222"><ele>241.0</ele><time>2026-04-23T07:52:16.999Z</time></trkpt><trkpt lat="43.79873082928783" lon="11.33546667212889"><ele>241.0</ele><time>2026-04-23T07:52:17.999Z</time></trkpt><trkpt lat="43.79883209267195" lon="11.335533697782068"><ele>241.5</ele><time>2026-04-23T07:52:18.999Z</time></trkpt><trkpt lat="43.79897475228903" lon="11.335595793348825"><ele>242.0</ele><time>2026-04-23T07:52:19.999Z</time></trkpt><trkpt lat="43.79912182452268" lon="11.335626567468767"><ele>242.5</ele><time>2026-04-23T07:52:20.999Z</time></trkpt><trkpt lat="43.79924763558578" lon="11.3356455307777"><ele>243.0</ele><time>2026-04-23T07:52:21.999Z</time></trkpt><trkpt lat="43.79934883043234" lon="11.33568034517581"><ele>243.0</ele><time>2026-04-23T07:52:22.999Z</time></trkpt><trkpt lat="43.79943420386649" lon="11.33573336813234"><ele>243.0</ele><time>2026-04-23T07:52:23.999Z</time></trkpt><trkpt lat="43.799533676484025" lon="11.335809803706034"><ele>243.0</ele><time>2026-04-23T07:52:24.999Z</time></trkpt><trkpt lat="43.79964924399628" lon="11.335888892298614"><ele>243.0</ele><time>2026-04-23T07:52:25.999Z</time></trkpt><trkpt lat="43.79977633164463" lon="11.335958949017716"><ele>243.0</ele><time>2026-04-23T07:52:26.999Z</time></trkpt><trkpt lat="43.799894664263924" lon="11.336023722307772"><ele>243.0</ele><time>2026-04-23T07:52:27.999Z</time></trkpt><trkpt lat="43.79999104312142" lon="11.336072824499874"><ele>243.0</ele><time>2026-04-23T07:52:28.999Z</time></trkpt><trkpt lat="43.80006021516884" lon="11.336111353102869"><ele>243.0</ele><time>2026-04-23T07:52:29.999Z</time></trkpt><trkpt lat="43.800134981272116" lon="11.336152987433369"><ele>243.0</ele><time>2026-04-23T07:52:31.999Z</time></trkpt><trkpt lat="43.80014093218143" lon="11.336245543893199"><ele>243.0</ele><time>2026-04-23T07:52:33.999Z</time></trkpt><trkpt lat="43.80014159600835" lon="11.336336143093684"><ele>243.0</ele><time>2026-04-23T07:52:35.999Z</time></trkpt><trkpt lat="43.80012182535445" lon="11.336428417852005"><ele>243.0</ele><time>2026-04-23T07:52:36.999Z</time></trkpt><trkpt lat="43.80011030671106" lon="11.336553216446594"><ele>243.0</ele><time>2026-04-23T07:52:37.999Z</time></trkpt><trkpt lat="43.80011413857119" lon="11.336645181242943"><ele>243.0</ele><time>2026-04-23T07:52:38.999Z</time></trkpt><trkpt lat="43.80013085668028" lon="11.336731423148976"><ele>243.0</ele><time>2026-04-23T07:52:39.999Z</time></trkpt><trkpt lat="43.8001732188961" lon="11.336807783604046"><ele>243.0</ele><time>2026-04-23T07:52:40.999Z</time></trkpt><trkpt lat="43.80028656077927" lon="11.336810758186353"><ele>243.0</ele><time>2026-04-23T07:52:41.999Z</time></trkpt><trkpt lat="43.80036824276471" lon="11.336838036294232"><ele>243.0</ele><time>2026-04-23T07:52:42.999Z</time></trkpt><trkpt lat="43.80045233398541" lon="11.336850936867668"><ele>243.0</ele><time>2026-04-23T07:52:43.999Z</time></trkpt><trkpt lat="43.80053951702688" lon="11.336836989194769"><ele>243.0</ele><time>2026-04-23T07:52:44.999Z</time></trkpt><trkpt lat="43.80060827964816" lon="11.336782062891292"><ele>243.0</ele><time>2026-04-23T07:52:45.999Z</time></trkpt><trkpt lat="43.80065855855392" lon="11.336724921147404"><ele>243.0</ele><time>2026-04-23T07:52:46.999Z</time></trkpt><trkpt lat="43.80075523923497" lon="11.33669602936811"><ele>243.0</ele><time>2026-04-23T07:52:48.998Z</time></trkpt><trkpt lat="43.80081605067839" lon="11.336898143554196"><ele>243.0</ele><time>2026-04-23T07:53:00.998Z</time></trkpt><trkpt lat="43.80088678782511" lon="11.337013164879123"><ele>243.0</ele><time>2026-04-23T07:53:01.998Z</time></trkpt><trkpt lat="43.80095759076054" lon="11.337116908699658"><ele>243.0</ele><time>2026-04-23T07:53:02.998Z</time></trkpt><trkpt lat="43.800998902862894" lon="11.33718460292656"><ele>243.0</ele><time>2026-04-23T07:53:03.998Z</time></trkpt><trkpt lat="43.801040018487086" lon="11.337270250221707"><ele>241.0</ele><time>2026-04-23T07:53:04.998Z</time></trkpt><trkpt lat="43.801089334391506" lon="11.33741937717549"><ele>239.0</ele><time>2026-04-23T07:53:06.998Z</time></trkpt><trkpt lat="43.80104894197905" lon="11.337569176049824"><ele>237.0</ele><time>2026-04-23T07:53:08.998Z</time></trkpt><trkpt lat="43.801041947110285" lon="11.337728646815606"><ele>235.0</ele><time>2026-04-23T07:53:10.998Z</time></trkpt><trkpt lat="43.80107738613256" lon="11.337806966381658"><ele>233.0</ele><time>2026-04-23T07:53:11.998Z</time></trkpt><trkpt lat="43.801151640896606" lon="11.33784864765127"><ele>233.0</ele><time>2026-04-23T07:53:12.998Z</time></trkpt><trkpt lat="43.80120336485677" lon="11.337928617466183"><ele>233.0</ele><time>2026-04-23T07:53:13.999Z</time></trkpt><trkpt lat="43.801278300921325" lon="11.337974297185157"><ele>233.0</ele><time>2026-04-23T07:53:14.999Z</time></trkpt><trkpt lat="43.801357968344924" lon="11.33803617423114"><ele>233.0</ele><time>2026-04-23T07:53:15.999Z</time></trkpt><trkpt lat="43.80144747613323" lon="11.338095856183358"><ele>233.0</ele><time>2026-04-23T07:53:16.999Z</time></trkpt><trkpt lat="43.80154046611906" lon="11.338150024659063"><ele>231.50000000000003</ele><time>2026-04-23T07:53:17.999Z</time></trkpt><trkpt lat="43.801619599074314" lon="11.338184755668436"><ele>230.0</ele><time>2026-04-23T07:53:18.999Z</time></trkpt><trkpt lat="43.8016856099496" lon="11.338209594822887"><ele>228.5</ele><time>2026-04-23T07:53:19.999Z</time></trkpt><trkpt lat="43.801747175117676" lon="11.338247644965875"><ele>227.0</ele><time>2026-04-23T07:53:21Z</time></trkpt><trkpt lat="43.80186625595148" lon="11.338329470059696"><ele>225.50000000000003</ele><time>2026-04-23T07:53:23Z</time></trkpt><trkpt lat="43.80193397867328" lon="11.33833681299796"><ele>224.0</ele><time>2026-04-23T07:53:24Z</time></trkpt><trkpt lat="43.80200517929123" lon="11.338364297638265"><ele>224.00000000000003</ele><time>2026-04-23T07:53:25Z</time></trkpt><trkpt lat="43.80206885066858" lon="11.338398202106891"><ele>224.0</ele><time>2026-04-23T07:53:26Z</time></trkpt><trkpt lat="43.80219123178979" lon="11.338411256750748"><ele>224.0</ele><time>2026-04-23T07:53:28Z</time></trkpt><trkpt lat="43.80223926457006" lon="11.338489520563796"><ele>224.0</ele><time>2026-04-23T07:53:31Z</time></trkpt><trkpt lat="43.80224926753988" lon="11.338604863390813"><ele>224.00000000000003</ele><time>2026-04-23T07:53:33Z</time></trkpt><trkpt lat="43.80222397599604" lon="11.338702841790608"><ele>224.0</ele><time>2026-04-23T07:53:34Z</time></trkpt><trkpt lat="43.80219336599575" lon="11.338783541246883"><ele>224.0</ele><time>2026-04-23T07:53:35Z</time></trkpt><trkpt lat="43.802154432265944" lon="11.338857719316787"><ele>223.99999999999997</ele><time>2026-04-23T07:53:36Z</time></trkpt><trkpt lat="43.80209887187464" lon="11.338970115862463"><ele>223.99999999999997</ele><time>2026-04-23T07:53:37Z</time></trkpt><trkpt lat="43.80201723836464" lon="11.339092646079267"><ele>224.0</ele><time>2026-04-23T07:53:38Z</time></trkpt><trkpt lat="43.801944771798404" lon="11.339233590964948"><ele>224.0</ele><time>2026-04-23T07:53:39Z</time></trkpt><trkpt lat="43.801893571016976" lon="11.339338726794367"><ele>223.79999999999998</ele><time>2026-04-23T07:53:40Z</time></trkpt><trkpt lat="43.80180858056606" lon="11.339507189040711"><ele>223.59999999999997</ele><time>2026-04-23T07:53:41Z</time></trkpt><trkpt lat="43.80176473158667" lon="11.33963791223548"><ele>223.4</ele><time>2026-04-23T07:53:41.999Z</time></trkpt><trkpt lat="43.80171410810669" lon="11.339749981727094"><ele>223.2</ele><time>2026-04-23T07:53:42.999Z</time></trkpt><trkpt lat="43.80167419172652" lon="11.33984773253735"><ele>223.0</ele><time>2026-04-23T07:53:43.999Z</time></trkpt><trkpt lat="43.801631164484405" lon="11.339935513137688"><ele>225.33333333333331</ele><time>2026-04-23T07:53:44.999Z</time></trkpt><trkpt lat="43.80159044769414" lon="11.34001889190897"><ele>227.66666666666666</ele><time>2026-04-23T07:53:45.999Z</time></trkpt><trkpt lat="43.80153277875075" lon="11.340117624339415"><ele>230.0</ele><time>2026-04-23T07:53:46.999Z</time></trkpt><trkpt lat="43.801474332907674" lon="11.340210159852663"><ele>232.33333333333331</ele><time>2026-04-23T07:53:47.999Z</time></trkpt><trkpt lat="43.80141249762827" lon="11.340292524328296"><ele>234.66666666666666</ele><time>2026-04-23T07:53:48.999Z</time></trkpt><trkpt lat="43.801343217043886" lon="11.340367683634101"><ele>237.0</ele><time>2026-04-23T07:53:49.999Z</time></trkpt><trkpt lat="43.80127155237921" lon="11.340436869488018"><ele>237.0</ele><time>2026-04-23T07:53:50.999Z</time></trkpt><trkpt lat="43.80119054217729" lon="11.340484481985612"><ele>237.0</ele><time>2026-04-23T07:53:51.999Z</time></trkpt><trkpt lat="43.801115465569474" lon="11.340569703192209"><ele>237.0</ele><time>2026-04-23T07:53:52.999Z</time></trkpt><trkpt lat="43.80104203219305" lon="11.340642431259079"><ele>237.0</ele><time>2026-04-23T07:53:53.999Z</time></trkpt><trkpt lat="43.800986934682925" lon="11.340723621506276"><ele>237.0</ele><time>2026-04-23T07:53:54.999Z</time></trkpt><trkpt lat="43.8009355741068" lon="11.340826434214103"><ele>237.0</ele><time>2026-04-23T07:53:55.999Z</time></trkpt><trkpt lat="43.800894839403554" lon="11.340926036156032"><ele>238.0</ele><time>2026-04-23T07:53:56.999Z</time></trkpt><trkpt lat="43.80085715950959" lon="11.3410353803485"><ele>239.0</ele><time>2026-04-23T07:53:57.999Z</time></trkpt><trkpt lat="43.800826054844926" lon="11.341150473280255"><ele>240.0</ele><time>2026-04-23T07:53:58.999Z</time></trkpt><trkpt lat="43.80079920427302" lon="11.341275625905368"><ele>241.0</ele><time>2026-04-23T07:53:59.999Z</time></trkpt><trkpt lat="43.80078459676724" lon="11.341371212559187"><ele>242.0</ele><time>2026-04-23T07:54:00.999Z</time></trkpt><trkpt lat="43.80077701480995" lon="11.341460689232163"><ele>243.0</ele><time>2026-04-23T07:54:01.999Z</time></trkpt><trkpt lat="43.80074381653938" lon="11.34154350998633"><ele>243.0</ele><time>2026-04-23T07:54:02.999Z</time></trkpt><trkpt lat="43.800688175017626" lon="11.341636742526688"><ele>243.0</ele><time>2026-04-23T07:54:03.999Z</time></trkpt><trkpt lat="43.800638393184016" lon="11.341734311704583"><ele>243.0</ele><time>2026-04-23T07:54:04.999Z</time></trkpt><trkpt lat="43.80060489639672" lon="11.341846475403212"><ele>243.0</ele><time>2026-04-23T07:54:05.999Z</time></trkpt><trkpt lat="43.800595861465595" lon="11.341942342140447"><ele>243.0</ele><time>2026-04-23T07:54:06.999Z</time></trkpt><trkpt lat="43.80057231278967" lon="11.342026339818608"><ele>243.0</ele><time>2026-04-23T07:54:07.999Z</time></trkpt><trkpt lat="43.80051878772111" lon="11.342093499386616"><ele>243.0</ele><time>2026-04-23T07:54:08.999Z</time></trkpt><trkpt lat="43.80043334666526" lon="11.342112837583697"><ele>243.0</ele><time>2026-04-23T07:54:09.999Z</time></trkpt><trkpt lat="43.8003557109757" lon="11.342175087815205"><ele>243.0</ele><time>2026-04-23T07:54:10.999Z</time></trkpt><trkpt lat="43.80028730893823" lon="11.342257334089041"><ele>243.0</ele><time>2026-04-23T07:54:11.999Z</time></trkpt><trkpt lat="43.800235641555766" lon="11.342354486665247"><ele>243.0</ele><time>2026-04-23T07:54:12.999Z</time></trkpt><trkpt lat="43.80017677028561" lon="11.342466205939976"><ele>243.8</ele><time>2026-04-23T07:54:13.999Z</time></trkpt><trkpt lat="43.80010402151737" lon="11.342571831824635"><ele>244.60000000000002</ele><time>2026-04-23T07:54:14.999Z</time></trkpt><trkpt lat="43.80000620170635" lon="11.342664678904345"><ele>245.39999999999998</ele><time>2026-04-23T07:54:15.999Z</time></trkpt><trkpt lat="43.799925764911315" lon="11.342775317849647"><ele>246.2</ele><time>2026-04-23T07:54:16.999Z</time></trkpt><trkpt lat="43.799844565776745" lon="11.342862481448025"><ele>247.0</ele><time>2026-04-23T07:54:17.999Z</time></trkpt><trkpt lat="43.79977068929639" lon="11.342939646574328"><ele>247.0</ele><time>2026-04-23T07:54:18.999Z</time></trkpt><trkpt lat="43.79968688544852" lon="11.343027841035632"><ele>247.0</ele><time>2026-04-23T07:54:19.999Z</time></trkpt><trkpt lat="43.799608217124444" lon="11.343119706874024"><ele>247.0</ele><time>2026-04-23T07:54:20.999Z</time></trkpt><trkpt lat="43.79953256245738" lon="11.343210755354729"><ele>247.0</ele><time>2026-04-23T07:54:21.999Z</time></trkpt><trkpt lat="43.79945412114584" lon="11.343309024647397"><ele>247.0</ele><time>2026-04-23T07:54:22.999Z</time></trkpt><trkpt lat="43.79939640188179" lon="11.343409980446703"><ele>247.39999999999998</ele><time>2026-04-23T07:54:23.999Z</time></trkpt><trkpt lat="43.79934191402082" lon="11.34352544883552"><ele>247.79999999999998</ele><time>2026-04-23T07:54:24.999Z</time></trkpt><trkpt lat="43.79927600370524" lon="11.343647688354496"><ele>248.2</ele><time>2026-04-23T07:54:25.999Z</time></trkpt><trkpt lat="43.799203591248734" lon="11.343764464592148"><ele>248.6</ele><time>2026-04-23T07:54:26.999Z</time></trkpt><trkpt lat="43.79912555066352" lon="11.343874111584142"><ele>249.0</ele><time>2026-04-23T07:54:27.999Z</time></trkpt><trkpt lat="43.799056370988744" lon="11.343973447059552"><ele>251.6</ele><time>2026-04-23T07:54:28.999Z</time></trkpt><trkpt lat="43.79897821927939" lon="11.344047172123394"><ele>254.2</ele><time>2026-04-23T07:54:29.999Z</time></trkpt><trkpt lat="43.7989032905781" lon="11.344124802355703"><ele>256.79999999999995</ele><time>2026-04-23T07:54:30.999Z</time></trkpt><trkpt lat="43.79884891510941" lon="11.344204842435548"><ele>259.4</ele><time>2026-04-23T07:54:31.999Z</time></trkpt><trkpt lat="43.7987750267674" lon="11.344279188766771"><ele>262.0</ele><time>2026-04-23T07:54:33.999Z</time></trkpt><trkpt lat="43.79873702168651" lon="11.344398608836842"><ele>262.0</ele><time>2026-04-23T07:54:35.999Z</time></trkpt><trkpt lat="43.7987410503726" lon="11.344501689213704"><ele>262.0</ele><time>2026-04-23T07:54:36.999Z</time></trkpt><trkpt lat="43.79875219940547" lon="11.3446088181018"><ele>262.0</ele><time>2026-04-23T07:54:37.999Z</time></trkpt><trkpt lat="43.79871036654419" lon="11.344764777312944"><ele>262.0</ele><time>2026-04-23T07:54:39.999Z</time></trkpt><trkpt lat="43.79866208476717" lon="11.34483884359103"><ele>262.0</ele><time>2026-04-23T07:54:40.999Z</time></trkpt><trkpt lat="43.79860876483999" lon="11.344905186491099"><ele>262.0</ele><time>2026-04-23T07:54:41.999Z</time></trkpt><trkpt lat="43.79852675133716" lon="11.34497670213303"><ele>262.0</ele><time>2026-04-23T07:54:42.999Z</time></trkpt><trkpt lat="43.798441264936564" lon="11.345071488679418"><ele>262.0</ele><time>2026-04-23T07:54:43.999Z</time></trkpt><trkpt lat="43.79835409919127" lon="11.345174766759854"><ele>262.0</ele><time>2026-04-23T07:54:44.999Z</time></trkpt><trkpt lat="43.798270620072785" lon="11.34525152979418"><ele>262.0</ele><time>2026-04-23T07:54:45.999Z</time></trkpt><trkpt lat="43.79819501391968" lon="11.345332705377858"><ele>262.0</ele><time>2026-04-23T07:54:46.999Z</time></trkpt><trkpt lat="43.79812437463102" lon="11.345400426520865"><ele>262.0</ele><time>2026-04-23T07:54:47.999Z</time></trkpt><trkpt lat="43.79805964260165" lon="11.345484867475687"><ele>262.0</ele><time>2026-04-23T07:54:48.999Z</time></trkpt><trkpt lat="43.79799807955127" lon="11.345586137633424"><ele>262.0</ele><time>2026-04-23T07:54:49.999Z</time></trkpt><trkpt lat="43.79794408922068" lon="11.345674213349646"><ele>262.0</ele><time>2026-04-23T07:54:50.999Z</time></trkpt><trkpt lat="43.797903806805856" lon="11.345750771276297"><ele>262.0</ele><time>2026-04-23T07:54:51.999Z</time></trkpt><trkpt lat="43.79786965190873" lon="11.345838818595006"><ele>262.0</ele><time>2026-04-23T07:54:52.999Z</time></trkpt><trkpt lat="43.79785929681989" lon="11.34594827257184"><ele>264.0</ele><time>2026-04-23T07:54:53.999Z</time></trkpt><trkpt lat="43.797857425323755" lon="11.34605924271941"><ele>266.0</ele><time>2026-04-23T07:54:54.999Z</time></trkpt><trkpt lat="43.79786699196989" lon="11.34619759896968"><ele>268.0</ele><time>2026-04-23T07:54:56.999Z</time></trkpt><trkpt lat="43.79788237015933" lon="11.346297960307208"><ele>270.0</ele><time>2026-04-23T07:54:58.999Z</time></trkpt><trkpt lat="43.79794975305187" lon="11.346407962621706"><ele>272.0</ele><time>2026-04-23T07:55:00.998Z</time></trkpt><trkpt lat="43.79798586226629" lon="11.34649565522949"><ele>274.0</ele><time>2026-04-23T07:55:02.998Z</time></trkpt><trkpt lat="43.79788509494694" lon="11.346577252163984"><ele>273.66666666666663</ele><time>2026-04-23T07:55:03.998Z</time></trkpt><trkpt lat="43.79784016287668" lon="11.346666161855044"><ele>273.3333333333333</ele><time>2026-04-23T07:55:04.998Z</time></trkpt><trkpt lat="43.79778935889899" lon="11.34678094312368"><ele>273.0</ele><time>2026-04-23T07:55:05.998Z</time></trkpt><trkpt lat="43.79774924859919" lon="11.346890816846333"><ele>272.6666666666667</ele><time>2026-04-23T07:55:06.998Z</time></trkpt><trkpt lat="43.79770921497799" lon="11.346973304971408"><ele>272.33333333333337</ele><time>2026-04-23T07:55:07.998Z</time></trkpt><trkpt lat="43.79767434465026" lon="11.347062372482386"><ele>272.0</ele><time>2026-04-23T07:55:08.998Z</time></trkpt><trkpt lat="43.79764095176833" lon="11.347152577921467"><ele>277.6</ele><time>2026-04-23T07:55:09.998Z</time></trkpt><trkpt lat="43.797576547299116" lon="11.347266988061943"><ele>283.2</ele><time>2026-04-23T07:55:11.998Z</time></trkpt><trkpt lat="43.79746909333434" lon="11.34731202332656"><ele>288.8</ele><time>2026-04-23T07:55:13.998Z</time></trkpt><trkpt lat="43.79739760464109" lon="11.347366645261665"><ele>294.4</ele><time>2026-04-23T07:55:14.998Z</time></trkpt><trkpt lat="43.79731454126102" lon="11.347400893147412"><ele>300.0</ele><time>2026-04-23T07:55:15.998Z</time></trkpt><trkpt lat="43.79725365556198" lon="11.34746206543147"><ele>300.0</ele><time>2026-04-23T07:55:16.998Z</time></trkpt><trkpt lat="43.79718295532618" lon="11.347500901036288"><ele>300.0</ele><time>2026-04-23T07:55:17.998Z</time></trkpt><trkpt lat="43.79711853358337" lon="11.34754672637906"><ele>300.0</ele><time>2026-04-23T07:55:18.998Z</time></trkpt><trkpt lat="43.797056141823646" lon="11.347566510340199"><ele>300.0</ele><time>2026-04-23T07:55:19.999Z</time></trkpt><trkpt lat="43.79691534110239" lon="11.347624077084493"><ele>300.0</ele><time>2026-04-23T07:55:21.999Z</time></trkpt><trkpt lat="43.796835063973745" lon="11.347672337074789"><ele>300.0</ele><time>2026-04-23T07:55:22.999Z</time></trkpt><trkpt lat="43.7967637508588" lon="11.347714671344525"><ele>301.3333333333333</ele><time>2026-04-23T07:55:23.999Z</time></trkpt><trkpt lat="43.79670201608964" lon="11.347744192488895"><ele>302.6666666666667</ele><time>2026-04-23T07:55:24.999Z</time></trkpt><trkpt lat="43.79664808872091" lon="11.347826923386394"><ele>304.0</ele><time>2026-04-23T07:55:25.999Z</time></trkpt><trkpt lat="43.796577601531574" lon="11.347861457440345"><ele>305.33333333333337</ele><time>2026-04-23T07:55:26.999Z</time></trkpt><trkpt lat="43.7964985845474" lon="11.347931521084634"><ele>306.6666666666667</ele><time>2026-04-23T07:55:28.999Z</time></trkpt><trkpt lat="43.796429423150286" lon="11.347973530578242"><ele>308.0</ele><time>2026-04-23T07:55:29.999Z</time></trkpt><trkpt lat="43.79636745588601" lon="11.348047828121214"><ele>308.0</ele><time>2026-04-23T07:55:30.999Z</time></trkpt><trkpt lat="43.79632383476246" lon="11.348122772614348"><ele>308.0</ele><time>2026-04-23T07:55:31.999Z</time></trkpt><trkpt lat="43.796275052349806" lon="11.348259645560917"><ele>308.0</ele><time>2026-04-23T07:55:33.999Z</time></trkpt><trkpt lat="43.79624674891603" lon="11.348342923377293"><ele>308.0</ele><time>2026-04-23T07:55:34.999Z</time></trkpt><trkpt lat="43.796228943121285" lon="11.348427229700098"><ele>308.0</ele><time>2026-04-23T07:55:35.999Z</time></trkpt><trkpt lat="43.79624772437615" lon="11.348570601410406"><ele>308.0</ele><time>2026-04-23T07:55:37.999Z</time></trkpt><trkpt lat="43.796292093630754" lon="11.34871318126188"><ele>308.2</ele><time>2026-04-23T07:55:39.999Z</time></trkpt><trkpt lat="43.79633696286559" lon="11.348891585119224"><ele>308.4</ele><time>2026-04-23T07:55:41.999Z</time></trkpt><trkpt lat="43.79636128969598" lon="11.348985540012308"><ele>308.59999999999997</ele><time>2026-04-23T07:55:42.999Z</time></trkpt><trkpt lat="43.7963889521027" lon="11.349148888717538"><ele>308.8</ele><time>2026-04-23T07:55:44.999Z</time></trkpt><trkpt lat="43.796413101021805" lon="11.349278981829457"><ele>309.0</ele><time>2026-04-23T07:55:45.999Z</time></trkpt><trkpt lat="43.79643880719421" lon="11.349396381713541"><ele>309.0</ele><time>2026-04-23T07:55:46.999Z</time></trkpt><trkpt lat="43.79646857757344" lon="11.349494908230737"><ele>309.0</ele><time>2026-04-23T07:55:47.999Z</time></trkpt><trkpt lat="43.79649420055949" lon="11.349577344175136"><ele>309.0</ele><time>2026-04-23T07:55:48.999Z</time></trkpt><trkpt lat="43.796524760463114" lon="11.349660766942602"><ele>309.0</ele><time>2026-04-23T07:55:49.999Z</time></trkpt><trkpt lat="43.79655705994659" lon="11.349754566522426"><ele>309.0</ele><time>2026-04-23T07:55:50.999Z</time></trkpt><trkpt lat="43.79659603992886" lon="11.34986334666259"><ele>309.0</ele><time>2026-04-23T07:55:52.999Z</time></trkpt><trkpt lat="43.79665615989312" lon="11.349965912527825"><ele>307.6666666666667</ele><time>2026-04-23T07:56:02.999Z</time></trkpt><trkpt lat="43.796685507510134" lon="11.350050395045265"><ele>306.3333333333333</ele><time>2026-04-23T07:56:04.999Z</time></trkpt><trkpt lat="43.796725761567714" lon="11.35015345182982"><ele>305.0</ele><time>2026-04-23T07:56:07.999Z</time></trkpt><trkpt lat="43.79676199719839" lon="11.350235903233601"><ele>303.66666666666663</ele><time>2026-04-23T07:56:09.999Z</time></trkpt><trkpt lat="43.796808418685615" lon="11.350334006429188"><ele>302.3333333333333</ele><time>2026-04-23T07:56:11.999Z</time></trkpt><trkpt lat="43.79682801959429" lon="11.350439186049595"><ele>301.0</ele><time>2026-04-23T07:56:14.999Z</time></trkpt><trkpt lat="43.79657408774529" lon="11.350786133308736"><ele>298.40000000000003</ele><time>2026-04-23T07:56:16.999Z</time></trkpt><trkpt lat="43.79650115789606" lon="11.350841917410316"><ele>295.8</ele><time>2026-04-23T07:56:18.999Z</time></trkpt><trkpt lat="43.796427764205205" lon="11.350931516572295"><ele>293.20000000000005</ele><time>2026-04-23T07:56:20.999Z</time></trkpt><trkpt lat="43.79636675116576" lon="11.351028615944804"><ele>290.6</ele><time>2026-04-23T07:56:23.999Z</time></trkpt><trkpt lat="43.79631194132113" lon="11.351139598868254"><ele>288.0</ele><time>2026-04-23T07:56:26.999Z</time></trkpt><trkpt lat="43.79627967585424" lon="11.351246915670837"><ele>288.0</ele><time>2026-04-23T07:56:28.999Z</time></trkpt><trkpt lat="43.79626671908434" lon="11.351367521860864"><ele>288.0</ele><time>2026-04-23T07:56:30.999Z</time></trkpt><trkpt lat="43.79623995144685" lon="11.351511551799824"><ele>288.0</ele><time>2026-04-23T07:56:32.999Z</time></trkpt><trkpt lat="43.796225233803874" lon="11.351609198117135"><ele>288.0</ele><time>2026-04-23T07:56:33.999Z</time></trkpt><trkpt lat="43.79619402758264" lon="11.351704810855763"><ele>288.0</ele><time>2026-04-23T07:56:35.999Z</time></trkpt><trkpt lat="43.79612494287624" lon="11.351751293121481"><ele>288.0</ele><time>2026-04-23T07:56:37.999Z</time></trkpt><trkpt lat="43.79603654979665" lon="11.351730394016716"><ele>282.4</ele><time>2026-04-23T07:56:39.999Z</time></trkpt><trkpt lat="43.795946569346896" lon="11.351699662813369"><ele>276.8</ele><time>2026-04-23T07:56:41.999Z</time></trkpt><trkpt lat="43.79586218423784" lon="11.351737565408415"><ele>271.2</ele><time>2026-04-23T07:56:43.999Z</time></trkpt><trkpt lat="43.79579547031748" lon="11.35183496645064"><ele>265.6</ele><time>2026-04-23T07:56:45.999Z</time></trkpt><trkpt lat="43.795809736162646" lon="11.351981914665249"><ele>260.0</ele><time>2026-04-23T07:56:47.999Z</time></trkpt><trkpt lat="43.79584476113117" lon="11.352102316023228"><ele>257.83333333333337</ele><time>2026-04-23T07:56:49.999Z</time></trkpt><trkpt lat="43.795884543688715" lon="11.352206543969006"><ele>255.66666666666669</ele><time>2026-04-23T07:56:51.999Z</time></trkpt><trkpt lat="43.79589675024604" lon="11.352307646307688"><ele>253.5</ele><time>2026-04-23T07:56:54.999Z</time></trkpt><trkpt lat="43.795822570000325" lon="11.352344445428672"><ele>251.33333333333331</ele><time>2026-04-23T07:56:57.999Z</time></trkpt><trkpt lat="43.79575572239817" lon="11.352347027265244"><ele>249.16666666666666</ele><time>2026-04-23T07:56:58.999Z</time></trkpt><trkpt lat="43.795655591299024" lon="11.35236681056244"><ele>247.0</ele><time>2026-04-23T07:57:00.999Z</time></trkpt><trkpt lat="43.795597975420606" lon="11.352418164217703"><ele>247.0</ele><time>2026-04-23T07:57:11.999Z</time></trkpt><trkpt lat="43.79549739920617" lon="11.352462573714126"><ele>247.0</ele><time>2026-04-23T07:57:13.998Z</time></trkpt><trkpt lat="43.79544821384915" lon="11.35252848336932"><ele>247.0</ele><time>2026-04-23T07:57:14.998Z</time></trkpt><trkpt lat="43.79535416115817" lon="11.352614612409024"><ele>247.0</ele><time>2026-04-23T07:57:16.998Z</time></trkpt><trkpt lat="43.79529059659224" lon="11.352682325606377"><ele>247.0</ele><time>2026-04-23T07:57:18.998Z</time></trkpt><trkpt lat="43.79533225117082" lon="11.35282751928819"><ele>247.0</ele><time>2026-04-23T07:57:21.998Z</time></trkpt><trkpt lat="43.79544798260133" lon="11.352806590295144"><ele>247.0</ele><time>2026-04-23T07:57:23.998Z</time></trkpt><trkpt lat="43.795511059995164" lon="11.352790944943584"><ele>247.0</ele><time>2026-04-23T07:57:25Z</time></trkpt><trkpt lat="43.79562455714874" lon="11.35279680735324"><ele>247.0</ele><time>2026-04-23T07:57:27Z</time></trkpt><trkpt lat="43.79573289011024" lon="11.35282401765162"><ele>247.0</ele><time>2026-04-23T07:57:29Z</time></trkpt><trkpt lat="43.79582996076387" lon="11.352895101293417"><ele>247.0</ele><time>2026-04-23T07:57:31Z</time></trkpt><trkpt lat="43.79592716169005" lon="11.352964877795074"><ele>247.0</ele><time>2026-04-23T07:57:33Z</time></trkpt><trkpt lat="43.79600843918645" lon="11.35306121426441"><ele>247.0</ele><time>2026-04-23T07:57:35Z</time></trkpt><trkpt lat="43.79605141388769" lon="11.353132614482194"><ele>247.0</ele><time>2026-04-23T07:57:36Z</time></trkpt><trkpt lat="43.79610832005323" lon="11.353223469039243"><ele>247.0</ele><time>2026-04-23T07:57:37Z</time></trkpt><trkpt lat="43.796171046376216" lon="11.353302775815656"><ele>245.66666666666666</ele><time>2026-04-23T07:57:38Z</time></trkpt><trkpt lat="43.79621219162501" lon="11.35340053946189"><ele>244.33333333333331</ele><time>2026-04-23T07:57:39Z</time></trkpt><trkpt lat="43.7962780783308" lon="11.353477370061713"><ele>243.0</ele><time>2026-04-23T07:57:40Z</time></trkpt><trkpt lat="43.79632328844326" lon="11.353567344098598"><ele>241.66666666666669</ele><time>2026-04-23T07:57:41Z</time></trkpt><trkpt lat="43.79637284981248" lon="11.353653823099815"><ele>240.33333333333334</ele><time>2026-04-23T07:57:42Z</time></trkpt><trkpt lat="43.79641179148613" lon="11.353747734903271"><ele>239.0</ele><time>2026-04-23T07:57:43Z</time></trkpt><trkpt lat="43.7964635963583" lon="11.353811779565804"><ele>236.6</ele><time>2026-04-23T07:57:44Z</time></trkpt><trkpt lat="43.79650400741989" lon="11.353882676469164"><ele>234.2</ele><time>2026-04-23T07:57:45Z</time></trkpt><trkpt lat="43.79658544273179" lon="11.353999670343622"><ele>231.79999999999998</ele><time>2026-04-23T07:57:47Z</time></trkpt><trkpt lat="43.79664257677051" lon="11.354053227308606"><ele>229.39999999999998</ele><time>2026-04-23T07:57:48Z</time></trkpt><trkpt lat="43.7967255572508" lon="11.354112696164137"><ele>227.0</ele><time>2026-04-23T07:57:49Z</time></trkpt><trkpt lat="43.79682094710795" lon="11.354174563230195"><ele>228.33333333333334</ele><time>2026-04-23T07:57:50Z</time></trkpt><trkpt lat="43.79689748727005" lon="11.354251474285922"><ele>229.66666666666669</ele><time>2026-04-23T07:57:51Z</time></trkpt><trkpt lat="43.79697686983071" lon="11.354296485191055"><ele>231.0</ele><time>2026-04-23T07:57:52Z</time></trkpt><trkpt lat="43.79705072175542" lon="11.354357608890371"><ele>232.33333333333331</ele><time>2026-04-23T07:57:53Z</time></trkpt><trkpt lat="43.79712949695806" lon="11.354413522656856"><ele>233.66666666666666</ele><time>2026-04-23T07:57:54Z</time></trkpt><trkpt lat="43.79720992005979" lon="11.354480766499691"><ele>235.0</ele><time>2026-04-23T07:57:55Z</time></trkpt><trkpt lat="43.79727832121333" lon="11.354555485520208"><ele>234.99999999999997</ele><time>2026-04-23T07:57:56Z</time></trkpt><trkpt lat="43.79734727520798" lon="11.354587940025752"><ele>235.0</ele><time>2026-04-23T07:57:57Z</time></trkpt><trkpt lat="43.79740155224446" lon="11.354635301572198"><ele>235.0</ele><time>2026-04-23T07:57:58Z</time></trkpt><trkpt lat="43.79747819193839" lon="11.354697669570943"><ele>235.0</ele><time>2026-04-23T07:58:00Z</time></trkpt><trkpt lat="43.79751971471395" lon="11.354773012367934"><ele>234.99999999999997</ele><time>2026-04-23T07:58:02Z</time></trkpt><trkpt lat="43.797537183999346" lon="11.354883027597028"><ele>235.0</ele><time>2026-04-23T07:58:04Z</time></trkpt><trkpt lat="43.79752495286812" lon="11.354985677334767"><ele>232.8</ele><time>2026-04-23T07:58:06Z</time></trkpt><trkpt lat="43.7974631504549" lon="11.355106955762995"><ele>230.6</ele><time>2026-04-23T07:58:08Z</time></trkpt><trkpt lat="43.79741281160807" lon="11.35517204090258"><ele>228.39999999999998</ele><time>2026-04-23T07:58:09Z</time></trkpt><trkpt lat="43.79733393704993" lon="11.355270733689384"><ele>226.2</ele><time>2026-04-23T07:58:11Z</time></trkpt><trkpt lat="43.79726768460598" lon="11.355359864907847"><ele>224.0</ele><time>2026-04-23T07:58:13Z</time></trkpt><trkpt lat="43.79748534493261" lon="11.355298953138117"><ele>224.00000000000003</ele><time>2026-04-23T07:58:21.999Z</time></trkpt><trkpt lat="43.79754911334935" lon="11.355257642337321"><ele>224.0</ele><time>2026-04-23T07:58:22.999Z</time></trkpt><trkpt lat="43.79763043463625" lon="11.355195482565266"><ele>224.0</ele><time>2026-04-23T07:58:24.999Z</time></trkpt><trkpt lat="43.797726014787784" lon="11.35513899883595"><ele>224.0</ele><time>2026-04-23T07:58:26.999Z</time></trkpt><trkpt lat="43.79779352873261" lon="11.355178169845313"><ele>224.00000000000003</ele><time>2026-04-23T07:58:37.999Z</time></trkpt><trkpt lat="43.7977771294078" lon="11.355326649925065"><ele>224.0</ele><time>2026-04-23T07:58:39.999Z</time></trkpt><trkpt lat="43.79774225089555" lon="11.355408434618411"><ele>223.16666666666669</ele><time>2026-04-23T07:58:40.999Z</time></trkpt><trkpt lat="43.7976794972301" lon="11.355487591164747"><ele>222.33333333333334</ele><time>2026-04-23T07:58:41.999Z</time></trkpt><trkpt lat="43.79764924559125" lon="11.355574650110936"><ele>221.5</ele><time>2026-04-23T07:58:42.999Z</time></trkpt><trkpt lat="43.79761944730685" lon="11.355653820189211"><ele>220.66666666666669</ele><time>2026-04-23T07:58:43.999Z</time></trkpt><trkpt lat="43.79759810295174" lon="11.355741782213101"><ele>219.83333333333334</ele><time>2026-04-23T07:58:44.999Z</time></trkpt><trkpt lat="43.79754548407104" lon="11.355874580512356"><ele>219.0</ele><time>2026-04-23T07:58:46.999Z</time></trkpt><trkpt lat="43.79746159735924" lon="11.35604754164932"><ele>219.0</ele><time>2026-04-23T07:58:48.999Z</time></trkpt><trkpt lat="43.797401439317944" lon="11.356133211664485"><ele>219.0</ele><time>2026-04-23T07:58:49.999Z</time></trkpt><trkpt lat="43.79737482663051" lon="11.35623114020887"><ele>219.0</ele><time>2026-04-23T07:58:50.999Z</time></trkpt><trkpt lat="43.797341591484646" lon="11.356316760145386"><ele>219.0</ele><time>2026-04-23T07:58:51.999Z</time></trkpt><trkpt lat="43.79728875196172" lon="11.356404174116978"><ele>219.0</ele><time>2026-04-23T07:58:53.999Z</time></trkpt><trkpt lat="43.797223611177344" lon="11.356445472144445"><ele>219.0</ele><time>2026-04-23T07:58:54.999Z</time></trkpt><trkpt lat="43.7971470773301" lon="11.356530259948217"><ele>219.0</ele><time>2026-04-23T07:58:55.999Z</time></trkpt><trkpt lat="43.79703424453842" lon="11.35657309514256"><ele>218.99999999999997</ele><time>2026-04-23T07:58:56.999Z</time></trkpt><trkpt lat="43.79694033340364" lon="11.356591700005687"><ele>218.99999999999997</ele><time>2026-04-23T07:58:57.999Z</time></trkpt><trkpt lat="43.7968254195367" lon="11.356615537393857"><ele>219.0</ele><time>2026-04-23T07:58:58.999Z</time></trkpt><trkpt lat="43.79671856990464" lon="11.356643634614072"><ele>219.0</ele><time>2026-04-23T07:58:59.999Z</time></trkpt><trkpt lat="43.796615290966294" lon="11.3567051259903"><ele>219.0</ele><time>2026-04-23T07:59:00.999Z</time></trkpt><trkpt lat="43.79651829133948" lon="11.356739112865524"><ele>218.99999999999997</ele><time>2026-04-23T07:59:01.999Z</time></trkpt><trkpt lat="43.796432752959916" lon="11.356754696390945"><ele>218.99999999999997</ele><time>2026-04-23T07:59:02.999Z</time></trkpt><trkpt lat="43.7963362489916" lon="11.356771207251693"><ele>219.0</ele><time>2026-04-23T07:59:03.999Z</time></trkpt><trkpt lat="43.79625369190019" lon="11.356784798006807"><ele>219.0</ele><time>2026-04-23T07:59:04.999Z</time></trkpt><trkpt lat="43.79616506501071" lon="11.356788354112405"><ele>219.0</ele><time>2026-04-23T07:59:05.999Z</time></trkpt><trkpt lat="43.79606062662917" lon="11.356805542427548"><ele>218.99999999999997</ele><time>2026-04-23T07:59:06.999Z</time></trkpt><trkpt lat="43.79597839129203" lon="11.356814088359"><ele>218.99999999999997</ele><time>2026-04-23T07:59:07.999Z</time></trkpt><trkpt lat="43.7958808215852" lon="11.356846007717786"><ele>219.0</ele><time>2026-04-23T07:59:08.999Z</time></trkpt><trkpt lat="43.79580893885075" lon="11.356873845923348"><ele>219.0</ele><time>2026-04-23T07:59:09.999Z</time></trkpt><trkpt lat="43.79571973671724" lon="11.356935951183786"><ele>217.33333333333334</ele><time>2026-04-23T07:59:11.999Z</time></trkpt><trkpt lat="43.79561687737072" lon="11.35697275632004"><ele>215.66666666666669</ele><time>2026-04-23T07:59:13.999Z</time></trkpt><trkpt lat="43.79555208104769" lon="11.357000785368944"><ele>214.0</ele><time>2026-04-23T07:59:14.999Z</time></trkpt><trkpt lat="43.79549842741073" lon="11.357052101776326"><ele>212.33333333333334</ele><time>2026-04-23T07:59:15.999Z</time></trkpt><trkpt lat="43.79543360148088" lon="11.357169409572325"><ele>210.66666666666669</ele><time>2026-04-23T07:59:17.999Z</time></trkpt><trkpt lat="43.79538293645991" lon="11.357282858968237"><ele>209.0</ele><time>2026-04-23T07:59:19.999Z</time></trkpt><trkpt lat="43.795300574696746" lon="11.3573648699373"><ele>208.25</ele><time>2026-04-23T07:59:21.999Z</time></trkpt><trkpt lat="43.79522089140602" lon="11.357445118724183"><ele>207.5</ele><time>2026-04-23T07:59:22.999Z</time></trkpt><trkpt lat="43.79512527670271" lon="11.357569096072487"><ele>206.75</ele><time>2026-04-23T07:59:23.999Z</time></trkpt><trkpt lat="43.795016732471346" lon="11.357667562475054"><ele>206.0</ele><time>2026-04-23T07:59:24.999Z</time></trkpt><trkpt lat="43.79493794486935" lon="11.357764614355844"><ele>206.0</ele><time>2026-04-23T07:59:25.999Z</time></trkpt><trkpt lat="43.79487210079381" lon="11.35785537621953"><ele>206.0</ele><time>2026-04-23T07:59:26.999Z</time></trkpt><trkpt lat="43.794811001812974" lon="11.357933611238"><ele>206.0</ele><time>2026-04-23T07:59:27.999Z</time></trkpt><trkpt lat="43.79473628866895" lon="11.358014742728258"><ele>206.0</ele><time>2026-04-23T07:59:28.999Z</time></trkpt><trkpt lat="43.794659713974106" lon="11.35810020711255"><ele>206.0</ele><time>2026-04-23T07:59:29.999Z</time></trkpt><trkpt lat="43.794580899566185" lon="11.358190659944995"><ele>204.4</ele><time>2026-04-23T07:59:31Z</time></trkpt><trkpt lat="43.79450946870776" lon="11.358279703611847"><ele>202.8</ele><time>2026-04-23T07:59:32Z</time></trkpt><trkpt lat="43.79444298667882" lon="11.358364427556703"><ele>201.20000000000002</ele><time>2026-04-23T07:59:33Z</time></trkpt><trkpt lat="43.79437828675151" lon="11.358445225039373"><ele>199.60000000000002</ele><time>2026-04-23T07:59:34Z</time></trkpt><trkpt lat="43.79429034865234" lon="11.358526756999694"><ele>198.0</ele><time>2026-04-23T07:59:35Z</time></trkpt><trkpt lat="43.79421794335314" lon="11.358613701065448"><ele>198.0</ele><time>2026-04-23T07:59:36Z</time></trkpt><trkpt lat="43.79415580084031" lon="11.358689949039638"><ele>198.0</ele><time>2026-04-23T07:59:37Z</time></trkpt><trkpt lat="43.79409678163802" lon="11.358764959264931"><ele>198.0</ele><time>2026-04-23T07:59:38Z</time></trkpt><trkpt lat="43.79404485879254" lon="11.358852195307025"><ele>198.0</ele><time>2026-04-23T07:59:39Z</time></trkpt><trkpt lat="43.79397072208492" lon="11.35889168466593"><ele>198.0</ele><time>2026-04-23T07:59:40Z</time></trkpt><trkpt lat="43.79390470441255" lon="11.358912424350894"><ele>198.0</ele><time>2026-04-23T07:59:41Z</time></trkpt><trkpt lat="43.793818711830916" lon="11.35894046806797"><ele>197.0</ele><time>2026-04-23T07:59:42Z</time></trkpt><trkpt lat="43.79373909260311" lon="11.3589680426029"><ele>196.0</ele><time>2026-04-23T07:59:43Z</time></trkpt><trkpt lat="43.793664916165184" lon="11.358991631712566"><ele>195.0</ele><time>2026-04-23T07:59:44Z</time></trkpt><trkpt lat="43.793586505124686" lon="11.359014240542614"><ele>194.0</ele><time>2026-04-23T07:59:45Z</time></trkpt><trkpt lat="43.79350222130778" lon="11.359037377710946"><ele>193.0</ele><time>2026-04-23T07:59:46Z</time></trkpt><trkpt lat="43.79341390161725" lon="11.359067074932382"><ele>192.0</ele><time>2026-04-23T07:59:47Z</time></trkpt><trkpt lat="43.793334363500875" lon="11.359111418869718"><ele>192.0</ele><time>2026-04-23T07:59:48Z</time></trkpt><trkpt lat="43.79324141544589" lon="11.359084731749059"><ele>192.0</ele><time>2026-04-23T07:59:49Z</time></trkpt><trkpt lat="43.793140015099645" lon="11.359052126575945"><ele>192.0</ele><time>2026-04-23T07:59:50Z</time></trkpt><trkpt lat="43.79302830144581" lon="11.359046499122476"><ele>192.0</ele><time>2026-04-23T07:59:51Z</time></trkpt><trkpt lat="43.79293278083246" lon="11.359010311759576"><ele>192.0</ele><time>2026-04-23T07:59:52Z</time></trkpt><trkpt lat="43.79284119286554" lon="11.359000996676086"><ele>192.0</ele><time>2026-04-23T07:59:53Z</time></trkpt><trkpt lat="43.79275112040653" lon="11.359029003965743"><ele>192.0</ele><time>2026-04-23T07:59:54Z</time></trkpt><trkpt lat="43.79267238583604" lon="11.359028591376502"><ele>192.0</ele><time>2026-04-23T07:59:55Z</time></trkpt><trkpt lat="43.79260555965925" lon="11.359028258943743"><ele>192.0</ele><time>2026-04-23T07:59:56Z</time></trkpt><trkpt lat="43.79250024880882" lon="11.359060892980771"><ele>192.0</ele><time>2026-04-23T07:59:58Z</time></trkpt><trkpt lat="43.79243558863037" lon="11.35910911534616"><ele>192.0</ele><time>2026-04-23T08:00:00Z</time></trkpt><trkpt lat="43.79237573503401" lon="11.35917244702841"><ele>191.8</ele><time>2026-04-23T08:00:02Z</time></trkpt><trkpt lat="43.79233232898855" lon="11.3592683364416"><ele>191.6</ele><time>2026-04-23T08:00:04Z</time></trkpt><trkpt lat="43.79227462801137" lon="11.35936306584064"><ele>191.4</ele><time>2026-04-23T08:00:06Z</time></trkpt><trkpt lat="43.792245204720786" lon="11.359456552320992"><ele>191.20000000000002</ele><time>2026-04-23T08:00:07Z</time></trkpt><trkpt lat="43.79217835110569" lon="11.35955778051095"><ele>191.0</ele><time>2026-04-23T08:00:08Z</time></trkpt><trkpt lat="43.792097741685346" lon="11.359685647275528"><ele>191.0</ele><time>2026-04-23T08:00:09Z</time></trkpt><trkpt lat="43.7920295238675" lon="11.359790627201187"><ele>191.0</ele><time>2026-04-23T08:00:10Z</time></trkpt><trkpt lat="43.79197569478505" lon="11.35987372755523"><ele>191.0</ele><time>2026-04-23T08:00:11Z</time></trkpt><trkpt lat="43.79191896359621" lon="11.35994054707437"><ele>191.0</ele><time>2026-04-23T08:00:12Z</time></trkpt><trkpt lat="43.791855250818" lon="11.360005261550613"><ele>191.0</ele><time>2026-04-23T08:00:13Z</time></trkpt><trkpt lat="43.79179186990797" lon="11.360068800859343"><ele>191.0</ele><time>2026-04-23T08:00:14Z</time></trkpt><trkpt lat="43.79171776434934" lon="11.360130328381727"><ele>191.0</ele><time>2026-04-23T08:00:15Z</time></trkpt><trkpt lat="43.791645832014204" lon="11.360195460506018"><ele>191.0</ele><time>2026-04-23T08:00:16Z</time></trkpt><trkpt lat="43.79155891322309" lon="11.360228629216614"><ele>191.0</ele><time>2026-04-23T08:00:17Z</time></trkpt><trkpt lat="43.79147431273732" lon="11.360275582940401"><ele>191.0</ele><time>2026-04-23T08:00:18Z</time></trkpt><trkpt lat="43.79139305499768" lon="11.360344543556131"><ele>191.0</ele><time>2026-04-23T08:00:19Z</time></trkpt><trkpt lat="43.79130299355692" lon="11.360370665987258"><ele>191.0</ele><time>2026-04-23T08:00:20Z</time></trkpt><trkpt lat="43.79123874836605" lon="11.360416802638058"><ele>191.0</ele><time>2026-04-23T08:00:21Z</time></trkpt><trkpt lat="43.791170252042036" lon="11.360445857751074"><ele>191.0</ele><time>2026-04-23T08:00:23Z</time></trkpt><trkpt lat="43.791242247172455" lon="11.36066764503837"><ele>191.0</ele><time>2026-04-23T08:00:32.999Z</time></trkpt><trkpt lat="43.79127668130953" lon="11.360794523541324"><ele>191.0</ele><time>2026-04-23T08:00:34.999Z</time></trkpt><trkpt lat="43.79133365727984" lon="11.36089104882221"><ele>193.16666666666666</ele><time>2026-04-23T08:00:36.999Z</time></trkpt><trkpt lat="43.79137086167721" lon="11.360981977732894"><ele>195.33333333333331</ele><time>2026-04-23T08:00:38.999Z</time></trkpt><trkpt lat="43.7914226357643" lon="11.361102317606377"><ele>197.5</ele><time>2026-04-23T08:00:40.999Z</time></trkpt><trkpt lat="43.791458088851044" lon="11.361177383101914"><ele>199.66666666666666</ele><time>2026-04-23T08:00:41.999Z</time></trkpt><trkpt lat="43.791493942217905" lon="11.361267642366156"><ele>201.83333333333334</ele><time>2026-04-23T08:00:42.999Z</time></trkpt><trkpt lat="43.79152229432955" lon="11.361357840574048"><ele>204.0</ele><time>2026-04-23T08:00:43.999Z</time></trkpt><trkpt lat="43.79157056695694" lon="11.361478703958197"><ele>206.2</ele><time>2026-04-23T08:00:45.999Z</time></trkpt><trkpt lat="43.79160160911453" lon="11.361568478304006"><ele>208.39999999999998</ele><time>2026-04-23T08:00:47.999Z</time></trkpt><trkpt lat="43.7917188811559" lon="11.36161473063188"><ele>210.6</ele><time>2026-04-23T08:00:57.999Z</time></trkpt><trkpt lat="43.79178071154068" lon="11.361644093855157"><ele>212.8</ele><time>2026-04-23T08:00:58.999Z</time></trkpt><trkpt lat="43.79188464984547" lon="11.361651903465722"><ele>215.0</ele><time>2026-04-23T08:00:59.999Z</time></trkpt><trkpt lat="43.791976658564344" lon="11.361681209235185"><ele>218.4</ele><time>2026-04-23T08:01:00.999Z</time></trkpt><trkpt lat="43.79206104993405" lon="11.361708764874978"><ele>221.8</ele><time>2026-04-23T08:01:01.999Z</time></trkpt><trkpt lat="43.79218702613678" lon="11.361744676322317"><ele>225.2</ele><time>2026-04-23T08:01:03.999Z</time></trkpt><trkpt lat="43.79227388419968" lon="11.36176376989009"><ele>228.6</ele><time>2026-04-23T08:01:04.999Z</time></trkpt><trkpt lat="43.79234127086539" lon="11.36178921596557"><ele>232.0</ele><time>2026-04-23T08:01:05.999Z</time></trkpt><trkpt lat="43.79242417980492" lon="11.361822965568171"><ele>232.0</ele><time>2026-04-23T08:01:06.999Z</time></trkpt><trkpt lat="43.79250834935282" lon="11.361841633700598"><ele>232.0</ele><time>2026-04-23T08:01:07.999Z</time></trkpt><trkpt lat="43.79263273019916" lon="11.36186591453138"><ele>232.0</ele><time>2026-04-23T08:01:09.999Z</time></trkpt><trkpt lat="43.792730830651365" lon="11.361801179132817"><ele>232.0</ele><time>2026-04-23T08:01:11.999Z</time></trkpt><trkpt lat="43.79277093002256" lon="11.361722286527844"><ele>232.0</ele><time>2026-04-23T08:01:12.999Z</time></trkpt><trkpt lat="43.79283930595396" lon="11.361624537940951"><ele>234.0</ele><time>2026-04-23T08:01:14.999Z</time></trkpt><trkpt lat="43.7929523256091" lon="11.36173704979258"><ele>236.0</ele><time>2026-04-23T08:01:17.999Z</time></trkpt><trkpt lat="43.79301890940818" lon="11.361732948971802"><ele>238.0</ele><time>2026-04-23T08:01:18.999Z</time></trkpt><trkpt lat="43.793060720613234" lon="11.361834961390624"><ele>240.0</ele><time>2026-04-23T08:01:19.999Z</time></trkpt><trkpt lat="43.7931296160168" lon="11.361890125294677"><ele>242.0</ele><time>2026-04-23T08:01:21.999Z</time></trkpt><trkpt lat="43.79319952858092" lon="11.36195599172218"><ele>242.00000000000003</ele><time>2026-04-23T08:01:26.999Z</time></trkpt><trkpt lat="43.793269362249255" lon="11.362003767482534"><ele>242.0</ele><time>2026-04-23T08:01:29.999Z</time></trkpt><trkpt lat="43.793340347272796" lon="11.362052330930688"><ele>242.0</ele><time>2026-04-23T08:01:31.999Z</time></trkpt><trkpt lat="43.79340828036585" lon="11.362100993831469"><ele>242.0</ele><time>2026-04-23T08:01:33.999Z</time></trkpt><trkpt lat="43.79348778875962" lon="11.362160925110759"><ele>242.00000000000003</ele><time>2026-04-23T08:01:35.999Z</time></trkpt><trkpt lat="43.793557211583966" lon="11.362247707058422"><ele>242.0</ele><time>2026-04-23T08:01:37.999Z</time></trkpt><trkpt lat="43.79367717566745" lon="11.362354451558915"><ele>244.83333333333334</ele><time>2026-04-23T08:01:48Z</time></trkpt><trkpt lat="43.79375105790067" lon="11.362368483058434"><ele>247.66666666666669</ele><time>2026-04-23T08:01:49Z</time></trkpt><trkpt lat="43.79382042193674" lon="11.36239466126272"><ele>250.5</ele><time>2026-04-23T08:01:50Z</time></trkpt><trkpt lat="43.7939130221896" lon="11.362383110669217"><ele>253.33333333333331</ele><time>2026-04-23T08:01:52Z</time></trkpt><trkpt lat="43.79398437742423" lon="11.362399848766955"><ele>256.16666666666663</ele><time>2026-04-23T08:01:54Z</time></trkpt><trkpt lat="43.79406364934177" lon="11.36241084180421"><ele>259.0</ele><time>2026-04-23T08:01:57Z</time></trkpt><trkpt lat="43.794132134540234" lon="11.36248296009159"><ele>259.0</ele><time>2026-04-23T08:01:59Z</time></trkpt><trkpt lat="43.794198366444476" lon="11.362540273236192"><ele>259.0</ele><time>2026-04-23T08:02:01Z</time></trkpt><trkpt lat="43.79424299888658" lon="11.36265542026145"><ele>259.0</ele><time>2026-04-23T08:02:03Z</time></trkpt><trkpt lat="43.79433488497889" lon="11.362722450245164"><ele>259.0</ele><time>2026-04-23T08:02:06Z</time></trkpt><trkpt lat="43.79440704864158" lon="11.362776622342013"><ele>259.0</ele><time>2026-04-23T08:02:07.999Z</time></trkpt><trkpt lat="43.79445202436381" lon="11.362876705137664"><ele>259.0</ele><time>2026-04-23T08:02:10.999Z</time></trkpt><trkpt lat="43.794513048058874" lon="11.362953716542057"><ele>261.5</ele><time>2026-04-23T08:02:12.999Z</time></trkpt><trkpt lat="43.79457209921602" lon="11.362998391619962"><ele>264.0</ele><time>2026-04-23T08:02:14.999Z</time></trkpt><trkpt lat="43.79464452570326" lon="11.363050552439319"><ele>266.5</ele><time>2026-04-23T08:02:16.999Z</time></trkpt><trkpt lat="43.79470486196543" lon="11.363178969915943"><ele>269.0</ele><time>2026-04-23T08:02:18.999Z</time></trkpt><trkpt lat="43.79475895123608" lon="11.363236141327924"><ele>271.5</ele><time>2026-04-23T08:02:20.999Z</time></trkpt><trkpt lat="43.794833478486304" lon="11.363318483595295"><ele>274.0</ele><time>2026-04-23T08:02:22.999Z</time></trkpt><trkpt lat="43.79492102559535" lon="11.363430930111912"><ele>274.66666666666663</ele><time>2026-04-23T08:02:24.999Z</time></trkpt><trkpt lat="43.7949771425395" lon="11.363498793463505"><ele>275.3333333333333</ele><time>2026-04-23T08:02:25.999Z</time></trkpt><trkpt lat="43.79502513827162" lon="11.36356324817859"><ele>276.0</ele><time>2026-04-23T08:02:26.999Z</time></trkpt><trkpt lat="43.795079022766956" lon="11.363635624413474"><ele>276.6666666666667</ele><time>2026-04-23T08:02:27.999Z</time></trkpt><trkpt lat="43.79514821151233" lon="11.363731038576137"><ele>277.33333333333337</ele><time>2026-04-23T08:02:29.999Z</time></trkpt><trkpt lat="43.79523235698051" lon="11.363820732326971"><ele>278.0</ele><time>2026-04-23T08:02:31.999Z</time></trkpt><trkpt lat="43.795308462371665" lon="11.363931785609847"><ele>281.33333333333337</ele><time>2026-04-23T08:02:33.999Z</time></trkpt><trkpt lat="43.79536791822458" lon="11.364018467264168"><ele>284.6666666666667</ele><time>2026-04-23T08:02:35.999Z</time></trkpt><trkpt lat="43.795434955701566" lon="11.364087861541208"><ele>288.0</ele><time>2026-04-23T08:02:37.999Z</time></trkpt><trkpt lat="43.795496347018535" lon="11.364124663692719"><ele>291.3333333333333</ele><time>2026-04-23T08:02:39.999Z</time></trkpt><trkpt lat="43.7955468534077" lon="11.364242899682797"><ele>294.66666666666663</ele><time>2026-04-23T08:02:42.999Z</time></trkpt><trkpt lat="43.795596184355155" lon="11.364316088281223"><ele>298.0</ele><time>2026-04-23T08:02:45.999Z</time></trkpt><trkpt lat="43.7955291037387" lon="11.36422962245819"><ele>298.0</ele><time>2026-04-23T08:03:28.999Z</time></trkpt><trkpt lat="43.79550279382215" lon="11.364141281441123"><ele>298.0</ele><time>2026-04-23T08:03:30.999Z</time></trkpt><trkpt lat="43.79542762337155" lon="11.364088626153263"><ele>298.0</ele><time>2026-04-23T08:03:33.999Z</time></trkpt><trkpt lat="43.795361733115904" lon="11.364001586371062"><ele>298.0</ele><time>2026-04-23T08:03:35.999Z</time></trkpt><trkpt lat="43.79531521732883" lon="11.363939032904993"><ele>298.0</ele><time>2026-04-23T08:03:37.999Z</time></trkpt><trkpt lat="43.79526756921671" lon="11.363858538540192"><ele>298.0</ele><time>2026-04-23T08:03:39.999Z</time></trkpt><trkpt lat="43.79519931283265" lon="11.3637706456019"><ele>294.0</ele><time>2026-04-23T08:03:41.999Z</time></trkpt><trkpt lat="43.79513367515267" lon="11.363699528415415"><ele>290.0</ele><time>2026-04-23T08:03:43.999Z</time></trkpt><trkpt lat="43.79507302651789" lon="11.363617155247793"><ele>286.0</ele><time>2026-04-23T08:03:45.999Z</time></trkpt><trkpt lat="43.79500135807896" lon="11.363528255062786"><ele>282.0</ele><time>2026-04-23T08:03:47.999Z</time></trkpt><trkpt lat="43.79493465723453" lon="11.363439673605663"><ele>278.0</ele><time>2026-04-23T08:03:49.999Z</time></trkpt><trkpt lat="43.79486335365621" lon="11.363349539848636"><ele>278.0</ele><time>2026-04-23T08:03:51.999Z</time></trkpt><trkpt lat="43.79478976301442" lon="11.363265418832906"><ele>278.0</ele><time>2026-04-23T08:03:53.999Z</time></trkpt><trkpt lat="43.79472386636588" lon="11.363209533756338"><ele>278.0</ele><time>2026-04-23T08:03:57Z</time></trkpt><trkpt lat="43.794675758385196" lon="11.363118390294101"><ele>278.0</ele><time>2026-04-23T08:04:01Z</time></trkpt><trkpt lat="43.79462050934654" lon="11.363022276982758"><ele>278.0</ele><time>2026-04-23T08:04:04Z</time></trkpt><trkpt lat="43.79455065680111" lon="11.363006584806536"><ele>278.0</ele><time>2026-04-23T08:04:08Z</time></trkpt><trkpt lat="43.794489392500964" lon="11.362934882093588"><ele>277.33333333333337</ele><time>2026-04-23T08:04:10Z</time></trkpt><trkpt lat="43.79442896211944" lon="11.362847724664366"><ele>276.6666666666667</ele><time>2026-04-23T08:04:13Z</time></trkpt><trkpt lat="43.79435869759591" lon="11.362740628273851"><ele>276.0</ele><time>2026-04-23T08:04:17Z</time></trkpt><trkpt lat="43.79429941208929" lon="11.362692231136714"><ele>275.3333333333333</ele><time>2026-04-23T08:04:19Z</time></trkpt><trkpt lat="43.794214511502986" lon="11.362695359772884"><ele>274.66666666666663</ele><time>2026-04-23T08:04:23Z</time></trkpt><trkpt lat="43.794190240755924" lon="11.36277791934073"><ele>274.0</ele><time>2026-04-23T08:04:27Z</time></trkpt><trkpt lat="43.79421227126038" lon="11.362695051684616"><ele>271.5</ele><time>2026-04-23T08:04:53.999Z</time></trkpt><trkpt lat="43.794249024151746" lon="11.362579206491828"><ele>269.0</ele><time>2026-04-23T08:04:56.999Z</time></trkpt><trkpt lat="43.79425758979732" lon="11.362473501513634"><ele>266.5</ele><time>2026-04-23T08:04:57.999Z</time></trkpt><trkpt lat="43.79415068579102" lon="11.362486327494043"><ele>264.0</ele><time>2026-04-23T08:04:59.999Z</time></trkpt><trkpt lat="43.79408387362853" lon="11.36244891537408"><ele>261.5</ele><time>2026-04-23T08:05:01.999Z</time></trkpt><trkpt lat="43.79401358305904" lon="11.362439992533659"><ele>259.0</ele><time>2026-04-23T08:05:04.999Z</time></trkpt><trkpt lat="43.79393899913373" lon="11.36243497417498"><ele>259.0</ele><time>2026-04-23T08:05:07.999Z</time></trkpt><trkpt lat="43.79385566484848" lon="11.362398369588542"><ele>259.0</ele><time>2026-04-23T08:05:09.999Z</time></trkpt><trkpt lat="43.79378879314165" lon="11.362394771942236"><ele>259.0</ele><time>2026-04-23T08:05:11.999Z</time></trkpt><trkpt lat="43.79371747558842" lon="11.362387259327747"><ele>259.0</ele><time>2026-04-23T08:05:13.999Z</time></trkpt><trkpt lat="43.79366249350036" lon="11.362343570799645"><ele>259.0</ele><time>2026-04-23T08:05:24.999Z</time></trkpt><trkpt lat="43.79359767104248" lon="11.362332484623403"><ele>259.0</ele><time>2026-04-23T08:05:29.999Z</time></trkpt><trkpt lat="43.793595490035464" lon="11.362440643913358"><ele>259.0</ele><time>2026-04-23T08:05:34.999Z</time></trkpt><trkpt lat="43.79364323056557" lon="11.362505565841792"><ele>259.0</ele><time>2026-04-23T08:05:36.999Z</time></trkpt><trkpt lat="43.79371110918819" lon="11.362583290585555"><ele>259.0</ele><time>2026-04-23T08:05:38.999Z</time></trkpt><trkpt lat="43.79376409801443" lon="11.362692568194761"><ele>259.0</ele><time>2026-04-23T08:05:40.999Z</time></trkpt><trkpt lat="43.793835909055105" lon="11.362798346826331"><ele>259.0</ele><time>2026-04-23T08:05:42.999Z</time></trkpt><trkpt lat="43.79390364719985" lon="11.362890510188805"><ele>259.0</ele><time>2026-04-23T08:05:44.999Z</time></trkpt><trkpt lat="43.79394853546948" lon="11.362966175224322"><ele>259.0</ele><time>2026-04-23T08:05:46.999Z</time></trkpt><trkpt lat="43.7940054220215" lon="11.36304487465053"><ele>259.0</ele><time>2026-04-23T08:05:49Z</time></trkpt><trkpt lat="43.79406898826197" lon="11.363127470482322"><ele>259.0</ele><time>2026-04-23T08:05:51Z</time></trkpt><trkpt lat="43.79411376198723" lon="11.363214241754527"><ele>259.0</ele><time>2026-04-23T08:05:54Z</time></trkpt><trkpt lat="43.794136137595196" lon="11.363306782779013"><ele>259.0</ele><time>2026-04-23T08:05:56Z</time></trkpt><trkpt lat="43.79415063297329" lon="11.363410631088868"><ele>259.0</ele><time>2026-04-23T08:05:58Z</time></trkpt><trkpt lat="43.7941754722081" lon="11.36354707686017"><ele>259.0</ele><time>2026-04-23T08:06:01Z</time></trkpt><trkpt lat="43.79419481481883" lon="11.363655715917103"><ele>259.0</ele><time>2026-04-23T08:06:03Z</time></trkpt><trkpt lat="43.7942316207301" lon="11.363758433814928"><ele>259.0</ele><time>2026-04-23T08:06:06Z</time></trkpt><trkpt lat="43.79424177752763" lon="11.363853950446336"><ele>259.0</ele><time>2026-04-23T08:06:08Z</time></trkpt><trkpt lat="43.794267676975714" lon="11.363959416831003"><ele>259.0</ele><time>2026-04-23T08:06:10Z</time></trkpt><trkpt lat="43.7942773309559" lon="11.364053011402582"><ele>259.0</ele><time>2026-04-23T08:06:12Z</time></trkpt><trkpt lat="43.79432162025299" lon="11.364140962937674"><ele>258.8333333333333</ele><time>2026-04-23T08:06:14Z</time></trkpt><trkpt lat="43.794336866387816" lon="11.364258898519813"><ele>258.66666666666663</ele><time>2026-04-23T08:06:18Z</time></trkpt><trkpt lat="43.79432929508456" lon="11.364373654636122"><ele>258.5</ele><time>2026-04-23T08:06:21Z</time></trkpt><trkpt lat="43.794281888295025" lon="11.36444622244391"><ele>258.3333333333333</ele><time>2026-04-23T08:06:23Z</time></trkpt><trkpt lat="43.794249258079816" lon="11.364523797014275"><ele>258.1666666666667</ele><time>2026-04-23T08:06:25Z</time></trkpt><trkpt lat="43.79421783491968" lon="11.36460227165276"><ele>258.0</ele><time>2026-04-23T08:06:26.999Z</time></trkpt><trkpt lat="43.794167016990976" lon="11.364699811561449"><ele>257.5</ele><time>2026-04-23T08:06:29.999Z</time></trkpt><trkpt lat="43.79410490855133" lon="11.364798142380677"><ele>257.0</ele><time>2026-04-23T08:06:31.999Z</time></trkpt><trkpt lat="43.794044053070884" lon="11.364838584304932"><ele>256.5</ele><time>2026-04-23T08:06:33.999Z</time></trkpt><trkpt lat="43.79398636542057" lon="11.364896117483879"><ele>256.0</ele><time>2026-04-23T08:06:35.999Z</time></trkpt><trkpt lat="43.7939196398618" lon="11.364984359860715"><ele>255.5</ele><time>2026-04-23T08:06:37.999Z</time></trkpt><trkpt lat="43.79387724336914" lon="11.365092488026912"><ele>255.0</ele><time>2026-04-23T08:06:40.999Z</time></trkpt><trkpt lat="43.793853415712476" lon="11.365176802308245"><ele>255.0</ele><time>2026-04-23T08:06:42.999Z</time></trkpt><trkpt lat="43.79377839186" lon="11.365284337772588"><ele>255.0</ele><time>2026-04-23T08:06:44.999Z</time></trkpt><trkpt lat="43.79371669854765" lon="11.365342562442585"><ele>255.0</ele><time>2026-04-23T08:06:47.999Z</time></trkpt><trkpt lat="43.79374329184858" lon="11.36546390775011"><ele>255.0</ele><time>2026-04-23T08:06:50.999Z</time></trkpt><trkpt lat="43.793780005986584" lon="11.36555628801924"><ele>255.0</ele><time>2026-04-23T08:06:53.999Z</time></trkpt><trkpt lat="43.79384751405648" lon="11.365614047049498"><ele>255.0</ele><time>2026-04-23T08:06:56.999Z</time></trkpt><trkpt lat="43.79391603763864" lon="11.365699309845342"><ele>254.16666666666666</ele><time>2026-04-23T08:06:59.999Z</time></trkpt><trkpt lat="43.79398454479965" lon="11.365757585895171"><ele>253.33333333333331</ele><time>2026-04-23T08:07:01.999Z</time></trkpt><trkpt lat="43.794050150723756" lon="11.365779599738582"><ele>252.5</ele><time>2026-04-23T08:07:03.999Z</time></trkpt><trkpt lat="43.794137294494824" lon="11.365812414357782"><ele>251.66666666666666</ele><time>2026-04-23T08:07:05.999Z</time></trkpt><trkpt lat="43.794212399227156" lon="11.365837626571023"><ele>250.83333333333331</ele><time>2026-04-23T08:07:08.999Z</time></trkpt><trkpt lat="43.79429678821252" lon="11.36587252263913"><ele>250.0</ele><time>2026-04-23T08:07:11.999Z</time></trkpt><trkpt lat="43.79437908891519" lon="11.365887097228676"><ele>249.99999999999997</ele><time>2026-04-23T08:07:14.999Z</time></trkpt><trkpt lat="43.79445364979268" lon="11.365903907261451"><ele>250.0</ele><time>2026-04-23T08:07:16.999Z</time></trkpt><trkpt lat="43.7945320243932" lon="11.36591169830257"><ele>250.0</ele><time>2026-04-23T08:07:19.999Z</time></trkpt><trkpt lat="43.794606788946645" lon="11.36596028180259"><ele>250.0</ele><time>2026-04-23T08:07:22.999Z</time></trkpt><trkpt lat="43.794669313154635" lon="11.366051809097678"><ele>249.99999999999997</ele><time>2026-04-23T08:07:25.999Z</time></trkpt><trkpt lat="43.79471654154101" lon="11.366176682510332"><ele>250.0</ele><time>2026-04-23T08:07:27.999Z</time></trkpt><trkpt lat="43.79475146967285" lon="11.366252221562458"><ele>249.99999999999997</ele><time>2026-04-23T08:07:28.999Z</time></trkpt><trkpt lat="43.794781531942505" lon="11.366343258994426"><ele>250.0</ele><time>2026-04-23T08:07:29.999Z</time></trkpt><trkpt lat="43.794820092262086" lon="11.366438605929758"><ele>250.0</ele><time>2026-04-23T08:07:30.999Z</time></trkpt><trkpt lat="43.79485836945285" lon="11.366594712173784"><ele>250.0</ele><time>2026-04-23T08:07:32.999Z</time></trkpt><trkpt lat="43.79491878793097" lon="11.366696031076067"><ele>249.99999999999997</ele><time>2026-04-23T08:07:43.999Z</time></trkpt><trkpt lat="43.79497127974641" lon="11.366758009042094"><ele>250.0</ele><time>2026-04-23T08:07:45.999Z</time></trkpt><trkpt lat="43.79503554745539" lon="11.366829238462177"><ele>250.66666666666666</ele><time>2026-04-23T08:07:47.999Z</time></trkpt><trkpt lat="43.795099759423664" lon="11.366888613777508"><ele>251.33333333333331</ele><time>2026-04-23T08:07:49.999Z</time></trkpt><trkpt lat="43.79516824979613" lon="11.366940784744871"><ele>252.0</ele><time>2026-04-23T08:07:51.999Z</time></trkpt><trkpt lat="43.795232249967995" lon="11.366979543696052"><ele>252.66666666666669</ele><time>2026-04-23T08:07:53.999Z</time></trkpt><trkpt lat="43.79529803829888" lon="11.367059767573858"><ele>253.33333333333334</ele><time>2026-04-23T08:07:56.999Z</time></trkpt><trkpt lat="43.795337606234554" lon="11.367162861446038"><ele>254.0</ele><time>2026-04-23T08:07:59Z</time></trkpt><trkpt lat="43.795327754840635" lon="11.367286132470738"><ele>254.0</ele><time>2026-04-23T08:08:01Z</time></trkpt><trkpt lat="43.7953167055435" lon="11.367373425515682"><ele>253.99999999999997</ele><time>2026-04-23T08:08:02Z</time></trkpt><trkpt lat="43.79530922039391" lon="11.367482661788756"><ele>253.99999999999997</ele><time>2026-04-23T08:08:09Z</time></trkpt><trkpt lat="43.7952599575327" lon="11.367607569482512"><ele>254.0</ele><time>2026-04-23T08:08:11Z</time></trkpt><trkpt lat="43.79518192406262" lon="11.367752938413156"><ele>254.0</ele><time>2026-04-23T08:08:13Z</time></trkpt><trkpt lat="43.79510483575789" lon="11.367863404971214"><ele>250.33333333333334</ele><time>2026-04-23T08:08:15Z</time></trkpt><trkpt lat="43.795046506274716" lon="11.367976742320224"><ele>246.66666666666669</ele><time>2026-04-23T08:08:17Z</time></trkpt><trkpt lat="43.79503531049987" lon="11.3680896060574"><ele>243.0</ele><time>2026-04-23T08:08:21Z</time></trkpt><trkpt lat="43.79500039937306" lon="11.368218229484121"><ele>239.33333333333331</ele><time>2026-04-23T08:08:23Z</time></trkpt><trkpt lat="43.79496099290308" lon="11.368291620026952"><ele>235.66666666666666</ele><time>2026-04-23T08:08:25Z</time></trkpt><trkpt lat="43.79491863662506" lon="11.368362276940848"><ele>232.0</ele><time>2026-04-23T08:08:26Z</time></trkpt><trkpt lat="43.79487444506978" lon="11.36843528618447"><ele>231.99999999999997</ele><time>2026-04-23T08:08:27Z</time></trkpt><trkpt lat="43.79481216882673" lon="11.368548935750235"><ele>232.0</ele><time>2026-04-23T08:08:29Z</time></trkpt><trkpt lat="43.79483256052569" lon="11.368655003915517"><ele>232.0</ele><time>2026-04-23T08:08:31Z</time></trkpt><trkpt lat="43.794802515527195" lon="11.368740738843117"><ele>232.0</ele><time>2026-04-23T08:08:44Z</time></trkpt><trkpt lat="43.7948697510747" lon="11.368807407831737"><ele>231.99999999999997</ele><time>2026-04-23T08:08:46.999Z</time></trkpt><trkpt lat="43.79489905647249" lon="11.368950731413587"><ele>232.0</ele><time>2026-04-23T08:08:56.999Z</time></trkpt><trkpt lat="43.794931980438754" lon="11.369058550523173"><ele>231.66666666666666</ele><time>2026-04-23T08:08:58.999Z</time></trkpt><trkpt lat="43.79497630669071" lon="11.369191851805674"><ele>231.33333333333331</ele><time>2026-04-23T08:09:00.999Z</time></trkpt><trkpt lat="43.7950139669529" lon="11.36930757571459"><ele>231.0</ele><time>2026-04-23T08:09:02.999Z</time></trkpt><trkpt lat="43.79505477500411" lon="11.3694184860523"><ele>230.66666666666669</ele><time>2026-04-23T08:09:04.999Z</time></trkpt><trkpt lat="43.79508766607626" lon="11.369512411004472"><ele>230.33333333333334</ele><time>2026-04-23T08:09:06.999Z</time></trkpt><trkpt lat="43.79510987537244" lon="11.369606329899064"><ele>230.0</ele><time>2026-04-23T08:09:08.999Z</time></trkpt><trkpt lat="43.795164722377244" lon="11.369707567682426"><ele>230.16666666666669</ele><time>2026-04-23T08:09:11.999Z</time></trkpt><trkpt lat="43.79519734873509" lon="11.369814819130246"><ele>230.33333333333334</ele><time>2026-04-23T08:09:13.999Z</time></trkpt><trkpt lat="43.795225951214846" lon="11.369895562536831"><ele>230.5</ele><time>2026-04-23T08:09:15.999Z</time></trkpt><trkpt lat="43.79528367268541" lon="11.369961328134051"><ele>230.66666666666669</ele><time>2026-04-23T08:09:20.999Z</time></trkpt><trkpt lat="43.795382973925285" lon="11.369944169036808"><ele>230.83333333333334</ele><time>2026-04-23T08:09:22.999Z</time></trkpt><trkpt lat="43.795443179900985" lon="11.369982571644176"><ele>231.0</ele><time>2026-04-23T08:09:39.999Z</time></trkpt><trkpt lat="43.795502942010295" lon="11.370056305607166"><ele>231.0</ele><time>2026-04-23T08:09:42.999Z</time></trkpt><trkpt lat="43.795571636895815" lon="11.370113569958903"><ele>231.0</ele><time>2026-04-23T08:09:47.999Z</time></trkpt><trkpt lat="43.79555043615818" lon="11.37022517606559"><ele>231.0</ele><time>2026-04-23T08:09:50.999Z</time></trkpt><trkpt lat="43.79551870472111" lon="11.370313109474154"><ele>231.0</ele><time>2026-04-23T08:09:52.999Z</time></trkpt><trkpt lat="43.79549385765575" lon="11.370404878415348"><ele>231.0</ele><time>2026-04-23T08:09:54.999Z</time></trkpt><trkpt lat="43.795456581917335" lon="11.370513309176166"><ele>231.0</ele><time>2026-04-23T08:09:56.999Z</time></trkpt><trkpt lat="43.79541568415334" lon="11.370623393744726"><ele>228.5</ele><time>2026-04-23T08:09:58.999Z</time></trkpt><trkpt lat="43.79536632044855" lon="11.370718597484366"><ele>226.0</ele><time>2026-04-23T08:10:00.999Z</time></trkpt><trkpt lat="43.795319256495766" lon="11.37080479846889"><ele>223.5</ele><time>2026-04-23T08:10:02.999Z</time></trkpt><trkpt lat="43.79527572424278" lon="11.370895258143296"><ele>221.0</ele><time>2026-04-23T08:10:04.999Z</time></trkpt><trkpt lat="43.79524255277433" lon="11.370974006013752"><ele>218.5</ele><time>2026-04-23T08:10:06.999Z</time></trkpt><trkpt lat="43.79518311567383" lon="11.371070557850688"><ele>216.0</ele><time>2026-04-23T08:10:09.999Z</time></trkpt><trkpt lat="43.79513405309101" lon="11.371190189243164"><ele>215.5</ele><time>2026-04-23T08:10:12.999Z</time></trkpt><trkpt lat="43.795086191976715" lon="11.371280498987971"><ele>215.0</ele><time>2026-04-23T08:10:15.999Z</time></trkpt><trkpt lat="43.795023942974254" lon="11.371328062417502"><ele>214.5</ele><time>2026-04-23T08:10:17.999Z</time></trkpt><trkpt lat="43.794932999929074" lon="11.371379503639808"><ele>214.0</ele><time>2026-04-23T08:10:20.999Z</time></trkpt><trkpt lat="43.794853872481625" lon="11.371432783490373"><ele>213.5</ele><time>2026-04-23T08:10:22.999Z</time></trkpt><trkpt lat="43.79477172768362" lon="11.371481134192836"><ele>213.0</ele><time>2026-04-23T08:10:25Z</time></trkpt><trkpt lat="43.79468185583414" lon="11.371538181227182"><ele>210.2</ele><time>2026-04-23T08:10:27Z</time></trkpt><trkpt lat="43.79459547274923" lon="11.37158243150337"><ele>207.4</ele><time>2026-04-23T08:10:29Z</time></trkpt><trkpt lat="43.794510885005664" lon="11.37163197999909"><ele>204.6</ele><time>2026-04-23T08:10:31Z</time></trkpt><trkpt lat="43.79442577027044" lon="11.37166009812303"><ele>201.79999999999998</ele><time>2026-04-23T08:10:33Z</time></trkpt><trkpt lat="43.79435286892068" lon="11.37171857913517"><ele>199.0</ele><time>2026-04-23T08:10:35Z</time></trkpt><trkpt lat="43.794290574401366" lon="11.371845275076002"><ele>197.6</ele><time>2026-04-23T08:10:37Z</time></trkpt><trkpt lat="43.79421643337925" lon="11.371943150556838"><ele>196.2</ele><time>2026-04-23T08:10:39Z</time></trkpt><trkpt lat="43.79415587128282" lon="11.372041957907829"><ele>194.79999999999998</ele><time>2026-04-23T08:10:41Z</time></trkpt><trkpt lat="43.794080811714174" lon="11.37218088774401"><ele>193.39999999999998</ele><time>2026-04-23T08:10:43Z</time></trkpt><trkpt lat="43.79400066587378" lon="11.372284214038297"><ele>192.0</ele><time>2026-04-23T08:10:45Z</time></trkpt><trkpt lat="43.79394143583562" lon="11.372374495284161"><ele>190.83333333333334</ele><time>2026-04-23T08:10:47Z</time></trkpt><trkpt lat="43.79388410248766" lon="11.372453241671685"><ele>189.66666666666666</ele><time>2026-04-23T08:10:49Z</time></trkpt><trkpt lat="43.793826808913465" lon="11.372519270433063"><ele>188.5</ele><time>2026-04-23T08:10:51Z</time></trkpt><trkpt lat="43.793755555381615" lon="11.372587989935719"><ele>187.33333333333331</ele><time>2026-04-23T08:10:53Z</time></trkpt><trkpt lat="43.79366997400662" lon="11.372664351663431"><ele>186.16666666666666</ele><time>2026-04-23T08:10:55Z</time></trkpt><trkpt lat="43.79358910465624" lon="11.372733693363148"><ele>185.0</ele><time>2026-04-23T08:10:57Z</time></trkpt><trkpt lat="43.79351492030856" lon="11.372794363791481"><ele>183.2</ele><time>2026-04-23T08:10:59Z</time></trkpt><trkpt lat="43.793448615490405" lon="11.3728331301777"><ele>181.4</ele><time>2026-04-23T08:11:01Z</time></trkpt><trkpt lat="43.79336493692713" lon="11.372927692556248"><ele>179.60000000000002</ele><time>2026-04-23T08:11:02.999Z</time></trkpt><trkpt lat="43.79327029348803" lon="11.372997097968655"><ele>177.8</ele><time>2026-04-23T08:11:04.999Z</time></trkpt><trkpt lat="43.793174393996615" lon="11.37307297264295"><ele>176.0</ele><time>2026-04-23T08:11:06.999Z</time></trkpt><trkpt lat="43.79308205266371" lon="11.37313146905648"><ele>175.5</ele><time>2026-04-23T08:11:08.999Z</time></trkpt><trkpt lat="43.79298649338287" lon="11.373168281147565"><ele>175.0</ele><time>2026-04-23T08:11:10.999Z</time></trkpt><trkpt lat="43.79291381837219" lon="11.373192768346687"><ele>174.5</ele><time>2026-04-23T08:11:13.999Z</time></trkpt><trkpt lat="43.79283609047159" lon="11.373196921453271"><ele>174.0</ele><time>2026-04-23T08:11:16.999Z</time></trkpt><trkpt lat="43.79275478046486" lon="11.373217395801252"><ele>173.5</ele><time>2026-04-23T08:11:18.999Z</time></trkpt><trkpt lat="43.792679312921784" lon="11.373209343623998"><ele>173.0</ele><time>2026-04-23T08:11:20.999Z</time></trkpt><trkpt lat="43.79260536694196" lon="11.373255904601747"><ele>171.57142857142856</ele><time>2026-04-23T08:11:22.999Z</time></trkpt><trkpt lat="43.79254978764932" lon="11.373318419956291"><ele>170.14285714285717</ele><time>2026-04-23T08:11:24.999Z</time></trkpt><trkpt lat="43.792502961931994" lon="11.373377270215347"><ele>168.71428571428572</ele><time>2026-04-23T08:11:31.999Z</time></trkpt><trkpt lat="43.79244250800305" lon="11.373457365153588"><ele>167.28571428571428</ele><time>2026-04-23T08:11:50.999Z</time></trkpt><trkpt lat="43.7923955744348" lon="11.373518460290304"><ele>165.85714285714283</ele><time>2026-04-23T08:11:52.999Z</time></trkpt><trkpt lat="43.79234259765876" lon="11.373566000635133"><ele>164.42857142857144</ele><time>2026-04-23T08:11:54.999Z</time></trkpt><trkpt lat="43.79228420402833" lon="11.373631676298093"><ele>163.0</ele><time>2026-04-23T08:11:56.999Z</time></trkpt><trkpt lat="43.792239608171506" lon="11.373698511103681"><ele>163.0</ele><time>2026-04-23T08:11:58.999Z</time></trkpt><trkpt lat="43.79217735612438" lon="11.37375907384599"><ele>163.0</ele><time>2026-04-23T08:12:00.999Z</time></trkpt><trkpt lat="43.79210190972408" lon="11.373859614014982"><ele>163.0</ele><time>2026-04-23T08:12:02.999Z</time></trkpt><trkpt lat="43.79203783439551" lon="11.373945001051489"><ele>163.0</ele><time>2026-04-23T08:12:04.999Z</time></trkpt><trkpt lat="43.7919784351082" lon="11.374049610116508"><ele>163.0</ele><time>2026-04-23T08:12:06.999Z</time></trkpt><trkpt lat="43.79189778796432" lon="11.374143579251905"><ele>161.25</ele><time>2026-04-23T08:12:08.999Z</time></trkpt><trkpt lat="43.79182185585007" lon="11.374243833626887"><ele>159.5</ele><time>2026-04-23T08:12:10.999Z</time></trkpt><trkpt lat="43.7917596201243" lon="11.374324045613058"><ele>157.75</ele><time>2026-04-23T08:12:12.999Z</time></trkpt><trkpt lat="43.791980982534994" lon="11.374371963377689"><ele>156.0</ele><time>2026-04-23T08:12:36.999Z</time></trkpt><trkpt lat="43.7920444473803" lon="11.374372849877131"><ele>156.0</ele><time>2026-04-23T08:12:37.999Z</time></trkpt><trkpt lat="43.792115013135586" lon="11.374373791682505"><ele>156.0</ele><time>2026-04-23T08:12:42.999Z</time></trkpt><trkpt lat="43.792194768308114" lon="11.374409018319085"><ele>156.0</ele><time>2026-04-23T08:12:46.999Z</time></trkpt><trkpt lat="43.79226085756434" lon="11.374395390043723"><ele>156.0</ele><time>2026-04-23T08:12:49.999Z</time></trkpt><trkpt lat="43.79207248494352" lon="11.37437017919298"><ele>156.0</ele><time>2026-04-23T08:12:53Z</time></trkpt><trkpt lat="43.79198631276949" lon="11.374320618953583"><ele>156.0</ele><time>2026-04-23T08:12:59Z</time></trkpt><trkpt lat="43.791871844866854" lon="11.374331010754815"><ele>156.0</ele><time>2026-04-23T08:13:01Z</time></trkpt><trkpt lat="43.79178400793123" lon="11.374339912487187"><ele>156.0</ele><time>2026-04-23T08:13:03Z</time></trkpt><trkpt lat="43.791852651834404" lon="11.374345614895734"><ele>156.0</ele><time>2026-04-23T08:13:21Z</time></trkpt><trkpt lat="43.79195939050256" lon="11.37437235487075"><ele>156.0</ele><time>2026-04-23T08:13:23Z</time></trkpt><trkpt lat="43.7920296741015" lon="11.374372652706748"><ele>156.0</ele><time>2026-04-23T08:13:25Z</time></trkpt><trkpt lat="43.79211536693314" lon="11.374373796396938"><ele>156.0</ele><time>2026-04-23T08:13:34.999Z</time></trkpt><trkpt lat="43.792208111058" lon="11.374373931657416"><ele>156.0</ele><time>2026-04-23T08:13:40.999Z</time></trkpt><trkpt lat="43.792306120538754" lon="11.374369205279205"><ele>156.0</ele><time>2026-04-23T08:13:42.999Z</time></trkpt><trkpt lat="43.79217328795663" lon="11.374380247778317"><ele>156.0</ele><time>2026-04-23T08:14:13Z</time></trkpt><trkpt lat="43.79209853370285" lon="11.374356614466375"><ele>156.0</ele><time>2026-04-23T08:14:14Z</time></trkpt><trkpt lat="43.79203431565199" lon="11.374333630777377"><ele>156.0</ele><time>2026-04-23T08:14:16Z</time></trkpt><trkpt lat="43.79195455780719" lon="11.374350959833162"><ele>156.0</ele><time>2026-04-23T08:14:20Z</time></trkpt><trkpt lat="43.79186267057998" lon="11.374338742182276"><ele>156.0</ele><time>2026-04-23T08:14:23Z</time></trkpt><trkpt lat="43.79179876716727" lon="11.374348165237462"><ele>156.0</ele><time>2026-04-23T08:14:25Z</time></trkpt><trkpt lat="43.79172687003305" lon="11.37438436354016"><ele>156.0</ele><time>2026-04-23T08:14:29Z</time></trkpt><trkpt lat="43.79163802509007" lon="11.374428739577938"><ele>154.66666666666666</ele><time>2026-04-23T08:14:32Z</time></trkpt><trkpt lat="43.791572030302525" lon="11.374476604257723"><ele>153.33333333333334</ele><time>2026-04-23T08:14:34Z</time></trkpt><trkpt lat="43.79150616011345" lon="11.374517052218762"><ele>152.0</ele><time>2026-04-23T08:14:36Z</time></trkpt><trkpt lat="43.79143575136396" lon="11.374553344762225"><ele>150.66666666666669</ele><time>2026-04-23T08:14:38Z</time></trkpt><trkpt lat="43.791351134531695" lon="11.374559696285639"><ele>149.33333333333334</ele><time>2026-04-23T08:14:40Z</time></trkpt><trkpt lat="43.79128181535734" lon="11.374546132295597"><ele>148.0</ele><time>2026-04-23T08:14:42Z</time></trkpt><trkpt lat="43.791213202881686" lon="11.374501818781662"><ele>148.0</ele><time>2026-04-23T08:14:44Z</time></trkpt><trkpt lat="43.791155913928115" lon="11.374393314944196"><ele>148.0</ele><time>2026-04-23T08:14:46Z</time></trkpt><trkpt lat="43.79113141812903" lon="11.37419565544227"><ele>148.0</ele><time>2026-04-23T08:14:48Z</time></trkpt><trkpt lat="43.79111756964279" lon="11.374102170620628"><ele>148.0</ele><time>2026-04-23T08:14:49Z</time></trkpt><trkpt lat="43.79110035454868" lon="11.374008682928533"><ele>148.0</ele><time>2026-04-23T08:14:50Z</time></trkpt><trkpt lat="43.79108011867579" lon="11.373916521662828"><ele>148.66666666666669</ele><time>2026-04-23T08:14:51Z</time></trkpt><trkpt lat="43.79104757005231" lon="11.373828834546291"><ele>149.33333333333334</ele><time>2026-04-23T08:14:52Z</time></trkpt><trkpt lat="43.79099729548312" lon="11.37371401990868"><ele>150.0</ele><time>2026-04-23T08:14:54Z</time></trkpt><trkpt lat="43.790695079516" lon="11.373976650880085"><ele>149.0</ele><time>2026-04-23T08:15:02Z</time></trkpt><trkpt lat="43.79067551416996" lon="11.37414999022458"><ele>148.0</ele><time>2026-04-23T08:15:04Z</time></trkpt><trkpt lat="43.79114039324052" lon="11.374305289158118"><ele>148.0</ele><time>2026-04-23T08:15:05Z</time></trkpt><trkpt lat="43.79115519044083" lon="11.374459890987769"><ele>148.0</ele><time>2026-04-23T08:15:06Z</time></trkpt><trkpt lat="43.791194729811224" lon="11.37456104862598"><ele>148.0</ele><time>2026-04-23T08:15:07Z</time></trkpt><trkpt lat="43.79125223143094" lon="11.374607813133224"><ele>148.0</ele><time>2026-04-23T08:15:08Z</time></trkpt><trkpt lat="43.79132675124864" lon="11.374612324043797"><ele>148.0</ele><time>2026-04-23T08:15:09Z</time></trkpt><trkpt lat="43.79141321078538" lon="11.374601215303606"><ele>148.0</ele><time>2026-04-23T08:15:10Z</time></trkpt><trkpt lat="43.79149582426258" lon="11.37457813392827"><ele>148.0</ele><time>2026-04-23T08:15:11Z</time></trkpt><trkpt lat="43.791561913544435" lon="11.374535261964764"><ele>148.0</ele><time>2026-04-23T08:15:12Z</time></trkpt><trkpt lat="43.79162354528757" lon="11.37447061400269"><ele>148.0</ele><time>2026-04-23T08:15:13Z</time></trkpt><trkpt lat="43.79168265080861" lon="11.37441741753725"><ele>148.0</ele><time>2026-04-23T08:15:14Z</time></trkpt><trkpt lat="43.79174174902643" lon="11.374384311128301"><ele>148.0</ele><time>2026-04-23T08:15:15Z</time></trkpt><trkpt lat="43.79182002998302" lon="11.374362566351445"><ele>148.0</ele><time>2026-04-23T08:15:17Z</time></trkpt><trkpt lat="43.79189513024243" lon="11.3743572728442"><ele>148.0</ele><time>2026-04-23T08:15:20Z</time></trkpt><trkpt lat="43.79196168644339" lon="11.374358211255196"><ele>148.0</ele><time>2026-04-23T08:15:22Z</time></trkpt><trkpt lat="43.79202519740134" lon="11.374376707671125"><ele>148.0</ele><time>2026-04-23T08:15:26Z</time></trkpt><trkpt lat="43.79193686082546" lon="11.374337099798469"><ele>148.0</ele><time>2026-04-23T08:16:35.001Z</time></trkpt><trkpt lat="43.7918252566603" lon="11.374356041849792"><ele>148.0</ele><time>2026-04-23T08:16:37.001Z</time></trkpt><trkpt lat="43.79169776225266" lon="11.374364638493242"><ele>148.0</ele><time>2026-04-23T08:16:39.001Z</time></trkpt><trkpt lat="43.791627196167084" lon="11.374399774732206"><ele>148.0</ele><time>2026-04-23T08:16:40.001Z</time></trkpt><trkpt lat="43.791562526698904" lon="11.374449698057584"><ele>148.0</ele><time>2026-04-23T08:16:41.001Z</time></trkpt><trkpt lat="43.79151468186802" lon="11.374511782952734"><ele>148.0</ele><time>2026-04-23T08:16:42.001Z</time></trkpt><trkpt lat="43.79140562373227" lon="11.374548270253424"><ele>148.0</ele><time>2026-04-23T08:16:44Z</time></trkpt><trkpt lat="43.79133967926306" lon="11.374544615318719"><ele>148.0</ele><time>2026-04-23T08:16:45Z</time></trkpt><trkpt lat="43.79127296118559" lon="11.374533411455749"><ele>148.0</ele><time>2026-04-23T08:16:46Z</time></trkpt><trkpt lat="43.791208897780024" lon="11.37451767142479"><ele>148.0</ele><time>2026-04-23T08:16:47Z</time></trkpt><trkpt lat="43.79115572861139" lon="11.374454320603817"><ele>148.0</ele><time>2026-04-23T08:16:48Z</time></trkpt><trkpt lat="43.79113137536546" lon="11.374358401238775"><ele>148.0</ele><time>2026-04-23T08:16:49Z</time></trkpt><trkpt lat="43.79114652952995" lon="11.374244334541086"><ele>148.0</ele><time>2026-04-23T08:16:50Z</time></trkpt><trkpt lat="43.79111990444733" lon="11.374127170870802"><ele>148.0</ele><time>2026-04-23T08:16:51Z</time></trkpt><trkpt lat="43.7911010171709" lon="11.374018833820756"><ele>148.0</ele><time>2026-04-23T08:16:52Z</time></trkpt><trkpt lat="43.79108617793471" lon="11.373927956362666"><ele>148.33333333333334</ele><time>2026-04-23T08:16:53Z</time></trkpt><trkpt lat="43.791051278268036" lon="11.373836665161852"><ele>148.66666666666669</ele><time>2026-04-23T08:16:54Z</time></trkpt><trkpt lat="43.79099491413653" lon="11.373764197661249"><ele>149.0</ele><time>2026-04-23T08:16:55Z</time></trkpt><trkpt lat="43.79094960250177" lon="11.373679800354966"><ele>149.33333333333334</ele><time>2026-04-23T08:16:56Z</time></trkpt><trkpt lat="43.79083207690101" lon="11.373604747051377"><ele>149.66666666666666</ele><time>2026-04-23T08:16:58Z</time></trkpt><trkpt lat="43.79077237164772" lon="11.373557353675436"><ele>150.0</ele><time>2026-04-23T08:16:59Z</time></trkpt><trkpt lat="43.790688731439914" lon="11.373496433715681"><ele>148.16666666666666</ele><time>2026-04-23T08:17:01Z</time></trkpt><trkpt lat="43.79063399019441" lon="11.373441152455783"><ele>146.33333333333334</ele><time>2026-04-23T08:17:04Z</time></trkpt><trkpt lat="43.79057200953042" lon="11.373389927052095"><ele>144.5</ele><time>2026-04-23T08:18:01Z</time></trkpt><trkpt lat="43.79049734344276" lon="11.373284178551886"><ele>142.66666666666669</ele><time>2026-04-23T08:18:03Z</time></trkpt><trkpt lat="43.7904404499309" lon="11.37319742020672"><ele>140.83333333333334</ele><time>2026-04-23T08:18:04Z</time></trkpt><trkpt lat="43.79037938795218" lon="11.373101765235017"><ele>139.0</ele><time>2026-04-23T08:18:05Z</time></trkpt><trkpt lat="43.79033088316311" lon="11.373032138461076"><ele>140.8</ele><time>2026-04-23T08:18:06Z</time></trkpt><trkpt lat="43.79026617374485" lon="11.372911645715932"><ele>142.60000000000002</ele><time>2026-04-23T08:18:08Z</time></trkpt><trkpt lat="43.79022774096622" lon="11.372801366702802"><ele>144.4</ele><time>2026-04-23T08:18:10Z</time></trkpt><trkpt lat="43.7901790305601" lon="11.37269921617405"><ele>146.20000000000002</ele><time>2026-04-23T08:18:12Z</time></trkpt><trkpt lat="43.79012991372335" lon="11.372572376208073"><ele>148.0</ele><time>2026-04-23T08:18:14Z</time></trkpt><trkpt lat="43.79007345116271" lon="11.372419452755016"><ele>144.83333333333334</ele><time>2026-04-23T08:18:16Z</time></trkpt><trkpt lat="43.790052121282635" lon="11.372325099544877"><ele>141.66666666666669</ele><time>2026-04-23T08:18:17Z</time></trkpt><trkpt lat="43.79002228701367" lon="11.372225552236147"><ele>138.5</ele><time>2026-04-23T08:18:18Z</time></trkpt><trkpt lat="43.78999577466984" lon="11.372129040626312"><ele>135.33333333333334</ele><time>2026-04-23T08:18:19Z</time></trkpt><trkpt lat="43.78997035841635" lon="11.372001831036322"><ele>132.16666666666666</ele><time>2026-04-23T08:18:20Z</time></trkpt><trkpt lat="43.78993378994827" lon="11.371856262698644"><ele>129.0</ele><time>2026-04-23T08:18:22Z</time></trkpt><trkpt lat="43.78991094449665" lon="11.371754173278825"><ele>129.0</ele><time>2026-04-23T08:18:23Z</time></trkpt><trkpt lat="43.789892222745465" lon="11.371653729904695"><ele>129.0</ele><time>2026-04-23T08:18:24Z</time></trkpt><trkpt lat="43.7898724962685" lon="11.371552003746858"><ele>129.0</ele><time>2026-04-23T08:18:25.001Z</time></trkpt><trkpt lat="43.789852184711634" lon="11.371453190245497"><ele>129.0</ele><time>2026-04-23T08:18:26.001Z</time></trkpt><trkpt lat="43.78983433046809" lon="11.371350875975027"><ele>129.0</ele><time>2026-04-23T08:18:27.001Z</time></trkpt><trkpt lat="43.78981517780189" lon="11.371248250785115"><ele>129.0</ele><time>2026-04-23T08:18:28.001Z</time></trkpt><trkpt lat="43.789793578814155" lon="11.371143757942995"><ele>128.66666666666666</ele><time>2026-04-23T08:18:29.001Z</time></trkpt><trkpt lat="43.78977176246708" lon="11.371034731198552"><ele>128.33333333333334</ele><time>2026-04-23T08:18:30.001Z</time></trkpt><trkpt lat="43.78975026922099" lon="11.370916025098454"><ele>128.0</ele><time>2026-04-23T08:18:31.001Z</time></trkpt><trkpt lat="43.78972390884733" lon="11.370801741803001"><ele>127.66666666666667</ele><time>2026-04-23T08:18:32.001Z</time></trkpt><trkpt lat="43.78968569009807" lon="11.370705347876104"><ele>127.33333333333334</ele><time>2026-04-23T08:18:33.001Z</time></trkpt><trkpt lat="43.78964344263414" lon="11.370611589120573"><ele>127.0</ele><time>2026-04-23T08:18:34.001Z</time></trkpt><trkpt lat="43.78959092115708" lon="11.370540229694482"><ele>127.28571428571429</ele><time>2026-04-23T08:18:35.001Z</time></trkpt><trkpt lat="43.7895336686464" lon="11.370498964582534"><ele>127.57142857142856</ele><time>2026-04-23T08:18:36.001Z</time></trkpt><trkpt lat="43.78946441474656" lon="11.37045397454363"><ele>127.85714285714285</ele><time>2026-04-23T08:18:37.001Z</time></trkpt><trkpt lat="43.78940196716881" lon="11.370418503212006"><ele>128.14285714285714</ele><time>2026-04-23T08:18:38.001Z</time></trkpt><trkpt lat="43.78932997631785" lon="11.370381233556618"><ele>128.42857142857142</ele><time>2026-04-23T08:18:39.001Z</time></trkpt><trkpt lat="43.789248565000506" lon="11.370347329006579"><ele>128.7142857142857</ele><time>2026-04-23T08:18:40Z</time></trkpt><trkpt lat="43.78917590784611" lon="11.370305119663625"><ele>129.0</ele><time>2026-04-23T08:18:41Z</time></trkpt><trkpt lat="43.789109412744814" lon="11.370229602999371"><ele>128.66666666666666</ele><time>2026-04-23T08:18:42Z</time></trkpt><trkpt lat="43.78908160002391" lon="11.37014571521248"><ele>128.33333333333334</ele><time>2026-04-23T08:18:43Z</time></trkpt><trkpt lat="43.789020691075" lon="11.370062688891336"><ele>128.0</ele><time>2026-04-23T08:19:32Z</time></trkpt><trkpt lat="43.78897841913637" lon="11.369982794948566"><ele>127.66666666666667</ele><time>2026-04-23T08:19:33Z</time></trkpt><trkpt lat="43.78892699843523" lon="11.369867301085286"><ele>127.33333333333334</ele><time>2026-04-23T08:19:34Z</time></trkpt><trkpt lat="43.78888289778791" lon="11.369757849937963"><ele>127.0</ele><time>2026-04-23T08:19:35Z</time></trkpt><trkpt lat="43.788825960236096" lon="11.369636259442048"><ele>127.0</ele><time>2026-04-23T08:19:36Z</time></trkpt><trkpt lat="43.78876588329221" lon="11.369516829473636"><ele>126.99999999999999</ele><time>2026-04-23T08:19:37Z</time></trkpt><trkpt lat="43.78868976668284" lon="11.36940004876938"><ele>126.99999999999999</ele><time>2026-04-23T08:19:38Z</time></trkpt><trkpt lat="43.788606050372664" lon="11.369298959592479"><ele>127.0</ele><time>2026-04-23T08:19:39Z</time></trkpt><trkpt lat="43.78852186289619" lon="11.369195960437262"><ele>127.0</ele><time>2026-04-23T08:19:40Z</time></trkpt><trkpt lat="43.788440412737884" lon="11.369101490422906"><ele>125.6</ele><time>2026-04-23T08:19:41Z</time></trkpt><trkpt lat="43.788361519827546" lon="11.369018288236667"><ele>124.19999999999999</ele><time>2026-04-23T08:19:42Z</time></trkpt><trkpt lat="43.78828928282987" lon="11.368930910754878"><ele>122.8</ele><time>2026-04-23T08:19:43Z</time></trkpt><trkpt lat="43.788213433466595" lon="11.36884471557522"><ele>121.4</ele><time>2026-04-23T08:19:44Z</time></trkpt><trkpt lat="43.78816369248389" lon="11.368786272541504"><ele>120.0</ele><time>2026-04-23T08:19:45Z</time></trkpt><trkpt lat="43.78809434026025" lon="11.368700977249004"><ele>119.4</ele><time>2026-04-23T08:19:47Z</time></trkpt><trkpt lat="43.78801691214133" lon="11.368606109507352"><ele>118.8</ele><time>2026-04-23T08:19:49Z</time></trkpt><trkpt lat="43.78796029452208" lon="11.368497384286856"><ele>118.19999999999999</ele><time>2026-04-23T08:19:50Z</time></trkpt><trkpt lat="43.78791099436508" lon="11.36837097008212"><ele>117.6</ele><time>2026-04-23T08:19:51Z</time></trkpt><trkpt lat="43.78786352851548" lon="11.368241040083538"><ele>117.0</ele><time>2026-04-23T08:19:52Z</time></trkpt><trkpt lat="43.787828747205474" lon="11.36812365084642"><ele>117.33333333333333</ele><time>2026-04-23T08:19:53Z</time></trkpt><trkpt lat="43.787791797728524" lon="11.368010606143757"><ele>117.66666666666666</ele><time>2026-04-23T08:19:54Z</time></trkpt><trkpt lat="43.787758140701726" lon="11.367900031002778"><ele>118.0</ele><time>2026-04-23T08:19:55Z</time></trkpt><trkpt lat="43.78771618025971" lon="11.36779673742264"><ele>118.33333333333333</ele><time>2026-04-23T08:19:56Z</time></trkpt><trkpt lat="43.787665721433946" lon="11.367704773691734"><ele>118.66666666666666</ele><time>2026-04-23T08:19:57Z</time></trkpt><trkpt lat="43.787599519538745" lon="11.367631960935002"><ele>119.0</ele><time>2026-04-23T08:19:58Z</time></trkpt><trkpt lat="43.78752427631947" lon="11.367566861909003"><ele>116.0</ele><time>2026-04-23T08:19:59Z</time></trkpt><trkpt lat="43.78743522072325" lon="11.367510130262993"><ele>113.0</ele><time>2026-04-23T08:20:00Z</time></trkpt><trkpt lat="43.78733445517945" lon="11.367465842664814"><ele>110.0</ele><time>2026-04-23T08:20:01Z</time></trkpt><trkpt lat="43.78723230916528" lon="11.367422700471465"><ele>107.0</ele><time>2026-04-23T08:20:02Z</time></trkpt><trkpt lat="43.78714504107661" lon="11.367358727294366"><ele>104.0</ele><time>2026-04-23T08:20:03Z</time></trkpt><trkpt lat="43.78706810160304" lon="11.367314427885734"><ele>103.99999999999999</ele><time>2026-04-23T08:20:04Z</time></trkpt><trkpt lat="43.78699894500767" lon="11.367286695678045"><ele>104.0</ele><time>2026-04-23T08:20:05Z</time></trkpt><trkpt lat="43.786919244307484" lon="11.367258914326538"><ele>104.0</ele><time>2026-04-23T08:20:06Z</time></trkpt><trkpt lat="43.786832510871164" lon="11.367229922104087"><ele>104.0</ele><time>2026-04-23T08:20:07Z</time></trkpt><trkpt lat="43.78672954158665" lon="11.36722661702285"><ele>103.99999999999999</ele><time>2026-04-23T08:20:08Z</time></trkpt><trkpt lat="43.78663225183478" lon="11.367227520247749"><ele>104.0</ele><time>2026-04-23T08:20:09Z</time></trkpt><trkpt lat="43.78655065525194" lon="11.36722914979632"><ele>103.99999999999999</ele><time>2026-04-23T08:20:10Z</time></trkpt><trkpt lat="43.78646977962713" lon="11.367230764942017"><ele>104.0</ele><time>2026-04-23T08:20:11Z</time></trkpt><trkpt lat="43.7863456819198" lon="11.367218235397573"><ele>104.0</ele><time>2026-04-23T08:20:13Z</time></trkpt><trkpt lat="43.786278688349064" lon="11.367196729294555"><ele>104.0</ele><time>2026-04-23T08:20:14Z</time></trkpt><trkpt lat="43.78620955799093" lon="11.367174773272"><ele>103.99999999999999</ele><time>2026-04-23T08:20:15Z</time></trkpt><trkpt lat="43.78615204165808" lon="11.367095057345118"><ele>104.0</ele><time>2026-04-23T08:20:16Z</time></trkpt><trkpt lat="43.78612213341384" lon="11.366996314763394"><ele>104.0</ele><time>2026-04-23T08:20:17Z</time></trkpt><trkpt lat="43.78610791150527" lon="11.36683542360903"><ele>104.0</ele><time>2026-04-23T08:20:18Z</time></trkpt><trkpt lat="43.78608052648434" lon="11.366683744658257"><ele>104.0</ele><time>2026-04-23T08:20:19Z</time></trkpt><trkpt lat="43.78604590643107" lon="11.366526660410905"><ele>104.0</ele><time>2026-04-23T08:20:20Z</time></trkpt><trkpt lat="43.786017509960885" lon="11.366366734855285"><ele>100.80000000000001</ele><time>2026-04-23T08:20:21Z</time></trkpt><trkpt lat="43.78599256329368" lon="11.366231561821234"><ele>97.60000000000001</ele><time>2026-04-23T08:20:22Z</time></trkpt><trkpt lat="43.78595938265204" lon="11.366111666845125"><ele>94.4</ele><time>2026-04-23T08:20:23Z</time></trkpt><trkpt lat="43.785938921096175" lon="11.365986617635018"><ele>91.2</ele><time>2026-04-23T08:20:24Z</time></trkpt><trkpt lat="43.78593248594103" lon="11.365863031795062"><ele>88.0</ele><time>2026-04-23T08:20:25Z</time></trkpt><trkpt lat="43.78591122629242" lon="11.365731331597683"><ele>88.0</ele><time>2026-04-23T08:20:26Z</time></trkpt><trkpt lat="43.7858860190233" lon="11.365581512797778"><ele>88.0</ele><time>2026-04-23T08:20:27Z</time></trkpt><trkpt lat="43.78589277997045" lon="11.36541941868151"><ele>88.0</ele><time>2026-04-23T08:20:28Z</time></trkpt><trkpt lat="43.78588686643703" lon="11.365288926835927"><ele>88.0</ele><time>2026-04-23T08:20:29Z</time></trkpt><trkpt lat="43.78589378718402" lon="11.365167432990543"><ele>88.0</ele><time>2026-04-23T08:20:30Z</time></trkpt><trkpt lat="43.78588063619476" lon="11.365065057871735"><ele>87.83333333333333</ele><time>2026-04-23T08:20:31Z</time></trkpt><trkpt lat="43.78586756510442" lon="11.364953728423131"><ele>87.66666666666666</ele><time>2026-04-23T08:20:32Z</time></trkpt><trkpt lat="43.78585825907439" lon="11.364855528752225"><ele>87.5</ele><time>2026-04-23T08:20:33Z</time></trkpt><trkpt lat="43.78585909582658" lon="11.364734748694044"><ele>87.33333333333333</ele><time>2026-04-23T08:20:34Z</time></trkpt><trkpt lat="43.78585475583469" lon="11.364599649664731"><ele>87.16666666666667</ele><time>2026-04-23T08:20:35Z</time></trkpt><trkpt lat="43.78586292543629" lon="11.364448653624642"><ele>87.0</ele><time>2026-04-23T08:20:36Z</time></trkpt><trkpt lat="43.785864062555376" lon="11.364304106320219"><ele>86.8</ele><time>2026-04-23T08:20:37Z</time></trkpt><trkpt lat="43.78586622480646" lon="11.364174768830019"><ele>86.6</ele><time>2026-04-23T08:20:38Z</time></trkpt><trkpt lat="43.7858595265965" lon="11.364040243584567"><ele>86.39999999999999</ele><time>2026-04-23T08:20:39Z</time></trkpt><trkpt lat="43.78584935012758" lon="11.363886359466626"><ele>86.19999999999999</ele><time>2026-04-23T08:20:40Z</time></trkpt><trkpt lat="43.78581954223925" lon="11.363699787525277"><ele>86.0</ele><time>2026-04-23T08:20:41Z</time></trkpt><trkpt lat="43.785767851603296" lon="11.363506280802433"><ele>86.0</ele><time>2026-04-23T08:20:42Z</time></trkpt><trkpt lat="43.78571720097683" lon="11.363326434262298"><ele>86.0</ele><time>2026-04-23T08:20:43Z</time></trkpt><trkpt lat="43.78569346684342" lon="11.363155293783784"><ele>86.0</ele><time>2026-04-23T08:20:44Z</time></trkpt><trkpt lat="43.78565093436576" lon="11.362973582748522"><ele>86.0</ele><time>2026-04-23T08:20:45Z</time></trkpt><trkpt lat="43.78560614454729" lon="11.362793742791515"><ele>88.75</ele><time>2026-04-23T08:20:46Z</time></trkpt><trkpt lat="43.78556198447809" lon="11.362613361040914"><ele>91.5</ele><time>2026-04-23T08:20:47Z</time></trkpt><trkpt lat="43.78551299936609" lon="11.362440488608765"><ele>94.25</ele><time>2026-04-23T08:20:48Z</time></trkpt><trkpt lat="43.7854705879077" lon="11.362262580190352"><ele>97.0</ele><time>2026-04-23T08:20:49Z</time></trkpt><trkpt lat="43.785421874751826" lon="11.362092598898995"><ele>98.5</ele><time>2026-04-23T08:20:50Z</time></trkpt><trkpt lat="43.78537842414558" lon="11.361914364547149"><ele>100.0</ele><time>2026-04-23T08:20:51Z</time></trkpt><trkpt lat="43.78531932421537" lon="11.36174559120027"><ele>101.5</ele><time>2026-04-23T08:20:52Z</time></trkpt><trkpt lat="43.78525960490782" lon="11.361585545518736"><ele>103.0</ele><time>2026-04-23T08:20:53Z</time></trkpt><trkpt lat="43.785202011393906" lon="11.361439588861215"><ele>97.2</ele><time>2026-04-23T08:20:54Z</time></trkpt><trkpt lat="43.785147866974654" lon="11.361310611263427"><ele>91.4</ele><time>2026-04-23T08:20:55Z</time></trkpt><trkpt lat="43.7850783488105" lon="11.36119139449396"><ele>85.60000000000001</ele><time>2026-04-23T08:20:56Z</time></trkpt><trkpt lat="43.78502031434214" lon="11.36106410683797"><ele>79.80000000000001</ele><time>2026-04-23T08:20:57Z</time></trkpt><trkpt lat="43.78496135954175" lon="11.360941827973576"><ele>74.0</ele><time>2026-04-23T08:20:58Z</time></trkpt><trkpt lat="43.78490722783401" lon="11.360825001185212"><ele>74.0</ele><time>2026-04-23T08:20:59Z</time></trkpt><trkpt lat="43.78485092179626" lon="11.360709411234412"><ele>74.0</ele><time>2026-04-23T08:21:00Z</time></trkpt><trkpt lat="43.7848067218821" lon="11.360599757099596"><ele>74.0</ele><time>2026-04-23T08:21:01Z</time></trkpt><trkpt lat="43.78475830247364" lon="11.360531292375988"><ele>74.0</ele><time>2026-04-23T08:21:02Z</time></trkpt><trkpt lat="43.78469093916237" lon="11.360409238021424"><ele>74.0</ele><time>2026-04-23T08:21:04Z</time></trkpt><trkpt lat="43.784643575764385" lon="11.360307702063103"><ele>74.0</ele><time>2026-04-23T08:21:22Z</time></trkpt><trkpt lat="43.78461707121494" lon="11.360398561911396"><ele>74.0</ele><time>2026-04-23T08:21:27Z</time></trkpt><trkpt lat="43.7847066025633" lon="11.360465130940772"><ele>74.0</ele><time>2026-04-23T08:21:29Z</time></trkpt><trkpt lat="43.7848097818513" lon="11.360592689356146"><ele>74.0</ele><time>2026-04-23T08:21:30Z</time></trkpt><trkpt lat="43.784872622590306" lon="11.360730817479373"><ele>74.0</ele><time>2026-04-23T08:21:31Z</time></trkpt><trkpt lat="43.784916429934285" lon="11.360847532151057"><ele>74.0</ele><time>2026-04-23T08:21:32Z</time></trkpt><trkpt lat="43.784948506317924" lon="11.360928779516259"><ele>74.0</ele><time>2026-04-23T08:21:33Z</time></trkpt><trkpt lat="43.78489868323745" lon="11.36087047959171"><ele>74.0</ele><time>2026-04-23T08:21:37Z</time></trkpt><trkpt lat="43.78504271807999" lon="11.361073129068618"><ele>74.0</ele><time>2026-04-23T08:21:41Z</time></trkpt><trkpt lat="43.785090725042984" lon="11.361180198399909"><ele>74.0</ele><time>2026-04-23T08:21:42Z</time></trkpt><trkpt lat="43.785110415899" lon="11.361313482181318"><ele>74.25</ele><time>2026-04-23T08:21:43Z</time></trkpt><trkpt lat="43.78516400276521" lon="11.361440565131621"><ele>74.5</ele><time>2026-04-23T08:21:44Z</time></trkpt><trkpt lat="43.785224801170166" lon="11.361593311366812"><ele>74.75</ele><time>2026-04-23T08:21:45Z</time></trkpt><trkpt lat="43.78527553021997" lon="11.361728369008018"><ele>75.0</ele><time>2026-04-23T08:21:45.999Z</time></trkpt><trkpt lat="43.78533739051118" lon="11.361859451400738"><ele>80.5</ele><time>2026-04-23T08:21:46.999Z</time></trkpt><trkpt lat="43.78538403424524" lon="11.362004971808448"><ele>86.0</ele><time>2026-04-23T08:21:47.999Z</time></trkpt><trkpt lat="43.785428619784994" lon="11.362162020015726"><ele>91.5</ele><time>2026-04-23T08:21:48.999Z</time></trkpt><trkpt lat="43.78547635810308" lon="11.362333056073558"><ele>97.0</ele><time>2026-04-23T08:21:49.999Z</time></trkpt><trkpt lat="43.78552131839095" lon="11.362512485124094"><ele>97.0</ele><time>2026-04-23T08:21:50.999Z</time></trkpt><trkpt lat="43.78556584794927" lon="11.362697760500506"><ele>97.0</ele><time>2026-04-23T08:21:51.999Z</time></trkpt><trkpt lat="43.78561679175165" lon="11.362893871933538"><ele>97.0</ele><time>2026-04-23T08:21:52.999Z</time></trkpt><trkpt lat="43.785663635118425" lon="11.363081767049477"><ele>97.0</ele><time>2026-04-23T08:21:53.999Z</time></trkpt><trkpt lat="43.78569510702911" lon="11.363293665116274"><ele>94.25</ele><time>2026-04-23T08:21:54.999Z</time></trkpt><trkpt lat="43.785735208443356" lon="11.363484273422278"><ele>91.5</ele><time>2026-04-23T08:21:55.999Z</time></trkpt><trkpt lat="43.785775936388376" lon="11.36368789516484"><ele>88.75</ele><time>2026-04-23T08:21:56.999Z</time></trkpt><trkpt lat="43.78580827520441" lon="11.363875357756891"><ele>86.0</ele><time>2026-04-23T08:21:57.999Z</time></trkpt><trkpt lat="43.78582655857938" lon="11.36404866070986"><ele>86.25</ele><time>2026-04-23T08:21:58.999Z</time></trkpt><trkpt lat="43.78583290134745" lon="11.364213264034985"><ele>86.5</ele><time>2026-04-23T08:21:59.999Z</time></trkpt><trkpt lat="43.78583176021351" lon="11.364393359209751"><ele>86.75</ele><time>2026-04-23T08:22:00.999Z</time></trkpt><trkpt lat="43.78583240069254" lon="11.364596461688341"><ele>87.0</ele><time>2026-04-23T08:22:01.999Z</time></trkpt><trkpt lat="43.7858473886626" lon="11.36481713287948"><ele>87.0</ele><time>2026-04-23T08:22:02.999Z</time></trkpt><trkpt lat="43.78585251929075" lon="11.365039009061032"><ele>87.0</ele><time>2026-04-23T08:22:03.999Z</time></trkpt><trkpt lat="43.78586463018833" lon="11.36525711492914"><ele>87.0</ele><time>2026-04-23T08:22:04.999Z</time></trkpt><trkpt lat="43.785876904289665" lon="11.365468946088804"><ele>87.33333333333333</ele><time>2026-04-23T08:22:05.999Z</time></trkpt><trkpt lat="43.78588952147639" lon="11.365679591196425"><ele>87.66666666666666</ele><time>2026-04-23T08:22:06.999Z</time></trkpt><trkpt lat="43.78590792366958" lon="11.365887428867373"><ele>88.0</ele><time>2026-04-23T08:22:07.999Z</time></trkpt><trkpt lat="43.78594024531307" lon="11.366084987083552"><ele>88.0</ele><time>2026-04-23T08:22:08.999Z</time></trkpt><trkpt lat="43.78598458748424" lon="11.366277250862986"><ele>88.0</ele><time>2026-04-23T08:22:09.999Z</time></trkpt><trkpt lat="43.78600474989849" lon="11.366456899632372"><ele>88.0</ele><time>2026-04-23T08:22:10.999Z</time></trkpt><trkpt lat="43.78603818808599" lon="11.366637978512903"><ele>88.0</ele><time>2026-04-23T08:22:11.999Z</time></trkpt><trkpt lat="43.78607146375409" lon="11.366824831055432"><ele>89.80000000000001</ele><time>2026-04-23T08:22:12.999Z</time></trkpt><trkpt lat="43.78610192090411" lon="11.366984809571223"><ele>91.6</ele><time>2026-04-23T08:22:13.999Z</time></trkpt><trkpt lat="43.786134158325694" lon="11.367110995513613"><ele>93.4</ele><time>2026-04-23T08:22:14.999Z</time></trkpt><trkpt lat="43.78619440970692" lon="11.36720796101958"><ele>95.19999999999999</ele><time>2026-04-23T08:22:15.999Z</time></trkpt><trkpt lat="43.78626927541315" lon="11.367243001205042"><ele>97.0</ele><time>2026-04-23T08:22:16.999Z</time></trkpt><trkpt lat="43.78633923117311" lon="11.367264358142176"><ele>97.0</ele><time>2026-04-23T08:22:17.999Z</time></trkpt><trkpt lat="43.78642479684215" lon="11.36727364103124"><ele>97.0</ele><time>2026-04-23T08:22:18.999Z</time></trkpt><trkpt lat="43.786518264103094" lon="11.367284905600293"><ele>97.0</ele><time>2026-04-23T08:22:19.999Z</time></trkpt><trkpt lat="43.78665147013168" lon="11.367253488165975"><ele>97.0</ele><time>2026-04-23T08:22:20.999Z</time></trkpt><trkpt lat="43.78679168853563" lon="11.36725945787689"><ele>98.16666666666667</ele><time>2026-04-23T08:22:21.999Z</time></trkpt><trkpt lat="43.78690231687529" lon="11.367285951195642"><ele>99.33333333333334</ele><time>2026-04-23T08:22:22.999Z</time></trkpt><trkpt lat="43.786991202674095" lon="11.367279580699426"><ele>100.5</ele><time>2026-04-23T08:22:23.999Z</time></trkpt><trkpt lat="43.787059821900755" lon="11.367356911309793"><ele>101.66666666666666</ele><time>2026-04-23T08:22:24.999Z</time></trkpt><trkpt lat="43.78712220463101" lon="11.367390104273928"><ele>102.83333333333333</ele><time>2026-04-23T08:22:25.999Z</time></trkpt><trkpt lat="43.78718540610098" lon="11.367404194474672"><ele>104.0</ele><time>2026-04-23T08:22:26.999Z</time></trkpt><trkpt lat="43.78724944034051" lon="11.367460228276823"><ele>103.99999999999999</ele><time>2026-04-23T08:22:27.999Z</time></trkpt><trkpt lat="43.78731608021902" lon="11.36749695580954"><ele>104.0</ele><time>2026-04-23T08:22:28.999Z</time></trkpt><trkpt lat="43.78738467558299" lon="11.3675347610796"><ele>104.0</ele><time>2026-04-23T08:22:29.999Z</time></trkpt><trkpt lat="43.78745756418519" lon="11.367576470842407"><ele>104.0</ele><time>2026-04-23T08:22:30.999Z</time></trkpt><trkpt lat="43.78753033701873" lon="11.36762189605475"><ele>103.99999999999999</ele><time>2026-04-23T08:22:31.999Z</time></trkpt><trkpt lat="43.78760374868115" lon="11.367672620832936"><ele>104.0</ele><time>2026-04-23T08:22:32.999Z</time></trkpt><trkpt lat="43.78765387131735" lon="11.367761319239788"><ele>106.6</ele><time>2026-04-23T08:22:33.999Z</time></trkpt><trkpt lat="43.78768993120378" lon="11.367837538749312"><ele>109.2</ele><time>2026-04-23T08:22:36Z</time></trkpt><trkpt lat="43.78772535848897" lon="11.367956192536582"><ele>111.79999999999998</ele><time>2026-04-23T08:22:49Z</time></trkpt><trkpt lat="43.787764283850656" lon="11.368070414583958"><ele>114.39999999999999</ele><time>2026-04-23T08:22:50Z</time></trkpt><trkpt lat="43.78781217412597" lon="11.368200590618084"><ele>117.0</ele><time>2026-04-23T08:22:51Z</time></trkpt><trkpt lat="43.78786318456139" lon="11.368331240999773"><ele>117.0</ele><time>2026-04-23T08:22:52Z</time></trkpt><trkpt lat="43.78790832661503" lon="11.368450372139725"><ele>116.99999999999999</ele><time>2026-04-23T08:22:53Z</time></trkpt><trkpt lat="43.78795387361037" lon="11.368573212882248"><ele>116.99999999999999</ele><time>2026-04-23T08:22:54Z</time></trkpt><trkpt lat="43.7880169825347" lon="11.36871107327643"><ele>117.0</ele><time>2026-04-23T08:22:55Z</time></trkpt><trkpt lat="43.78811669488471" lon="11.368827786496146"><ele>117.0</ele><time>2026-04-23T08:22:56Z</time></trkpt><trkpt lat="43.78823349387346" lon="11.36894653152524"><ele>117.75</ele><time>2026-04-23T08:22:57Z</time></trkpt><trkpt lat="43.78835767195499" lon="11.369066208451597"><ele>118.5</ele><time>2026-04-23T08:22:58Z</time></trkpt><trkpt lat="43.788462864671345" lon="11.369172745617762"><ele>119.25</ele><time>2026-04-23T08:22:59Z</time></trkpt><trkpt lat="43.78858144738317" lon="11.36931665191969"><ele>120.0</ele><time>2026-04-23T08:23:00Z</time></trkpt><trkpt lat="43.78870106001716" lon="11.36945798572272"><ele>120.0</ele><time>2026-04-23T08:23:01Z</time></trkpt><trkpt lat="43.78879188710739" lon="11.36964010269729"><ele>120.0</ele><time>2026-04-23T08:23:02Z</time></trkpt><trkpt lat="43.7888841323828" lon="11.36983545295293"><ele>120.0</ele><time>2026-04-23T08:23:03Z</time></trkpt><trkpt lat="43.78898346817596" lon="11.37001808685312"><ele>120.0</ele><time>2026-04-23T08:23:04Z</time></trkpt><trkpt lat="43.789060998638746" lon="11.370171268786285"><ele>120.0</ele><time>2026-04-23T08:23:05Z</time></trkpt><trkpt lat="43.78913053278657" lon="11.370281040057659"><ele>120.0</ele><time>2026-04-23T08:23:06Z</time></trkpt><trkpt lat="43.78920216485401" lon="11.370362679803403"><ele>120.0</ele><time>2026-04-23T08:23:07Z</time></trkpt><trkpt lat="43.789301995275835" lon="11.370420032690777"><ele>120.0</ele><time>2026-04-23T08:23:08Z</time></trkpt><trkpt lat="43.78942894367475" lon="11.37047062178239"><ele>121.75</ele><time>2026-04-23T08:23:09Z</time></trkpt><trkpt lat="43.78956022648486" lon="11.370539104237043"><ele>123.5</ele><time>2026-04-23T08:23:10Z</time></trkpt><trkpt lat="43.78965423129893" lon="11.370652723237296"><ele>125.25</ele><time>2026-04-23T08:23:11Z</time></trkpt><trkpt lat="43.78970141408779" lon="11.370828353737389"><ele>127.0</ele><time>2026-04-23T08:23:12Z</time></trkpt><trkpt lat="43.789737960620705" lon="11.371024773143455"><ele>127.0</ele><time>2026-04-23T08:23:13Z</time></trkpt><trkpt lat="43.78978158249596" lon="11.371246828617759"><ele>127.0</ele><time>2026-04-23T08:23:14Z</time></trkpt><trkpt lat="43.78982487753932" lon="11.371465516914908"><ele>127.0</ele><time>2026-04-23T08:23:15Z</time></trkpt><trkpt lat="43.78987029552421" lon="11.371692519186153"><ele>127.33333333333334</ele><time>2026-04-23T08:23:16Z</time></trkpt><trkpt lat="43.78993125872185" lon="11.37192132844845"><ele>127.66666666666666</ele><time>2026-04-23T08:23:17Z</time></trkpt><trkpt lat="43.78998136012495" lon="11.372130101143657"><ele>128.0</ele><time>2026-04-23T08:23:18Z</time></trkpt><trkpt lat="43.79003792119725" lon="11.372327895354674"><ele>128.0</ele><time>2026-04-23T08:23:19Z</time></trkpt><trkpt lat="43.79010317069035" lon="11.372523222897035"><ele>128.0</ele><time>2026-04-23T08:23:20Z</time></trkpt><trkpt lat="43.79016167970381" lon="11.372691156436819"><ele>128.0</ele><time>2026-04-23T08:23:21Z</time></trkpt><trkpt lat="43.79022890445918" lon="11.372841117458707"><ele>128.0</ele><time>2026-04-23T08:23:22Z</time></trkpt><trkpt lat="43.79030659056381" lon="11.373005659002601"><ele>130.20000000000002</ele><time>2026-04-23T08:23:23Z</time></trkpt><trkpt lat="43.79040192463579" lon="11.373164807500741"><ele>132.4</ele><time>2026-04-23T08:23:24Z</time></trkpt><trkpt lat="43.79048971553087" lon="11.37329072264003"><ele>134.60000000000002</ele><time>2026-04-23T08:23:25Z</time></trkpt><trkpt lat="43.7905480691743" lon="11.373376445903165"><ele>136.8</ele><time>2026-04-23T08:23:26Z</time></trkpt><trkpt lat="43.79059940876745" lon="11.373434525592451"><ele>139.0</ele><time>2026-04-23T08:23:28Z</time></trkpt><trkpt lat="43.790589592327166" lon="11.373540965461295"><ele>139.0</ele><time>2026-04-23T08:23:46Z</time></trkpt><trkpt lat="43.79062459533353" lon="11.373640453546034"><ele>139.0</ele><time>2026-04-23T08:23:48Z</time></trkpt><trkpt lat="43.79064575832222" lon="11.373738635311291"><ele>139.0</ele><time>2026-04-23T08:23:51Z</time></trkpt><trkpt lat="43.79055647914406" lon="11.373767317922216"><ele>139.0</ele><time>2026-04-23T08:23:55Z</time></trkpt><trkpt lat="43.79047579803861" lon="11.373739169577862"><ele>139.0</ele><time>2026-04-23T08:23:57Z</time></trkpt><trkpt lat="43.790414790654616" lon="11.373715310063849"><ele>139.0</ele><time>2026-04-23T08:23:58Z</time></trkpt><trkpt lat="43.790314701265736" lon="11.373716170399257"><ele>139.0</ele><time>2026-04-23T08:24:00Z</time></trkpt><trkpt lat="43.79021900908682" lon="11.37373583852178"><ele>139.0</ele><time>2026-04-23T08:24:01.999Z</time></trkpt><trkpt lat="43.79014448788355" lon="11.373878568971614"><ele>139.0</ele><time>2026-04-23T08:24:03.999Z</time></trkpt><trkpt lat="43.79008074880526" lon="11.373960270902963"><ele>139.0</ele><time>2026-04-23T08:24:04.999Z</time></trkpt><trkpt lat="43.79002603084808" lon="11.374046138274124"><ele>139.0</ele><time>2026-04-23T08:24:05.999Z</time></trkpt><trkpt lat="43.78996042241468" lon="11.37409255255094"><ele>136.4</ele><time>2026-04-23T08:24:06.999Z</time></trkpt><trkpt lat="43.789892209607956" lon="11.374152617217502"><ele>133.8</ele><time>2026-04-23T08:24:07.999Z</time></trkpt><trkpt lat="43.78979316958961" lon="11.37423998641993"><ele>131.2</ele><time>2026-04-23T08:24:09.999Z</time></trkpt><trkpt lat="43.78969832092337" lon="11.374322157884059"><ele>128.6</ele><time>2026-04-23T08:24:11.999Z</time></trkpt><trkpt lat="43.7896093556335" lon="11.374395481674746"><ele>126.0</ele><time>2026-04-23T08:24:13.999Z</time></trkpt><trkpt lat="43.78954489115251" lon="11.374474297988845"><ele>126.0</ele><time>2026-04-23T08:24:15.999Z</time></trkpt><trkpt lat="43.78943838640071" lon="11.374561763939875"><ele>126.0</ele><time>2026-04-23T08:24:31.999Z</time></trkpt><trkpt lat="43.7893674901643" lon="11.374668564972504"><ele>126.0</ele><time>2026-04-23T08:24:33.999Z</time></trkpt><trkpt lat="43.789287605768095" lon="11.37477264414499"><ele>126.0</ele><time>2026-04-23T08:24:35.999Z</time></trkpt><trkpt lat="43.78922244648729" lon="11.374800597094175"><ele>126.0</ele><time>2026-04-23T08:24:36.999Z</time></trkpt><trkpt lat="43.78911174930644" lon="11.374832806514872"><ele>124.0</ele><time>2026-04-23T08:24:38.999Z</time></trkpt><trkpt lat="43.78904069694637" lon="11.374888453008255"><ele>122.0</ele><time>2026-04-23T08:24:40.999Z</time></trkpt><trkpt lat="43.78898299184415" lon="11.374938673127085"><ele>120.0</ele><time>2026-04-23T08:24:43Z</time></trkpt><trkpt lat="43.78893816418262" lon="11.375020146567703"><ele>118.0</ele><time>2026-04-23T08:24:45Z</time></trkpt><trkpt lat="43.78889681739767" lon="11.375116624508877"><ele>116.0</ele><time>2026-04-23T08:24:47Z</time></trkpt><trkpt lat="43.78889831118704" lon="11.37525605625392"><ele>114.0</ele><time>2026-04-23T08:24:50Z</time></trkpt><trkpt lat="43.78887882357419" lon="11.375384157911421"><ele>114.0</ele><time>2026-04-23T08:24:53Z</time></trkpt><trkpt lat="43.78883190540795" lon="11.375453992708294"><ele>114.0</ele><time>2026-04-23T08:24:55Z</time></trkpt><trkpt lat="43.78876937055254" lon="11.375470669432293"><ele>114.0</ele><time>2026-04-23T08:24:57Z</time></trkpt><trkpt lat="43.78870037253127" lon="11.375517063873223"><ele>114.0</ele><time>2026-04-23T08:24:59Z</time></trkpt><trkpt lat="43.78859815379328" lon="11.375540256627332"><ele>114.0</ele><time>2026-04-23T08:25:01Z</time></trkpt><trkpt lat="43.788534541690275" lon="11.375547581911782"><ele>114.0</ele><time>2026-04-23T08:25:02Z</time></trkpt><trkpt lat="43.78842430709527" lon="11.375565044333566"><ele>110.66666666666667</ele><time>2026-04-23T08:25:04Z</time></trkpt><trkpt lat="43.78836482292202" lon="11.375598788591592"><ele>107.33333333333333</ele><time>2026-04-23T08:25:05Z</time></trkpt><trkpt lat="43.78829821632841" lon="11.37561577560018"><ele>104.0</ele><time>2026-04-23T08:25:06Z</time></trkpt><trkpt lat="43.78819226886868" lon="11.375621598848875"><ele>100.66666666666666</ele><time>2026-04-23T08:25:08Z</time></trkpt><trkpt lat="43.78807484581607" lon="11.375651211750528"><ele>97.33333333333333</ele><time>2026-04-23T08:25:10Z</time></trkpt><trkpt lat="43.788012112435695" lon="11.375667464699985"><ele>94.0</ele><time>2026-04-23T08:25:11Z</time></trkpt><trkpt lat="43.78794832920056" lon="11.375683989508362"><ele>94.0</ele><time>2026-04-23T08:25:12Z</time></trkpt><trkpt lat="43.787843491567585" lon="11.375734301594036"><ele>94.0</ele><time>2026-04-23T08:25:14Z</time></trkpt><trkpt lat="43.78777239028277" lon="11.375729571345449"><ele>94.0</ele><time>2026-04-23T08:25:15Z</time></trkpt><trkpt lat="43.78765280675912" lon="11.375761682710582"><ele>94.0</ele><time>2026-04-23T08:25:17Z</time></trkpt><trkpt lat="43.787587349878955" lon="11.375780185548981"><ele>94.0</ele><time>2026-04-23T08:25:18Z</time></trkpt><trkpt lat="43.787487822484685" lon="11.375831467608146"><ele>93.0</ele><time>2026-04-23T08:25:20Z</time></trkpt><trkpt lat="43.78738629763304" lon="11.3758370175181"><ele>92.0</ele><time>2026-04-23T08:25:22Z</time></trkpt><trkpt lat="43.78729797552326" lon="11.375861983797705"><ele>91.0</ele><time>2026-04-23T08:25:24Z</time></trkpt><trkpt lat="43.787263293742534" lon="11.376035660031784"><ele>90.0</ele><time>2026-04-23T08:25:28Z</time></trkpt><trkpt lat="43.787276932629176" lon="11.37615602138814"><ele>89.0</ele><time>2026-04-23T08:25:30Z</time></trkpt><trkpt lat="43.78729225188528" lon="11.37626592485698"><ele>87.83333333333334</ele><time>2026-04-23T08:25:32Z</time></trkpt><trkpt lat="43.78729192516417" lon="11.376357704062034"><ele>86.66666666666667</ele><time>2026-04-23T08:25:34Z</time></trkpt><trkpt lat="43.78727742114408" lon="11.376451608296508"><ele>85.5</ele><time>2026-04-23T08:25:37Z</time></trkpt><trkpt lat="43.78718971804793" lon="11.376492044146074"><ele>84.33333333333333</ele><time>2026-04-23T08:25:48Z</time></trkpt><trkpt lat="43.78713726904021" lon="11.376544677822869"><ele>83.16666666666666</ele><time>2026-04-23T08:25:49Z</time></trkpt><trkpt lat="43.7870527714028" lon="11.376638440205442"><ele>82.0</ele><time>2026-04-23T08:25:51Z</time></trkpt><trkpt lat="43.786991471641116" lon="11.376711685734177"><ele>82.0</ele><time>2026-04-23T08:25:53Z</time></trkpt><trkpt lat="43.786965206490784" lon="11.376795468319333"><ele>82.0</ele><time>2026-04-23T08:25:55Z</time></trkpt><trkpt lat="43.786944664994465" lon="11.37688654007595"><ele>82.0</ele><time>2026-04-23T08:25:58Z</time></trkpt><trkpt lat="43.78681763440927" lon="11.376905689247272"><ele>82.0</ele><time>2026-04-23T08:26:01Z</time></trkpt><trkpt lat="43.78674396245937" lon="11.376931646512617"><ele>82.0</ele><time>2026-04-23T08:26:02Z</time></trkpt><trkpt lat="43.78666964057186" lon="11.37696686826896"><ele>82.0</ele><time>2026-04-23T08:26:04Z</time></trkpt><trkpt lat="43.78683812149353" lon="11.376916345548127"><ele>82.0</ele><time>2026-04-23T08:26:43.999Z</time></trkpt><trkpt lat="43.786926904886315" lon="11.376885294448025"><ele>82.0</ele><time>2026-04-23T08:26:45.999Z</time></trkpt><trkpt lat="43.786986143021515" lon="11.376799090505392"><ele>82.0</ele><time>2026-04-23T08:26:48Z</time></trkpt><trkpt lat="43.78702859702354" lon="11.376687636218524"><ele>82.0</ele><time>2026-04-23T08:26:50Z</time></trkpt><trkpt lat="43.78709716900179" lon="11.37661347378235"><ele>82.0</ele><time>2026-04-23T08:26:52Z</time></trkpt><trkpt lat="43.78717338741807" lon="11.376546789444333"><ele>82.0</ele><time>2026-04-23T08:26:55Z</time></trkpt><trkpt lat="43.78724368119426" lon="11.376506268303123"><ele>82.0</ele><time>2026-04-23T08:26:57Z</time></trkpt><trkpt lat="43.78731338981562" lon="11.376425147274945"><ele>82.0</ele><time>2026-04-23T08:27:16Z</time></trkpt><trkpt lat="43.78731323336007" lon="11.37630545689331"><ele>82.0</ele><time>2026-04-23T08:27:18Z</time></trkpt><trkpt lat="43.78729609963848" lon="11.376181554032536"><ele>82.0</ele><time>2026-04-23T08:27:20Z</time></trkpt><trkpt lat="43.787277046782265" lon="11.376037742479964"><ele>82.0</ele><time>2026-04-23T08:27:22Z</time></trkpt><trkpt lat="43.787285240788314" lon="11.375919218095094"><ele>83.75</ele><time>2026-04-23T08:27:24Z</time></trkpt><trkpt lat="43.787487480243556" lon="11.375838682045126"><ele>85.5</ele><time>2026-04-23T08:27:28Z</time></trkpt><trkpt lat="43.78757066806632" lon="11.375818861632766"><ele>87.25</ele><time>2026-04-23T08:27:29Z</time></trkpt><trkpt lat="43.787654149273855" lon="11.375796014202072"><ele>89.0</ele><time>2026-04-23T08:27:30Z</time></trkpt><trkpt lat="43.7877356753672" lon="11.375773893635674"><ele>89.83333333333334</ele><time>2026-04-23T08:27:31Z</time></trkpt><trkpt lat="43.78780991577516" lon="11.375766617945954"><ele>90.66666666666667</ele><time>2026-04-23T08:27:32Z</time></trkpt><trkpt lat="43.78788396945297" lon="11.375727717324505"><ele>91.5</ele><time>2026-04-23T08:27:33Z</time></trkpt><trkpt lat="43.78795874616588" lon="11.375717392210642"><ele>92.33333333333333</ele><time>2026-04-23T08:27:34Z</time></trkpt><trkpt lat="43.7880266512506" lon="11.375699748384294"><ele>93.16666666666666</ele><time>2026-04-23T08:27:35Z</time></trkpt><trkpt lat="43.78815992693609" lon="11.37565659063412"><ele>94.0</ele><time>2026-04-23T08:27:37Z</time></trkpt><trkpt lat="43.78823868073923" lon="11.375642922044886"><ele>94.0</ele><time>2026-04-23T08:27:38Z</time></trkpt><trkpt lat="43.78832222753744" lon="11.375629130184878"><ele>94.0</ele><time>2026-04-23T08:27:39Z</time></trkpt><trkpt lat="43.788400344690075" lon="11.375605072624063"><ele>94.0</ele><time>2026-04-23T08:27:40Z</time></trkpt><trkpt lat="43.78847366541359" lon="11.375585284473505"><ele>94.0</ele><time>2026-04-23T08:27:41Z</time></trkpt><trkpt lat="43.78855400013789" lon="11.375580325722948"><ele>94.0</ele><time>2026-04-23T08:27:42Z</time></trkpt><trkpt lat="43.78863735235384" lon="11.375568612663747"><ele>94.0</ele><time>2026-04-23T08:27:43Z</time></trkpt><trkpt lat="43.78871771507767" lon="11.375544580864597"><ele>97.33333333333333</ele><time>2026-04-23T08:27:44Z</time></trkpt><trkpt lat="43.78880388114087" lon="11.375495459698758"><ele>100.66666666666666</ele><time>2026-04-23T08:27:45Z</time></trkpt><trkpt lat="43.78886117091229" lon="11.375442389479726"><ele>104.0</ele><time>2026-04-23T08:27:46Z</time></trkpt><trkpt lat="43.788935676751805" lon="11.375318073358793"><ele>107.33333333333333</ele><time>2026-04-23T08:27:48Z</time></trkpt><trkpt lat="43.788956423760716" lon="11.375233539847518"><ele>110.66666666666667</ele><time>2026-04-23T08:27:49Z</time></trkpt><trkpt lat="43.78896395065979" lon="11.375141371210908"><ele>114.0</ele><time>2026-04-23T08:27:50Z</time></trkpt><trkpt lat="43.78891919658123" lon="11.37500130661976"><ele>114.0</ele><time>2026-04-23T08:27:52Z</time></trkpt><trkpt lat="43.78897846901986" lon="11.374939819375845"><ele>114.0</ele><time>2026-04-23T08:27:54Z</time></trkpt><trkpt lat="43.78906146772646" lon="11.374884878548672"><ele>114.0</ele><time>2026-04-23T08:27:56Z</time></trkpt><trkpt lat="43.789125915034205" lon="11.374853509000829"><ele>114.0</ele><time>2026-04-23T08:27:57Z</time></trkpt><trkpt lat="43.78921713435248" lon="11.374842897810638"><ele>114.0</ele><time>2026-04-23T08:27:58Z</time></trkpt><trkpt lat="43.78928023158193" lon="11.374788906845678"><ele>114.0</ele><time>2026-04-23T08:27:59Z</time></trkpt><trkpt lat="43.78933890304081" lon="11.374754263586286"><ele>116.4</ele><time>2026-04-23T08:28:00Z</time></trkpt><trkpt lat="43.78942015941906" lon="11.374638021881566"><ele>118.80000000000001</ele><time>2026-04-23T08:28:02Z</time></trkpt><trkpt lat="43.789510849483904" lon="11.374511174242022"><ele>121.19999999999999</ele><time>2026-04-23T08:28:04Z</time></trkpt><trkpt lat="43.78958371865156" lon="11.374457216079696"><ele>123.6</ele><time>2026-04-23T08:28:05Z</time></trkpt><trkpt lat="43.78966931977203" lon="11.374395006237831"><ele>126.0</ele><time>2026-04-23T08:28:06Z</time></trkpt><trkpt lat="43.78975270667776" lon="11.374325567304687"><ele>126.0</ele><time>2026-04-23T08:28:07Z</time></trkpt><trkpt lat="43.789820271303356" lon="11.374270593752437"><ele>126.0</ele><time>2026-04-23T08:28:08Z</time></trkpt><trkpt lat="43.78988015791649" lon="11.37421775129174"><ele>126.0</ele><time>2026-04-23T08:28:09Z</time></trkpt><trkpt lat="43.789933755385015" lon="11.374147468528077"><ele>126.0</ele><time>2026-04-23T08:28:10Z</time></trkpt><trkpt lat="43.790006738746214" lon="11.374085357727868"><ele>126.0</ele><time>2026-04-23T08:28:11Z</time></trkpt><trkpt lat="43.79007434319034" lon="11.374014794298498"><ele>126.0</ele><time>2026-04-23T08:28:12Z</time></trkpt><trkpt lat="43.790120488875985" lon="11.373942938749892"><ele>126.0</ele><time>2026-04-23T08:28:13Z</time></trkpt><trkpt lat="43.790171841975855" lon="11.373876456646013"><ele>126.0</ele><time>2026-04-23T08:28:14Z</time></trkpt><trkpt lat="43.79023310085394" lon="11.37374852957805"><ele>126.0</ele><time>2026-04-23T08:28:16Z</time></trkpt><trkpt lat="43.79033047592369" lon="11.37372382919793"><ele>126.0</ele><time>2026-04-23T08:28:18Z</time></trkpt><trkpt lat="43.79043987197874" lon="11.37373177306698"><ele>126.0</ele><time>2026-04-23T08:28:20Z</time></trkpt><trkpt lat="43.79050619207444" lon="11.373760031856397"><ele>128.6</ele><time>2026-04-23T08:28:21Z</time></trkpt><trkpt lat="43.79061656365683" lon="11.37379395924377"><ele>131.2</ele><time>2026-04-23T08:28:23Z</time></trkpt><trkpt lat="43.790678591716556" lon="11.37374071585794"><ele>133.8</ele><time>2026-04-23T08:28:25Z</time></trkpt><trkpt lat="43.7906393168407" lon="11.373598363525927"><ele>136.4</ele><time>2026-04-23T08:28:27Z</time></trkpt><trkpt lat="43.79059401843232" lon="11.373495908321816"><ele>139.0</ele><time>2026-04-23T08:28:29Z</time></trkpt><trkpt lat="43.79073733668564" lon="11.373537135342932"><ele>139.0</ele><time>2026-04-23T08:28:31Z</time></trkpt><trkpt lat="43.79064682110865" lon="11.373491119087557"><ele>139.0</ele><time>2026-04-23T08:28:32Z</time></trkpt><trkpt lat="43.79077950184052" lon="11.37360598662737"><ele>139.0</ele><time>2026-04-23T08:28:34Z</time></trkpt><trkpt lat="43.79087964091479" lon="11.373705803360522"><ele>139.0</ele><time>2026-04-23T08:28:35Z</time></trkpt><trkpt lat="43.790989430558724" lon="11.37378449819955"><ele>140.8</ele><time>2026-04-23T08:28:36Z</time></trkpt><trkpt lat="43.791058459899645" lon="11.373882259345798"><ele>142.60000000000002</ele><time>2026-04-23T08:28:37Z</time></trkpt><trkpt lat="43.79107140651918" lon="11.373992801985253"><ele>144.4</ele><time>2026-04-23T08:28:38Z</time></trkpt><trkpt lat="43.791111290361485" lon="11.374107101890342"><ele>146.20000000000002</ele><time>2026-04-23T08:28:39Z</time></trkpt><trkpt lat="43.791117951286026" lon="11.374260130606665"><ele>148.0</ele><time>2026-04-23T08:28:40Z</time></trkpt><trkpt lat="43.79113577555089" lon="11.374403021491142"><ele>148.0</ele><time>2026-04-23T08:28:41Z</time></trkpt><trkpt lat="43.791170331591566" lon="11.374512003648306"><ele>148.0</ele><time>2026-04-23T08:28:42Z</time></trkpt><trkpt lat="43.791234655403414" lon="11.374585729107656"><ele>148.0</ele><time>2026-04-23T08:28:43Z</time></trkpt><trkpt lat="43.79132810945572" lon="11.374611017518532"><ele>148.0</ele><time>2026-04-23T08:28:44Z</time></trkpt><trkpt lat="43.79144444387657" lon="11.374589207122428"><ele>148.0</ele><time>2026-04-23T08:28:45Z</time></trkpt><trkpt lat="43.79155711573534" lon="11.374526367808562"><ele>148.0</ele><time>2026-04-23T08:28:46Z</time></trkpt><trkpt lat="43.79165991064686" lon="11.374435738242358"><ele>148.0</ele><time>2026-04-23T08:28:47Z</time></trkpt><trkpt lat="43.791763146272075" lon="11.37436598467021"><ele>148.0</ele><time>2026-04-23T08:28:48Z</time></trkpt><trkpt lat="43.79186822858053" lon="11.374377604599687"><ele>148.0</ele><time>2026-04-23T08:28:49Z</time></trkpt><trkpt lat="43.791963888608144" lon="11.374372273272131"><ele>148.0</ele><time>2026-04-23T08:28:50Z</time></trkpt><trkpt lat="43.79204299435058" lon="11.374372830441033"><ele>149.33333333333334</ele><time>2026-04-23T08:28:51Z</time></trkpt><trkpt lat="43.79211501535022" lon="11.37437379166663"><ele>150.66666666666669</ele><time>2026-04-23T08:28:51.999Z</time></trkpt><trkpt lat="43.79220046217046" lon="11.374374153687386"><ele>152.0</ele><time>2026-04-23T08:28:52.999Z</time></trkpt><trkpt lat="43.79228637090761" lon="11.374371659554653"><ele>153.33333333333334</ele><time>2026-04-23T08:28:54Z</time></trkpt><trkpt lat="43.79237386237106" lon="11.374345030683648"><ele>154.66666666666666</ele><time>2026-04-23T08:28:55Z</time></trkpt><trkpt lat="43.79246986777995" lon="11.37432970185961"><ele>156.0</ele><time>2026-04-23T08:28:56Z</time></trkpt><trkpt lat="43.79257101726269" lon="11.374299459738706"><ele>156.0</ele><time>2026-04-23T08:28:57Z</time></trkpt><trkpt lat="43.792683641855774" lon="11.374251513098296"><ele>156.0</ele><time>2026-04-23T08:28:58Z</time></trkpt><trkpt lat="43.79280197184345" lon="11.37420021027429"><ele>156.0</ele><time>2026-04-23T08:28:59Z</time></trkpt><trkpt lat="43.79288243052068" lon="11.374142239560246"><ele>156.0</ele><time>2026-04-23T08:29:00Z</time></trkpt><trkpt lat="43.79295482462957" lon="11.37410991603686"><ele>156.0</ele><time>2026-04-23T08:29:01Z</time></trkpt><trkpt lat="43.793033828233014" lon="11.374080837977848"><ele>156.0</ele><time>2026-04-23T08:29:02Z</time></trkpt><trkpt lat="43.793095070807716" lon="11.374053540722183"><ele>156.0</ele><time>2026-04-23T08:29:03Z</time></trkpt><trkpt lat="43.793188702114534" lon="11.374002126833268"><ele>156.0</ele><time>2026-04-23T08:29:04Z</time></trkpt><trkpt lat="43.79328101222034" lon="11.373941063376629"><ele>156.0</ele><time>2026-04-23T08:29:05Z</time></trkpt><trkpt lat="43.79336897711764" lon="11.37389017304237"><ele>156.0</ele><time>2026-04-23T08:29:06Z</time></trkpt><trkpt lat="43.793455623642465" lon="11.373806031438098"><ele>159.25</ele><time>2026-04-23T08:29:07Z</time></trkpt><trkpt lat="43.79356704594405" lon="11.37373124733317"><ele>162.5</ele><time>2026-04-23T08:29:08Z</time></trkpt><trkpt lat="43.79367347602377" lon="11.373642626029243"><ele>165.75</ele><time>2026-04-23T08:29:09Z</time></trkpt><trkpt lat="43.79376645421196" lon="11.37353712824933"><ele>169.0</ele><time>2026-04-23T08:29:10Z</time></trkpt><trkpt lat="43.7938684699186" lon="11.373455908309891"><ele>169.0</ele><time>2026-04-23T08:29:11Z</time></trkpt><trkpt lat="43.793964699088626" lon="11.373380326524932"><ele>169.0</ele><time>2026-04-23T08:29:12Z</time></trkpt><trkpt lat="43.79406635975818" lon="11.373307022072032"><ele>169.0</ele><time>2026-04-23T08:29:13Z</time></trkpt><trkpt lat="43.794165206216455" lon="11.373225475984896"><ele>169.0</ele><time>2026-04-23T08:29:14Z</time></trkpt><trkpt lat="43.79424595092639" lon="11.373151234738339"><ele>169.0</ele><time>2026-04-23T08:29:15Z</time></trkpt><trkpt lat="43.79431407056605" lon="11.373081668221625"><ele>170.66666666666669</ele><time>2026-04-23T08:29:16Z</time></trkpt><trkpt lat="43.794392536472614" lon="11.373032222588696"><ele>172.33333333333334</ele><time>2026-04-23T08:29:17Z</time></trkpt><trkpt lat="43.7944540744321" lon="11.372973985040517"><ele>174.0</ele><time>2026-04-23T08:29:18Z</time></trkpt><trkpt lat="43.79453482251731" lon="11.372922289391616"><ele>175.66666666666666</ele><time>2026-04-23T08:29:19Z</time></trkpt><trkpt lat="43.7946166265221" lon="11.372860905194777"><ele>177.33333333333331</ele><time>2026-04-23T08:29:20Z</time></trkpt><trkpt lat="43.794690464751405" lon="11.37282011829211"><ele>179.0</ele><time>2026-04-23T08:29:21Z</time></trkpt><trkpt lat="43.79476637290689" lon="11.372787163591784"><ele>179.0</ele><time>2026-04-23T08:29:22Z</time></trkpt><trkpt lat="43.79485552322946" lon="11.372717343586963"><ele>179.0</ele><time>2026-04-23T08:29:23Z</time></trkpt><trkpt lat="43.79494846983089" lon="11.37265528592013"><ele>179.0</ele><time>2026-04-23T08:29:24Z</time></trkpt><trkpt lat="43.79505176706551" lon="11.37253867447439"><ele>179.0</ele><time>2026-04-23T08:29:25Z</time></trkpt><trkpt lat="43.795129561453784" lon="11.372386580692929"><ele>175.5</ele><time>2026-04-23T08:29:26Z</time></trkpt><trkpt lat="43.79523004374349" lon="11.372275145978366"><ele>172.0</ele><time>2026-04-23T08:29:27Z</time></trkpt><trkpt lat="43.79534361655768" lon="11.372188967333658"><ele>168.5</ele><time>2026-04-23T08:29:28Z</time></trkpt><trkpt lat="43.79545781820367" lon="11.372124214871457"><ele>165.0</ele><time>2026-04-23T08:29:29Z</time></trkpt><trkpt lat="43.79556987103207" lon="11.372041040879765"><ele>170.8</ele><time>2026-04-23T08:29:30Z</time></trkpt><trkpt lat="43.795679889750474" lon="11.371973886519601"><ele>176.6</ele><time>2026-04-23T08:29:31Z</time></trkpt><trkpt lat="43.7957628109914" lon="11.371914244614816"><ele>182.39999999999998</ele><time>2026-04-23T08:29:32Z</time></trkpt><trkpt lat="43.79582006468975" lon="11.371848164512588"><ele>188.2</ele><time>2026-04-23T08:29:33Z</time></trkpt><trkpt lat="43.79587059683835" lon="11.371768544129342"><ele>194.0</ele><time>2026-04-23T08:29:34Z</time></trkpt><trkpt lat="43.79592301664678" lon="11.371654709534335"><ele>194.0</ele><time>2026-04-23T08:29:35Z</time></trkpt><trkpt lat="43.795983325833056" lon="11.371533880125604"><ele>194.0</ele><time>2026-04-23T08:29:36Z</time></trkpt><trkpt lat="43.79608496975724" lon="11.371449256505207"><ele>194.0</ele><time>2026-04-23T08:29:37Z</time></trkpt><trkpt lat="43.79621512308347" lon="11.371415863321136"><ele>194.0</ele><time>2026-04-23T08:29:38Z</time></trkpt><trkpt lat="43.79630564576933" lon="11.371376294524833"><ele>201.66666666666669</ele><time>2026-04-23T08:29:39Z</time></trkpt><trkpt lat="43.796374029536395" lon="11.371328399623499"><ele>209.33333333333331</ele><time>2026-04-23T08:29:40Z</time></trkpt><trkpt lat="43.79667818177646" lon="11.371268168991717"><ele>217.0</ele><time>2026-04-23T08:29:42Z</time></trkpt><trkpt lat="43.79674840364163" lon="11.371251544992031"><ele>214.39999999999998</ele><time>2026-04-23T08:29:43Z</time></trkpt><trkpt lat="43.79688592101426" lon="11.371215943854784"><ele>211.79999999999998</ele><time>2026-04-23T08:29:45Z</time></trkpt><trkpt lat="43.796988031535065" lon="11.37118947322808"><ele>209.2</ele><time>2026-04-23T08:29:46Z</time></trkpt><trkpt lat="43.79708829318569" lon="11.371133946626575"><ele>206.6</ele><time>2026-04-23T08:29:47Z</time></trkpt><trkpt lat="43.79716420202415" lon="11.37107907506441"><ele>204.0</ele><time>2026-04-23T08:29:48Z</time></trkpt><trkpt lat="43.79722973329113" lon="11.371012407702185"><ele>204.0</ele><time>2026-04-23T08:29:49Z</time></trkpt><trkpt lat="43.797292698244156" lon="11.3709061881264"><ele>204.0</ele><time>2026-04-23T08:29:50Z</time></trkpt><trkpt lat="43.79734091603209" lon="11.370776065177676"><ele>204.0</ele><time>2026-04-23T08:29:51Z</time></trkpt><trkpt lat="43.797379688010366" lon="11.370636771974644"><ele>204.0</ele><time>2026-04-23T08:29:52Z</time></trkpt><trkpt lat="43.79742706165163" lon="11.370498305989251"><ele>204.0</ele><time>2026-04-23T08:29:53Z</time></trkpt><trkpt lat="43.79747530746392" lon="11.37037125671884"><ele>201.79999999999998</ele><time>2026-04-23T08:29:54Z</time></trkpt><trkpt lat="43.797528001379355" lon="11.37025279733659"><ele>199.6</ele><time>2026-04-23T08:29:55Z</time></trkpt><trkpt lat="43.797588606627436" lon="11.370155577107393"><ele>197.4</ele><time>2026-04-23T08:29:56Z</time></trkpt><trkpt lat="43.797653171104656" lon="11.370051071471984"><ele>195.2</ele><time>2026-04-23T08:29:57Z</time></trkpt><trkpt lat="43.79771592440204" lon="11.36995340265905"><ele>193.0</ele><time>2026-04-23T08:29:58Z</time></trkpt><trkpt lat="43.79778775909271" lon="11.369858973566393"><ele>192.99999999999997</ele><time>2026-04-23T08:29:59Z</time></trkpt><trkpt lat="43.79786141136952" lon="11.369779251684022"><ele>193.0</ele><time>2026-04-23T08:30:00Z</time></trkpt><trkpt lat="43.797934986859" lon="11.369702134824838"><ele>193.0</ele><time>2026-04-23T08:30:01Z</time></trkpt><trkpt lat="43.798004883698624" lon="11.369627074141379"><ele>193.0</ele><time>2026-04-23T08:30:02Z</time></trkpt><trkpt lat="43.798068658000204" lon="11.369564829951075"><ele>192.99999999999997</ele><time>2026-04-23T08:30:03Z</time></trkpt><trkpt lat="43.79811691198768" lon="11.369493703439444"><ele>193.0</ele><time>2026-04-23T08:30:04Z</time></trkpt><trkpt lat="43.79817800500533" lon="11.369420990690541"><ele>192.33333333333331</ele><time>2026-04-23T08:30:05Z</time></trkpt><trkpt lat="43.798244936820026" lon="11.3693448360292"><ele>191.66666666666666</ele><time>2026-04-23T08:30:07Z</time></trkpt><trkpt lat="43.79832656728528" lon="11.369286351972834"><ele>191.0</ele><time>2026-04-23T08:30:09Z</time></trkpt><trkpt lat="43.79839566993246" lon="11.369201909213425"><ele>190.33333333333331</ele><time>2026-04-23T08:30:11Z</time></trkpt><trkpt lat="43.798441865311176" lon="11.369142319208436"><ele>189.66666666666666</ele><time>2026-04-23T08:30:12Z</time></trkpt><trkpt lat="43.79849109217645" lon="11.369083159472774"><ele>189.0</ele><time>2026-04-23T08:30:13Z</time></trkpt><trkpt lat="43.798567374630856" lon="11.369011244571437"><ele>189.0</ele><time>2026-04-23T08:30:14Z</time></trkpt><trkpt lat="43.798648536464036" lon="11.368935144271306"><ele>189.0</ele><time>2026-04-23T08:30:15Z</time></trkpt><trkpt lat="43.79873829619277" lon="11.368851548383665"><ele>189.0</ele><time>2026-04-23T08:30:16Z</time></trkpt><trkpt lat="43.79884312377759" lon="11.368759465830498"><ele>189.0</ele><time>2026-04-23T08:30:17Z</time></trkpt><trkpt lat="43.79896716743343" lon="11.36866406810932"><ele>192.0</ele><time>2026-04-23T08:30:18Z</time></trkpt><trkpt lat="43.799092017190226" lon="11.368552711548281"><ele>195.0</ele><time>2026-04-23T08:30:19Z</time></trkpt><trkpt lat="43.79920426450287" lon="11.368453301068431"><ele>198.0</ele><time>2026-04-23T08:30:20Z</time></trkpt><trkpt lat="43.79932821670346" lon="11.368370520199976"><ele>201.0</ele><time>2026-04-23T08:30:21Z</time></trkpt><trkpt lat="43.799475887281595" lon="11.368297990975192"><ele>201.0</ele><time>2026-04-23T08:30:22Z</time></trkpt><trkpt lat="43.79962075028316" lon="11.36822769528821"><ele>201.0</ele><time>2026-04-23T08:30:23Z</time></trkpt><trkpt lat="43.79976553205695" lon="11.36817224048556"><ele>201.0</ele><time>2026-04-23T08:30:24Z</time></trkpt><trkpt lat="43.799907623603296" lon="11.368117610336927"><ele>201.0</ele><time>2026-04-23T08:30:25Z</time></trkpt><trkpt lat="43.80002860367415" lon="11.3680716928934"><ele>201.0</ele><time>2026-04-23T08:30:26Z</time></trkpt><trkpt lat="43.80014202803963" lon="11.367988119645196"><ele>201.0</ele><time>2026-04-23T08:30:27Z</time></trkpt><trkpt lat="43.80023254696927" lon="11.367908701507002"><ele>201.0</ele><time>2026-04-23T08:30:28Z</time></trkpt><trkpt lat="43.80030365465245" lon="11.367833186712593"><ele>202.5</ele><time>2026-04-23T08:30:29Z</time></trkpt><trkpt lat="43.8003551246452" lon="11.367696194463514"><ele>204.0</ele><time>2026-04-23T08:30:30Z</time></trkpt><trkpt lat="43.80036630729616" lon="11.367557932185703"><ele>205.5</ele><time>2026-04-23T08:30:31Z</time></trkpt><trkpt lat="43.800393942015624" lon="11.367391053039688"><ele>207.0</ele><time>2026-04-23T08:30:32Z</time></trkpt><trkpt lat="43.80043934481804" lon="11.367242228437654"><ele>212.0</ele><time>2026-04-23T08:30:33Z</time></trkpt><trkpt lat="43.80047398206117" lon="11.367089525541903"><ele>217.0</ele><time>2026-04-23T08:30:34Z</time></trkpt><trkpt lat="43.80053694299862" lon="11.36699719932563"><ele>222.0</ele><time>2026-04-23T08:30:35Z</time></trkpt><trkpt lat="43.800610676547535" lon="11.366906559939974"><ele>227.0</ele><time>2026-04-23T08:30:36Z</time></trkpt><trkpt lat="43.80071001055029" lon="11.366848626401746"><ele>232.0</ele><time>2026-04-23T08:30:37Z</time></trkpt><trkpt lat="43.800787989767876" lon="11.36680567543693"><ele>232.0</ele><time>2026-04-23T08:30:38Z</time></trkpt><trkpt lat="43.80090294615991" lon="11.366728714660947"><ele>232.0</ele><time>2026-04-23T08:30:39Z</time></trkpt><trkpt lat="43.80103088827269" lon="11.366649634754516"><ele>232.0</ele><time>2026-04-23T08:30:40Z</time></trkpt><trkpt lat="43.80116136445278" lon="11.36658054587477"><ele>232.0</ele><time>2026-04-23T08:30:41Z</time></trkpt><trkpt lat="43.80124388404411" lon="11.366539685467062"><ele>228.0</ele><time>2026-04-23T08:30:42Z</time></trkpt><trkpt lat="43.80132805231502" lon="11.366507952739775"><ele>224.0</ele><time>2026-04-23T08:31:38Z</time></trkpt><trkpt lat="43.801397498851806" lon="11.366435015313252"><ele>220.0</ele><time>2026-04-23T08:31:41Z</time></trkpt><trkpt lat="43.80136359792607" lon="11.366526291328501"><ele>216.0</ele><time>2026-04-23T08:31:45Z</time></trkpt><trkpt lat="43.801215936334984" lon="11.366510562529145"><ele>212.0</ele><time>2026-04-23T08:31:46Z</time></trkpt><trkpt lat="43.801127624370814" lon="11.366586082897065"><ele>217.0</ele><time>2026-04-23T08:31:47Z</time></trkpt><trkpt lat="43.80097104330216" lon="11.36666795965392"><ele>222.0</ele><time>2026-04-23T08:31:48Z</time></trkpt><trkpt lat="43.800849211636766" lon="11.366742226312276"><ele>227.0</ele><time>2026-04-23T08:31:49Z</time></trkpt><trkpt lat="43.80071234582147" lon="11.366781568078514"><ele>232.0</ele><time>2026-04-23T08:31:50Z</time></trkpt><trkpt lat="43.80061524365359" lon="11.366850021768142"><ele>232.0</ele><time>2026-04-23T08:31:51Z</time></trkpt><trkpt lat="43.80052810919453" lon="11.366920402305078"><ele>232.0</ele><time>2026-04-23T08:31:52Z</time></trkpt><trkpt lat="43.80044793173513" lon="11.36700994005363"><ele>232.0</ele><time>2026-04-23T08:31:53Z</time></trkpt><trkpt lat="43.800384394972006" lon="11.367167864380745"><ele>232.0</ele><time>2026-04-23T08:31:54Z</time></trkpt><trkpt lat="43.80034736544306" lon="11.367333084662503"><ele>233.0</ele><time>2026-04-23T08:31:55Z</time></trkpt><trkpt lat="43.80032352868815" lon="11.367506846386549"><ele>234.0</ele><time>2026-04-23T08:31:56Z</time></trkpt><trkpt lat="43.80029762943158" lon="11.36765123785217"><ele>235.0</ele><time>2026-04-23T08:31:57Z</time></trkpt><trkpt lat="43.80027038797146" lon="11.367760811278218"><ele>236.0</ele><time>2026-04-23T08:31:58Z</time></trkpt><trkpt lat="43.80022444058439" lon="11.367855792001361"><ele>237.0</ele><time>2026-04-23T08:31:59Z</time></trkpt><trkpt lat="43.800146040956946" lon="11.367903428019114"><ele>237.0</ele><time>2026-04-23T08:32:00Z</time></trkpt><trkpt lat="43.80004079605913" lon="11.367973436949375"><ele>237.0</ele><time>2026-04-23T08:32:01Z</time></trkpt><trkpt lat="43.799934012524254" lon="11.368020412327267"><ele>237.0</ele><time>2026-04-23T08:32:02Z</time></trkpt><trkpt lat="43.799821216402485" lon="11.368068481399533"><ele>237.0</ele><time>2026-04-23T08:32:03Z</time></trkpt><trkpt lat="43.79971931294768" lon="11.368111908468544"><ele>235.5</ele><time>2026-04-23T08:32:04Z</time></trkpt><trkpt lat="43.79962793090976" lon="11.36815187155084"><ele>234.0</ele><time>2026-04-23T08:32:05Z</time></trkpt><trkpt lat="43.799542968192824" lon="11.368190322703498"><ele>232.5</ele><time>2026-04-23T08:32:06Z</time></trkpt><trkpt lat="43.799474122119975" lon="11.368221415581974"><ele>231.0</ele><time>2026-04-23T08:32:07Z</time></trkpt><trkpt lat="43.79940294495262" lon="11.368255474315749"><ele>229.5</ele><time>2026-04-23T08:32:08Z</time></trkpt><trkpt lat="43.79932513840916" lon="11.36829493288376"><ele>228.0</ele><time>2026-04-23T08:32:09Z</time></trkpt><trkpt lat="43.799242831221115" lon="11.368337526585279"><ele>228.0</ele><time>2026-04-23T08:32:10Z</time></trkpt><trkpt lat="43.79916019928228" lon="11.36842278454356"><ele>228.0</ele><time>2026-04-23T08:32:11Z</time></trkpt><trkpt lat="43.79909028147987" lon="11.368473627685932"><ele>228.0</ele><time>2026-04-23T08:32:12Z</time></trkpt><trkpt lat="43.79902006529106" lon="11.368546088912728"><ele>228.0</ele><time>2026-04-23T08:32:13Z</time></trkpt><trkpt lat="43.79893601778506" lon="11.368596062268294"><ele>228.0</ele><time>2026-04-23T08:32:14Z</time></trkpt><trkpt lat="43.798859755706694" lon="11.368685405720216"><ele>228.0</ele><time>2026-04-23T08:32:15Z</time></trkpt><trkpt lat="43.79878979910586" lon="11.368750385947234"><ele>228.0</ele><time>2026-04-23T08:32:16Z</time></trkpt><trkpt lat="43.798704840406444" lon="11.368814626513773"><ele>228.0</ele><time>2026-04-23T08:32:17Z</time></trkpt><trkpt lat="43.798608474291775" lon="11.368891859844767"><ele>228.0</ele><time>2026-04-23T08:32:18Z</time></trkpt><trkpt lat="43.79852440182544" lon="11.368958353640142"><ele>228.0</ele><time>2026-04-23T08:32:19Z</time></trkpt><trkpt lat="43.798462066781084" lon="11.369059474935815"><ele>227.25</ele><time>2026-04-23T08:32:20Z</time></trkpt><trkpt lat="43.798367308887585" lon="11.36915845746231"><ele>226.5</ele><time>2026-04-23T08:32:21Z</time></trkpt><trkpt lat="43.79828069499398" lon="11.36924504072079"><ele>225.75</ele><time>2026-04-23T08:32:21.999Z</time></trkpt><trkpt lat="43.798190499795965" lon="11.369339479428914"><ele>225.0</ele><time>2026-04-23T08:32:22.999Z</time></trkpt><trkpt lat="43.79809128523934" lon="11.369428914844567"><ele>225.0</ele><time>2026-04-23T08:32:23.999Z</time></trkpt><trkpt lat="43.7980005075599" lon="11.369567312644204"><ele>225.0</ele><time>2026-04-23T08:32:24.999Z</time></trkpt><trkpt lat="43.79788673223886" lon="11.369700860212893"><ele>225.0</ele><time>2026-04-23T08:32:25.999Z</time></trkpt><trkpt lat="43.797764054249804" lon="11.369831901215642"><ele>225.0</ele><time>2026-04-23T08:32:26.999Z</time></trkpt><trkpt lat="43.79765471936693" lon="11.369961856099405"><ele>226.5</ele><time>2026-04-23T08:32:27.999Z</time></trkpt><trkpt lat="43.79755031430821" lon="11.370097420221791"><ele>228.0</ele><time>2026-04-23T08:32:28.999Z</time></trkpt><trkpt lat="43.797459580195316" lon="11.370266741116753"><ele>229.5</ele><time>2026-04-23T08:32:29.999Z</time></trkpt><trkpt lat="43.79739333602568" lon="11.370439392495149"><ele>231.0</ele><time>2026-04-23T08:32:30.999Z</time></trkpt><trkpt lat="43.797347562895" lon="11.37060578383981"><ele>224.25</ele><time>2026-04-23T08:32:31.999Z</time></trkpt><trkpt lat="43.79727961999711" lon="11.370780215769052"><ele>217.5</ele><time>2026-04-23T08:32:32.999Z</time></trkpt><trkpt lat="43.797226944339265" lon="11.370902835360944"><ele>210.75</ele><time>2026-04-23T08:32:33.999Z</time></trkpt><trkpt lat="43.79716438153012" lon="11.371023006640945"><ele>204.0</ele><time>2026-04-23T08:32:34.999Z</time></trkpt><trkpt lat="43.79707655306856" lon="11.37108951498319"><ele>204.0</ele><time>2026-04-23T08:32:35.999Z</time></trkpt><trkpt lat="43.7969808463128" lon="11.371122125941719"><ele>204.0</ele><time>2026-04-23T08:32:36.999Z</time></trkpt><trkpt lat="43.796842336790036" lon="11.37115913040319"><ele>204.0</ele><time>2026-04-23T08:32:37.999Z</time></trkpt><trkpt lat="43.796686744298725" lon="11.371198671459117"><ele>204.0</ele><time>2026-04-23T08:32:38.999Z</time></trkpt><trkpt lat="43.796542851627905" lon="11.37123669232511"><ele>207.25</ele><time>2026-04-23T08:32:39.999Z</time></trkpt><trkpt lat="43.79639531727015" lon="11.37128088894569"><ele>210.5</ele><time>2026-04-23T08:32:40.999Z</time></trkpt><trkpt lat="43.796266440827566" lon="11.371343247513446"><ele>213.75</ele><time>2026-04-23T08:32:41.999Z</time></trkpt><trkpt lat="43.7961292054083" lon="11.371392133104505"><ele>217.0</ele><time>2026-04-23T08:32:42.999Z</time></trkpt><trkpt lat="43.796005512102916" lon="11.371424406065616"><ele>212.39999999999998</ele><time>2026-04-23T08:32:43.999Z</time></trkpt><trkpt lat="43.79591879499451" lon="11.371496102455247"><ele>207.79999999999998</ele><time>2026-04-23T08:32:44.999Z</time></trkpt><trkpt lat="43.79587961874042" lon="11.371654407490274"><ele>203.2</ele><time>2026-04-23T08:32:45.999Z</time></trkpt><trkpt lat="43.79584867883288" lon="11.371773238946421"><ele>198.6</ele><time>2026-04-23T08:32:46.999Z</time></trkpt><trkpt lat="43.79576775134441" lon="11.371891760402919"><ele>194.0</ele><time>2026-04-23T08:32:47.999Z</time></trkpt><trkpt lat="43.79564968517431" lon="11.37194336843807"><ele>194.0</ele><time>2026-04-23T08:32:48.999Z</time></trkpt><trkpt lat="43.795504852569884" lon="11.372037484794921"><ele>194.0</ele><time>2026-04-23T08:32:49.999Z</time></trkpt><trkpt lat="43.795384037252965" lon="11.372137152769314"><ele>194.0</ele><time>2026-04-23T08:32:50.999Z</time></trkpt><trkpt lat="43.79526035939523" lon="11.372202197666528"><ele>194.0</ele><time>2026-04-23T08:32:51.999Z</time></trkpt><trkpt lat="43.79514902103165" lon="11.372302888737757"><ele>190.25</ele><time>2026-04-23T08:32:52.999Z</time></trkpt><trkpt lat="43.79506567026942" lon="11.372458316134844"><ele>186.5</ele><time>2026-04-23T08:32:53.999Z</time></trkpt><trkpt lat="43.79496704970978" lon="11.37259561164025"><ele>182.75</ele><time>2026-04-23T08:32:54.999Z</time></trkpt><trkpt lat="43.794844828888095" lon="11.37268745702882"><ele>179.0</ele><time>2026-04-23T08:32:55.999Z</time></trkpt><trkpt lat="43.79470844798208" lon="11.372778809884498"><ele>179.0</ele><time>2026-04-23T08:32:56.999Z</time></trkpt><trkpt lat="43.794586113042456" lon="11.372843054083189"><ele>179.0</ele><time>2026-04-23T08:32:57.999Z</time></trkpt><trkpt lat="43.79442444581967" lon="11.372941766256508"><ele>179.0</ele><time>2026-04-23T08:32:58.999Z</time></trkpt><trkpt lat="43.79428202545406" lon="11.373057157337513"><ele>175.66666666666666</ele><time>2026-04-23T08:32:59.999Z</time></trkpt><trkpt lat="43.7941423248297" lon="11.373182427066446"><ele>172.33333333333334</ele><time>2026-04-23T08:33:00.999Z</time></trkpt><trkpt lat="43.79401529216953" lon="11.373295222302504"><ele>169.0</ele><time>2026-04-23T08:33:01.999Z</time></trkpt><trkpt lat="43.793896322035394" lon="11.373397562195693"><ele>169.0</ele><time>2026-04-23T08:33:02.999Z</time></trkpt><trkpt lat="43.79380127834357" lon="11.37349101844198"><ele>169.0</ele><time>2026-04-23T08:33:03.999Z</time></trkpt><trkpt lat="43.79369634550181" lon="11.373565575157414"><ele>169.0</ele><time>2026-04-23T08:33:05Z</time></trkpt><trkpt lat="43.79358142343018" lon="11.373666431082414"><ele>169.0</ele><time>2026-04-23T08:33:06Z</time></trkpt><trkpt lat="43.793438133117924" lon="11.373780519592012"><ele>165.75</ele><time>2026-04-23T08:33:07Z</time></trkpt><trkpt lat="43.79333128860139" lon="11.373858501849355"><ele>162.5</ele><time>2026-04-23T08:33:08Z</time></trkpt><trkpt lat="43.79322221209589" lon="11.373930542559822"><ele>159.25</ele><time>2026-04-23T08:33:09Z</time></trkpt><trkpt lat="43.793102691575825" lon="11.374022814837137"><ele>156.0</ele><time>2026-04-23T08:33:10Z</time></trkpt><trkpt lat="43.79295223325464" lon="11.37410051664798"><ele>156.0</ele><time>2026-04-23T08:33:11Z</time></trkpt><trkpt lat="43.79280597333517" lon="11.374162753844638"><ele>156.0</ele><time>2026-04-23T08:33:12Z</time></trkpt><trkpt lat="43.7926779858872" lon="11.374220911060592"><ele>156.0</ele><time>2026-04-23T08:33:13Z</time></trkpt><trkpt lat="43.792573453325474" lon="11.374254100098517"><ele>156.0</ele><time>2026-04-23T08:33:14Z</time></trkpt><trkpt lat="43.79247187285795" lon="11.374281555522664"><ele>156.0</ele><time>2026-04-23T08:33:15Z</time></trkpt><trkpt lat="43.79237714051287" lon="11.374288275922463"><ele>156.0</ele><time>2026-04-23T08:33:16Z</time></trkpt><trkpt lat="43.79225810513494" lon="11.374301327475782"><ele>156.0</ele><time>2026-04-23T08:33:17Z</time></trkpt><trkpt lat="43.792135004091286" lon="11.3743190632261"><ele>156.0</ele><time>2026-04-23T08:33:18Z</time></trkpt><trkpt lat="43.792026826395194" lon="11.374324861762222"><ele>156.0</ele><time>2026-04-23T08:33:19Z</time></trkpt><trkpt lat="43.7919403456006" lon="11.374331171592937"><ele>156.0</ele><time>2026-04-23T08:33:20Z</time></trkpt><trkpt lat="43.791844012307436" lon="11.37434542229091"><ele>156.0</ele><time>2026-04-23T08:33:21Z</time></trkpt><trkpt lat="43.79173691366033" lon="11.37436521884304"><ele>156.0</ele><time>2026-04-23T08:33:22Z</time></trkpt><trkpt lat="43.79162220065656" lon="11.374411798695816"><ele>156.0</ele><time>2026-04-23T08:33:23Z</time></trkpt><trkpt lat="43.791520406781906" lon="11.374499508444805"><ele>156.0</ele><time>2026-04-23T08:33:24Z</time></trkpt><trkpt lat="43.791409854809125" lon="11.374546713248202"><ele>154.4</ele><time>2026-04-23T08:33:25Z</time></trkpt><trkpt lat="43.79131127793028" lon="11.37454461537263"><ele>152.8</ele><time>2026-04-23T08:33:26Z</time></trkpt><trkpt lat="43.79122870971316" lon="11.374523529691757"><ele>151.20000000000002</ele><time>2026-04-23T08:33:27Z</time></trkpt><trkpt lat="43.791165624506064" lon="11.374484025967794"><ele>149.6</ele><time>2026-04-23T08:33:28Z</time></trkpt><trkpt lat="43.79111385555751" lon="11.374344000229609"><ele>148.0</ele><time>2026-04-23T08:33:29Z</time></trkpt><trkpt lat="43.79114758632865" lon="11.374198173420384"><ele>148.0</ele><time>2026-04-23T08:33:30Z</time></trkpt><trkpt lat="43.79110350651675" lon="11.374028872804036"><ele>148.0</ele><time>2026-04-23T08:33:31Z</time></trkpt><trkpt lat="43.79107664569485" lon="11.373861911322544"><ele>148.0</ele><time>2026-04-23T08:33:32Z</time></trkpt><trkpt lat="43.79101334955725" lon="11.373736555355144"><ele>148.0</ele><time>2026-04-23T08:33:33Z</time></trkpt><trkpt lat="43.79090561035526" lon="11.3736480886117"><ele>145.75</ele><time>2026-04-23T08:33:34Z</time></trkpt><trkpt lat="43.79078120163339" lon="11.373569355485468"><ele>143.5</ele><time>2026-04-23T08:33:35Z</time></trkpt><trkpt lat="43.790677629458685" lon="11.373479720153773"><ele>141.25</ele><time>2026-04-23T08:33:36Z</time></trkpt><trkpt lat="43.79059345195633" lon="11.373385243785867"><ele>139.0</ele><time>2026-04-23T08:33:37Z</time></trkpt><trkpt lat="43.79052218166501" lon="11.37329401116124"><ele>139.0</ele><time>2026-04-23T08:33:38Z</time></trkpt><trkpt lat="43.79044817579103" lon="11.373199151783833"><ele>139.0</ele><time>2026-04-23T08:33:39Z</time></trkpt><trkpt lat="43.79037511726029" lon="11.373083795402868"><ele>139.0</ele><time>2026-04-23T08:33:40Z</time></trkpt><trkpt lat="43.79030477849507" lon="11.372967009557769"><ele>139.0</ele><time>2026-04-23T08:33:41Z</time></trkpt><trkpt lat="43.790232381403406" lon="11.372834404470801"><ele>139.0</ele><time>2026-04-23T08:33:42Z</time></trkpt><trkpt lat="43.79016654422177" lon="11.372683936404885"><ele>136.5</ele><time>2026-04-23T08:33:43Z</time></trkpt><trkpt lat="43.79010729113647" lon="11.372518746482053"><ele>134.0</ele><time>2026-04-23T08:33:44Z</time></trkpt><trkpt lat="43.79004905950452" lon="11.372351038873733"><ele>131.5</ele><time>2026-04-23T08:33:45Z</time></trkpt><trkpt lat="43.790009010247466" lon="11.372185396936937"><ele>129.0</ele><time>2026-04-23T08:33:46Z</time></trkpt><trkpt lat="43.789971738756975" lon="11.372030634149445"><ele>129.0</ele><time>2026-04-23T08:33:47Z</time></trkpt><trkpt lat="43.78993682364138" lon="11.371876871336232"><ele>129.0</ele><time>2026-04-23T08:33:48Z</time></trkpt><trkpt lat="43.7899036889403" lon="11.371725196910706"><ele>129.0</ele><time>2026-04-23T08:33:49Z</time></trkpt><trkpt lat="43.78987621548252" lon="11.371557867463988"><ele>129.0</ele><time>2026-04-23T08:33:50Z</time></trkpt><trkpt lat="43.78985008330293" lon="11.371395115260679"><ele>128.5</ele><time>2026-04-23T08:33:51Z</time></trkpt><trkpt lat="43.789816403150745" lon="11.371236774419703"><ele>128.0</ele><time>2026-04-23T08:33:52Z</time></trkpt><trkpt lat="43.789784613944825" lon="11.371074338151843"><ele>127.5</ele><time>2026-04-23T08:33:53Z</time></trkpt><trkpt lat="43.78975277596933" lon="11.370920918234944"><ele>127.0</ele><time>2026-04-23T08:33:54Z</time></trkpt><trkpt lat="43.78971696421342" lon="11.370782061536502"><ele>127.00000000000001</ele><time>2026-04-23T08:33:55Z</time></trkpt><trkpt lat="43.789681681646954" lon="11.370670165545269"><ele>127.0</ele><time>2026-04-23T08:33:56Z</time></trkpt><trkpt lat="43.78962484455507" lon="11.37057573681549"><ele>127.0</ele><time>2026-04-23T08:33:58Z</time></trkpt><trkpt lat="43.78956895166453" lon="11.370522561632376"><ele>127.0</ele><time>2026-04-23T08:35:22.998Z</time></trkpt><trkpt lat="43.78950276147748" lon="11.370468199849999"><ele>127.00000000000001</ele><time>2026-04-23T08:35:23.998Z</time></trkpt><trkpt lat="43.789414074284416" lon="11.370415007120718"><ele>127.0</ele><time>2026-04-23T08:35:24.998Z</time></trkpt><trkpt lat="43.78930500186507" lon="11.370365381068716"><ele>125.6</ele><time>2026-04-23T08:35:25.998Z</time></trkpt><trkpt lat="43.789220772574545" lon="11.37032743322422"><ele>124.19999999999999</ele><time>2026-04-23T08:35:26.998Z</time></trkpt><trkpt lat="43.78916087712151" lon="11.370295514818938"><ele>122.8</ele><time>2026-04-23T08:35:28.998Z</time></trkpt><trkpt lat="43.7890345273744" lon="11.370058862505614"><ele>121.4</ele><time>2026-04-23T08:35:30.998Z</time></trkpt><trkpt lat="43.78896830678002" lon="11.370115950938896"><ele>120.0</ele><time>2026-04-23T08:35:32.998Z</time></trkpt><trkpt lat="43.788914440178594" lon="11.370184191532067"><ele>120.0</ele><time>2026-04-23T08:35:35.998Z</time></trkpt><trkpt lat="43.78904466835716" lon="11.37010774762476"><ele>120.0</ele><time>2026-04-23T08:35:43.999Z</time></trkpt><trkpt lat="43.788991085735134" lon="11.369958258357403"><ele>120.0</ele><time>2026-04-23T08:35:46.999Z</time></trkpt><trkpt lat="43.78892583447279" lon="11.369830045595586"><ele>120.0</ele><time>2026-04-23T08:35:47.999Z</time></trkpt><trkpt lat="43.78884116520811" lon="11.369681531877177"><ele>120.0</ele><time>2026-04-23T08:35:48.999Z</time></trkpt><trkpt lat="43.78874870614122" lon="11.369490648968082"><ele>120.0</ele><time>2026-04-23T08:35:49.999Z</time></trkpt><trkpt lat="43.78862606984517" lon="11.369294764352286"><ele>120.0</ele><time>2026-04-23T08:35:50.999Z</time></trkpt><trkpt lat="43.78847788778824" lon="11.369111607868144"><ele>120.0</ele><time>2026-04-23T08:35:51.999Z</time></trkpt><trkpt lat="43.78834373875338" lon="11.368960175088674"><ele>120.0</ele><time>2026-04-23T08:35:52.999Z</time></trkpt><trkpt lat="43.78819365173132" lon="11.368791218771104"><ele>120.0</ele><time>2026-04-23T08:35:53.999Z</time></trkpt><trkpt lat="43.78809225779763" lon="11.368686642607788"><ele>119.4</ele><time>2026-04-23T08:35:54.999Z</time></trkpt><trkpt lat="43.788023190517514" lon="11.368580516367937"><ele>118.8</ele><time>2026-04-23T08:35:55.999Z</time></trkpt><trkpt lat="43.78794666835743" lon="11.36848233638169"><ele>118.19999999999999</ele><time>2026-04-23T08:35:57.999Z</time></trkpt><trkpt lat="43.78790099677627" lon="11.368331161268117"><ele>117.6</ele><time>2026-04-23T08:35:58.999Z</time></trkpt><trkpt lat="43.78783750611273" lon="11.368187717958383"><ele>117.0</ele><time>2026-04-23T08:35:59.999Z</time></trkpt><trkpt lat="43.78777643630536" lon="11.368034051302025"><ele>117.39999999999999</ele><time>2026-04-23T08:36:00.999Z</time></trkpt><trkpt lat="43.787737513052754" lon="11.367887646340979"><ele>117.79999999999998</ele><time>2026-04-23T08:36:01.999Z</time></trkpt><trkpt lat="43.78769555584209" lon="11.367762549583649"><ele>118.2</ele><time>2026-04-23T08:36:02.999Z</time></trkpt><trkpt lat="43.78764556209996" lon="11.367674937556083"><ele>118.6</ele><time>2026-04-23T08:36:03.999Z</time></trkpt><trkpt lat="43.78757439283906" lon="11.367586564595133"><ele>119.0</ele><time>2026-04-23T08:36:04.999Z</time></trkpt><trkpt lat="43.78747497990628" lon="11.36751353617274"><ele>115.25</ele><time>2026-04-23T08:36:05.999Z</time></trkpt><trkpt lat="43.787354778317486" lon="11.36745709380599"><ele>111.5</ele><time>2026-04-23T08:36:06.999Z</time></trkpt><trkpt lat="43.78722793804629" lon="11.367400786095722"><ele>107.75</ele><time>2026-04-23T08:36:07.999Z</time></trkpt><trkpt lat="43.78711787496731" lon="11.367334391908082"><ele>104.0</ele><time>2026-04-23T08:36:08.999Z</time></trkpt><trkpt lat="43.78701676069269" lon="11.36728909925603"><ele>104.0</ele><time>2026-04-23T08:36:09.999Z</time></trkpt><trkpt lat="43.78692201381106" lon="11.367258180952389"><ele>104.0</ele><time>2026-04-23T08:36:10.999Z</time></trkpt><trkpt lat="43.786806597883874" lon="11.36723711373228"><ele>104.0</ele><time>2026-04-23T08:36:11.999Z</time></trkpt><trkpt lat="43.786693428376715" lon="11.367248047178716"><ele>104.0</ele><time>2026-04-23T08:36:12.999Z</time></trkpt><trkpt lat="43.78657269931181" lon="11.367243028966746"><ele>104.0</ele><time>2026-04-23T08:36:13.999Z</time></trkpt><trkpt lat="43.786473375501316" lon="11.367244248793282"><ele>103.99999999999999</ele><time>2026-04-23T08:36:14.999Z</time></trkpt><trkpt lat="43.78638201951797" lon="11.367237057581912"><ele>104.0</ele><time>2026-04-23T08:36:15.999Z</time></trkpt><trkpt lat="43.78629515728827" lon="11.36720135197642"><ele>104.0</ele><time>2026-04-23T08:36:16.999Z</time></trkpt><trkpt lat="43.78622087633793" lon="11.367167499269593"><ele>104.0</ele><time>2026-04-23T08:36:17.999Z</time></trkpt><trkpt lat="43.786170062045244" lon="11.367095961498443"><ele>103.99999999999999</ele><time>2026-04-23T08:36:18.999Z</time></trkpt><trkpt lat="43.78611343536116" lon="11.366969539364243"><ele>104.0</ele><time>2026-04-23T08:36:19.999Z</time></trkpt><trkpt lat="43.786095959627026" lon="11.366772646644137"><ele>104.0</ele><time>2026-04-23T08:36:20.999Z</time></trkpt><trkpt lat="43.78605847287008" lon="11.366558621988448"><ele>104.0</ele><time>2026-04-23T08:36:21.999Z</time></trkpt><trkpt lat="43.78601567659654" lon="11.366352935154543"><ele>104.0</ele><time>2026-04-23T08:36:22.999Z</time></trkpt><trkpt lat="43.78598005686585" lon="11.36612404141581"><ele>98.66666666666666</ele><time>2026-04-23T08:36:23.999Z</time></trkpt><trkpt lat="43.785938306857325" lon="11.36590206183205"><ele>93.33333333333333</ele><time>2026-04-23T08:36:24.999Z</time></trkpt><trkpt lat="43.78590660736388" lon="11.365675719238869"><ele>88.0</ele><time>2026-04-23T08:36:25.999Z</time></trkpt><trkpt lat="43.785891949009255" lon="11.365404895512475"><ele>87.66666666666666</ele><time>2026-04-23T08:36:26.999Z</time></trkpt><trkpt lat="43.785878887552826" lon="11.365130028874047"><ele>87.33333333333333</ele><time>2026-04-23T08:36:27.999Z</time></trkpt><trkpt lat="43.78587035169675" lon="11.364862013819286"><ele>87.0</ele><time>2026-04-23T08:36:28.999Z</time></trkpt><trkpt lat="43.785852107724324" lon="11.364600943342815"><ele>86.0</ele><time>2026-04-23T08:36:29.999Z</time></trkpt><trkpt lat="43.78585166576154" lon="11.364370051393356"><ele>85.0</ele><time>2026-04-23T08:36:30.999Z</time></trkpt><trkpt lat="43.7858512253719" lon="11.36417476318699"><ele>84.0</ele><time>2026-04-23T08:36:31.999Z</time></trkpt><trkpt lat="43.785847255716014" lon="11.36397804879153"><ele>84.66666666666667</ele><time>2026-04-23T08:36:32.999Z</time></trkpt><trkpt lat="43.78582208334641" lon="11.363764339915154"><ele>85.33333333333334</ele><time>2026-04-23T08:36:33.999Z</time></trkpt><trkpt lat="43.78578008811458" lon="11.363536084411097"><ele>86.0</ele><time>2026-04-23T08:36:34.999Z</time></trkpt><trkpt lat="43.78572422685788" lon="11.363314623123518"><ele>86.0</ele><time>2026-04-23T08:36:35.999Z</time></trkpt><trkpt lat="43.78567231330015" lon="11.36309553813555"><ele>86.0</ele><time>2026-04-23T08:36:36.999Z</time></trkpt><trkpt lat="43.785618249063326" lon="11.362867082058719"><ele>86.0</ele><time>2026-04-23T08:36:37.999Z</time></trkpt><trkpt lat="43.78555713070767" lon="11.362632935188044"><ele>89.66666666666667</ele><time>2026-04-23T08:36:38.999Z</time></trkpt><trkpt lat="43.785503794748905" lon="11.362421619931073"><ele>93.33333333333334</ele><time>2026-04-23T08:36:39.999Z</time></trkpt><trkpt lat="43.78544834975567" lon="11.362217958865275"><ele>97.0</ele><time>2026-04-23T08:36:40.999Z</time></trkpt><trkpt lat="43.78541030421577" lon="11.362017187090267"><ele>100.0</ele><time>2026-04-23T08:36:41.999Z</time></trkpt><trkpt lat="43.78535625245457" lon="11.361848895784362"><ele>103.0</ele><time>2026-04-23T08:36:42.999Z</time></trkpt><trkpt lat="43.78519517369875" lon="11.361423178405717"><ele>95.75</ele><time>2026-04-23T08:36:44.999Z</time></trkpt><trkpt lat="43.78512941683118" lon="11.361267513655585"><ele>88.5</ele><time>2026-04-23T08:36:45.999Z</time></trkpt><trkpt lat="43.785055398441195" lon="11.361102446696474"><ele>81.25</ele><time>2026-04-23T08:36:46.999Z</time></trkpt><trkpt lat="43.78497308133599" lon="11.360960801094102"><ele>74.0</ele><time>2026-04-23T08:36:47.999Z</time></trkpt><trkpt lat="43.78490357477038" lon="11.360807617207529"><ele>74.0</ele><time>2026-04-23T08:36:48.999Z</time></trkpt><trkpt lat="43.784830813348584" lon="11.360668076910033"><ele>74.0</ele><time>2026-04-23T08:36:49.999Z</time></trkpt><trkpt lat="43.78476744366628" lon="11.360555987979476"><ele>74.0</ele><time>2026-04-23T08:36:50.999Z</time></trkpt><trkpt lat="43.78472391637257" lon="11.360449555330465"><ele>74.0</ele><time>2026-04-23T08:36:51.999Z</time></trkpt><trkpt lat="43.784648311725746" lon="11.360369884708504"><ele>74.0</ele><time>2026-04-23T08:36:53.999Z</time></trkpt><trkpt lat="43.784555765533476" lon="11.360448515048695"><ele>74.0</ele><time>2026-04-23T08:36:56.999Z</time></trkpt><trkpt lat="43.78450245447447" lon="11.360521036872713"><ele>74.0</ele><time>2026-04-23T08:36:57.999Z</time></trkpt><trkpt lat="43.7844482203313" lon="11.360629697825454"><ele>74.0</ele><time>2026-04-23T08:36:58.999Z</time></trkpt><trkpt lat="43.784437356257214" lon="11.360722794784028"><ele>74.0</ele><time>2026-04-23T08:36:59.999Z</time></trkpt><trkpt lat="43.78439860033978" lon="11.360798077327745"><ele>74.0</ele><time>2026-04-23T08:37:00.999Z</time></trkpt><trkpt lat="43.78437389124165" lon="11.360922444553939"><ele>74.0</ele><time>2026-04-23T08:37:02.999Z</time></trkpt><trkpt lat="43.784341267569474" lon="11.361024793914517"><ele>74.0</ele><time>2026-04-23T08:37:26.998Z</time></trkpt><trkpt lat="43.78440045911857" lon="11.361147140701684"><ele>74.0</ele><time>2026-04-23T08:37:28.998Z</time></trkpt><trkpt lat="43.784442888785364" lon="11.361244218056045"><ele>74.0</ele><time>2026-04-23T08:37:31.999Z</time></trkpt><trkpt lat="43.78451707589162" lon="11.361398552003019"><ele>74.0</ele><time>2026-04-23T08:37:33.999Z</time></trkpt><trkpt lat="43.784557844093804" lon="11.36152357120799"><ele>74.0</ele><time>2026-04-23T08:37:34.999Z</time></trkpt><trkpt lat="43.78460377967166" lon="11.361663008249794"><ele>74.25</ele><time>2026-04-23T08:37:35.999Z</time></trkpt><trkpt lat="43.78463542356894" lon="11.361824081530196"><ele>74.5</ele><time>2026-04-23T08:37:36.999Z</time></trkpt><trkpt lat="43.78466962521108" lon="11.361979320646"><ele>74.75</ele><time>2026-04-23T08:37:37.999Z</time></trkpt><trkpt lat="43.7846743085273" lon="11.36214874758739"><ele>75.0</ele><time>2026-04-23T08:37:38.999Z</time></trkpt><trkpt lat="43.78465883431448" lon="11.362320834348782"><ele>74.33333333333333</ele><time>2026-04-23T08:37:39.999Z</time></trkpt><trkpt lat="43.784650450918335" lon="11.362514517533882"><ele>73.66666666666666</ele><time>2026-04-23T08:37:40.999Z</time></trkpt><trkpt lat="43.7846422026174" lon="11.362729069228301"><ele>73.0</ele><time>2026-04-23T08:37:41.999Z</time></trkpt><trkpt lat="43.78463384415663" lon="11.362945564093664"><ele>72.66666666666666</ele><time>2026-04-23T08:37:42.999Z</time></trkpt><trkpt lat="43.7846257300573" lon="11.363151545755356"><ele>72.33333333333333</ele><time>2026-04-23T08:37:43.999Z</time></trkpt><trkpt lat="43.784617992843245" lon="11.363333405200333"><ele>72.0</ele><time>2026-04-23T08:37:44.999Z</time></trkpt><trkpt lat="43.7846070639122" lon="11.363590284320825"><ele>72.0</ele><time>2026-04-23T08:37:45.999Z</time></trkpt><trkpt lat="43.784595896756215" lon="11.363808930113922"><ele>72.0</ele><time>2026-04-23T08:37:46.999Z</time></trkpt><trkpt lat="43.78457901468751" lon="11.364017060851555"><ele>72.0</ele><time>2026-04-23T08:37:47.999Z</time></trkpt><trkpt lat="43.78454469707502" lon="11.364227166440362"><ele>71.66666666666667</ele><time>2026-04-23T08:37:48.999Z</time></trkpt><trkpt lat="43.784433279009484" lon="11.364418093128467"><ele>71.33333333333334</ele><time>2026-04-23T08:37:49.999Z</time></trkpt><trkpt lat="43.784382504033594" lon="11.364637794941888"><ele>71.0</ele><time>2026-04-23T08:37:50.999Z</time></trkpt><trkpt lat="43.78440487693507" lon="11.364897294344779"><ele>71.5</ele><time>2026-04-23T08:37:51.999Z</time></trkpt><trkpt lat="43.78435804151535" lon="11.365119418127794"><ele>72.0</ele><time>2026-04-23T08:37:52.999Z</time></trkpt><trkpt lat="43.78430736611288" lon="11.365324094886986"><ele>72.5</ele><time>2026-04-23T08:37:53.999Z</time></trkpt><trkpt lat="43.78428055587823" lon="11.365463270693601"><ele>73.0</ele><time>2026-04-23T08:37:54.999Z</time></trkpt><trkpt lat="43.78425634444975" lon="11.365564719780906"><ele>71.8</ele><time>2026-04-23T08:37:55.999Z</time></trkpt><trkpt lat="43.784229678324515" lon="11.365674674100031"><ele>70.6</ele><time>2026-04-23T08:37:56.999Z</time></trkpt><trkpt lat="43.78419978809219" lon="11.365795309962303"><ele>69.4</ele><time>2026-04-23T08:37:57.999Z</time></trkpt><trkpt lat="43.78416824092579" lon="11.36592516645072"><ele>68.2</ele><time>2026-04-23T08:37:58.999Z</time></trkpt><trkpt lat="43.78414039189894" lon="11.366066680325046"><ele>67.0</ele><time>2026-04-23T08:37:59.999Z</time></trkpt><trkpt lat="43.784112131540155" lon="11.366205374482869"><ele>67.0</ele><time>2026-04-23T08:38:00.999Z</time></trkpt><trkpt lat="43.78408036225847" lon="11.366351346550747"><ele>67.0</ele><time>2026-04-23T08:38:01.999Z</time></trkpt><trkpt lat="43.78405085697911" lon="11.366502758746348"><ele>67.0</ele><time>2026-04-23T08:38:02.999Z</time></trkpt><trkpt lat="43.78403466425168" lon="11.366665859195086"><ele>67.0</ele><time>2026-04-23T08:38:03.999Z</time></trkpt><trkpt lat="43.78402026006102" lon="11.36681089082862"><ele>67.0</ele><time>2026-04-23T08:38:04.999Z</time></trkpt><trkpt lat="43.784002205569756" lon="11.366974450985243"><ele>67.4</ele><time>2026-04-23T08:38:05.999Z</time></trkpt><trkpt lat="43.78399247904292" lon="11.3671266857284"><ele>67.80000000000001</ele><time>2026-04-23T08:38:06.999Z</time></trkpt><trkpt lat="43.78398877041706" lon="11.367281147276538"><ele>68.2</ele><time>2026-04-23T08:38:07.999Z</time></trkpt><trkpt lat="43.78398673107853" lon="11.367432941587785"><ele>68.60000000000001</ele><time>2026-04-23T08:38:08.999Z</time></trkpt><trkpt lat="43.78398762516288" lon="11.36758612638778"><ele>69.0</ele><time>2026-04-23T08:38:09.999Z</time></trkpt><trkpt lat="43.7839950772914" lon="11.367741522191643"><ele>69.25</ele><time>2026-04-23T08:38:10.999Z</time></trkpt><trkpt lat="43.78401108322261" lon="11.367889988310228"><ele>69.5</ele><time>2026-04-23T08:38:11.999Z</time></trkpt><trkpt lat="43.78401870733916" lon="11.368048097647987"><ele>69.75</ele><time>2026-04-23T08:38:13Z</time></trkpt><trkpt lat="43.78403922749039" lon="11.368201949291693"><ele>70.0</ele><time>2026-04-23T08:38:14Z</time></trkpt><trkpt lat="43.78406193959014" lon="11.368423997898143"><ele>69.5</ele><time>2026-04-23T08:38:15Z</time></trkpt><trkpt lat="43.7841010441661" lon="11.368599917844506"><ele>69.0</ele><time>2026-04-23T08:38:16Z</time></trkpt><trkpt lat="43.78414978197286" lon="11.36877192379898"><ele>68.5</ele><time>2026-04-23T08:38:17Z</time></trkpt><trkpt lat="43.78420676532429" lon="11.368949213653016"><ele>68.0</ele><time>2026-04-23T08:38:18Z</time></trkpt><trkpt lat="43.784272041306465" lon="11.369122977223777"><ele>67.66666666666667</ele><time>2026-04-23T08:38:19Z</time></trkpt><trkpt lat="43.784344411562316" lon="11.369300449203232"><ele>67.33333333333333</ele><time>2026-04-23T08:38:20Z</time></trkpt><trkpt lat="43.784431727264014" lon="11.369473966831478"><ele>67.0</ele><time>2026-04-23T08:38:21Z</time></trkpt><trkpt lat="43.78452194246489" lon="11.369654258495826"><ele>68.66666666666666</ele><time>2026-04-23T08:38:22Z</time></trkpt><trkpt lat="43.784607618902434" lon="11.369846484343983"><ele>70.33333333333333</ele><time>2026-04-23T08:38:23Z</time></trkpt><trkpt lat="43.78470051913487" lon="11.370039972833434"><ele>72.0</ele><time>2026-04-23T08:38:24Z</time></trkpt><trkpt lat="43.78479874626951" lon="11.370237475757001"><ele>72.0</ele><time>2026-04-23T08:38:25Z</time></trkpt><trkpt lat="43.78489756301199" lon="11.37043928848435"><ele>72.0</ele><time>2026-04-23T08:38:26Z</time></trkpt><trkpt lat="43.78499487468542" lon="11.370646857310412"><ele>72.0</ele><time>2026-04-23T08:38:27Z</time></trkpt><trkpt lat="43.785097599268646" lon="11.370854680598924"><ele>74.66666666666667</ele><time>2026-04-23T08:38:28Z</time></trkpt><trkpt lat="43.78519796405847" lon="11.371060920010015"><ele>77.33333333333334</ele><time>2026-04-23T08:38:29Z</time></trkpt><trkpt lat="43.78529747896417" lon="11.371265386072471"><ele>80.0</ele><time>2026-04-23T08:38:30Z</time></trkpt><trkpt lat="43.78538736112771" lon="11.371462828745164"><ele>80.0</ele><time>2026-04-23T08:38:31Z</time></trkpt><trkpt lat="43.78547323833598" lon="11.371654784092547"><ele>80.0</ele><time>2026-04-23T08:38:32Z</time></trkpt><trkpt lat="43.785545884286854" lon="11.371844977005846"><ele>80.0</ele><time>2026-04-23T08:38:33Z</time></trkpt><trkpt lat="43.78560931627694" lon="11.37204568006309"><ele>79.66666666666667</ele><time>2026-04-23T08:38:34Z</time></trkpt><trkpt lat="43.78566234074585" lon="11.372248314519618"><ele>79.33333333333333</ele><time>2026-04-23T08:38:35Z</time></trkpt><trkpt lat="43.78571017320981" lon="11.372455354831489"><ele>79.0</ele><time>2026-04-23T08:38:36Z</time></trkpt><trkpt lat="43.78575247531292" lon="11.372667667763709"><ele>79.0</ele><time>2026-04-23T08:38:37Z</time></trkpt><trkpt lat="43.78578749231873" lon="11.372897111452671"><ele>79.0</ele><time>2026-04-23T08:38:38Z</time></trkpt><trkpt lat="43.78583468714268" lon="11.373118446564005"><ele>79.0</ele><time>2026-04-23T08:38:39Z</time></trkpt><trkpt lat="43.785881491448656" lon="11.373349304190102"><ele>79.0</ele><time>2026-04-23T08:38:40Z</time></trkpt><trkpt lat="43.78592730050614" lon="11.373576471791516"><ele>79.0</ele><time>2026-04-23T08:38:41Z</time></trkpt><trkpt lat="43.78597351184852" lon="11.373807134837982"><ele>79.0</ele><time>2026-04-23T08:38:42Z</time></trkpt><trkpt lat="43.78602335273316" lon="11.374035629539994"><ele>81.0</ele><time>2026-04-23T08:38:43Z</time></trkpt><trkpt lat="43.78607328424162" lon="11.374267361937465"><ele>83.0</ele><time>2026-04-23T08:38:44Z</time></trkpt><trkpt lat="43.78612299232249" lon="11.374493634322596"><ele>85.0</ele><time>2026-04-23T08:38:45Z</time></trkpt><trkpt lat="43.78617223575885" lon="11.374716834055162"><ele>85.5</ele><time>2026-04-23T08:38:46Z</time></trkpt><trkpt lat="43.78621820530873" lon="11.374919477103571"><ele>86.0</ele><time>2026-04-23T08:38:47Z</time></trkpt><trkpt lat="43.786258609620035" lon="11.37510503863308"><ele>86.5</ele><time>2026-04-23T08:38:48Z</time></trkpt><trkpt lat="43.78628794909394" lon="11.375276432263217"><ele>87.0</ele><time>2026-04-23T08:38:49Z</time></trkpt><trkpt lat="43.78630182546236" lon="11.37541597292472"><ele>87.0</ele><time>2026-04-23T08:38:50Z</time></trkpt><trkpt lat="43.7862893399962" lon="11.375515017591873"><ele>87.0</ele><time>2026-04-23T08:38:51Z</time></trkpt><trkpt lat="43.78624523472839" lon="11.375596591704115"><ele>87.0</ele><time>2026-04-23T08:38:52Z</time></trkpt><trkpt lat="43.78617951936438" lon="11.375679985517658"><ele>87.0</ele><time>2026-04-23T08:38:53Z</time></trkpt><trkpt lat="43.78614328755006" lon="11.375757545250584"><ele>87.0</ele><time>2026-04-23T08:38:54Z</time></trkpt><trkpt lat="43.786151585147216" lon="11.375873470397503"><ele>87.0</ele><time>2026-04-23T08:38:56Z</time></trkpt><trkpt lat="43.78620660791715" lon="11.375930609075063"><ele>86.0</ele><time>2026-04-23T08:39:07Z</time></trkpt><trkpt lat="43.78626698888073" lon="11.376062676274776"><ele>85.0</ele><time>2026-04-23T08:39:09Z</time></trkpt><trkpt lat="43.78630371691167" lon="11.376244863625862"><ele>84.0</ele><time>2026-04-23T08:39:11Z</time></trkpt><trkpt lat="43.78634527757366" lon="11.376370588507736"><ele>83.0</ele><time>2026-04-23T08:39:12Z</time></trkpt><trkpt lat="43.786392417207864" lon="11.376503828725461"><ele>82.25</ele><time>2026-04-23T08:39:13Z</time></trkpt><trkpt lat="43.7864435057066" lon="11.376636283427427"><ele>81.5</ele><time>2026-04-23T08:39:14Z</time></trkpt><trkpt lat="43.78648538482123" lon="11.376774160805876"><ele>80.75</ele><time>2026-04-23T08:39:15Z</time></trkpt><trkpt lat="43.78652905839" lon="11.376921308597122"><ele>80.0</ele><time>2026-04-23T08:39:16Z</time></trkpt><trkpt lat="43.786578900305834" lon="11.377070594843824"><ele>79.75</ele><time>2026-04-23T08:39:17Z</time></trkpt><trkpt lat="43.786630034442126" lon="11.377226088764226"><ele>79.5</ele><time>2026-04-23T08:39:18Z</time></trkpt><trkpt lat="43.78668624990201" lon="11.377401016115012"><ele>79.25</ele><time>2026-04-23T08:39:19Z</time></trkpt><trkpt lat="43.78674069386522" lon="11.37757571527263"><ele>79.0</ele><time>2026-04-23T08:39:20Z</time></trkpt><trkpt lat="43.78680907669722" lon="11.377729140455987"><ele>81.33333333333333</ele><time>2026-04-23T08:39:21Z</time></trkpt><trkpt lat="43.78686696322287" lon="11.377939014857029"><ele>83.66666666666667</ele><time>2026-04-23T08:39:22Z</time></trkpt><trkpt lat="43.78692751832065" lon="11.37813970674789"><ele>86.0</ele><time>2026-04-23T08:39:23Z</time></trkpt><trkpt lat="43.78699051756872" lon="11.37830919156779"><ele>85.0</ele><time>2026-04-23T08:39:24Z</time></trkpt><trkpt lat="43.78709079059207" lon="11.378481096658692"><ele>84.0</ele><time>2026-04-23T08:39:25Z</time></trkpt><trkpt lat="43.787179942310765" lon="11.378629556520316"><ele>83.0</ele><time>2026-04-23T08:39:26Z</time></trkpt><trkpt lat="43.78729424082339" lon="11.378756786821135"><ele>82.0</ele><time>2026-04-23T08:39:27Z</time></trkpt><trkpt lat="43.78743210516093" lon="11.378889692059126"><ele>82.0</ele><time>2026-04-23T08:39:28Z</time></trkpt><trkpt lat="43.787554392863456" lon="11.37903094877188"><ele>82.0</ele><time>2026-04-23T08:39:29Z</time></trkpt><trkpt lat="43.78764974029332" lon="11.379208175184736"><ele>82.0</ele><time>2026-04-23T08:39:30Z</time></trkpt><trkpt lat="43.78776658650289" lon="11.379373435583746"><ele>82.0</ele><time>2026-04-23T08:39:31Z</time></trkpt><trkpt lat="43.78786867169506" lon="11.379551244030607"><ele>82.0</ele><time>2026-04-23T08:39:32Z</time></trkpt><trkpt lat="43.78798285857467" lon="11.379715814705389"><ele>82.0</ele><time>2026-04-23T08:39:33Z</time></trkpt><trkpt lat="43.78808486040846" lon="11.379879236786152"><ele>82.0</ele><time>2026-04-23T08:39:34Z</time></trkpt><trkpt lat="43.78821135013382" lon="11.380021695965276"><ele>82.0</ele><time>2026-04-23T08:39:35Z</time></trkpt><trkpt lat="43.78833100777416" lon="11.380168110054061"><ele>82.0</ele><time>2026-04-23T08:39:36Z</time></trkpt><trkpt lat="43.7884555023176" lon="11.380307351856292"><ele>81.33333333333333</ele><time>2026-04-23T08:39:37Z</time></trkpt><trkpt lat="43.788574685250474" lon="11.380449889470531"><ele>80.66666666666667</ele><time>2026-04-23T08:39:38Z</time></trkpt><trkpt lat="43.788690633900664" lon="11.38059450250041"><ele>80.0</ele><time>2026-04-23T08:39:39Z</time></trkpt><trkpt lat="43.78880533211477" lon="11.38073626402416"><ele>80.0</ele><time>2026-04-23T08:39:40Z</time></trkpt><trkpt lat="43.7889340114515" lon="11.38087445971949"><ele>80.0</ele><time>2026-04-23T08:39:41Z</time></trkpt><trkpt lat="43.7890531006757" lon="11.381017044088464"><ele>80.0</ele><time>2026-04-23T08:39:42Z</time></trkpt><trkpt lat="43.78917479801446" lon="11.381154857663933"><ele>80.0</ele><time>2026-04-23T08:39:43Z</time></trkpt><trkpt lat="43.78930189614905" lon="11.381292089139919"><ele>80.0</ele><time>2026-04-23T08:39:44Z</time></trkpt><trkpt lat="43.78942485160363" lon="11.381427719775555"><ele>80.0</ele><time>2026-04-23T08:39:45Z</time></trkpt><trkpt lat="43.7895470873008" lon="11.381558485782714"><ele>80.0</ele><time>2026-04-23T08:39:46Z</time></trkpt><trkpt lat="43.78967358171644" lon="11.381688577473241"><ele>80.0</ele><time>2026-04-23T08:39:47Z</time></trkpt><trkpt lat="43.78979462717634" lon="11.381820468764092"><ele>80.0</ele><time>2026-04-23T08:39:48Z</time></trkpt><trkpt lat="43.789910519329574" lon="11.381942680679225"><ele>80.0</ele><time>2026-04-23T08:39:49Z</time></trkpt><trkpt lat="43.7900076403221" lon="11.382059008759333"><ele>80.0</ele><time>2026-04-23T08:39:50Z</time></trkpt><trkpt lat="43.790068942577236" lon="11.382403493278122"><ele>80.0</ele><time>2026-04-23T08:39:52Z</time></trkpt><trkpt lat="43.79006067909726" lon="11.38260782765899"><ele>79.5</ele><time>2026-04-23T08:39:53Z</time></trkpt><trkpt lat="43.790063960641774" lon="11.382822451333496"><ele>79.0</ele><time>2026-04-23T08:39:54Z</time></trkpt><trkpt lat="43.79004923111482" lon="11.38301099070373"><ele>78.5</ele><time>2026-04-23T08:39:55Z</time></trkpt><trkpt lat="43.79004720738774" lon="11.38318953892307"><ele>78.0</ele><time>2026-04-23T08:39:56Z</time></trkpt><trkpt lat="43.790059337768476" lon="11.383356929768192"><ele>77.5</ele><time>2026-04-23T08:39:57Z</time></trkpt><trkpt lat="43.79010585160548" lon="11.383516512502508"><ele>77.0</ele><time>2026-04-23T08:39:58Z</time></trkpt><trkpt lat="43.79019271307203" lon="11.383652625339092"><ele>76.5</ele><time>2026-04-23T08:39:59Z</time></trkpt><trkpt lat="43.79031411136552" lon="11.383745819151683"><ele>76.0</ele><time>2026-04-23T08:40:00Z</time></trkpt><trkpt lat="43.79045110174011" lon="11.383815148414335"><ele>75.25</ele><time>2026-04-23T08:40:01Z</time></trkpt><trkpt lat="43.790592495004226" lon="11.383883435709949"><ele>74.5</ele><time>2026-04-23T08:40:02Z</time></trkpt><trkpt lat="43.790727111148186" lon="11.38394103566432"><ele>73.75</ele><time>2026-04-23T08:40:03Z</time></trkpt><trkpt lat="43.79085156544496" lon="11.383978689487565"><ele>73.0</ele><time>2026-04-23T08:40:04Z</time></trkpt><trkpt lat="43.79096409631314" lon="11.383999100105823"><ele>73.25</ele><time>2026-04-23T08:40:05Z</time></trkpt><trkpt lat="43.791067606971495" lon="11.384004764927866"><ele>73.5</ele><time>2026-04-23T08:40:06Z</time></trkpt><trkpt lat="43.79118273284781" lon="11.384034061726638"><ele>73.75</ele><time>2026-04-23T08:40:07Z</time></trkpt><trkpt lat="43.79129018738245" lon="11.384060696946602"><ele>74.0</ele><time>2026-04-23T08:40:08Z</time></trkpt><trkpt lat="43.7914129696074" lon="11.384113202276419"><ele>74.0</ele><time>2026-04-23T08:40:09Z</time></trkpt><trkpt lat="43.79153785654341" lon="11.3841350120264"><ele>74.0</ele><time>2026-04-23T08:40:10Z</time></trkpt><trkpt lat="43.79163816553898" lon="11.384156834302015"><ele>74.0</ele><time>2026-04-23T08:40:11Z</time></trkpt><trkpt lat="43.79171356745829" lon="11.384178793978053"><ele>74.0</ele><time>2026-04-23T08:40:12Z</time></trkpt><trkpt lat="43.79180343922546" lon="11.384210642594173"><ele>74.0</ele><time>2026-04-23T08:40:13Z</time></trkpt><trkpt lat="43.79189763797202" lon="11.384279867603992"><ele>75.5</ele><time>2026-04-23T08:40:14Z</time></trkpt><trkpt lat="43.79197700792136" lon="11.384359460617523"><ele>77.0</ele><time>2026-04-23T08:40:15Z</time></trkpt><trkpt lat="43.792056689503056" lon="11.384476522863713"><ele>78.5</ele><time>2026-04-23T08:40:16Z</time></trkpt><trkpt lat="43.79214739607923" lon="11.38457327363871"><ele>80.0</ele><time>2026-04-23T08:40:18Z</time></trkpt><trkpt lat="43.79224280932339" lon="11.384467015066733"><ele>80.0</ele><time>2026-04-23T08:40:21Z</time></trkpt><trkpt lat="43.792345223580895" lon="11.384305802712172"><ele>80.0</ele><time>2026-04-23T08:40:23Z</time></trkpt><trkpt lat="43.79237674908516" lon="11.384208323151318"><ele>80.0</ele><time>2026-04-23T08:40:24Z</time></trkpt><trkpt lat="43.792407912429915" lon="11.384108329158224"><ele>80.0</ele><time>2026-04-23T08:40:26Z</time></trkpt><trkpt lat="43.79243990359562" lon="11.383948125247104"><ele>80.0</ele><time>2026-04-23T08:40:37Z</time></trkpt><trkpt lat="43.79242426284795" lon="11.383842816103426"><ele>81.5</ele><time>2026-04-23T08:40:38Z</time></trkpt><trkpt lat="43.79237933258908" lon="11.383721578363001"><ele>83.0</ele><time>2026-04-23T08:40:39Z</time></trkpt><trkpt lat="43.79230076315208" lon="11.383611051680822"><ele>84.5</ele><time>2026-04-23T08:40:40Z</time></trkpt><trkpt lat="43.79219793150141" lon="11.38352358113062"><ele>86.0</ele><time>2026-04-23T08:40:41Z</time></trkpt><trkpt lat="43.79206737997278" lon="11.383470946680754"><ele>86.0</ele><time>2026-04-23T08:40:42Z</time></trkpt><trkpt lat="43.79193617091846" lon="11.383469175643151"><ele>86.0</ele><time>2026-04-23T08:40:43Z</time></trkpt><trkpt lat="43.79181548821928" lon="11.383441338055245"><ele>86.0</ele><time>2026-04-23T08:40:44Z</time></trkpt><trkpt lat="43.791714997722785" lon="11.38337477942148"><ele>86.0</ele><time>2026-04-23T08:40:45Z</time></trkpt><trkpt lat="43.79162738630592" lon="11.383258169120026"><ele>85.0</ele><time>2026-04-23T08:40:46Z</time></trkpt><trkpt lat="43.79153465007379" lon="11.383120081709738"><ele>84.0</ele><time>2026-04-23T08:40:47Z</time></trkpt><trkpt lat="43.79143688477014" lon="11.38298118383985"><ele>83.0</ele><time>2026-04-23T08:40:48Z</time></trkpt><trkpt lat="43.791327735233835" lon="11.382860802033868"><ele>82.0</ele><time>2026-04-23T08:40:49Z</time></trkpt><trkpt lat="43.791231124295145" lon="11.382707547964026"><ele>83.5</ele><time>2026-04-23T08:40:50Z</time></trkpt><trkpt lat="43.7911300740643" lon="11.382549254797224"><ele>85.0</ele><time>2026-04-23T08:40:51Z</time></trkpt><trkpt lat="43.79103423920923" lon="11.382422681155303"><ele>86.5</ele><time>2026-04-23T08:40:52Z</time></trkpt><trkpt lat="43.790959603255295" lon="11.382301668391673"><ele>88.0</ele><time>2026-04-23T08:40:53Z</time></trkpt><trkpt lat="43.79090492989701" lon="11.38215675514091"><ele>90.5</ele><time>2026-04-23T08:40:54.001Z</time></trkpt><trkpt lat="43.79089242821353" lon="11.381985739260964"><ele>93.0</ele><time>2026-04-23T08:40:55.001Z</time></trkpt><trkpt lat="43.79089181524766" lon="11.381854130309064"><ele>95.5</ele><time>2026-04-23T08:40:56.001Z</time></trkpt><trkpt lat="43.79088145227616" lon="11.381613601057976"><ele>98.0</ele><time>2026-04-23T08:40:57.001Z</time></trkpt><trkpt lat="43.790883891266304" lon="11.381411830023335"><ele>100.25</ele><time>2026-04-23T08:40:58.001Z</time></trkpt><trkpt lat="43.79085904957641" lon="11.381218036934296"><ele>102.5</ele><time>2026-04-23T08:40:59.001Z</time></trkpt><trkpt lat="43.79080652115312" lon="11.381027380511007"><ele>104.75</ele><time>2026-04-23T08:41:00.001Z</time></trkpt><trkpt lat="43.79072917317667" lon="11.380840775667922"><ele>107.0</ele><time>2026-04-23T08:41:01.001Z</time></trkpt><trkpt lat="43.790638644111084" lon="11.3806416924545"><ele>112.0</ele><time>2026-04-23T08:41:02.001Z</time></trkpt><trkpt lat="43.790575375470354" lon="11.380430004890895"><ele>117.0</ele><time>2026-04-23T08:41:03.001Z</time></trkpt><trkpt lat="43.79050698054873" lon="11.380228270441073"><ele>122.0</ele><time>2026-04-23T08:41:04.001Z</time></trkpt><trkpt lat="43.79044975180073" lon="11.380021933786667"><ele>122.0</ele><time>2026-04-23T08:41:05.001Z</time></trkpt><trkpt lat="43.79038488478459" lon="11.379835470312555"><ele>122.0</ele><time>2026-04-23T08:41:06.001Z</time></trkpt><trkpt lat="43.7903008281159" lon="11.379683137994412"><ele>122.0</ele><time>2026-04-23T08:41:07.001Z</time></trkpt><trkpt lat="43.79020838729606" lon="11.379530487965864"><ele>122.0</ele><time>2026-04-23T08:41:08.001Z</time></trkpt><trkpt lat="43.79014819956607" lon="11.379376336901535"><ele>119.0</ele><time>2026-04-23T08:41:09.001Z</time></trkpt><trkpt lat="43.79009226273057" lon="11.379232531926679"><ele>115.99999999999999</ele><time>2026-04-23T08:41:10.001Z</time></trkpt><trkpt lat="43.79005342097317" lon="11.379102886911852"><ele>112.99999999999999</ele><time>2026-04-23T08:41:11.001Z</time></trkpt><trkpt lat="43.79005045434969" lon="11.379003899848797"><ele>110.0</ele><time>2026-04-23T08:41:12.001Z</time></trkpt><trkpt lat="43.7900368700745" lon="11.378911238577707"><ele>107.0</ele><time>2026-04-23T08:41:14.001Z</time></trkpt><trkpt lat="43.78999342108625" lon="11.3787567350135"><ele>106.6</ele><time>2026-04-23T08:41:16.001Z</time></trkpt><trkpt lat="43.789990524085844" lon="11.378658807849275"><ele>106.19999999999999</ele><time>2026-04-23T08:41:18.001Z</time></trkpt><trkpt lat="43.790129409181105" lon="11.37863227561665"><ele>105.8</ele><time>2026-04-23T08:41:21.001Z</time></trkpt><trkpt lat="43.79024719157844" lon="11.378644654027694"><ele>105.4</ele><time>2026-04-23T08:41:23.001Z</time></trkpt><trkpt lat="43.790155734023635" lon="11.378637732934457"><ele>105.0</ele><time>2026-04-23T08:41:56Z</time></trkpt><trkpt lat="43.79002277436676" lon="11.378607470178466"><ele>105.0</ele><time>2026-04-23T08:41:57Z</time></trkpt><trkpt lat="43.78993806367589" lon="11.378534695525328"><ele>105.0</ele><time>2026-04-23T08:41:58Z</time></trkpt><trkpt lat="43.789869780990166" lon="11.378452189048371"><ele>105.0</ele><time>2026-04-23T08:41:59Z</time></trkpt><trkpt lat="43.78979632241666" lon="11.378358281723932"><ele>105.0</ele><time>2026-04-23T08:42:00Z</time></trkpt><trkpt lat="43.789882149163766" lon="11.378464421169268"><ele>105.0</ele><time>2026-04-23T08:42:01Z</time></trkpt><trkpt lat="43.78981987401605" lon="11.378408082789727"><ele>105.0</ele><time>2026-04-23T08:42:02Z</time></trkpt><trkpt lat="43.78976361821533" lon="11.378331221115346"><ele>105.0</ele><time>2026-04-23T08:42:03Z</time></trkpt><trkpt lat="43.78971231346168" lon="11.37826909256498"><ele>105.0</ele><time>2026-04-23T08:42:04Z</time></trkpt><trkpt lat="43.78968329825497" lon="11.378167025677877"><ele>105.0</ele><time>2026-04-23T08:42:06Z</time></trkpt><trkpt lat="43.78976063696556" lon="11.3780870622922"><ele>105.0</ele><time>2026-04-23T08:42:08Z</time></trkpt><trkpt lat="43.78986607620327" lon="11.378084974339613"><ele>105.0</ele><time>2026-04-23T08:42:09Z</time></trkpt><trkpt lat="43.78995438997659" lon="11.378062921935044"><ele>105.0</ele><time>2026-04-23T08:42:10Z</time></trkpt><trkpt lat="43.790082892532396" lon="11.378042994522483"><ele>105.0</ele><time>2026-04-23T08:42:11Z</time></trkpt><trkpt lat="43.790220734441725" lon="11.37801586706482"><ele>105.0</ele><time>2026-04-23T08:42:12Z</time></trkpt><trkpt lat="43.79033416576984" lon="11.377989009513268"><ele>105.0</ele><time>2026-04-23T08:42:13Z</time></trkpt><trkpt lat="43.790443467855425" lon="11.377968702656311"><ele>103.8</ele><time>2026-04-23T08:42:14Z</time></trkpt><trkpt lat="43.79054814679421" lon="11.37794938786469"><ele>102.6</ele><time>2026-04-23T08:42:15Z</time></trkpt><trkpt lat="43.79064897234993" lon="11.377931035899872"><ele>101.4</ele><time>2026-04-23T08:42:16Z</time></trkpt><trkpt lat="43.790748377427114" lon="11.377909297876613"><ele>100.2</ele><time>2026-04-23T08:42:17Z</time></trkpt><trkpt lat="43.790847684254295" lon="11.377884244764516"><ele>99.0</ele><time>2026-04-23T08:42:18Z</time></trkpt><trkpt lat="43.790955278904725" lon="11.377860779720145"><ele>101.25</ele><time>2026-04-23T08:42:19Z</time></trkpt><trkpt lat="43.791061985040926" lon="11.377835630515367"><ele>103.5</ele><time>2026-04-23T08:42:20Z</time></trkpt><trkpt lat="43.791183076516" lon="11.377812490104132"><ele>105.75</ele><time>2026-04-23T08:42:21Z</time></trkpt><trkpt lat="43.79130767117657" lon="11.377783449034885"><ele>108.0</ele><time>2026-04-23T08:42:22Z</time></trkpt><trkpt lat="43.7914230896678" lon="11.377758172719581"><ele>108.0</ele><time>2026-04-23T08:42:23Z</time></trkpt><trkpt lat="43.79154208687936" lon="11.377738763105718"><ele>108.00000000000001</ele><time>2026-04-23T08:42:24Z</time></trkpt><trkpt lat="43.79164301853145" lon="11.377723743854316"><ele>108.00000000000001</ele><time>2026-04-23T08:42:25Z</time></trkpt><trkpt lat="43.791747725168044" lon="11.377702163570047"><ele>108.0</ele><time>2026-04-23T08:42:26Z</time></trkpt><trkpt lat="43.79185327054484" lon="11.37769492699365"><ele>108.0</ele><time>2026-04-23T08:42:27Z</time></trkpt><trkpt lat="43.79194513799906" lon="11.377695643526767"><ele>107.80000000000001</ele><time>2026-04-23T08:42:28Z</time></trkpt><trkpt lat="43.792058644575754" lon="11.377706447026405"><ele>107.60000000000001</ele><time>2026-04-23T08:42:29Z</time></trkpt><trkpt lat="43.79215665845043" lon="11.377717474450403"><ele>107.39999999999999</ele><time>2026-04-23T08:42:30Z</time></trkpt><trkpt lat="43.792241617071205" lon="11.377756876278383"><ele>107.19999999999999</ele><time>2026-04-23T08:42:31Z</time></trkpt><trkpt lat="43.79232543324928" lon="11.377817666626175"><ele>107.0</ele><time>2026-04-23T08:42:32.001Z</time></trkpt><trkpt lat="43.79238690135955" lon="11.37793327045962"><ele>109.75</ele><time>2026-04-23T08:42:33.001Z</time></trkpt><trkpt lat="43.79240987337136" lon="11.378095158196908"><ele>112.5</ele><time>2026-04-23T08:42:34.001Z</time></trkpt><trkpt lat="43.79244511167386" lon="11.378284235878615"><ele>115.25</ele><time>2026-04-23T08:42:35.001Z</time></trkpt><trkpt lat="43.792462751688035" lon="11.378484911465083"><ele>118.0</ele><time>2026-04-23T08:42:36.001Z</time></trkpt><trkpt lat="43.79248029217903" lon="11.378650269151343"><ele>118.0</ele><time>2026-04-23T08:42:37.001Z</time></trkpt><trkpt lat="43.7924992182975" lon="11.37878115152933"><ele>118.00000000000001</ele><time>2026-04-23T08:42:38.001Z</time></trkpt><trkpt lat="43.79251229293527" lon="11.378900472711987"><ele>118.00000000000001</ele><time>2026-04-23T08:42:39.001Z</time></trkpt><trkpt lat="43.79253226323474" lon="11.379025201657953"><ele>118.0</ele><time>2026-04-23T08:42:40.001Z</time></trkpt><trkpt lat="43.79256892228472" lon="11.379162594389918"><ele>118.0</ele><time>2026-04-23T08:42:41.001Z</time></trkpt><trkpt lat="43.792610284093335" lon="11.379319722955696"><ele>118.5</ele><time>2026-04-23T08:42:42.001Z</time></trkpt><trkpt lat="43.792669434105434" lon="11.379480661495483"><ele>119.0</ele><time>2026-04-23T08:42:43.001Z</time></trkpt><trkpt lat="43.79275566958519" lon="11.37963540206279"><ele>119.5</ele><time>2026-04-23T08:42:44.001Z</time></trkpt><trkpt lat="43.792851062958356" lon="11.379773026685099"><ele>120.0</ele><time>2026-04-23T08:42:45.001Z</time></trkpt><trkpt lat="43.79296682506329" lon="11.379901766715449"><ele>122.5</ele><time>2026-04-23T08:42:46.001Z</time></trkpt><trkpt lat="43.7930590822632" lon="11.380022916111741"><ele>125.0</ele><time>2026-04-23T08:42:47.001Z</time></trkpt><trkpt lat="43.79314933854941" lon="11.380136909781445"><ele>127.5</ele><time>2026-04-23T08:42:48.001Z</time></trkpt><trkpt lat="43.79325428696812" lon="11.380217214052069"><ele>130.0</ele><time>2026-04-23T08:42:49.001Z</time></trkpt><trkpt lat="43.793360363137545" lon="11.380276097311983"><ele>131.5</ele><time>2026-04-23T08:42:50.001Z</time></trkpt><trkpt lat="43.79351475555086" lon="11.38031627105145"><ele>133.0</ele><time>2026-04-23T08:42:51.001Z</time></trkpt><trkpt lat="43.7936478230689" lon="11.380363775316054"><ele>134.5</ele><time>2026-04-23T08:42:52.001Z</time></trkpt><trkpt lat="43.79377953772056" lon="11.380395583816721"><ele>136.0</ele><time>2026-04-23T08:42:53.001Z</time></trkpt><trkpt lat="43.79391874718085" lon="11.380398334007156"><ele>136.0</ele><time>2026-04-23T08:42:54.001Z</time></trkpt><trkpt lat="43.79406198508055" lon="11.380385424343956"><ele>136.0</ele><time>2026-04-23T08:42:55.001Z</time></trkpt><trkpt lat="43.79420263823127" lon="11.38037948000353"><ele>136.0</ele><time>2026-04-23T08:42:56.001Z</time></trkpt><trkpt lat="43.794361732242834" lon="11.38035375191608"><ele>136.0</ele><time>2026-04-23T08:42:57.001Z</time></trkpt><trkpt lat="43.794498074732026" lon="11.38033838264599"><ele>138.0</ele><time>2026-04-23T08:42:58.001Z</time></trkpt><trkpt lat="43.794638542978056" lon="11.380324861606034"><ele>140.0</ele><time>2026-04-23T08:42:59.001Z</time></trkpt><trkpt lat="43.79478253893733" lon="11.380321430054844"><ele>142.0</ele><time>2026-04-23T08:43:00.001Z</time></trkpt><trkpt lat="43.794926187772816" lon="11.380312064108637"><ele>144.0</ele><time>2026-04-23T08:43:01.001Z</time></trkpt><trkpt lat="43.79504905818737" lon="11.380322253310402"><ele>144.0</ele><time>2026-04-23T08:43:02.001Z</time></trkpt><trkpt lat="43.79514622996726" lon="11.380331163363293"><ele>144.0</ele><time>2026-04-23T08:43:03.001Z</time></trkpt><trkpt lat="43.795229407354576" lon="11.380350309571172"><ele>144.0</ele><time>2026-04-23T08:43:04.001Z</time></trkpt><trkpt lat="43.79529679626486" lon="11.380369198081102"><ele>144.0</ele><time>2026-04-23T08:43:05.001Z</time></trkpt><trkpt lat="43.79538019275441" lon="11.380367543116128"><ele>144.0</ele><time>2026-04-23T08:43:06.001Z</time></trkpt><trkpt lat="43.79545705932453" lon="11.380352569315889"><ele>144.0</ele><time>2026-04-23T08:43:07.001Z</time></trkpt><trkpt lat="43.79552811770997" lon="11.380340542310101"><ele>149.5</ele><time>2026-04-23T08:43:09.001Z</time></trkpt><trkpt lat="43.79541756819364" lon="11.380349295316304"><ele>155.0</ele><time>2026-04-23T08:43:18.001Z</time></trkpt><trkpt lat="43.79579229174483" lon="11.379707101794555"><ele>155.0</ele><time>2026-04-23T08:43:19.001Z</time></trkpt><trkpt lat="43.7952443225873" lon="11.380325849715907"><ele>152.8</ele><time>2026-04-23T08:43:20.001Z</time></trkpt><trkpt lat="43.79516016363249" lon="11.380315039913041"><ele>150.6</ele><time>2026-04-23T08:43:21.001Z</time></trkpt><trkpt lat="43.79506676890746" lon="11.38030785219466"><ele>148.4</ele><time>2026-04-23T08:43:22.001Z</time></trkpt><trkpt lat="43.79497206319174" lon="11.380306734262028"><ele>146.2</ele><time>2026-04-23T08:43:23.001Z</time></trkpt><trkpt lat="43.79488040378792" lon="11.38030659446562"><ele>144.0</ele><time>2026-04-23T08:43:24.001Z</time></trkpt><trkpt lat="43.79479099843884" lon="11.380311970647513"><ele>144.0</ele><time>2026-04-23T08:43:25.001Z</time></trkpt><trkpt lat="43.794699890283404" lon="11.3803075647479"><ele>144.0</ele><time>2026-04-23T08:43:26.001Z</time></trkpt><trkpt lat="43.79460864594604" lon="11.380314776965493"><ele>144.0</ele><time>2026-04-23T08:43:27.001Z</time></trkpt><trkpt lat="43.79453793032876" lon="11.38031373889812"><ele>144.0</ele><time>2026-04-23T08:43:28.001Z</time></trkpt><trkpt lat="43.79447302795512" lon="11.38031576187906"><ele>144.0</ele><time>2026-04-23T08:43:29.001Z</time></trkpt><trkpt lat="43.79438736047263" lon="11.380325570490768"><ele>144.0</ele><time>2026-04-23T08:43:31.001Z</time></trkpt><trkpt lat="43.79436069466121" lon="11.380414822013218"><ele>145.6</ele><time>2026-04-23T08:43:34.001Z</time></trkpt><trkpt lat="43.79437058104697" lon="11.380554288519077"><ele>147.2</ele><time>2026-04-23T08:43:37.001Z</time></trkpt><trkpt lat="43.79436532698243" lon="11.380713521683935"><ele>148.79999999999998</ele><time>2026-04-23T08:43:39.001Z</time></trkpt><trkpt lat="43.794411627517185" lon="11.380846875461778"><ele>150.4</ele><time>2026-04-23T08:43:41.001Z</time></trkpt><trkpt lat="43.79445601201378" lon="11.3809349416003"><ele>152.0</ele><time>2026-04-23T08:43:43.001Z</time></trkpt><trkpt lat="43.79451063186395" lon="11.38108225772479"><ele>152.0</ele><time>2026-04-23T08:43:45.001Z</time></trkpt><trkpt lat="43.794511284983365" lon="11.381233772224212"><ele>152.0</ele><time>2026-04-23T08:43:47.001Z</time></trkpt><trkpt lat="43.79446653058257" lon="11.381349051127009"><ele>152.0</ele><time>2026-04-23T08:43:49.001Z</time></trkpt><trkpt lat="43.79445105542027" lon="11.381438380646415"><ele>152.0</ele><time>2026-04-23T08:43:51.001Z</time></trkpt><trkpt lat="43.79442382522204" lon="11.38152376053453"><ele>152.0</ele><time>2026-04-23T08:43:54.001Z</time></trkpt><trkpt lat="43.79439605897709" lon="11.381603255268407"><ele>152.0</ele><time>2026-04-23T08:43:57.001Z</time></trkpt><trkpt lat="43.794418945460635" lon="11.381716438044995"><ele>151.66666666666666</ele><time>2026-04-23T08:43:59.001Z</time></trkpt><trkpt lat="43.794458857964734" lon="11.381787437617612"><ele>151.33333333333331</ele><time>2026-04-23T08:44:00.001Z</time></trkpt><trkpt lat="43.794509327049084" lon="11.381847625593"><ele>151.0</ele><time>2026-04-23T08:44:01.001Z</time></trkpt><trkpt lat="43.79456333471166" lon="11.38191459911775"><ele>150.66666666666666</ele><time>2026-04-23T08:44:02.001Z</time></trkpt><trkpt lat="43.794623651673966" lon="11.381989858769135"><ele>150.33333333333334</ele><time>2026-04-23T08:44:03.001Z</time></trkpt><trkpt lat="43.7946961594726" lon="11.382064943054619"><ele>150.0</ele><time>2026-04-23T08:44:04.001Z</time></trkpt><trkpt lat="43.79478311126187" lon="11.382203276783155"><ele>150.0</ele><time>2026-04-23T08:44:06.001Z</time></trkpt><trkpt lat="43.79486354780527" lon="11.382337778891255"><ele>150.0</ele><time>2026-04-23T08:44:08.001Z</time></trkpt><trkpt lat="43.794901820942584" lon="11.38243467235801"><ele>150.0</ele><time>2026-04-23T08:44:09.001Z</time></trkpt><trkpt lat="43.794955353433586" lon="11.382543507119781"><ele>150.0</ele><time>2026-04-23T08:44:10.001Z</time></trkpt><trkpt lat="43.79499153278769" lon="11.382646596028769"><ele>150.0</ele><time>2026-04-23T08:44:11.001Z</time></trkpt><trkpt lat="43.79503088720084" lon="11.382744903363163"><ele>150.0</ele><time>2026-04-23T08:44:12.001Z</time></trkpt><trkpt lat="43.79507384074134" lon="11.382830931185374"><ele>150.0</ele><time>2026-04-23T08:44:13.001Z</time></trkpt><trkpt lat="43.79512800810909" lon="11.382908448813094"><ele>150.0</ele><time>2026-04-23T08:44:14.001Z</time></trkpt><trkpt lat="43.795166893428465" lon="11.383018027140904"><ele>150.0</ele><time>2026-04-23T08:44:15.001Z</time></trkpt><trkpt lat="43.79521149629392" lon="11.383113231343417"><ele>150.0</ele><time>2026-04-23T08:44:16.001Z</time></trkpt><trkpt lat="43.79527936690993" lon="11.383176703194689"><ele>150.0</ele><time>2026-04-23T08:44:17.001Z</time></trkpt><trkpt lat="43.79532596291323" lon="11.383246887477933"><ele>154.2</ele><time>2026-04-23T08:44:18.001Z</time></trkpt><trkpt lat="43.79537529274478" lon="11.383348898544797"><ele>158.4</ele><time>2026-04-23T08:44:19.001Z</time></trkpt><trkpt lat="43.795481685292884" lon="11.383458772671826"><ele>162.60000000000002</ele><time>2026-04-23T08:44:21.001Z</time></trkpt><trkpt lat="43.79551712775777" lon="11.383552164880776"><ele>166.8</ele><time>2026-04-23T08:44:22.001Z</time></trkpt><trkpt lat="43.79556389678589" lon="11.383644487668132"><ele>171.0</ele><time>2026-04-23T08:44:23.001Z</time></trkpt><trkpt lat="43.795617716396634" lon="11.383731311249056"><ele>171.0</ele><time>2026-04-23T08:44:24.001Z</time></trkpt><trkpt lat="43.795655058231105" lon="11.383829368753743"><ele>171.0</ele><time>2026-04-23T08:44:25.001Z</time></trkpt><trkpt lat="43.79570806458364" lon="11.383938186515062"><ele>171.0</ele><time>2026-04-23T08:44:27.001Z</time></trkpt><trkpt lat="43.79574254688784" lon="11.384038006580184"><ele>171.0</ele><time>2026-04-23T08:44:50.001Z</time></trkpt><trkpt lat="43.79579686398081" lon="11.384171704813005"><ele>171.0</ele><time>2026-04-23T08:44:53.001Z</time></trkpt><trkpt lat="43.7958709846646" lon="11.384313653120602"><ele>169.20000000000002</ele><time>2026-04-23T08:44:55.001Z</time></trkpt><trkpt lat="43.79592564667591" lon="11.384395495976865"><ele>167.4</ele><time>2026-04-23T08:44:57.001Z</time></trkpt><trkpt lat="43.795880536496384" lon="11.384470603664187"><ele>165.6</ele><time>2026-04-23T08:45:01.001Z</time></trkpt><trkpt lat="43.795814488400026" lon="11.38444633654241"><ele>163.8</ele><time>2026-04-23T08:45:02.001Z</time></trkpt><trkpt lat="43.79592414771328" lon="11.384661464932638"><ele>162.0</ele><time>2026-04-23T08:45:03.001Z</time></trkpt><trkpt lat="43.7958494565626" lon="11.384742221578218"><ele>161.33333333333334</ele><time>2026-04-23T08:45:05.001Z</time></trkpt><trkpt lat="43.79580341509617" lon="11.38480481462032"><ele>160.66666666666666</ele><time>2026-04-23T08:45:06.001Z</time></trkpt><trkpt lat="43.79574231482881" lon="11.384925597740214"><ele>160.0</ele><time>2026-04-23T08:45:08.001Z</time></trkpt><trkpt lat="43.79571650696879" lon="11.385049104680427"><ele>159.33333333333331</ele><time>2026-04-23T08:45:10.001Z</time></trkpt><trkpt lat="43.79570362971398" lon="11.385169777000252"><ele>158.66666666666666</ele><time>2026-04-23T08:45:12.001Z</time></trkpt><trkpt lat="43.79568904366692" lon="11.385301551520138"><ele>158.0</ele><time>2026-04-23T08:45:14.001Z</time></trkpt><trkpt lat="43.795717056967156" lon="11.385411635456178"><ele>155.33333333333331</ele><time>2026-04-23T08:45:16.001Z</time></trkpt><trkpt lat="43.795729856374166" lon="11.385526144075005"><ele>152.66666666666666</ele><time>2026-04-23T08:45:18.001Z</time></trkpt><trkpt lat="43.795750022537696" lon="11.385644739896046"><ele>150.0</ele><time>2026-04-23T08:45:20.001Z</time></trkpt><trkpt lat="43.795729619669544" lon="11.385776298304364"><ele>147.33333333333334</ele><time>2026-04-23T08:45:21.001Z</time></trkpt><trkpt lat="43.7957221549722" lon="11.385877826995918"><ele>144.66666666666669</ele><time>2026-04-23T08:45:22.001Z</time></trkpt><trkpt lat="43.7957115592318" lon="11.385978494727095"><ele>142.0</ele><time>2026-04-23T08:45:23.001Z</time></trkpt><trkpt lat="43.7957107672543" lon="11.386082697828288"><ele>142.0</ele><time>2026-04-23T08:45:24.001Z</time></trkpt><trkpt lat="43.795755011327046" lon="11.386150245433035"><ele>142.0</ele><time>2026-04-23T08:45:25.001Z</time></trkpt><trkpt lat="43.795783036588034" lon="11.386300919997051"><ele>142.0</ele><time>2026-04-23T08:45:27.001Z</time></trkpt><trkpt lat="43.79578910299537" lon="11.386444629685986"><ele>142.0</ele><time>2026-04-23T08:45:29.001Z</time></trkpt><trkpt lat="43.79578699950671" lon="11.386589107050225"><ele>142.0</ele><time>2026-04-23T08:45:31.001Z</time></trkpt><trkpt lat="43.795724529469396" lon="11.386712265773914"><ele>139.83333333333334</ele><time>2026-04-23T08:45:33.001Z</time></trkpt><trkpt lat="43.79568706762586" lon="11.386803600618117"><ele>137.66666666666669</ele><time>2026-04-23T08:45:35.001Z</time></trkpt><trkpt lat="43.795709218006" lon="11.386901670057032"><ele>135.5</ele><time>2026-04-23T08:45:39.001Z</time></trkpt><trkpt lat="43.79571775460393" lon="11.386996286663138"><ele>133.33333333333334</ele><time>2026-04-23T08:46:22.001Z</time></trkpt><trkpt lat="43.79576644828719" lon="11.386931484488569"><ele>131.16666666666666</ele><time>2026-04-23T08:46:44.001Z</time></trkpt><trkpt lat="43.79571241606269" lon="11.386827404747022"><ele>129.0</ele><time>2026-04-23T08:46:47.001Z</time></trkpt><trkpt lat="43.79571888066583" lon="11.386728217962293"><ele>129.0</ele><time>2026-04-23T08:46:50.001Z</time></trkpt><trkpt lat="43.79579959544529" lon="11.386600467439749"><ele>129.0</ele><time>2026-04-23T08:46:52.001Z</time></trkpt><trkpt lat="43.7958109886674" lon="11.386483037978705"><ele>129.0</ele><time>2026-04-23T08:46:54.001Z</time></trkpt><trkpt lat="43.79578093450645" lon="11.38632390003717"><ele>129.0</ele><time>2026-04-23T08:46:56.001Z</time></trkpt><trkpt lat="43.795765530558064" lon="11.386233476922198"><ele>129.0</ele><time>2026-04-23T08:46:57.001Z</time></trkpt><trkpt lat="43.79574921366047" lon="11.386145100788355"><ele>131.16666666666666</ele><time>2026-04-23T08:46:58.001Z</time></trkpt><trkpt lat="43.7957342767154" lon="11.386051947684855"><ele>133.33333333333334</ele><time>2026-04-23T08:46:59.001Z</time></trkpt><trkpt lat="43.7957022875363" lon="11.385975135354382"><ele>135.5</ele><time>2026-04-23T08:47:00.001Z</time></trkpt><trkpt lat="43.79569059021748" lon="11.385878624978092"><ele>137.66666666666669</ele><time>2026-04-23T08:47:01.001Z</time></trkpt><trkpt lat="43.79570837549231" lon="11.385728630898237"><ele>139.83333333333334</ele><time>2026-04-23T08:47:03.001Z</time></trkpt><trkpt lat="43.79571880762108" lon="11.385623488223022"><ele>142.0</ele><time>2026-04-23T08:47:04.001Z</time></trkpt><trkpt lat="43.795718600228184" lon="11.385515574414594"><ele>145.2</ele><time>2026-04-23T08:47:05.001Z</time></trkpt><trkpt lat="43.795699818506236" lon="11.38534375249206"><ele>148.39999999999998</ele><time>2026-04-23T08:47:07.001Z</time></trkpt><trkpt lat="43.795692784263856" lon="11.385161917648057"><ele>151.60000000000002</ele><time>2026-04-23T08:47:09.001Z</time></trkpt><trkpt lat="43.79570488561406" lon="11.3850690507677"><ele>154.8</ele><time>2026-04-23T08:47:10.001Z</time></trkpt><trkpt lat="43.79573071909003" lon="11.38492868909743"><ele>158.0</ele><time>2026-04-23T08:47:12.001Z</time></trkpt><trkpt lat="43.7957766098127" lon="11.384839728816583"><ele>158.0</ele><time>2026-04-23T08:47:14.001Z</time></trkpt><trkpt lat="43.79588815548287" lon="11.384745055155827"><ele>158.0</ele><time>2026-04-23T08:47:16.001Z</time></trkpt><trkpt lat="43.795927563497386" lon="11.384639919455847"><ele>158.0</ele><time>2026-04-23T08:47:18.001Z</time></trkpt><trkpt lat="43.795996143218936" lon="11.38455926547638"><ele>158.0</ele><time>2026-04-23T08:48:49Z</time></trkpt><trkpt lat="43.7959615962157" lon="11.384459435639881"><ele>158.0</ele><time>2026-04-23T08:48:52Z</time></trkpt><trkpt lat="43.79587878191119" lon="11.384313492271788"><ele>158.66666666666666</ele><time>2026-04-23T08:48:54Z</time></trkpt><trkpt lat="43.7958196418939" lon="11.384202942316259"><ele>159.33333333333331</ele><time>2026-04-23T08:48:55Z</time></trkpt><trkpt lat="43.7957639325886" lon="11.384102054561758"><ele>160.0</ele><time>2026-04-23T08:48:56Z</time></trkpt><trkpt lat="43.79571794391723" lon="11.384022696457611"><ele>160.66666666666666</ele><time>2026-04-23T08:48:57Z</time></trkpt><trkpt lat="43.79566729562942" lon="11.383925809642362"><ele>161.33333333333334</ele><time>2026-04-23T08:48:58Z</time></trkpt><trkpt lat="43.79562800792889" lon="11.38382039899718"><ele>162.0</ele><time>2026-04-23T08:48:59Z</time></trkpt><trkpt lat="43.79558892011009" lon="11.383741535675336"><ele>163.8</ele><time>2026-04-23T08:49:00Z</time></trkpt><trkpt lat="43.7955309025784" lon="11.383622154800545"><ele>165.6</ele><time>2026-04-23T08:49:02Z</time></trkpt><trkpt lat="43.795453612282415" lon="11.383517138425733"><ele>167.4</ele><time>2026-04-23T08:49:04Z</time></trkpt><trkpt lat="43.795392474954106" lon="11.38342228437532"><ele>169.20000000000002</ele><time>2026-04-23T08:49:06Z</time></trkpt><trkpt lat="43.79533508571326" lon="11.383307338244908"><ele>171.0</ele><time>2026-04-23T08:49:08Z</time></trkpt><trkpt lat="43.79526519658712" lon="11.383204095172086"><ele>171.0</ele><time>2026-04-23T08:49:10Z</time></trkpt><trkpt lat="43.79519828665968" lon="11.383076199804524"><ele>171.0</ele><time>2026-04-23T08:49:12Z</time></trkpt><trkpt lat="43.79512966670684" lon="11.382935661018351"><ele>171.0</ele><time>2026-04-23T08:49:14Z</time></trkpt><trkpt lat="43.79508257918683" lon="11.382859575515683"><ele>171.0</ele><time>2026-04-23T08:49:15Z</time></trkpt><trkpt lat="43.79502677837676" lon="11.382762513770027"><ele>171.0</ele><time>2026-04-23T08:49:17Z</time></trkpt><trkpt lat="43.79498790122855" lon="11.382672006838444"><ele>168.5</ele><time>2026-04-23T08:49:18Z</time></trkpt><trkpt lat="43.79495052414537" lon="11.3825928056792"><ele>166.0</ele><time>2026-04-23T08:49:19Z</time></trkpt><trkpt lat="43.79490430560997" lon="11.382456359458901"><ele>163.5</ele><time>2026-04-23T08:49:21Z</time></trkpt><trkpt lat="43.794839065718214" lon="11.382315841554485"><ele>161.0</ele><time>2026-04-23T08:49:23Z</time></trkpt><trkpt lat="43.794785755170146" lon="11.382263235930008"><ele>158.5</ele><time>2026-04-23T08:49:24Z</time></trkpt><trkpt lat="43.794721302858036" lon="11.3822267859601"><ele>156.0</ele><time>2026-04-23T08:49:25Z</time></trkpt><trkpt lat="43.79463983616512" lon="11.382147134489145"><ele>156.0</ele><time>2026-04-23T08:49:26Z</time></trkpt><trkpt lat="43.794576445364456" lon="11.3819982442078"><ele>156.0</ele><time>2026-04-23T08:49:28Z</time></trkpt><trkpt lat="43.79452108417598" lon="11.381908606707693"><ele>156.0</ele><time>2026-04-23T08:49:29Z</time></trkpt><trkpt lat="43.79442652708362" lon="11.381763849821162"><ele>156.0</ele><time>2026-04-23T08:49:31Z</time></trkpt><trkpt lat="43.79442440370765" lon="11.38166187562077"><ele>156.0</ele><time>2026-04-23T08:49:33Z</time></trkpt><trkpt lat="43.79446894711907" lon="11.38149133407635"><ele>156.0</ele><time>2026-04-23T08:49:35Z</time></trkpt><trkpt lat="43.79450438315308" lon="11.381417665840448"><ele>156.0</ele><time>2026-04-23T08:49:36Z</time></trkpt><trkpt lat="43.79452740891969" lon="11.3812700661223"><ele>156.0</ele><time>2026-04-23T08:49:38Z</time></trkpt><trkpt lat="43.79452320100184" lon="11.381153604395694"><ele>156.0</ele><time>2026-04-23T08:49:40Z</time></trkpt><trkpt lat="43.794480767890384" lon="11.381011085076988"><ele>156.0</ele><time>2026-04-23T08:49:42Z</time></trkpt><trkpt lat="43.79442531341053" lon="11.380885665008607"><ele>155.2</ele><time>2026-04-23T08:49:44Z</time></trkpt><trkpt lat="43.79439152524863" lon="11.380762356687375"><ele>154.39999999999998</ele><time>2026-04-23T08:49:46Z</time></trkpt><trkpt lat="43.794367957606326" lon="11.380634019009793"><ele>153.6</ele><time>2026-04-23T08:49:48Z</time></trkpt><trkpt lat="43.7943765863207" lon="11.380498730559237"><ele>152.79999999999998</ele><time>2026-04-23T08:49:50Z</time></trkpt><trkpt lat="43.794373945087045" lon="11.380388743045813"><ele>152.0</ele><time>2026-04-23T08:49:52Z</time></trkpt><trkpt lat="43.7942813622036" lon="11.380340507759545"><ele>148.0</ele><time>2026-04-23T08:49:54.999Z</time></trkpt><trkpt lat="43.794149299906486" lon="11.380340463951324"><ele>144.0</ele><time>2026-04-23T08:49:55.999Z</time></trkpt><trkpt lat="43.79399904405897" lon="11.380360186680715"><ele>140.0</ele><time>2026-04-23T08:49:56.999Z</time></trkpt><trkpt lat="43.79384029691362" lon="11.380362361235786"><ele>136.0</ele><time>2026-04-23T08:49:57.999Z</time></trkpt><trkpt lat="43.79369731218107" lon="11.380361288633662"><ele>136.0</ele><time>2026-04-23T08:49:58.999Z</time></trkpt><trkpt lat="43.793593423271886" lon="11.380342945862823"><ele>136.0</ele><time>2026-04-23T08:49:59.999Z</time></trkpt><trkpt lat="43.79351084996695" lon="11.380323019363514"><ele>136.0</ele><time>2026-04-23T08:50:00.999Z</time></trkpt><trkpt lat="43.793426282755625" lon="11.380263149584303"><ele>136.0</ele><time>2026-04-23T08:50:01.999Z</time></trkpt><trkpt lat="43.793335234007394" lon="11.380217259899933"><ele>136.0</ele><time>2026-04-23T08:50:02.999Z</time></trkpt><trkpt lat="43.793251333414396" lon="11.3801737735944"><ele>134.0</ele><time>2026-04-23T08:50:04Z</time></trkpt><trkpt lat="43.7931897536693" lon="11.380133585772716"><ele>132.0</ele><time>2026-04-23T08:50:05Z</time></trkpt><trkpt lat="43.793108013642694" lon="11.380110347825312"><ele>130.0</ele><time>2026-04-23T08:50:07Z</time></trkpt><trkpt lat="43.79288244063796" lon="11.379752872553729"><ele>128.25</ele><time>2026-04-23T08:51:03Z</time></trkpt><trkpt lat="43.79278587211563" lon="11.379621601362247"><ele>126.5</ele><time>2026-04-23T08:51:04Z</time></trkpt><trkpt lat="43.792700925791536" lon="11.379456630465672"><ele>124.75</ele><time>2026-04-23T08:51:05Z</time></trkpt><trkpt lat="43.792632160411436" lon="11.379307776387973"><ele>123.0</ele><time>2026-04-23T08:51:06Z</time></trkpt><trkpt lat="43.79258474167101" lon="11.3791475919181"><ele>123.0</ele><time>2026-04-23T08:51:07Z</time></trkpt><trkpt lat="43.79254884831762" lon="11.378950841608818"><ele>123.0</ele><time>2026-04-23T08:51:08Z</time></trkpt><trkpt lat="43.79252057967524" lon="11.378754735682607"><ele>123.0</ele><time>2026-04-23T08:51:09Z</time></trkpt><trkpt lat="43.792496342299245" lon="11.378562593553532"><ele>123.0</ele><time>2026-04-23T08:51:10Z</time></trkpt><trkpt lat="43.79247802077729" lon="11.37837628455406"><ele>121.75</ele><time>2026-04-23T08:51:11Z</time></trkpt><trkpt lat="43.79245811974944" lon="11.378184489042793"><ele>120.5</ele><time>2026-04-23T08:51:12Z</time></trkpt><trkpt lat="43.792433264865814" lon="11.37803602926209"><ele>119.25</ele><time>2026-04-23T08:51:13Z</time></trkpt><trkpt lat="43.7923851415541" lon="11.377899573534526"><ele>118.0</ele><time>2026-04-23T08:51:14Z</time></trkpt><trkpt lat="43.792341431932314" lon="11.377761027238503"><ele>115.80000000000001</ele><time>2026-04-23T08:51:15Z</time></trkpt><trkpt lat="43.79226080663474" lon="11.377661633815489"><ele>113.60000000000001</ele><time>2026-04-23T08:51:16Z</time></trkpt><trkpt lat="43.792154942953715" lon="11.377608215503951"><ele>111.39999999999999</ele><time>2026-04-23T08:51:17Z</time></trkpt><trkpt lat="43.79206350176633" lon="11.377589718243339"><ele>109.19999999999999</ele><time>2026-04-23T08:51:18Z</time></trkpt><trkpt lat="43.79196651479719" lon="11.377606398761824"><ele>107.0</ele><time>2026-04-23T08:51:19Z</time></trkpt><trkpt lat="43.79188297729356" lon="11.377602050848832"><ele>107.25</ele><time>2026-04-23T08:51:20Z</time></trkpt><trkpt lat="43.79174227960787" lon="11.377631635689365"><ele>107.5</ele><time>2026-04-23T08:51:21Z</time></trkpt><trkpt lat="43.79159841614162" lon="11.377668697300395"><ele>107.75</ele><time>2026-04-23T08:51:22Z</time></trkpt><trkpt lat="43.7914459575174" lon="11.377707796776763"><ele>108.0</ele><time>2026-04-23T08:51:23Z</time></trkpt><trkpt lat="43.79129082561371" lon="11.377748378097483"><ele>108.0</ele><time>2026-04-23T08:51:24Z</time></trkpt><trkpt lat="43.7911225610405" lon="11.377770277551072"><ele>108.0</ele><time>2026-04-23T08:51:25Z</time></trkpt><trkpt lat="43.79098019067841" lon="11.37779992479331"><ele>108.0</ele><time>2026-04-23T08:51:26Z</time></trkpt><trkpt lat="43.79084150902035" lon="11.377828803897199"><ele>105.75</ele><time>2026-04-23T08:51:27Z</time></trkpt><trkpt lat="43.79070841004185" lon="11.377856520462668"><ele>103.5</ele><time>2026-04-23T08:51:28Z</time></trkpt><trkpt lat="43.790583375724715" lon="11.37788255764161"><ele>101.25</ele><time>2026-04-23T08:51:29Z</time></trkpt><trkpt lat="43.79046514972934" lon="11.377907177051302"><ele>99.0</ele><time>2026-04-23T08:51:30Z</time></trkpt><trkpt lat="43.79035096731479" lon="11.377931258567868"><ele>99.0</ele><time>2026-04-23T08:51:31Z</time></trkpt><trkpt lat="43.790244183879224" lon="11.377954412638244"><ele>99.0</ele><time>2026-04-23T08:51:32Z</time></trkpt><trkpt lat="43.790139584344836" lon="11.377977093167168"><ele>99.0</ele><time>2026-04-23T08:51:33Z</time></trkpt><trkpt lat="43.79004023059044" lon="11.37799924870188"><ele>99.0</ele><time>2026-04-23T08:51:34Z</time></trkpt><trkpt lat="43.78994124250925" lon="11.378021532449553"><ele>99.0</ele><time>2026-04-23T08:51:35Z</time></trkpt><trkpt lat="43.789842060204634" lon="11.378043735637341"><ele>100.2</ele><time>2026-04-23T08:51:36Z</time></trkpt><trkpt lat="43.78976193373144" lon="11.37806568400618"><ele>101.4</ele><time>2026-04-23T08:51:37Z</time></trkpt><trkpt lat="43.78969694044026" lon="11.378084641305135"><ele>102.6</ele><time>2026-04-23T08:51:38Z</time></trkpt><trkpt lat="43.7896341662373" lon="11.378170265840234"><ele>103.8</ele><time>2026-04-23T08:51:40Z</time></trkpt><trkpt lat="43.789676991451735" lon="11.378287352655592"><ele>105.0</ele><time>2026-04-23T08:51:42Z</time></trkpt><trkpt lat="43.78979166876593" lon="11.378406313281129"><ele>105.0</ele><time>2026-04-23T08:51:44Z</time></trkpt><trkpt lat="43.78984930149105" lon="11.378501569167916"><ele>105.0</ele><time>2026-04-23T08:51:45Z</time></trkpt><trkpt lat="43.78991287097763" lon="11.378598892620284"><ele>105.0</ele><time>2026-04-23T08:51:46Z</time></trkpt><trkpt lat="43.78994163017987" lon="11.37869484177547"><ele>105.0</ele><time>2026-04-23T08:51:47Z</time></trkpt><trkpt lat="43.78996093487421" lon="11.378809023379176"><ele>105.0</ele><time>2026-04-23T08:51:48Z</time></trkpt><trkpt lat="43.789989821510055" lon="11.378942023359619"><ele>105.0</ele><time>2026-04-23T08:51:49Z</time></trkpt><trkpt lat="43.79002266466178" lon="11.379093874847795"><ele>105.5</ele><time>2026-04-23T08:51:50Z</time></trkpt><trkpt lat="43.79006098644083" lon="11.379256813920708"><ele>106.0</ele><time>2026-04-23T08:51:51Z</time></trkpt><trkpt lat="43.79011989539416" lon="11.379427070642196"><ele>106.5</ele><time>2026-04-23T08:51:52Z</time></trkpt><trkpt lat="43.79019560736994" lon="11.37958949840127"><ele>107.0</ele><time>2026-04-23T08:51:53Z</time></trkpt><trkpt lat="43.79027877246892" lon="11.37973189127105"><ele>112.0</ele><time>2026-04-23T08:51:54Z</time></trkpt><trkpt lat="43.790418063596825" lon="11.380019468460018"><ele>117.0</ele><time>2026-04-23T08:51:56Z</time></trkpt><trkpt lat="43.79046870633337" lon="11.380173445671176"><ele>122.0</ele><time>2026-04-23T08:51:57Z</time></trkpt><trkpt lat="43.7905117618403" lon="11.38034073743869"><ele>122.0</ele><time>2026-04-23T08:51:58Z</time></trkpt><trkpt lat="43.79056012971415" lon="11.380498828785383"><ele>122.0</ele><time>2026-04-23T08:51:58.999Z</time></trkpt><trkpt lat="43.79060704408304" lon="11.380641667405726"><ele>122.0</ele><time>2026-04-23T08:51:59.999Z</time></trkpt><trkpt lat="43.79065475113447" lon="11.380779507592809"><ele>122.0</ele><time>2026-04-23T08:52:00.999Z</time></trkpt><trkpt lat="43.79070161719881" lon="11.380928372571928"><ele>119.0</ele><time>2026-04-23T08:52:01.999Z</time></trkpt><trkpt lat="43.79076539256614" lon="11.381061055250639"><ele>115.99999999999999</ele><time>2026-04-23T08:52:02.999Z</time></trkpt><trkpt lat="43.79082282595869" lon="11.381212162964827"><ele>112.99999999999999</ele><time>2026-04-23T08:52:03.999Z</time></trkpt><trkpt lat="43.79085983299243" lon="11.381355457147524"><ele>110.0</ele><time>2026-04-23T08:52:04.999Z</time></trkpt><trkpt lat="43.79085286405612" lon="11.381479855365601"><ele>107.0</ele><time>2026-04-23T08:52:05.999Z</time></trkpt><trkpt lat="43.790853291483586" lon="11.381619692981555"><ele>104.75</ele><time>2026-04-23T08:52:06.999Z</time></trkpt><trkpt lat="43.79085772820982" lon="11.381766857422702"><ele>102.5</ele><time>2026-04-23T08:52:07.999Z</time></trkpt><trkpt lat="43.79085895165041" lon="11.381938238635898"><ele>100.25</ele><time>2026-04-23T08:52:08.999Z</time></trkpt><trkpt lat="43.790865118293986" lon="11.382094125207205"><ele>98.0</ele><time>2026-04-23T08:52:10Z</time></trkpt><trkpt lat="43.79089237061708" lon="11.382247951469312"><ele>97.25</ele><time>2026-04-23T08:52:11Z</time></trkpt><trkpt lat="43.790951089813774" lon="11.382379843243276"><ele>96.5</ele><time>2026-04-23T08:52:12Z</time></trkpt><trkpt lat="43.79104562409712" lon="11.382483267483613"><ele>95.75</ele><time>2026-04-23T08:52:13Z</time></trkpt><trkpt lat="43.791146650263784" lon="11.382617804437569"><ele>95.0</ele><time>2026-04-23T08:52:14Z</time></trkpt><trkpt lat="43.791235633750716" lon="11.382766677466885"><ele>95.0</ele><time>2026-04-23T08:52:15Z</time></trkpt><trkpt lat="43.79133364663729" lon="11.382897292675663"><ele>95.0</ele><time>2026-04-23T08:52:16Z</time></trkpt><trkpt lat="43.791426783331936" lon="11.383034144525347"><ele>95.0</ele><time>2026-04-23T08:52:17Z</time></trkpt><trkpt lat="43.79151890580758" lon="11.383170232304927"><ele>95.0</ele><time>2026-04-23T08:52:18Z</time></trkpt><trkpt lat="43.79161201741048" lon="11.383304170539912"><ele>92.75</ele><time>2026-04-23T08:52:19Z</time></trkpt><trkpt lat="43.79170331522002" lon="11.383432891832346"><ele>90.5</ele><time>2026-04-23T08:52:20Z</time></trkpt><trkpt lat="43.791811145481866" lon="11.383518410290472"><ele>88.25</ele><time>2026-04-23T08:52:21Z</time></trkpt><trkpt lat="43.79193119778251" lon="11.383544857502724"><ele>86.0</ele><time>2026-04-23T08:52:22Z</time></trkpt><trkpt lat="43.792048313731506" lon="11.383542627929197"><ele>86.0</ele><time>2026-04-23T08:52:23Z</time></trkpt><trkpt lat="43.792155135618145" lon="11.38355122549276"><ele>86.0</ele><time>2026-04-23T08:52:24Z</time></trkpt><trkpt lat="43.79225036115579" lon="11.383601496994245"><ele>86.0</ele><time>2026-04-23T08:52:25Z</time></trkpt><trkpt lat="43.79232857705055" lon="11.383705393649185"><ele>86.0</ele><time>2026-04-23T08:52:26Z</time></trkpt><trkpt lat="43.79238234768975" lon="11.383837496583437"><ele>86.0</ele><time>2026-04-23T08:52:27Z</time></trkpt><trkpt lat="43.79240807500028" lon="11.3839845318597"><ele>84.8</ele><time>2026-04-23T08:52:28Z</time></trkpt><trkpt lat="43.79240131495178" lon="11.384124215560728"><ele>83.6</ele><time>2026-04-23T08:52:29Z</time></trkpt><trkpt lat="43.79236859817154" lon="11.384259962915738"><ele>82.4</ele><time>2026-04-23T08:52:30Z</time></trkpt><trkpt lat="43.79230305430208" lon="11.384365235178162"><ele>81.2</ele><time>2026-04-23T08:52:31Z</time></trkpt><trkpt lat="43.79223220295426" lon="11.384447466335802"><ele>80.0</ele><time>2026-04-23T08:52:32Z</time></trkpt><trkpt lat="43.792184934582934" lon="11.384505779159905"><ele>80.0</ele><time>2026-04-23T08:52:33Z</time></trkpt><trkpt lat="43.79216962721738" lon="11.384651923054825"><ele>80.0</ele><time>2026-04-23T08:52:46Z</time></trkpt><trkpt lat="43.792245832525154" lon="11.384793531668576"><ele>80.0</ele><time>2026-04-23T08:52:47Z</time></trkpt><trkpt lat="43.792319407601816" lon="11.384954400937831"><ele>80.0</ele><time>2026-04-23T08:52:48Z</time></trkpt><trkpt lat="43.79236891085509" lon="11.385124885214255"><ele>78.33333333333334</ele><time>2026-04-23T08:52:49Z</time></trkpt><trkpt lat="43.79239580294144" lon="11.385337986633731"><ele>76.66666666666667</ele><time>2026-04-23T08:52:50Z</time></trkpt><trkpt lat="43.79244870074954" lon="11.38553716018894"><ele>75.0</ele><time>2026-04-23T08:52:51Z</time></trkpt><trkpt lat="43.79249200458041" lon="11.385757195603443"><ele>73.33333333333333</ele><time>2026-04-23T08:52:52Z</time></trkpt><trkpt lat="43.7925398846586" lon="11.385979429555698"><ele>71.66666666666666</ele><time>2026-04-23T08:52:53Z</time></trkpt><trkpt lat="43.79258202797404" lon="11.386203586466944"><ele>70.0</ele><time>2026-04-23T08:52:54Z</time></trkpt><trkpt lat="43.79263932428316" lon="11.38641797072821"><ele>72.75</ele><time>2026-04-23T08:52:55Z</time></trkpt><trkpt lat="43.792691404319044" lon="11.386635719277884"><ele>75.5</ele><time>2026-04-23T08:52:56Z</time></trkpt><trkpt lat="43.792735988314156" lon="11.386824165524297"><ele>78.25</ele><time>2026-04-23T08:52:57Z</time></trkpt><trkpt lat="43.79277415447917" lon="11.387003971159107"><ele>81.0</ele><time>2026-04-23T08:52:58Z</time></trkpt><trkpt lat="43.79281453263465" lon="11.387166200375084"><ele>80.39999999999999</ele><time>2026-04-23T08:52:59Z</time></trkpt><trkpt lat="43.79285255837625" lon="11.38732921505321"><ele>79.8</ele><time>2026-04-23T08:53:00Z</time></trkpt><trkpt lat="43.79288435387319" lon="11.387471998044656"><ele>79.19999999999999</ele><time>2026-04-23T08:53:01Z</time></trkpt><trkpt lat="43.79289556023938" lon="11.387611750096267"><ele>78.6</ele><time>2026-04-23T08:53:02Z</time></trkpt><trkpt lat="43.79291924781254" lon="11.387746763678045"><ele>78.0</ele><time>2026-04-23T08:53:03Z</time></trkpt><trkpt lat="43.792938137255035" lon="11.387883472204077"><ele>77.5</ele><time>2026-04-23T08:53:04Z</time></trkpt><trkpt lat="43.79295616001492" lon="11.3880439191068"><ele>77.0</ele><time>2026-04-23T08:53:05Z</time></trkpt><trkpt lat="43.79296053266244" lon="11.388158745933982"><ele>76.5</ele><time>2026-04-23T08:53:06Z</time></trkpt><trkpt lat="43.792965662008726" lon="11.388268439451572"><ele>76.0</ele><time>2026-04-23T08:53:07Z</time></trkpt><trkpt lat="43.79296664278462" lon="11.388379900858084"><ele>75.5</ele><time>2026-04-23T08:53:08Z</time></trkpt><trkpt lat="43.792944144692676" lon="11.38847431200352"><ele>75.0</ele><time>2026-04-23T08:53:09Z</time></trkpt><trkpt lat="43.79293228361008" lon="11.38857306913123"><ele>75.0</ele><time>2026-04-23T08:53:10Z</time></trkpt><trkpt lat="43.792902865876364" lon="11.388732011735252"><ele>75.0</ele><time>2026-04-23T08:53:12Z</time></trkpt><trkpt lat="43.79287553709849" lon="11.38885680826196"><ele>75.0</ele><time>2026-04-23T08:53:40Z</time></trkpt><trkpt lat="43.79283482496323" lon="11.389016322984784"><ele>75.0</ele><time>2026-04-23T08:53:42Z</time></trkpt><trkpt lat="43.792823210626366" lon="11.389103724854905"><ele>75.0</ele><time>2026-04-23T08:53:43Z</time></trkpt><trkpt lat="43.79278536540083" lon="11.389239938180255"><ele>74.83333333333333</ele><time>2026-04-23T08:53:45Z</time></trkpt><trkpt lat="43.792754117417054" lon="11.389336641034527"><ele>74.66666666666667</ele><time>2026-04-23T08:53:47Z</time></trkpt><trkpt lat="43.79272594704755" lon="11.389421609742604"><ele>74.5</ele><time>2026-04-23T08:53:55Z</time></trkpt><trkpt lat="43.79268045486443" lon="11.38949129561387"><ele>74.33333333333334</ele><time>2026-04-23T08:53:58Z</time></trkpt><trkpt lat="43.79263666103886" lon="11.389576591449549"><ele>74.16666666666667</ele><time>2026-04-23T08:53:59Z</time></trkpt><trkpt lat="43.792558336924316" lon="11.389674798974463"><ele>74.0</ele><time>2026-04-23T08:54:00Z</time></trkpt><trkpt lat="43.79243949381281" lon="11.389793138543311"><ele>74.66666666666667</ele><time>2026-04-23T08:54:01Z</time></trkpt><trkpt lat="43.7922980365992" lon="11.389948981233724"><ele>75.33333333333333</ele><time>2026-04-23T08:54:02Z</time></trkpt><trkpt lat="43.79225706317658" lon="11.39010392109569"><ele>76.0</ele><time>2026-04-23T08:54:04Z</time></trkpt><trkpt lat="43.792155522103705" lon="11.390272622775214"><ele>76.0</ele><time>2026-04-23T08:54:05Z</time></trkpt><trkpt lat="43.792059978807345" lon="11.390431615849133"><ele>76.0</ele><time>2026-04-23T08:54:06Z</time></trkpt><trkpt lat="43.79193580208586" lon="11.390556707542254"><ele>76.0</ele><time>2026-04-23T08:54:07Z</time></trkpt><trkpt lat="43.79180651169518" lon="11.390689524846284"><ele>75.66666666666666</ele><time>2026-04-23T08:54:08Z</time></trkpt><trkpt lat="43.791686116113084" lon="11.390840697494829"><ele>75.33333333333333</ele><time>2026-04-23T08:54:09Z</time></trkpt><trkpt lat="43.7915572734941" lon="11.39096957539642"><ele>75.0</ele><time>2026-04-23T08:54:10Z</time></trkpt><trkpt lat="43.79144605583418" lon="11.39110906631565"><ele>75.0</ele><time>2026-04-23T08:54:11Z</time></trkpt><trkpt lat="43.79131879129639" lon="11.391233713697009"><ele>75.0</ele><time>2026-04-23T08:54:12Z</time></trkpt><trkpt lat="43.791266227351095" lon="11.391386457426055"><ele>75.0</ele><time>2026-04-23T08:54:13Z</time></trkpt><trkpt lat="43.791231817788194" lon="11.391559328552228"><ele>75.0</ele><time>2026-04-23T08:54:14Z</time></trkpt><trkpt lat="43.79123056936879" lon="11.391741261670786"><ele>75.5</ele><time>2026-04-23T08:54:15Z</time></trkpt><trkpt lat="43.79124500438737" lon="11.391933829547034"><ele>76.0</ele><time>2026-04-23T08:54:16Z</time></trkpt><trkpt lat="43.79126375539623" lon="11.392113081555197"><ele>76.5</ele><time>2026-04-23T08:54:17Z</time></trkpt><trkpt lat="43.79126745772406" lon="11.39226306154334"><ele>77.0</ele><time>2026-04-23T08:54:18Z</time></trkpt><trkpt lat="43.791240346822995" lon="11.392392875559558"><ele>76.83333333333334</ele><time>2026-04-23T08:54:19Z</time></trkpt><trkpt lat="43.7911918309432" lon="11.392498177288767"><ele>76.66666666666667</ele><time>2026-04-23T08:54:20Z</time></trkpt><trkpt lat="43.79111964175182" lon="11.392584599794766"><ele>76.5</ele><time>2026-04-23T08:54:21Z</time></trkpt><trkpt lat="43.7910465762669" lon="11.392644809579542"><ele>76.33333333333333</ele><time>2026-04-23T08:54:22Z</time></trkpt><trkpt lat="43.79097111698552" lon="11.392689186005327"><ele>76.16666666666666</ele><time>2026-04-23T08:54:23Z</time></trkpt><trkpt lat="43.79088927641982" lon="11.392666834514586"><ele>76.0</ele><time>2026-04-23T08:54:24Z</time></trkpt><trkpt lat="43.790780202479624" lon="11.392699598238917"><ele>76.0</ele><time>2026-04-23T08:54:25Z</time></trkpt><trkpt lat="43.79065977475587" lon="11.392740942379566"><ele>76.0</ele><time>2026-04-23T08:54:26Z</time></trkpt><trkpt lat="43.79052650472153" lon="11.392782052940287"><ele>76.0</ele><time>2026-04-23T08:54:27Z</time></trkpt><trkpt lat="43.790379762695544" lon="11.392822849195618"><ele>76.0</ele><time>2026-04-23T08:54:28Z</time></trkpt><trkpt lat="43.79022231519405" lon="11.392885473667809"><ele>76.25</ele><time>2026-04-23T08:54:29Z</time></trkpt><trkpt lat="43.79008319399747" lon="11.392993371323088"><ele>76.5</ele><time>2026-04-23T08:54:30Z</time></trkpt><trkpt lat="43.789981811231364" lon="11.393122091996688"><ele>76.75</ele><time>2026-04-23T08:54:31Z</time></trkpt><trkpt lat="43.78990439162263" lon="11.393246613186037"><ele>77.0</ele><time>2026-04-23T08:54:32Z</time></trkpt><trkpt lat="43.789821073798706" lon="11.393359108437352"><ele>77.5</ele><time>2026-04-23T08:54:33Z</time></trkpt><trkpt lat="43.789733674633645" lon="11.393465690547819"><ele>78.0</ele><time>2026-04-23T08:54:34Z</time></trkpt><trkpt lat="43.78963608700727" lon="11.393565417913065"><ele>78.5</ele><time>2026-04-23T08:54:35Z</time></trkpt><trkpt lat="43.7895308051848" lon="11.393669693811947"><ele>79.0</ele><time>2026-04-23T08:54:36Z</time></trkpt><trkpt lat="43.78942121870905" lon="11.39375446442632"><ele>78.75</ele><time>2026-04-23T08:54:37Z</time></trkpt><trkpt lat="43.78931223336529" lon="11.393832122213134"><ele>78.5</ele><time>2026-04-23T08:54:38Z</time></trkpt><trkpt lat="43.789213862297935" lon="11.393900185566993"><ele>78.25</ele><time>2026-04-23T08:54:39Z</time></trkpt><trkpt lat="43.789109431338765" lon="11.393985174821537"><ele>78.0</ele><time>2026-04-23T08:54:40Z</time></trkpt><trkpt lat="43.788980637773264" lon="11.394063905234248"><ele>78.0</ele><time>2026-04-23T08:54:41Z</time></trkpt><trkpt lat="43.788848125271535" lon="11.394172776805439"><ele>78.0</ele><time>2026-04-23T08:54:42Z</time></trkpt><trkpt lat="43.78871510275204" lon="11.394269332201352"><ele>78.0</ele><time>2026-04-23T08:54:43Z</time></trkpt><trkpt lat="43.78857607694296" lon="11.394357919142452"><ele>77.33333333333333</ele><time>2026-04-23T08:54:44Z</time></trkpt><trkpt lat="43.78843221203713" lon="11.394454360436916"><ele>76.66666666666666</ele><time>2026-04-23T08:54:45Z</time></trkpt><trkpt lat="43.78828557423068" lon="11.394561732517506"><ele>76.0</ele><time>2026-04-23T08:54:46Z</time></trkpt><trkpt lat="43.78813361060469" lon="11.394670663661975"><ele>76.66666666666666</ele><time>2026-04-23T08:54:47Z</time></trkpt><trkpt lat="43.78798135577434" lon="11.394778104872001"><ele>77.33333333333333</ele><time>2026-04-23T08:54:48Z</time></trkpt><trkpt lat="43.78783508993672" lon="11.394890084004677"><ele>78.0</ele><time>2026-04-23T08:54:49Z</time></trkpt><trkpt lat="43.787690661508826" lon="11.394990065599147"><ele>78.0</ele><time>2026-04-23T08:54:50Z</time></trkpt><trkpt lat="43.787580699780136" lon="11.395113651833022"><ele>78.0</ele><time>2026-04-23T08:54:51Z</time></trkpt><trkpt lat="43.78748227100852" lon="11.395261888969346"><ele>78.0</ele><time>2026-04-23T08:54:52Z</time></trkpt><trkpt lat="43.78739880240692" lon="11.395434063959282"><ele>78.0</ele><time>2026-04-23T08:54:53Z</time></trkpt><trkpt lat="43.78733358052396" lon="11.395609227533601"><ele>78.0</ele><time>2026-04-23T08:54:54Z</time></trkpt><trkpt lat="43.78727817800864" lon="11.395774748773679"><ele>78.0</ele><time>2026-04-23T08:54:55Z</time></trkpt><trkpt lat="43.7872245679227" lon="11.395926283097932"><ele>78.0</ele><time>2026-04-23T08:54:56Z</time></trkpt><trkpt lat="43.787177964803796" lon="11.396058913766282"><ele>78.0</ele><time>2026-04-23T08:54:57Z</time></trkpt><trkpt lat="43.78711968311716" lon="11.396195587689965"><ele>78.0</ele><time>2026-04-23T08:54:58Z</time></trkpt><trkpt lat="43.78708221732763" lon="11.39631849864438"><ele>78.0</ele><time>2026-04-23T08:54:59Z</time></trkpt><trkpt lat="43.78703094415589" lon="11.396446417843764"><ele>78.0</ele><time>2026-04-23T08:55:00Z</time></trkpt><trkpt lat="43.78697941921515" lon="11.396573470791932"><ele>78.0</ele><time>2026-04-23T08:55:01Z</time></trkpt><trkpt lat="43.78691889145858" lon="11.396695728875791"><ele>78.0</ele><time>2026-04-23T08:55:02Z</time></trkpt><trkpt lat="43.7868676157574" lon="11.396828034810504"><ele>78.0</ele><time>2026-04-23T08:55:03Z</time></trkpt><trkpt lat="43.78681558159765" lon="11.396966727480963"><ele>78.0</ele><time>2026-04-23T08:55:04Z</time></trkpt><trkpt lat="43.7867660943837" lon="11.397097240136238"><ele>78.0</ele><time>2026-04-23T08:55:05Z</time></trkpt><trkpt lat="43.78671513304264" lon="11.397221302389145"><ele>78.0</ele><time>2026-04-23T08:55:06Z</time></trkpt><trkpt lat="43.78666632255403" lon="11.397332960626724"><ele>78.0</ele><time>2026-04-23T08:55:07Z</time></trkpt><trkpt lat="43.78662096429646" lon="11.397438380231323"><ele>77.85714285714286</ele><time>2026-04-23T08:55:08Z</time></trkpt><trkpt lat="43.7865761939124" lon="11.397531278841155"><ele>77.71428571428571</ele><time>2026-04-23T08:55:09Z</time></trkpt><trkpt lat="43.786525887056605" lon="11.397600598180675"><ele>77.57142857142857</ele><time>2026-04-23T08:55:10Z</time></trkpt><trkpt lat="43.78646966201985" lon="11.397655052669489"><ele>77.42857142857143</ele><time>2026-04-23T08:55:11Z</time></trkpt><trkpt lat="43.786405446385636" lon="11.397692727639111"><ele>77.28571428571428</ele><time>2026-04-23T08:55:12Z</time></trkpt><trkpt lat="43.78632578708362" lon="11.397725792151052"><ele>77.14285714285714</ele><time>2026-04-23T08:55:13Z</time></trkpt><trkpt lat="43.78625060664258" lon="11.397737260382673"><ele>77.0</ele><time>2026-04-23T08:55:14Z</time></trkpt><trkpt lat="43.786220668968305" lon="11.397822204528413"><ele>77.0</ele><time>2026-04-23T08:55:15Z</time></trkpt><trkpt lat="43.78619533148" lon="11.397995727057495"><ele>77.0</ele><time>2026-04-23T08:55:17Z</time></trkpt><trkpt lat="43.78621533693458" lon="11.398110206612447"><ele>77.0</ele><time>2026-04-23T08:55:18Z</time></trkpt><trkpt lat="43.78623237896391" lon="11.398231842225393"><ele>77.0</ele><time>2026-04-23T08:55:19Z</time></trkpt><trkpt lat="43.78621389441856" lon="11.398331743761604"><ele>77.0</ele><time>2026-04-23T08:55:20Z</time></trkpt><trkpt lat="43.78618721643799" lon="11.398444119673346"><ele>77.33333333333334</ele><time>2026-04-23T08:55:21Z</time></trkpt><trkpt lat="43.786136382348836" lon="11.398552407460562"><ele>77.66666666666667</ele><time>2026-04-23T08:55:22Z</time></trkpt><trkpt lat="43.78609300113911" lon="11.398656959626672"><ele>78.0</ele><time>2026-04-23T08:55:23Z</time></trkpt><trkpt lat="43.78605098128868" lon="11.398761084694597"><ele>78.33333333333333</ele><time>2026-04-23T08:55:24Z</time></trkpt><trkpt lat="43.786008092455575" lon="11.398858750197222"><ele>78.66666666666666</ele><time>2026-04-23T08:55:25Z</time></trkpt><trkpt lat="43.78597698520079" lon="11.398938390065727"><ele>79.0</ele><time>2026-04-23T08:55:26Z</time></trkpt><trkpt lat="43.7859424626872" lon="11.39901581503797"><ele>79.0</ele><time>2026-04-23T08:55:27Z</time></trkpt><trkpt lat="43.78590832219774" lon="11.399095422065646"><ele>79.0</ele><time>2026-04-23T08:55:28Z</time></trkpt><trkpt lat="43.7858661181812" lon="11.399185668362975"><ele>79.0</ele><time>2026-04-23T08:55:29Z</time></trkpt><trkpt lat="43.785809568343566" lon="11.3993004988321"><ele>79.0</ele><time>2026-04-23T08:55:30Z</time></trkpt><trkpt lat="43.7857676551306" lon="11.399426043684095"><ele>79.0</ele><time>2026-04-23T08:55:31Z</time></trkpt><trkpt lat="43.785718964792245" lon="11.399525237592009"><ele>79.0</ele><time>2026-04-23T08:55:32Z</time></trkpt><trkpt lat="43.78565777614348" lon="11.399659299056983"><ele>79.75</ele><time>2026-04-23T08:55:33Z</time></trkpt><trkpt lat="43.78558727018586" lon="11.399812543266368"><ele>80.5</ele><time>2026-04-23T08:55:34Z</time></trkpt><trkpt lat="43.785515169867345" lon="11.39997122790262"><ele>81.25</ele><time>2026-04-23T08:55:35Z</time></trkpt><trkpt lat="43.78543797476329" lon="11.400146104842834"><ele>82.0</ele><time>2026-04-23T08:55:36Z</time></trkpt><trkpt lat="43.78536481632923" lon="11.400317965915713"><ele>82.0</ele><time>2026-04-23T08:55:37Z</time></trkpt><trkpt lat="43.78529593668592" lon="11.400482833630798"><ele>82.0</ele><time>2026-04-23T08:55:38Z</time></trkpt><trkpt lat="43.7852182599159" lon="11.400647455909244"><ele>82.0</ele><time>2026-04-23T08:55:39Z</time></trkpt><trkpt lat="43.78514457373309" lon="11.40080187902575"><ele>82.0</ele><time>2026-04-23T08:55:40Z</time></trkpt><trkpt lat="43.78506168147793" lon="11.400945061982092"><ele>82.19999999999999</ele><time>2026-04-23T08:55:41Z</time></trkpt><trkpt lat="43.78502077584944" lon="11.401035834854687"><ele>82.4</ele><time>2026-04-23T08:55:42Z</time></trkpt><trkpt lat="43.78497846457236" lon="11.401125196691368"><ele>82.6</ele><time>2026-04-23T08:55:44Z</time></trkpt><trkpt lat="43.78493992644899" lon="11.401223188198438"><ele>82.80000000000001</ele><time>2026-04-23T08:55:45Z</time></trkpt><trkpt lat="43.78486325484207" lon="11.40133168387329"><ele>83.0</ele><time>2026-04-23T08:55:46Z</time></trkpt><trkpt lat="43.784802769051474" lon="11.401487180261185"><ele>83.0</ele><time>2026-04-23T08:55:47Z</time></trkpt><trkpt lat="43.78473591548845" lon="11.40167481120528"><ele>83.0</ele><time>2026-04-23T08:55:48Z</time></trkpt><trkpt lat="43.784658196126976" lon="11.40185031869376"><ele>83.0</ele><time>2026-04-23T08:55:49Z</time></trkpt><trkpt lat="43.78458158563086" lon="11.402031950271285"><ele>83.0</ele><time>2026-04-23T08:55:50Z</time></trkpt><trkpt lat="43.7845017470616" lon="11.402218302164371"><ele>83.0</ele><time>2026-04-23T08:55:51Z</time></trkpt><trkpt lat="43.784421299123515" lon="11.40240417973488"><ele>83.0</ele><time>2026-04-23T08:55:52Z</time></trkpt><trkpt lat="43.78433634652026" lon="11.402589648789098"><ele>82.66666666666667</ele><time>2026-04-23T08:55:53Z</time></trkpt><trkpt lat="43.78424340051934" lon="11.402782169430678"><ele>82.33333333333333</ele><time>2026-04-23T08:55:54Z</time></trkpt><trkpt lat="43.784147244884856" lon="11.402968283833049"><ele>82.0</ele><time>2026-04-23T08:55:55Z</time></trkpt><trkpt lat="43.78404228380765" lon="11.403153835419621"><ele>82.66666666666666</ele><time>2026-04-23T08:55:56Z</time></trkpt><trkpt lat="43.78392634591568" lon="11.403340005957752"><ele>83.33333333333333</ele><time>2026-04-23T08:55:57Z</time></trkpt><trkpt lat="43.78381139440417" lon="11.403526538990118"><ele>84.0</ele><time>2026-04-23T08:55:58Z</time></trkpt><trkpt lat="43.78369361316245" lon="11.403727335126403"><ele>84.0</ele><time>2026-04-23T08:55:59Z</time></trkpt><trkpt lat="43.783583225167824" lon="11.403934648344768"><ele>84.0</ele><time>2026-04-23T08:56:00Z</time></trkpt><trkpt lat="43.78336964387154" lon="11.404347149071556"><ele>83.66666666666667</ele><time>2026-04-23T08:56:02Z</time></trkpt><trkpt lat="43.78328224005466" lon="11.40454519610345"><ele>83.33333333333334</ele><time>2026-04-23T08:56:03Z</time></trkpt><trkpt lat="43.783203669743195" lon="11.404746412693827"><ele>83.0</ele><time>2026-04-23T08:56:04Z</time></trkpt><trkpt lat="43.78312485649388" lon="11.40493613558442"><ele>83.66666666666667</ele><time>2026-04-23T08:56:05Z</time></trkpt><trkpt lat="43.78304801691948" lon="11.405124495656791"><ele>84.33333333333333</ele><time>2026-04-23T08:56:06Z</time></trkpt><trkpt lat="43.78294570356313" lon="11.405300740857431"><ele>85.0</ele><time>2026-04-23T08:56:07Z</time></trkpt><trkpt lat="43.78287149292666" lon="11.405477906125345"><ele>84.75</ele><time>2026-04-23T08:56:08Z</time></trkpt><trkpt lat="43.78279423800981" lon="11.405616020328043"><ele>84.5</ele><time>2026-04-23T08:56:09Z</time></trkpt><trkpt lat="43.78271867106215" lon="11.40576433298117"><ele>84.25</ele><time>2026-04-23T08:56:10Z</time></trkpt><trkpt lat="43.7826419376066" lon="11.405899659532546"><ele>84.0</ele><time>2026-04-23T08:56:11Z</time></trkpt><trkpt lat="43.782569374331956" lon="11.406044052980388"><ele>83.75</ele><time>2026-04-23T08:56:12Z</time></trkpt><trkpt lat="43.78248543186367" lon="11.4061965000832"><ele>83.5</ele><time>2026-04-23T08:56:13Z</time></trkpt><trkpt lat="43.78239859512766" lon="11.406320890819396"><ele>83.25</ele><time>2026-04-23T08:56:14Z</time></trkpt><trkpt lat="43.78230688675452" lon="11.406428284301317"><ele>83.0</ele><time>2026-04-23T08:56:15Z</time></trkpt><trkpt lat="43.78220152113406" lon="11.406489997356562"><ele>83.0</ele><time>2026-04-23T08:56:16Z</time></trkpt><trkpt lat="43.78209469469736" lon="11.406555886260412"><ele>83.0</ele><time>2026-04-23T08:56:17Z</time></trkpt><trkpt lat="43.78198819375041" lon="11.406621124023648"><ele>83.0</ele><time>2026-04-23T08:56:18Z</time></trkpt><trkpt lat="43.78187973894104" lon="11.406709638973709"><ele>83.0</ele><time>2026-04-23T08:56:19Z</time></trkpt><trkpt lat="43.7817665822088" lon="11.406781464864006"><ele>83.0</ele><time>2026-04-23T08:56:20Z</time></trkpt><trkpt lat="43.78164536139487" lon="11.40685607138268"><ele>83.0</ele><time>2026-04-23T08:56:21Z</time></trkpt><trkpt lat="43.781519165831746" lon="11.406943057937285"><ele>83.0</ele><time>2026-04-23T08:56:22Z</time></trkpt><trkpt lat="43.78140921769781" lon="11.407028973392183"><ele>83.0</ele><time>2026-04-23T08:56:23Z</time></trkpt><trkpt lat="43.78130010095591" lon="11.407115685310323"><ele>83.0</ele><time>2026-04-23T08:56:24Z</time></trkpt><trkpt lat="43.781185874799355" lon="11.407205815772148"><ele>83.0</ele><time>2026-04-23T08:56:25Z</time></trkpt><trkpt lat="43.78108237787308" lon="11.40730209854835"><ele>83.0</ele><time>2026-04-23T08:56:26Z</time></trkpt><trkpt lat="43.78098593787892" lon="11.407391053935628"><ele>83.0</ele><time>2026-04-23T08:56:27Z</time></trkpt><trkpt lat="43.78089720214646" lon="11.407484620407327"><ele>83.0</ele><time>2026-04-23T08:56:28Z</time></trkpt><trkpt lat="43.7807942780762" lon="11.40757498114956"><ele>83.0</ele><time>2026-04-23T08:56:29Z</time></trkpt><trkpt lat="43.780681208938944" lon="11.407672767588368"><ele>83.0</ele><time>2026-04-23T08:56:30Z</time></trkpt><trkpt lat="43.780557013697425" lon="11.407794554670568"><ele>83.0</ele><time>2026-04-23T08:56:31Z</time></trkpt><trkpt lat="43.780407692335814" lon="11.407909054177566"><ele>83.33333333333334</ele><time>2026-04-23T08:56:32Z</time></trkpt><trkpt lat="43.78026839296515" lon="11.408037767547748"><ele>83.66666666666667</ele><time>2026-04-23T08:56:33Z</time></trkpt><trkpt lat="43.78013241672868" lon="11.408163410317401"><ele>84.0</ele><time>2026-04-23T08:56:34Z</time></trkpt><trkpt lat="43.77999903957596" lon="11.408288764727349"><ele>83.0</ele><time>2026-04-23T08:56:35Z</time></trkpt><trkpt lat="43.77987845692725" lon="11.40840204509206"><ele>82.0</ele><time>2026-04-23T08:56:36Z</time></trkpt><trkpt lat="43.7797768240671" lon="11.40853218194108"><ele>81.0</ele><time>2026-04-23T08:56:37Z</time></trkpt><trkpt lat="43.779703612906886" lon="11.408650839220225"><ele>80.0</ele><time>2026-04-23T08:56:38Z</time></trkpt><trkpt lat="43.779636616003486" lon="11.408806540597608"><ele>81.33333333333334</ele><time>2026-04-23T08:56:39Z</time></trkpt><trkpt lat="43.779578419023416" lon="11.408985452744396"><ele>82.66666666666667</ele><time>2026-04-23T08:56:40Z</time></trkpt><trkpt lat="43.77952529927184" lon="11.409190471740146"><ele>84.0</ele><time>2026-04-23T08:56:41Z</time></trkpt><trkpt lat="43.77945908584893" lon="11.409406487771266"><ele>84.0</ele><time>2026-04-23T08:56:42Z</time></trkpt><trkpt lat="43.77937558924541" lon="11.409632406062213"><ele>84.0</ele><time>2026-04-23T08:56:43Z</time></trkpt><trkpt lat="43.779293313098236" lon="11.409851109223771"><ele>84.0</ele><time>2026-04-23T08:56:44Z</time></trkpt><trkpt lat="43.77919472989467" lon="11.410074407460094"><ele>84.0</ele><time>2026-04-23T08:56:45Z</time></trkpt><trkpt lat="43.77910923583107" lon="11.410291710456862"><ele>84.0</ele><time>2026-04-23T08:56:46Z</time></trkpt><trkpt lat="43.778988773626644" lon="11.410468852247583"><ele>84.0</ele><time>2026-04-23T08:56:47Z</time></trkpt><trkpt lat="43.77885029611046" lon="11.410644794617166"><ele>84.0</ele><time>2026-04-23T08:56:48Z</time></trkpt><trkpt lat="43.77871728156398" lon="11.4108336283062"><ele>84.0</ele><time>2026-04-23T08:56:49Z</time></trkpt><trkpt lat="43.77859196189018" lon="11.411028602207523"><ele>84.0</ele><time>2026-04-23T08:56:50Z</time></trkpt><trkpt lat="43.77846782642843" lon="11.411214882805037"><ele>83.33333333333333</ele><time>2026-04-23T08:56:51Z</time></trkpt><trkpt lat="43.7783499109786" lon="11.411399094158876"><ele>82.66666666666666</ele><time>2026-04-23T08:56:52Z</time></trkpt><trkpt lat="43.778242359773444" lon="11.411581472992129"><ele>82.0</ele><time>2026-04-23T08:56:53Z</time></trkpt><trkpt lat="43.77814482617211" lon="11.411761686374556"><ele>82.0</ele><time>2026-04-23T08:56:54Z</time></trkpt><trkpt lat="43.77805148534237" lon="11.411943270308006"><ele>82.0</ele><time>2026-04-23T08:56:55Z</time></trkpt><trkpt lat="43.77795708693147" lon="11.412123130569702"><ele>82.0</ele><time>2026-04-23T08:56:56Z</time></trkpt><trkpt lat="43.77786277603304" lon="11.412305958869256"><ele>81.0</ele><time>2026-04-23T08:56:57Z</time></trkpt><trkpt lat="43.77776796358094" lon="11.412486719173943"><ele>80.0</ele><time>2026-04-23T08:56:58Z</time></trkpt><trkpt lat="43.77767129337631" lon="11.412663525314422"><ele>79.0</ele><time>2026-04-23T08:56:59Z</time></trkpt><trkpt lat="43.77758117178854" lon="11.412838837679075"><ele>82.0</ele><time>2026-04-23T08:57:00Z</time></trkpt><trkpt lat="43.77748180411302" lon="11.413001221470683"><ele>85.0</ele><time>2026-04-23T08:57:01Z</time></trkpt><trkpt lat="43.77741102493828" lon="11.413196705869387"><ele>88.0</ele><time>2026-04-23T08:57:02Z</time></trkpt><trkpt lat="43.77732867542617" lon="11.413381243570962"><ele>88.0</ele><time>2026-04-23T08:57:03Z</time></trkpt><trkpt lat="43.77725967332296" lon="11.413550514907426"><ele>88.0</ele><time>2026-04-23T08:57:04Z</time></trkpt><trkpt lat="43.777177988625205" lon="11.413704087423639"><ele>88.0</ele><time>2026-04-23T08:57:05Z</time></trkpt><trkpt lat="43.77710661803962" lon="11.413873531141931"><ele>88.0</ele><time>2026-04-23T08:57:06Z</time></trkpt><trkpt lat="43.777039861516464" lon="11.414032020469227"><ele>86.75</ele><time>2026-04-23T08:57:07Z</time></trkpt><trkpt lat="43.7769911932584" lon="11.414195655230467"><ele>85.5</ele><time>2026-04-23T08:57:08Z</time></trkpt><trkpt lat="43.77692121593375" lon="11.414364860807302"><ele>84.25</ele><time>2026-04-23T08:57:09Z</time></trkpt><trkpt lat="43.77685387453069" lon="11.414561759569766"><ele>83.0</ele><time>2026-04-23T08:57:10Z</time></trkpt><trkpt lat="43.77678084032691" lon="11.414729230231199"><ele>83.0</ele><time>2026-04-23T08:57:11Z</time></trkpt><trkpt lat="43.776697350693645" lon="11.414920375775951"><ele>83.0</ele><time>2026-04-23T08:57:12Z</time></trkpt><trkpt lat="43.77659440872753" lon="11.415120061917653"><ele>83.0</ele><time>2026-04-23T08:57:13Z</time></trkpt><trkpt lat="43.77650260122068" lon="11.415331324865953"><ele>83.33333333333334</ele><time>2026-04-23T08:57:14Z</time></trkpt><trkpt lat="43.7763907848552" lon="11.415513863982603"><ele>83.66666666666667</ele><time>2026-04-23T08:57:15Z</time></trkpt><trkpt lat="43.77626607333589" lon="11.4156575403986"><ele>84.0</ele><time>2026-04-23T08:57:16Z</time></trkpt><trkpt lat="43.7761366657963" lon="11.415799196664853"><ele>84.0</ele><time>2026-04-23T08:57:17Z</time></trkpt><trkpt lat="43.77602568282881" lon="11.415905599659997"><ele>84.0</ele><time>2026-04-23T08:57:18Z</time></trkpt><trkpt lat="43.77587326524353" lon="11.416023344499216"><ele>84.0</ele><time>2026-04-23T08:57:19Z</time></trkpt><trkpt lat="43.775710030689744" lon="11.41610208941621"><ele>83.25</ele><time>2026-04-23T08:57:20Z</time></trkpt><trkpt lat="43.77558175390986" lon="11.416169832130176"><ele>82.5</ele><time>2026-04-23T08:57:22Z</time></trkpt><trkpt lat="43.77546240215462" lon="11.416232488801692"><ele>81.75</ele><time>2026-04-23T08:57:23Z</time></trkpt><trkpt lat="43.77536123980978" lon="11.416309009224438"><ele>81.0</ele><time>2026-04-23T08:57:24Z</time></trkpt><trkpt lat="43.77526183676706" lon="11.416337976665973"><ele>81.19999999999999</ele><time>2026-04-23T08:57:25Z</time></trkpt><trkpt lat="43.775177961197954" lon="11.416420430664068"><ele>81.39999999999999</ele><time>2026-04-23T08:57:26Z</time></trkpt><trkpt lat="43.775073498770496" lon="11.416443076619094"><ele>81.6</ele><time>2026-04-23T08:57:27Z</time></trkpt><trkpt lat="43.774981130495526" lon="11.416447720365596"><ele>81.8</ele><time>2026-04-23T08:57:28Z</time></trkpt><trkpt lat="43.77489051647168" lon="11.416432483580657"><ele>82.0</ele><time>2026-04-23T08:57:29Z</time></trkpt><trkpt lat="43.77480337765541" lon="11.416386033246605"><ele>82.0</ele><time>2026-04-23T08:57:30Z</time></trkpt><trkpt lat="43.77469496023964" lon="11.416329789248145"><ele>82.0</ele><time>2026-04-23T08:57:31Z</time></trkpt><trkpt lat="43.77456246506416" lon="11.41628102302856"><ele>82.0</ele><time>2026-04-23T08:57:32Z</time></trkpt><trkpt lat="43.77444363533633" lon="11.416267353800775"><ele>82.0</ele><time>2026-04-23T08:57:33Z</time></trkpt><trkpt lat="43.77432901400083" lon="11.416294087912094"><ele>81.8</ele><time>2026-04-23T08:57:34Z</time></trkpt><trkpt lat="43.77424417377965" lon="11.416298395495236"><ele>81.6</ele><time>2026-04-23T08:57:35Z</time></trkpt><trkpt lat="43.77416045205005" lon="11.416392280907917"><ele>81.39999999999999</ele><time>2026-04-23T08:57:36Z</time></trkpt><trkpt lat="43.774128969353264" lon="11.416489592824682"><ele>81.19999999999999</ele><time>2026-04-23T08:57:37Z</time></trkpt><trkpt lat="43.77411030583099" lon="11.416646778839144"><ele>81.0</ele><time>2026-04-23T08:57:38Z</time></trkpt><trkpt lat="43.774106815732594" lon="11.416800065968577"><ele>81.0</ele><time>2026-04-23T08:57:39Z</time></trkpt><trkpt lat="43.77416839890614" lon="11.416940199468192"><ele>81.0</ele><time>2026-04-23T08:57:40Z</time></trkpt><trkpt lat="43.77425560692603" lon="11.417045754522233"><ele>81.0</ele><time>2026-04-23T08:57:41Z</time></trkpt><trkpt lat="43.774344595214224" lon="11.417126807382854"><ele>81.0</ele><time>2026-04-23T08:57:42Z</time></trkpt><trkpt lat="43.77435750087598" lon="11.417301116884182"><ele>81.0</ele><time>2026-04-23T08:57:43Z</time></trkpt><trkpt lat="43.77436565498787" lon="11.417420800858114"><ele>81.0</ele><time>2026-04-23T08:57:44Z</time></trkpt><trkpt lat="43.7743555084664" lon="11.417541538941398"><ele>81.0</ele><time>2026-04-23T08:57:45Z</time></trkpt><trkpt lat="43.77432954731809" lon="11.417631094488046"><ele>81.0</ele><time>2026-04-23T08:57:46Z</time></trkpt><trkpt lat="43.77425732870217" lon="11.417709354242083"><ele>81.0</ele><time>2026-04-23T08:57:47Z</time></trkpt><trkpt lat="43.77425941982671" lon="11.417823218018228"><ele>81.0</ele><time>2026-04-23T08:57:48Z</time></trkpt><trkpt lat="43.77428052616998" lon="11.417909409309882"><ele>81.0</ele><time>2026-04-23T08:57:49Z</time></trkpt><trkpt lat="43.77433513322986" lon="11.417979005694637"><ele>81.0</ele><time>2026-04-23T08:57:50Z</time></trkpt><trkpt lat="43.774413440371404" lon="11.418019843202933"><ele>81.0</ele><time>2026-04-23T08:57:51Z</time></trkpt><trkpt lat="43.77451814726418" lon="11.418032397723577"><ele>81.0</ele><time>2026-04-23T08:57:52Z</time></trkpt><trkpt lat="43.77463836424015" lon="11.418079478624147"><ele>81.0</ele><time>2026-04-23T08:57:53Z</time></trkpt><trkpt lat="43.774771769102976" lon="11.418166971238492"><ele>81.5</ele><time>2026-04-23T08:57:54Z</time></trkpt><trkpt lat="43.774872643159995" lon="11.418235622840847"><ele>82.0</ele><time>2026-04-23T08:57:55Z</time></trkpt><trkpt lat="43.774974708281114" lon="11.418325648577065"><ele>82.5</ele><time>2026-04-23T08:57:56Z</time></trkpt><trkpt lat="43.7750664068884" lon="11.418447836463429"><ele>83.0</ele><time>2026-04-23T08:57:57Z</time></trkpt><trkpt lat="43.7751345332833" lon="11.418582240261173"><ele>83.60000000000001</ele><time>2026-04-23T08:57:58Z</time></trkpt><trkpt lat="43.77521970684966" lon="11.418703150533752"><ele>84.2</ele><time>2026-04-23T08:57:59Z</time></trkpt><trkpt lat="43.775288185908835" lon="11.41881037548257"><ele>84.8</ele><time>2026-04-23T08:58:00Z</time></trkpt><trkpt lat="43.77536166109482" lon="11.418900338997343"><ele>85.4</ele><time>2026-04-23T08:58:01Z</time></trkpt><trkpt lat="43.77544121630798" lon="11.418976785951925"><ele>86.0</ele><time>2026-04-23T08:58:02Z</time></trkpt><trkpt lat="43.77553004617257" lon="11.419040604750712"><ele>86.5</ele><time>2026-04-23T08:58:03Z</time></trkpt><trkpt lat="43.77564396839649" lon="11.419077869831405"><ele>87.0</ele><time>2026-04-23T08:58:04Z</time></trkpt><trkpt lat="43.77576594418792" lon="11.419089948234088"><ele>87.5</ele><time>2026-04-23T08:58:05Z</time></trkpt><trkpt lat="43.77591072662073" lon="11.419081004984072"><ele>88.0</ele><time>2026-04-23T08:58:06Z</time></trkpt><trkpt lat="43.776050542181636" lon="11.419097874875964"><ele>89.0</ele><time>2026-04-23T08:58:07Z</time></trkpt><trkpt lat="43.776212810071925" lon="11.419089141025003"><ele>90.0</ele><time>2026-04-23T08:58:08Z</time></trkpt><trkpt lat="43.77635496171118" lon="11.419086133985854"><ele>91.0</ele><time>2026-04-23T08:58:09Z</time></trkpt><trkpt lat="43.776469271052704" lon="11.419076999228299"><ele>92.0</ele><time>2026-04-23T08:58:10Z</time></trkpt><trkpt lat="43.776578473565436" lon="11.419079826055333"><ele>92.0</ele><time>2026-04-23T08:58:11Z</time></trkpt><trkpt lat="43.776685799272435" lon="11.419084815746796"><ele>92.0</ele><time>2026-04-23T08:58:12Z</time></trkpt><trkpt lat="43.77679728316747" lon="11.419139721520338"><ele>92.0</ele><time>2026-04-23T08:58:13Z</time></trkpt><trkpt lat="43.776901962234334" lon="11.419220239729745"><ele>92.0</ele><time>2026-04-23T08:58:14Z</time></trkpt><trkpt lat="43.776990416757855" lon="11.419349119631844"><ele>93.0</ele><time>2026-04-23T08:58:15Z</time></trkpt><trkpt lat="43.777063939142735" lon="11.419494528696111"><ele>94.0</ele><time>2026-04-23T08:58:16Z</time></trkpt><trkpt lat="43.77710168382508" lon="11.41965180293234"><ele>95.0</ele><time>2026-04-23T08:58:17.001Z</time></trkpt><trkpt lat="43.77710839511677" lon="11.419817028003077"><ele>96.0</ele><time>2026-04-23T08:58:18.001Z</time></trkpt><trkpt lat="43.77708762675488" lon="11.41997517972684"><ele>96.0</ele><time>2026-04-23T08:58:19.001Z</time></trkpt><trkpt lat="43.77704825595424" lon="11.4201395874866"><ele>96.0</ele><time>2026-04-23T08:58:20.001Z</time></trkpt><trkpt lat="43.776992112275856" lon="11.420295890960501"><ele>96.0</ele><time>2026-04-23T08:58:21.001Z</time></trkpt><trkpt lat="43.776915510403754" lon="11.420463885635519"><ele>96.0</ele><time>2026-04-23T08:58:22.001Z</time></trkpt><trkpt lat="43.77682843305314" lon="11.420638510923377"><ele>94.33333333333333</ele><time>2026-04-23T08:58:23.001Z</time></trkpt><trkpt lat="43.7767365985462" lon="11.420816345209637"><ele>92.66666666666666</ele><time>2026-04-23T08:58:24.001Z</time></trkpt><trkpt lat="43.77665792282225" lon="11.420993698937322"><ele>91.0</ele><time>2026-04-23T08:58:25.001Z</time></trkpt><trkpt lat="43.77659491611797" lon="11.421179551608889"><ele>90.75</ele><time>2026-04-23T08:58:26.001Z</time></trkpt><trkpt lat="43.776560073010316" lon="11.421378141198204"><ele>90.5</ele><time>2026-04-23T08:58:27.001Z</time></trkpt><trkpt lat="43.77655668120514" lon="11.421582312005667"><ele>90.25</ele><time>2026-04-23T08:58:28.001Z</time></trkpt><trkpt lat="43.77657539740404" lon="11.421782230322947"><ele>90.0</ele><time>2026-04-23T08:58:29.001Z</time></trkpt><trkpt lat="43.77659216244568" lon="11.421981653198717"><ele>90.5</ele><time>2026-04-23T08:58:30.001Z</time></trkpt><trkpt lat="43.77659461342796" lon="11.422167908679098"><ele>91.0</ele><time>2026-04-23T08:58:31.001Z</time></trkpt><trkpt lat="43.77659689708964" lon="11.422346703112815"><ele>91.5</ele><time>2026-04-23T08:58:32.001Z</time></trkpt><trkpt lat="43.77659236399995" lon="11.422525361250575"><ele>92.0</ele><time>2026-04-23T08:58:33.001Z</time></trkpt><trkpt lat="43.77659692296292" lon="11.42269881803381"><ele>92.0</ele><time>2026-04-23T08:58:34.001Z</time></trkpt><trkpt lat="43.77659819460369" lon="11.422882827590477"><ele>92.0</ele><time>2026-04-23T08:58:35.001Z</time></trkpt><trkpt lat="43.7766004498" lon="11.423071360771399"><ele>92.0</ele><time>2026-04-23T08:58:36.001Z</time></trkpt><trkpt lat="43.7765963566322" lon="11.423257604441545"><ele>92.0</ele><time>2026-04-23T08:58:37.001Z</time></trkpt><trkpt lat="43.776588604936684" lon="11.423451143037711"><ele>92.0</ele><time>2026-04-23T08:58:38.001Z</time></trkpt><trkpt lat="43.776577848996" lon="11.423649502099837"><ele>92.0</ele><time>2026-04-23T08:58:39.001Z</time></trkpt><trkpt lat="43.77654399846658" lon="11.423841321853688"><ele>92.0</ele><time>2026-04-23T08:58:40.001Z</time></trkpt><trkpt lat="43.77653009307933" lon="11.424038798914124"><ele>92.0</ele><time>2026-04-23T08:58:41Z</time></trkpt><trkpt lat="43.77650312133947" lon="11.424222954486966"><ele>92.16666666666667</ele><time>2026-04-23T08:58:42Z</time></trkpt><trkpt lat="43.77648121525859" lon="11.424378599553455"><ele>92.33333333333334</ele><time>2026-04-23T08:58:43Z</time></trkpt><trkpt lat="43.77645837540515" lon="11.424502820279436"><ele>92.5</ele><time>2026-04-23T08:58:44Z</time></trkpt><trkpt lat="43.77642957240267" lon="11.42459858639727"><ele>92.66666666666667</ele><time>2026-04-23T08:58:45Z</time></trkpt><trkpt lat="43.77641766077137" lon="11.42469885306457"><ele>92.83333333333333</ele><time>2026-04-23T08:58:46Z</time></trkpt><trkpt lat="43.77640702273826" lon="11.424789276265345"><ele>93.0</ele><time>2026-04-23T08:58:47Z</time></trkpt><trkpt lat="43.776660392142844" lon="11.424893893559558"><ele>93.4</ele><time>2026-04-23T08:58:48Z</time></trkpt><trkpt lat="43.776704142644846" lon="11.424996073442317"><ele>93.80000000000001</ele><time>2026-04-23T08:58:49Z</time></trkpt><trkpt lat="43.77666680737286" lon="11.425117026731604"><ele>94.2</ele><time>2026-04-23T08:58:50Z</time></trkpt><trkpt lat="43.77663280887428" lon="11.425245883901026"><ele>94.6</ele><time>2026-04-23T08:58:51Z</time></trkpt><trkpt lat="43.7766194088644" lon="11.425416309202822"><ele>95.0</ele><time>2026-04-23T08:58:52Z</time></trkpt><trkpt lat="43.77659471236526" lon="11.425584315461965"><ele>96.75</ele><time>2026-04-23T08:58:53Z</time></trkpt><trkpt lat="43.776603320250565" lon="11.425767097209658"><ele>98.5</ele><time>2026-04-23T08:58:54Z</time></trkpt><trkpt lat="43.77662880974436" lon="11.42595084318044"><ele>100.25</ele><time>2026-04-23T08:58:55Z</time></trkpt><trkpt lat="43.77665330536946" lon="11.426136025548779"><ele>102.0</ele><time>2026-04-23T08:58:56Z</time></trkpt><trkpt lat="43.77665875535186" lon="11.426320913287903"><ele>102.5</ele><time>2026-04-23T08:58:57Z</time></trkpt><trkpt lat="43.77667221861619" lon="11.426491118315045"><ele>103.0</ele><time>2026-04-23T08:58:58Z</time></trkpt><trkpt lat="43.77669185726474" lon="11.426676418255022"><ele>103.5</ele><time>2026-04-23T08:58:59Z</time></trkpt><trkpt lat="43.77669899716914" lon="11.426869825431432"><ele>104.0</ele><time>2026-04-23T08:59:00Z</time></trkpt><trkpt lat="43.7767125368997" lon="11.427074284680616"><ele>103.75</ele><time>2026-04-23T08:59:01Z</time></trkpt><trkpt lat="43.77671711277497" lon="11.427275340869604"><ele>103.5</ele><time>2026-04-23T08:59:02Z</time></trkpt><trkpt lat="43.776724163878704" lon="11.427476765948363"><ele>103.25</ele><time>2026-04-23T08:59:03Z</time></trkpt><trkpt lat="43.776727800736566" lon="11.427682884315539"><ele>103.0</ele><time>2026-04-23T08:59:04Z</time></trkpt><trkpt lat="43.77672745339563" lon="11.428083001062937"><ele>103.0</ele><time>2026-04-23T08:59:06Z</time></trkpt><trkpt lat="43.77672375067605" lon="11.428292075669491"><ele>103.0</ele><time>2026-04-23T08:59:07Z</time></trkpt><trkpt lat="43.77672072037911" lon="11.428498138699215"><ele>103.0</ele><time>2026-04-23T08:59:08Z</time></trkpt><trkpt lat="43.776719045850854" lon="11.428701265716773"><ele>103.0</ele><time>2026-04-23T08:59:09Z</time></trkpt><trkpt lat="43.77671551505384" lon="11.428907189148871"><ele>103.75</ele><time>2026-04-23T08:59:10Z</time></trkpt><trkpt lat="43.776726363520574" lon="11.42909294524726"><ele>104.5</ele><time>2026-04-23T08:59:11Z</time></trkpt><trkpt lat="43.77671850327739" lon="11.42929804339845"><ele>105.25</ele><time>2026-04-23T08:59:12Z</time></trkpt><trkpt lat="43.77670824477542" lon="11.42949197995639"><ele>106.0</ele><time>2026-04-23T08:59:13Z</time></trkpt><trkpt lat="43.77670856501161" lon="11.429684649918373"><ele>107.75</ele><time>2026-04-23T08:59:14Z</time></trkpt><trkpt lat="43.776725196356765" lon="11.42987569486323"><ele>109.5</ele><time>2026-04-23T08:59:15Z</time></trkpt><trkpt lat="43.776719506679854" lon="11.430066437502871"><ele>111.25</ele><time>2026-04-23T08:59:16Z</time></trkpt><trkpt lat="43.77671928719509" lon="11.43025268386965"><ele>113.0</ele><time>2026-04-23T08:59:17Z</time></trkpt><trkpt lat="43.776715518049954" lon="11.430450633886549"><ele>113.75</ele><time>2026-04-23T08:59:18Z</time></trkpt><trkpt lat="43.77671729923582" lon="11.430648549647842"><ele>114.5</ele><time>2026-04-23T08:59:19Z</time></trkpt><trkpt lat="43.776715854785884" lon="11.43084493581402"><ele>115.25</ele><time>2026-04-23T08:59:20Z</time></trkpt><trkpt lat="43.77671704905263" lon="11.431042724411517"><ele>116.0</ele><time>2026-04-23T08:59:21Z</time></trkpt><trkpt lat="43.776718075269486" lon="11.431243631976766"><ele>116.25</ele><time>2026-04-23T08:59:22Z</time></trkpt><trkpt lat="43.776719184246005" lon="11.43145217018054"><ele>116.5</ele><time>2026-04-23T08:59:23Z</time></trkpt><trkpt lat="43.776720772286865" lon="11.431634046877175"><ele>116.75</ele><time>2026-04-23T08:59:24Z</time></trkpt><trkpt lat="43.7767201885705" lon="11.431821063406614"><ele>117.0</ele><time>2026-04-23T08:59:25Z</time></trkpt><trkpt lat="43.7767253601911" lon="11.431986706549674"><ele>116.75</ele><time>2026-04-23T08:59:26Z</time></trkpt><trkpt lat="43.77671195179492" lon="11.432149693446402"><ele>116.5</ele><time>2026-04-23T08:59:27Z</time></trkpt><trkpt lat="43.77672438315019" lon="11.43228793887998"><ele>116.25</ele><time>2026-04-23T08:59:28Z</time></trkpt><trkpt lat="43.776730103783656" lon="11.43245147301243"><ele>116.0</ele><time>2026-04-23T08:59:29Z</time></trkpt><trkpt lat="43.77669146684876" lon="11.432633172754015"><ele>116.0</ele><time>2026-04-23T08:59:30Z</time></trkpt><trkpt lat="43.776671422631395" lon="11.432797312204263"><ele>116.0</ele><time>2026-04-23T08:59:31Z</time></trkpt><trkpt lat="43.77665959281746" lon="11.432970795915088"><ele>116.0</ele><time>2026-04-23T08:59:32Z</time></trkpt><trkpt lat="43.77662245382894" lon="11.433167643596791"><ele>116.0</ele><time>2026-04-23T08:59:33Z</time></trkpt><trkpt lat="43.776596792229554" lon="11.433364631367095"><ele>115.5</ele><time>2026-04-23T08:59:34Z</time></trkpt><trkpt lat="43.77656849906911" lon="11.433562888612126"><ele>115.0</ele><time>2026-04-23T08:59:35Z</time></trkpt><trkpt lat="43.77654128086218" lon="11.433764521822544"><ele>114.5</ele><time>2026-04-23T08:59:36Z</time></trkpt><trkpt lat="43.77649831506361" lon="11.433947965271097"><ele>114.0</ele><time>2026-04-23T08:59:37Z</time></trkpt><trkpt lat="43.77647280733043" lon="11.434125824564818"><ele>114.0</ele><time>2026-04-23T08:59:38Z</time></trkpt><trkpt lat="43.77644843336693" lon="11.434295778216729"><ele>114.0</ele><time>2026-04-23T08:59:39Z</time></trkpt><trkpt lat="43.77642654584669" lon="11.434442654328986"><ele>114.0</ele><time>2026-04-23T08:59:40Z</time></trkpt><trkpt lat="43.77640541709836" lon="11.434578587783285"><ele>114.0</ele><time>2026-04-23T08:59:41Z</time></trkpt><trkpt lat="43.776401208951484" lon="11.434686937350099"><ele>114.0</ele><time>2026-04-23T08:59:42Z</time></trkpt><trkpt lat="43.776361650212785" lon="11.434841002597924"><ele>113.66666666666667</ele><time>2026-04-23T08:59:44Z</time></trkpt><trkpt lat="43.77635060274854" lon="11.434953594159436"><ele>113.33333333333334</ele><time>2026-04-23T08:59:46Z</time></trkpt><trkpt lat="43.77630326006314" lon="11.43506360178111"><ele>113.0</ele><time>2026-04-23T08:59:48Z</time></trkpt><trkpt lat="43.776259855938584" lon="11.43513899513072"><ele>112.66666666666667</ele><time>2026-04-23T08:59:49Z</time></trkpt><trkpt lat="43.77621033297307" lon="11.435210557087608"><ele>112.33333333333334</ele><time>2026-04-23T08:59:50Z</time></trkpt><trkpt lat="43.77615632932454" lon="11.43528072019341"><ele>112.0</ele><time>2026-04-23T08:59:51Z</time></trkpt><trkpt lat="43.776109367698915" lon="11.435354513706823"><ele>112.00000000000001</ele><time>2026-04-23T08:59:52Z</time></trkpt><trkpt lat="43.77606778437134" lon="11.43542272230543"><ele>112.0</ele><time>2026-04-23T08:59:53Z</time></trkpt><trkpt lat="43.77601059491946" lon="11.435482874428102"><ele>112.0</ele><time>2026-04-23T08:59:54Z</time></trkpt><trkpt lat="43.7759711357694" lon="11.435555659589179"><ele>112.0</ele><time>2026-04-23T08:59:55Z</time></trkpt><trkpt lat="43.776044337000336" lon="11.43576930853617"><ele>112.00000000000001</ele><time>2026-04-23T08:59:57Z</time></trkpt><trkpt lat="43.77606342098536" lon="11.435857431251288"><ele>112.0</ele><time>2026-04-23T08:59:58Z</time></trkpt><trkpt lat="43.776051889580664" lon="11.435958117298288"><ele>112.16666666666667</ele><time>2026-04-23T08:59:59Z</time></trkpt><trkpt lat="43.77607341846998" lon="11.43606434012279"><ele>112.33333333333334</ele><time>2026-04-23T09:00:00Z</time></trkpt><trkpt lat="43.77608166663574" lon="11.436257476215198"><ele>112.5</ele><time>2026-04-23T09:00:02Z</time></trkpt><trkpt lat="43.77608865671198" lon="11.436355857543559"><ele>112.66666666666666</ele><time>2026-04-23T09:00:03Z</time></trkpt><trkpt lat="43.77608754093164" lon="11.436445678090866"><ele>112.83333333333333</ele><time>2026-04-23T09:00:04Z</time></trkpt><trkpt lat="43.776093606132605" lon="11.43654515524105"><ele>113.0</ele><time>2026-04-23T09:00:05Z</time></trkpt><trkpt lat="43.7760993590563" lon="11.436675444563566"><ele>114.4</ele><time>2026-04-23T09:00:06Z</time></trkpt><trkpt lat="43.776092997857205" lon="11.436787969357427"><ele>115.80000000000001</ele><time>2026-04-23T09:00:07Z</time></trkpt><trkpt lat="43.77609951336666" lon="11.43692269326155"><ele>117.2</ele><time>2026-04-23T09:00:08Z</time></trkpt><trkpt lat="43.77610745271072" lon="11.43708715787256"><ele>118.6</ele><time>2026-04-23T09:00:09Z</time></trkpt><trkpt lat="43.77611718123508" lon="11.437267256124523"><ele>120.0</ele><time>2026-04-23T09:00:10Z</time></trkpt><trkpt lat="43.776125874824785" lon="11.437428195452032"><ele>120.0</ele><time>2026-04-23T09:00:11Z</time></trkpt><trkpt lat="43.776133500601354" lon="11.437568681808324"><ele>120.0</ele><time>2026-04-23T09:00:12Z</time></trkpt><trkpt lat="43.77614959757289" lon="11.437703137480307"><ele>120.0</ele><time>2026-04-23T09:00:13Z</time></trkpt><trkpt lat="43.77616119531748" lon="11.437824404810032"><ele>120.0</ele><time>2026-04-23T09:00:14Z</time></trkpt><trkpt lat="43.77615331529142" lon="11.437927532024359"><ele>120.0</ele><time>2026-04-23T09:00:15Z</time></trkpt><trkpt lat="43.77615834999584" lon="11.438018712077305"><ele>120.0</ele><time>2026-04-23T09:00:16Z</time></trkpt><trkpt lat="43.77618074257023" lon="11.438277581122573"><ele>120.0</ele><time>2026-04-23T09:00:17Z</time></trkpt><trkpt lat="43.77619121743489" lon="11.438478505697564"><ele>120.0</ele><time>2026-04-23T09:00:18Z</time></trkpt><trkpt lat="43.77620415486058" lon="11.438635592793922"><ele>120.0</ele><time>2026-04-23T09:00:19Z</time></trkpt><trkpt lat="43.776209520097304" lon="11.438806549638205"><ele>120.0</ele><time>2026-04-23T09:00:20Z</time></trkpt><trkpt lat="43.77621567301105" lon="11.438984033576622"><ele>120.4</ele><time>2026-04-23T09:00:21Z</time></trkpt><trkpt lat="43.776220329949304" lon="11.4391415259427"><ele>120.8</ele><time>2026-04-23T09:00:22Z</time></trkpt><trkpt lat="43.776225022878705" lon="11.439319610955193"><ele>121.19999999999999</ele><time>2026-04-23T09:00:24.001Z</time></trkpt><trkpt lat="43.776220521481925" lon="11.439420314719502"><ele>121.6</ele><time>2026-04-23T09:00:25.001Z</time></trkpt><trkpt lat="43.77625220977865" lon="11.439528730190782"><ele>122.0</ele><time>2026-04-23T09:00:26Z</time></trkpt><trkpt lat="43.7762763754875" lon="11.439663613655414"><ele>121.0</ele><time>2026-04-23T09:00:27Z</time></trkpt><trkpt lat="43.77628599617107" lon="11.439823659904585"><ele>120.0</ele><time>2026-04-23T09:00:28Z</time></trkpt><trkpt lat="43.77630849212391" lon="11.439969524935421"><ele>119.0</ele><time>2026-04-23T09:00:29Z</time></trkpt><trkpt lat="43.77633544974915" lon="11.44012599838418"><ele>118.0</ele><time>2026-04-23T09:00:30Z</time></trkpt><trkpt lat="43.776361508629535" lon="11.440278642644035"><ele>118.0</ele><time>2026-04-23T09:00:31Z</time></trkpt><trkpt lat="43.77638676277821" lon="11.440414810892717"><ele>118.0</ele><time>2026-04-23T09:00:32Z</time></trkpt><trkpt lat="43.77641917087657" lon="11.440562838756295"><ele>118.0</ele><time>2026-04-23T09:00:33Z</time></trkpt><trkpt lat="43.776433165712874" lon="11.440712149461202"><ele>118.0</ele><time>2026-04-23T09:00:34Z</time></trkpt><trkpt lat="43.776415700816976" lon="11.440903414121344"><ele>115.0</ele><time>2026-04-23T09:00:35Z</time></trkpt><trkpt lat="43.77656126812063" lon="11.440956204823959"><ele>112.0</ele><time>2026-04-23T09:00:36Z</time></trkpt><trkpt lat="43.776639825471584" lon="11.441077246748833"><ele>109.0</ele><time>2026-04-23T09:00:37Z</time></trkpt><trkpt lat="43.77673097309405" lon="11.441187800849738"><ele>106.0</ele><time>2026-04-23T09:00:38Z</time></trkpt><trkpt lat="43.77682642334244" lon="11.441293508376853"><ele>105.75</ele><time>2026-04-23T09:00:39Z</time></trkpt><trkpt lat="43.77696097271731" lon="11.44136611765325"><ele>105.5</ele><time>2026-04-23T09:00:40Z</time></trkpt><trkpt lat="43.77707800249306" lon="11.441456090940898"><ele>105.25</ele><time>2026-04-23T09:00:41Z</time></trkpt><trkpt lat="43.77719478834759" lon="11.441547922310951"><ele>105.0</ele><time>2026-04-23T09:00:42Z</time></trkpt><trkpt lat="43.77730297781211" lon="11.441625625775673"><ele>105.0</ele><time>2026-04-23T09:00:43Z</time></trkpt><trkpt lat="43.777411523441444" lon="11.44171487245312"><ele>105.0</ele><time>2026-04-23T09:00:44Z</time></trkpt><trkpt lat="43.77752180847094" lon="11.441811071883569"><ele>105.0</ele><time>2026-04-23T09:00:45Z</time></trkpt><trkpt lat="43.777634571748585" lon="11.441908291940521"><ele>105.0</ele><time>2026-04-23T09:00:46Z</time></trkpt><trkpt lat="43.7777507091968" lon="11.4420044734463"><ele>104.75</ele><time>2026-04-23T09:00:47Z</time></trkpt><trkpt lat="43.777873234653356" lon="11.442099163106356"><ele>104.5</ele><time>2026-04-23T09:00:48Z</time></trkpt><trkpt lat="43.777980279375946" lon="11.442207505537992"><ele>104.25</ele><time>2026-04-23T09:00:49Z</time></trkpt><trkpt lat="43.77809417872116" lon="11.442292452635629"><ele>104.0</ele><time>2026-04-23T09:00:50Z</time></trkpt><trkpt lat="43.77819090406008" lon="11.44239028082503"><ele>104.0</ele><time>2026-04-23T09:00:51Z</time></trkpt><trkpt lat="43.778289943769046" lon="11.442509578270286"><ele>104.0</ele><time>2026-04-23T09:00:52Z</time></trkpt><trkpt lat="43.77838753303619" lon="11.442613254010734"><ele>104.0</ele><time>2026-04-23T09:00:53Z</time></trkpt><trkpt lat="43.77847525959404" lon="11.442732262236198"><ele>104.0</ele><time>2026-04-23T09:00:54Z</time></trkpt><trkpt lat="43.77856708962177" lon="11.442843246613219"><ele>102.6</ele><time>2026-04-23T09:00:55Z</time></trkpt><trkpt lat="43.77865994435467" lon="11.442950283749022"><ele>101.2</ele><time>2026-04-23T09:00:56Z</time></trkpt><trkpt lat="43.77875205262234" lon="11.44304737109766"><ele>99.8</ele><time>2026-04-23T09:00:57Z</time></trkpt><trkpt lat="43.77884058711082" lon="11.443132422168294"><ele>98.39999999999999</ele><time>2026-04-23T09:00:58Z</time></trkpt><trkpt lat="43.77892251270572" lon="11.443222052540461"><ele>97.0</ele><time>2026-04-23T09:00:59Z</time></trkpt><trkpt lat="43.77901782848442" lon="11.443324038677837"><ele>97.0</ele><time>2026-04-23T09:01:00Z</time></trkpt><trkpt lat="43.779109724757056" lon="11.443402838902024"><ele>97.0</ele><time>2026-04-23T09:01:01Z</time></trkpt><trkpt lat="43.77921494522046" lon="11.443464890054383"><ele>97.0</ele><time>2026-04-23T09:01:02Z</time></trkpt><trkpt lat="43.77932668071887" lon="11.443515537801296"><ele>97.0</ele><time>2026-04-23T09:01:03Z</time></trkpt><trkpt lat="43.779418009570875" lon="11.443562803674906"><ele>97.0</ele><time>2026-04-23T09:01:04Z</time></trkpt><trkpt lat="43.779520988075106" lon="11.443617401061383"><ele>95.75</ele><time>2026-04-23T09:01:05Z</time></trkpt><trkpt lat="43.77961968489036" lon="11.443680876744976"><ele>94.5</ele><time>2026-04-23T09:01:06Z</time></trkpt><trkpt lat="43.779728399705256" lon="11.443734685546039"><ele>93.25</ele><time>2026-04-23T09:01:07Z</time></trkpt><trkpt lat="43.77983598582072" lon="11.443809997866447"><ele>92.0</ele><time>2026-04-23T09:01:08Z</time></trkpt><trkpt lat="43.7799426786032" lon="11.443883685182588"><ele>92.0</ele><time>2026-04-23T09:01:09Z</time></trkpt><trkpt lat="43.78006487376815" lon="11.444074648157441"><ele>92.0</ele><time>2026-04-23T09:01:11Z</time></trkpt><trkpt lat="43.78000262407539" lon="11.444161614998983"><ele>92.0</ele><time>2026-04-23T09:01:15Z</time></trkpt><trkpt lat="43.779947460261866" lon="11.44421007486009"><ele>92.0</ele><time>2026-04-23T09:01:16Z</time></trkpt><trkpt lat="43.77989497147195" lon="11.444309097882334"><ele>92.0</ele><time>2026-04-23T09:01:18Z</time></trkpt><trkpt lat="43.779807635411935" lon="11.444241177772195"><ele>92.0</ele><time>2026-04-23T09:01:21Z</time></trkpt><trkpt lat="43.77971529466761" lon="11.444130992528681"><ele>92.0</ele><time>2026-04-23T09:01:23Z</time></trkpt><trkpt lat="43.779647481864" lon="11.444114329928857"><ele>92.0</ele><time>2026-04-23T09:01:24Z</time></trkpt><trkpt lat="43.77953745837194" lon="11.444134338436104"><ele>92.0</ele><time>2026-04-23T09:01:26Z</time></trkpt><trkpt lat="43.77950801790291" lon="11.444261995766121"><ele>92.0</ele><time>2026-04-23T09:01:30Z</time></trkpt><trkpt lat="43.779582100454974" lon="11.44441282895023"><ele>92.0</ele><time>2026-04-23T09:01:38Z</time></trkpt><trkpt lat="43.77965995955246" lon="11.444476735458839"><ele>92.0</ele><time>2026-04-23T09:01:39Z</time></trkpt><trkpt lat="43.779717145065874" lon="11.444581647154273"><ele>92.0</ele><time>2026-04-23T09:01:40Z</time></trkpt><trkpt lat="43.7797833244519" lon="11.444679465519751"><ele>92.0</ele><time>2026-04-23T09:01:41Z</time></trkpt><trkpt lat="43.779836358484275" lon="11.44477726556451"><ele>92.0</ele><time>2026-04-23T09:01:42Z</time></trkpt><trkpt lat="43.77989032689833" lon="11.444849560779264"><ele>92.0</ele><time>2026-04-23T09:01:43Z</time></trkpt><trkpt lat="43.77994334333754" lon="11.444965059049174"><ele>91.0</ele><time>2026-04-23T09:01:44Z</time></trkpt><trkpt lat="43.780009603656836" lon="11.445093888198071"><ele>90.0</ele><time>2026-04-23T09:01:45Z</time></trkpt><trkpt lat="43.78008407975342" lon="11.445218967211646"><ele>89.0</ele><time>2026-04-23T09:01:46Z</time></trkpt><trkpt lat="43.78016238012107" lon="11.445348443779922"><ele>88.0</ele><time>2026-04-23T09:01:47Z</time></trkpt><trkpt lat="43.78025269201793" lon="11.445483923018307"><ele>87.25</ele><time>2026-04-23T09:01:48Z</time></trkpt><trkpt lat="43.7803495173032" lon="11.445599439412858"><ele>86.5</ele><time>2026-04-23T09:01:49Z</time></trkpt><trkpt lat="43.78042505580226" lon="11.44574882767639"><ele>85.75</ele><time>2026-04-23T09:01:50Z</time></trkpt><trkpt lat="43.78049586606783" lon="11.445914576173417"><ele>85.0</ele><time>2026-04-23T09:01:51Z</time></trkpt><trkpt lat="43.780569100397095" lon="11.446028305928799"><ele>85.0</ele><time>2026-04-23T09:01:52Z</time></trkpt><trkpt lat="43.780617991749764" lon="11.446114383586002"><ele>85.0</ele><time>2026-04-23T09:01:53Z</time></trkpt><trkpt lat="43.780662856394834" lon="11.446198123288863"><ele>85.0</ele><time>2026-04-23T09:01:54Z</time></trkpt><trkpt lat="43.78071531227082" lon="11.446272168442427"><ele>85.0</ele><time>2026-04-23T09:01:55Z</time></trkpt><trkpt lat="43.78076918524775" lon="11.446325794480218"><ele>85.0</ele><time>2026-04-23T09:01:56Z</time></trkpt><trkpt lat="43.780853236597245" lon="11.446381412201294"><ele>85.0</ele><time>2026-04-23T09:01:57Z</time></trkpt><trkpt lat="43.7809399006979" lon="11.44643298029814"><ele>84.4</ele><time>2026-04-23T09:01:58Z</time></trkpt><trkpt lat="43.78101394437699" lon="11.446468390340435"><ele>83.8</ele><time>2026-04-23T09:01:59Z</time></trkpt><trkpt lat="43.78105830744329" lon="11.446262240680923"><ele>83.19999999999999</ele><time>2026-04-23T09:02:34Z</time></trkpt><trkpt lat="43.78107669955026" lon="11.446165877643885"><ele>82.6</ele><time>2026-04-23T09:02:35Z</time></trkpt><trkpt lat="43.78112264439304" lon="11.446056689416542"><ele>82.0</ele><time>2026-04-23T09:02:36Z</time></trkpt><trkpt lat="43.781165904801675" lon="11.445951342397908"><ele>83.6</ele><time>2026-04-23T09:02:37Z</time></trkpt><trkpt lat="43.78120050719202" lon="11.445867411437126"><ele>85.19999999999999</ele><time>2026-04-23T09:02:38Z</time></trkpt><trkpt lat="43.78125331097973" lon="11.445789157796424"><ele>86.8</ele><time>2026-04-23T09:02:42Z</time></trkpt><trkpt lat="43.781133900952206" lon="11.445651944285045"><ele>88.4</ele><time>2026-04-23T09:02:44Z</time></trkpt><trkpt lat="43.78105767477947" lon="11.445517981601336"><ele>90.0</ele><time>2026-04-23T09:02:45Z</time></trkpt><trkpt lat="43.78097001179189" lon="11.44539160530846"><ele>90.25</ele><time>2026-04-23T09:02:46Z</time></trkpt><trkpt lat="43.78089931563585" lon="11.445291622028543"><ele>90.5</ele><time>2026-04-23T09:02:47Z</time></trkpt><trkpt lat="43.78081417132712" lon="11.445171205151198"><ele>90.75</ele><time>2026-04-23T09:02:48Z</time></trkpt><trkpt lat="43.78072346291563" lon="11.44504291916477"><ele>91.0</ele><time>2026-04-23T09:02:49Z</time></trkpt><trkpt lat="43.780641380771826" lon="11.444930648039128"><ele>91.0</ele><time>2026-04-23T09:02:50Z</time></trkpt><trkpt lat="43.780555366610145" lon="11.444792922635738"><ele>91.0</ele><time>2026-04-23T09:02:51Z</time></trkpt><trkpt lat="43.78045164336763" lon="11.444674580510858"><ele>91.0</ele><time>2026-04-23T09:02:52Z</time></trkpt><trkpt lat="43.78038665049315" lon="11.444523613542152"><ele>91.0</ele><time>2026-04-23T09:02:53Z</time></trkpt><trkpt lat="43.78030875997879" lon="11.444391092935058"><ele>91.25</ele><time>2026-04-23T09:02:54Z</time></trkpt><trkpt lat="43.78023029464406" lon="11.444244239167283"><ele>91.5</ele><time>2026-04-23T09:02:55Z</time></trkpt><trkpt lat="43.780160034674594" lon="11.444119784803263"><ele>91.75</ele><time>2026-04-23T09:02:56Z</time></trkpt><trkpt lat="43.780073254069855" lon="11.443973630904608"><ele>92.0</ele><time>2026-04-23T09:02:57Z</time></trkpt><trkpt lat="43.78001840117266" lon="11.44389417649737"><ele>92.0</ele><time>2026-04-23T09:02:58Z</time></trkpt><trkpt lat="43.77994859831135" lon="11.443814027431422"><ele>92.0</ele><time>2026-04-23T09:02:59Z</time></trkpt><trkpt lat="43.77986195795803" lon="11.443720701700922"><ele>92.0</ele><time>2026-04-23T09:03:00Z</time></trkpt><trkpt lat="43.77973878686231" lon="11.44364470027173"><ele>92.0</ele><time>2026-04-23T09:03:01Z</time></trkpt><trkpt lat="43.779607788734566" lon="11.443575583966005"><ele>93.25</ele><time>2026-04-23T09:03:02Z</time></trkpt><trkpt lat="43.779456787567675" lon="11.443517841260618"><ele>94.5</ele><time>2026-04-23T09:03:03Z</time></trkpt><trkpt lat="43.779332878389" lon="11.44343405270835"><ele>95.75</ele><time>2026-04-23T09:03:04Z</time></trkpt><trkpt lat="43.77918473091517" lon="11.443385911129795"><ele>97.0</ele><time>2026-04-23T09:03:05Z</time></trkpt><trkpt lat="43.77903649500743" lon="11.44329124188681"><ele>97.0</ele><time>2026-04-23T09:03:06Z</time></trkpt><trkpt lat="43.778911636677826" lon="11.44315482798691"><ele>97.0</ele><time>2026-04-23T09:03:07Z</time></trkpt><trkpt lat="43.778779631296146" lon="11.443014944485427"><ele>97.0</ele><time>2026-04-23T09:03:08Z</time></trkpt><trkpt lat="43.7786556080262" lon="11.442898563079357"><ele>98.75</ele><time>2026-04-23T09:03:09Z</time></trkpt><trkpt lat="43.77853549534971" lon="11.442755829330446"><ele>100.5</ele><time>2026-04-23T09:03:10Z</time></trkpt><trkpt lat="43.77842362456297" lon="11.442613767293452"><ele>102.25</ele><time>2026-04-23T09:03:11Z</time></trkpt><trkpt lat="43.77831882215843" lon="11.442488990373473"><ele>104.0</ele><time>2026-04-23T09:03:12Z</time></trkpt><trkpt lat="43.778228114183015" lon="11.442374598464365"><ele>104.0</ele><time>2026-04-23T09:03:13Z</time></trkpt><trkpt lat="43.778150343587036" lon="11.442273401048883"><ele>104.0</ele><time>2026-04-23T09:03:14Z</time></trkpt><trkpt lat="43.77805370221291" lon="11.442196762809862"><ele>104.0</ele><time>2026-04-23T09:03:15Z</time></trkpt><trkpt lat="43.77794440536378" lon="11.442099465102133"><ele>104.0</ele><time>2026-04-23T09:03:16Z</time></trkpt><trkpt lat="43.77781023611174" lon="11.442013204898842"><ele>104.33333333333333</ele><time>2026-04-23T09:03:17Z</time></trkpt><trkpt lat="43.77772529315449" lon="11.441941383685045"><ele>104.66666666666666</ele><time>2026-04-23T09:03:18Z</time></trkpt><trkpt lat="43.77754365387434" lon="11.441805427265328"><ele>105.0</ele><time>2026-04-23T09:03:19Z</time></trkpt><trkpt lat="43.777389200966894" lon="11.441658521471885"><ele>105.0</ele><time>2026-04-23T09:03:20Z</time></trkpt><trkpt lat="43.77723100102182" lon="11.441524526541338"><ele>105.0</ele><time>2026-04-23T09:03:21Z</time></trkpt><trkpt lat="43.77706975864717" lon="11.441391674860352"><ele>105.0</ele><time>2026-04-23T09:03:22Z</time></trkpt><trkpt lat="43.77691829609246" lon="11.441268385821589"><ele>105.33333333333334</ele><time>2026-04-23T09:03:23Z</time></trkpt><trkpt lat="43.776777041871455" lon="11.441142481059403"><ele>105.66666666666667</ele><time>2026-04-23T09:03:24Z</time></trkpt><trkpt lat="43.77664270091142" lon="11.441006600154187"><ele>106.0</ele><time>2026-04-23T09:03:25Z</time></trkpt><trkpt lat="43.77653072204735" lon="11.440861104523384"><ele>106.0</ele><time>2026-04-23T09:03:26Z</time></trkpt><trkpt lat="43.776471872911834" lon="11.440693211592771"><ele>106.0</ele><time>2026-04-23T09:03:27Z</time></trkpt><trkpt lat="43.77642698771152" lon="11.440535078975028"><ele>106.0</ele><time>2026-04-23T09:03:28Z</time></trkpt><trkpt lat="43.77639343393475" lon="11.440323896321656"><ele>106.0</ele><time>2026-04-23T09:03:29Z</time></trkpt><trkpt lat="43.77637370754798" lon="11.440172534413795"><ele>110.0</ele><time>2026-04-23T09:03:30Z</time></trkpt><trkpt lat="43.77634696765013" lon="11.43997714428594"><ele>114.0</ele><time>2026-04-23T09:03:31Z</time></trkpt><trkpt lat="43.77631900167525" lon="11.439770211821102"><ele>118.0</ele><time>2026-04-23T09:03:32Z</time></trkpt><trkpt lat="43.77628560372981" lon="11.439560212708523"><ele>119.0</ele><time>2026-04-23T09:03:33Z</time></trkpt><trkpt lat="43.77626113004701" lon="11.439353514952652"><ele>120.0</ele><time>2026-04-23T09:03:34Z</time></trkpt><trkpt lat="43.776236884187064" lon="11.439193599744023"><ele>121.0</ele><time>2026-04-23T09:03:35Z</time></trkpt><trkpt lat="43.776233626422794" lon="11.439047561692993"><ele>122.0</ele><time>2026-04-23T09:03:36Z</time></trkpt><trkpt lat="43.776247522884894" lon="11.438888767240625"><ele>121.5</ele><time>2026-04-23T09:03:37Z</time></trkpt><trkpt lat="43.77624309809413" lon="11.438721770448014"><ele>121.0</ele><time>2026-04-23T09:03:38Z</time></trkpt><trkpt lat="43.77623785980236" lon="11.438523007575455"><ele>120.5</ele><time>2026-04-23T09:03:39Z</time></trkpt><trkpt lat="43.77621949540693" lon="11.438313753504685"><ele>120.0</ele><time>2026-04-23T09:03:40Z</time></trkpt><trkpt lat="43.77620327575468" lon="11.438108082366782"><ele>120.66666666666666</ele><time>2026-04-23T09:03:41Z</time></trkpt><trkpt lat="43.776177923369495" lon="11.437892828076624"><ele>121.33333333333333</ele><time>2026-04-23T09:03:42Z</time></trkpt><trkpt lat="43.77617566780347" lon="11.437664137050719"><ele>122.0</ele><time>2026-04-23T09:03:43Z</time></trkpt><trkpt lat="43.7761724214683" lon="11.43743676025959"><ele>122.0</ele><time>2026-04-23T09:03:44Z</time></trkpt><trkpt lat="43.77616563955507" lon="11.43721680232607"><ele>122.0</ele><time>2026-04-23T09:03:45Z</time></trkpt><trkpt lat="43.77615067902855" lon="11.43700818885409"><ele>122.0</ele><time>2026-04-23T09:03:46Z</time></trkpt><trkpt lat="43.776140616711515" lon="11.436791161292982"><ele>121.5</ele><time>2026-04-23T09:03:47Z</time></trkpt><trkpt lat="43.776129217191546" lon="11.436586683305901"><ele>121.0</ele><time>2026-04-23T09:03:48Z</time></trkpt><trkpt lat="43.776109979622774" lon="11.436387134393875"><ele>120.5</ele><time>2026-04-23T09:03:49Z</time></trkpt><trkpt lat="43.77610818320761" lon="11.436187474404543"><ele>120.0</ele><time>2026-04-23T09:03:50Z</time></trkpt><trkpt lat="43.77610508283241" lon="11.436009353108876"><ele>118.6</ele><time>2026-04-23T09:03:51Z</time></trkpt><trkpt lat="43.776105520583805" lon="11.435858543523077"><ele>117.2</ele><time>2026-04-23T09:03:52Z</time></trkpt><trkpt lat="43.77608156096" lon="11.435723338524479"><ele>115.80000000000001</ele><time>2026-04-23T09:03:53Z</time></trkpt><trkpt lat="43.776065121888315" lon="11.435637561398778"><ele>114.4</ele><time>2026-04-23T09:03:54Z</time></trkpt><trkpt lat="43.77600814645744" lon="11.435566467406035"><ele>113.0</ele><time>2026-04-23T09:03:57Z</time></trkpt><trkpt lat="43.77591589465791" lon="11.435672244360115"><ele>111.16666666666666</ele><time>2026-04-23T09:04:00Z</time></trkpt><trkpt lat="43.775878248357834" lon="11.435767669607149"><ele>109.33333333333333</ele><time>2026-04-23T09:04:01Z</time></trkpt><trkpt lat="43.775854438139135" lon="11.435866841124232"><ele>107.5</ele><time>2026-04-23T09:04:02Z</time></trkpt><trkpt lat="43.77578137478827" lon="11.435908424569169"><ele>105.66666666666666</ele><time>2026-04-23T09:04:03Z</time></trkpt><trkpt lat="43.7756910736728" lon="11.435922370413723"><ele>103.83333333333333</ele><time>2026-04-23T09:04:04Z</time></trkpt><trkpt lat="43.775589154627895" lon="11.435917224103692"><ele>102.0</ele><time>2026-04-23T09:04:05Z</time></trkpt><trkpt lat="43.77548579201196" lon="11.43591700328309"><ele>102.0</ele><time>2026-04-23T09:04:07Z</time></trkpt><trkpt lat="43.77541646653987" lon="11.435940346576315"><ele>102.0</ele><time>2026-04-23T09:04:09Z</time></trkpt><trkpt lat="43.775355088134475" lon="11.436082935234422"><ele>102.0</ele><time>2026-04-23T09:04:11Z</time></trkpt><trkpt lat="43.775321663442476" lon="11.436172630339133"><ele>102.0</ele><time>2026-04-23T09:04:12Z</time></trkpt><trkpt lat="43.77519098800642" lon="11.436169882424693"><ele>102.0</ele><time>2026-04-23T09:04:14Z</time></trkpt><trkpt lat="43.775096803255124" lon="11.43611415675182"><ele>100.6</ele><time>2026-04-23T09:04:15Z</time></trkpt><trkpt lat="43.77500992248481" lon="11.436036717466834"><ele>99.19999999999999</ele><time>2026-04-23T09:04:16Z</time></trkpt><trkpt lat="43.77494665295307" lon="11.435997257926164"><ele>97.8</ele><time>2026-04-23T09:04:17Z</time></trkpt><trkpt lat="43.774887098460475" lon="11.436033304197185"><ele>96.4</ele><time>2026-04-23T09:04:20Z</time></trkpt><trkpt lat="43.774819308438325" lon="11.436249064397046"><ele>95.0</ele><time>2026-04-23T09:04:26Z</time></trkpt><trkpt lat="43.77480905801151" lon="11.436404580556946"><ele>95.0</ele><time>2026-04-23T09:04:27Z</time></trkpt><trkpt lat="43.77480383152985" lon="11.43657451832086"><ele>95.0</ele><time>2026-04-23T09:04:28Z</time></trkpt><trkpt lat="43.774787010663694" lon="11.436755905847143"><ele>95.0</ele><time>2026-04-23T09:04:29Z</time></trkpt><trkpt lat="43.77477264698631" lon="11.436949170442958"><ele>95.0</ele><time>2026-04-23T09:04:30Z</time></trkpt><trkpt lat="43.77475827753682" lon="11.437156099550133"><ele>95.0</ele><time>2026-04-23T09:04:31Z</time></trkpt><trkpt lat="43.77474370318804" lon="11.437371242630315"><ele>95.0</ele><time>2026-04-23T09:04:32Z</time></trkpt><trkpt lat="43.77473504871593" lon="11.437556854515709"><ele>95.0</ele><time>2026-04-23T09:04:33Z</time></trkpt><trkpt lat="43.774721206900395" lon="11.437717236334167"><ele>95.0</ele><time>2026-04-23T09:04:34Z</time></trkpt><trkpt lat="43.7747010718069" lon="11.43785918083869"><ele>95.83333333333334</ele><time>2026-04-23T09:04:35Z</time></trkpt><trkpt lat="43.77469976518984" lon="11.43797844899979"><ele>96.66666666666667</ele><time>2026-04-23T09:04:36Z</time></trkpt><trkpt lat="43.774689737862005" lon="11.438073160370733"><ele>97.5</ele><time>2026-04-23T09:04:37Z</time></trkpt><trkpt lat="43.774652517350205" lon="11.43818737198095"><ele>98.33333333333334</ele><time>2026-04-23T09:04:38Z</time></trkpt><trkpt lat="43.77466302430061" lon="11.438298552348968"><ele>99.16666666666667</ele><time>2026-04-23T09:04:39Z</time></trkpt><trkpt lat="43.77466863639188" lon="11.438427329855116"><ele>100.0</ele><time>2026-04-23T09:04:40Z</time></trkpt><trkpt lat="43.77465747843292" lon="11.438568948748404"><ele>100.0</ele><time>2026-04-23T09:04:41Z</time></trkpt><trkpt lat="43.7746591082938" lon="11.438681091522906"><ele>100.0</ele><time>2026-04-23T09:04:42Z</time></trkpt><trkpt lat="43.77464358225565" lon="11.438870779029399"><ele>100.0</ele><time>2026-04-23T09:04:43Z</time></trkpt><trkpt lat="43.774647434059254" lon="11.439028072139912"><ele>100.0</ele><time>2026-04-23T09:04:44Z</time></trkpt><trkpt lat="43.7746430272013" lon="11.439168304737223"><ele>100.0</ele><time>2026-04-23T09:04:45Z</time></trkpt><trkpt lat="43.7746459464187" lon="11.439305025689755"><ele>99.8</ele><time>2026-04-23T09:04:46Z</time></trkpt><trkpt lat="43.77463691893853" lon="11.439444354623626"><ele>99.6</ele><time>2026-04-23T09:04:47Z</time></trkpt><trkpt lat="43.77464010972524" lon="11.439574219339391"><ele>99.4</ele><time>2026-04-23T09:04:48Z</time></trkpt><trkpt lat="43.77463593972133" lon="11.439693018188171"><ele>99.2</ele><time>2026-04-23T09:04:49Z</time></trkpt><trkpt lat="43.774627251021435" lon="11.439824481411978"><ele>99.0</ele><time>2026-04-23T09:04:50Z</time></trkpt><trkpt lat="43.774625513596106" lon="11.43995071421391"><ele>98.83333333333333</ele><time>2026-04-23T09:04:51Z</time></trkpt><trkpt lat="43.77463045756639" lon="11.440072320010508"><ele>98.66666666666666</ele><time>2026-04-23T09:04:52Z</time></trkpt><trkpt lat="43.774631677001395" lon="11.44019130584111"><ele>98.5</ele><time>2026-04-23T09:04:53Z</time></trkpt><trkpt lat="43.7746427625628" lon="11.440316953144375"><ele>98.33333333333333</ele><time>2026-04-23T09:04:54Z</time></trkpt><trkpt lat="43.77466288109297" lon="11.4404301174298"><ele>98.16666666666666</ele><time>2026-04-23T09:04:55Z</time></trkpt><trkpt lat="43.77468736548607" lon="11.440531198742361"><ele>98.0</ele><time>2026-04-23T09:04:56Z</time></trkpt><trkpt lat="43.774748869122156" lon="11.440699147244146"><ele>97.4</ele><time>2026-04-23T09:04:58Z</time></trkpt><trkpt lat="43.77477437095364" lon="11.440806920240714"><ele>96.80000000000001</ele><time>2026-04-23T09:04:59Z</time></trkpt><trkpt lat="43.77482013062382" lon="11.440906348585374"><ele>96.2</ele><time>2026-04-23T09:05:00Z</time></trkpt><trkpt lat="43.77488230527552" lon="11.440994292381253"><ele>95.6</ele><time>2026-04-23T09:05:07Z</time></trkpt><trkpt lat="43.774960910377985" lon="11.441158265544793"><ele>95.0</ele><time>2026-04-23T09:05:09Z</time></trkpt><trkpt lat="43.77504490454124" lon="11.441231495356842"><ele>95.2</ele><time>2026-04-23T09:05:10Z</time></trkpt><trkpt lat="43.77511553439033" lon="11.441342888246156"><ele>95.4</ele><time>2026-04-23T09:05:11Z</time></trkpt><trkpt lat="43.775189340132194" lon="11.441447546580346"><ele>95.6</ele><time>2026-04-23T09:05:12Z</time></trkpt><trkpt lat="43.77527618098802" lon="11.44156241206393"><ele>95.8</ele><time>2026-04-23T09:05:13Z</time></trkpt><trkpt lat="43.77535656948337" lon="11.441678732505236"><ele>96.0</ele><time>2026-04-23T09:05:14Z</time></trkpt><trkpt lat="43.77541775437847" lon="11.44180345753525"><ele>96.0</ele><time>2026-04-23T09:05:15Z</time></trkpt><trkpt lat="43.775477397373145" lon="11.44190273518246"><ele>96.0</ele><time>2026-04-23T09:05:16Z</time></trkpt><trkpt lat="43.77552436785093" lon="11.44200829734315"><ele>96.0</ele><time>2026-04-23T09:05:17Z</time></trkpt><trkpt lat="43.77554166012956" lon="11.44211562394907"><ele>96.0</ele><time>2026-04-23T09:05:18Z</time></trkpt><trkpt lat="43.77555376743558" lon="11.442243749801749"><ele>96.0</ele><time>2026-04-23T09:05:19Z</time></trkpt><trkpt lat="43.77554894301935" lon="11.442377913451196"><ele>94.0</ele><time>2026-04-23T09:05:20Z</time></trkpt><trkpt lat="43.77551645197892" lon="11.442498645398706"><ele>92.0</ele><time>2026-04-23T09:05:21Z</time></trkpt><trkpt lat="43.775496563037535" lon="11.442628224379852"><ele>90.0</ele><time>2026-04-23T09:05:22Z</time></trkpt><trkpt lat="43.77547810630916" lon="11.442755304603839"><ele>88.0</ele><time>2026-04-23T09:05:23Z</time></trkpt><trkpt lat="43.775453499774905" lon="11.442913152172215"><ele>86.0</ele><time>2026-04-23T09:05:24Z</time></trkpt><trkpt lat="43.77542516246688" lon="11.443095270668609"><ele>85.5</ele><time>2026-04-23T09:05:25Z</time></trkpt><trkpt lat="43.77539480585395" lon="11.443289241805005"><ele>85.0</ele><time>2026-04-23T09:05:26Z</time></trkpt><trkpt lat="43.7753655617231" lon="11.443474203005353"><ele>84.5</ele><time>2026-04-23T09:05:27Z</time></trkpt><trkpt lat="43.77534743418066" lon="11.44366019600637"><ele>84.0</ele><time>2026-04-23T09:05:28Z</time></trkpt><trkpt lat="43.77531132342484" lon="11.443833643918271"><ele>85.25</ele><time>2026-04-23T09:05:29Z</time></trkpt><trkpt lat="43.77528836904333" lon="11.444017085517405"><ele>86.5</ele><time>2026-04-23T09:05:30Z</time></trkpt><trkpt lat="43.77527097542295" lon="11.444205365609125"><ele>87.75</ele><time>2026-04-23T09:05:31Z</time></trkpt><trkpt lat="43.775269039430356" lon="11.444369798145736"><ele>89.0</ele><time>2026-04-23T09:05:32Z</time></trkpt><trkpt lat="43.775284823459366" lon="11.444536432322169"><ele>89.25</ele><time>2026-04-23T09:05:33Z</time></trkpt><trkpt lat="43.77531542253811" lon="11.44470688683375"><ele>89.5</ele><time>2026-04-23T09:05:34Z</time></trkpt><trkpt lat="43.77534272213111" lon="11.444873272776476"><ele>89.75</ele><time>2026-04-23T09:05:35Z</time></trkpt><trkpt lat="43.77537693208956" lon="11.445040872144375"><ele>90.0</ele><time>2026-04-23T09:05:36Z</time></trkpt><trkpt lat="43.77542508254331" lon="11.44525764304309"><ele>90.0</ele><time>2026-04-23T09:05:37Z</time></trkpt><trkpt lat="43.77549214248858" lon="11.445408543142888"><ele>90.0</ele><time>2026-04-23T09:05:38Z</time></trkpt><trkpt lat="43.77558350096455" lon="11.445509466955166"><ele>90.0</ele><time>2026-04-23T09:05:39Z</time></trkpt><trkpt lat="43.77567508622807" lon="11.445624941262597"><ele>90.0</ele><time>2026-04-23T09:05:40Z</time></trkpt><trkpt lat="43.7757565586933" lon="11.445718458172017"><ele>90.0</ele><time>2026-04-23T09:05:41Z</time></trkpt><trkpt lat="43.775859581062115" lon="11.445796516188889"><ele>90.0</ele><time>2026-04-23T09:05:42Z</time></trkpt><trkpt lat="43.77595965919791" lon="11.445873266421938"><ele>90.0</ele><time>2026-04-23T09:05:43Z</time></trkpt><trkpt lat="43.776060139751294" lon="11.44593309153617"><ele>90.0</ele><time>2026-04-23T09:05:44Z</time></trkpt><trkpt lat="43.7761594156513" lon="11.44598759233755"><ele>90.0</ele><time>2026-04-23T09:05:45Z</time></trkpt><trkpt lat="43.77627402254033" lon="11.446039122433207"><ele>90.6</ele><time>2026-04-23T09:05:46Z</time></trkpt><trkpt lat="43.776387482568325" lon="11.44607951574984"><ele>91.2</ele><time>2026-04-23T09:05:47Z</time></trkpt><trkpt lat="43.776495702958734" lon="11.44611923235775"><ele>91.80000000000001</ele><time>2026-04-23T09:05:48Z</time></trkpt><trkpt lat="43.77659993190215" lon="11.44615832160039"><ele>92.4</ele><time>2026-04-23T09:05:49Z</time></trkpt><trkpt lat="43.776705700356686" lon="11.446191820079404"><ele>93.0</ele><time>2026-04-23T09:05:50Z</time></trkpt><trkpt lat="43.77679587931915" lon="11.446223966729212"><ele>92.83333333333333</ele><time>2026-04-23T09:05:51Z</time></trkpt><trkpt lat="43.7768680136973" lon="11.446263168757993"><ele>92.66666666666667</ele><time>2026-04-23T09:05:52Z</time></trkpt><trkpt lat="43.7769402692753" lon="11.44631165543208"><ele>92.5</ele><time>2026-04-23T09:05:53Z</time></trkpt><trkpt lat="43.77698951936298" lon="11.446394079933441"><ele>92.33333333333334</ele><time>2026-04-23T09:05:54Z</time></trkpt><trkpt lat="43.7770289600557" lon="11.44650796235053"><ele>92.16666666666667</ele><time>2026-04-23T09:05:55Z</time></trkpt><trkpt lat="43.777072675887865" lon="11.446604145790424"><ele>92.0</ele><time>2026-04-23T09:05:56Z</time></trkpt><trkpt lat="43.777183056078606" lon="11.446590364603704"><ele>93.0</ele><time>2026-04-23T09:05:58Z</time></trkpt><trkpt lat="43.77726331007161" lon="11.446509253973334"><ele>94.0</ele><time>2026-04-23T09:05:59Z</time></trkpt><trkpt lat="43.777369625935606" lon="11.446444070496192"><ele>95.0</ele><time>2026-04-23T09:06:00Z</time></trkpt><trkpt lat="43.77748272199453" lon="11.446463427430663"><ele>96.0</ele><time>2026-04-23T09:06:01Z</time></trkpt><trkpt lat="43.77762419749601" lon="11.446497072871539"><ele>95.75</ele><time>2026-04-23T09:06:02Z</time></trkpt><trkpt lat="43.77775206257298" lon="11.446552988072844"><ele>95.5</ele><time>2026-04-23T09:06:03Z</time></trkpt><trkpt lat="43.777879612955445" lon="11.44659755898383"><ele>95.25</ele><time>2026-04-23T09:06:04Z</time></trkpt><trkpt lat="43.77800505094126" lon="11.446652166101135"><ele>95.0</ele><time>2026-04-23T09:06:05Z</time></trkpt><trkpt lat="43.77813721083655" lon="11.446727817333812"><ele>95.0</ele><time>2026-04-23T09:06:06Z</time></trkpt><trkpt lat="43.778274821159165" lon="11.446756929027405"><ele>95.0</ele><time>2026-04-23T09:06:07Z</time></trkpt><trkpt lat="43.77841953610757" lon="11.446802895841008"><ele>95.0</ele><time>2026-04-23T09:06:08Z</time></trkpt><trkpt lat="43.7785647331518" lon="11.44685799892789"><ele>95.0</ele><time>2026-04-23T09:06:09Z</time></trkpt><trkpt lat="43.77871316775647" lon="11.446906709885988"><ele>94.33333333333334</ele><time>2026-04-23T09:06:10Z</time></trkpt><trkpt lat="43.77886200546402" lon="11.446961190226897"><ele>93.66666666666667</ele><time>2026-04-23T09:06:11Z</time></trkpt><trkpt lat="43.77900683349312" lon="11.447015855169116"><ele>93.0</ele><time>2026-04-23T09:06:12Z</time></trkpt><trkpt lat="43.77914762302386" lon="11.447071539368185"><ele>92.5</ele><time>2026-04-23T09:06:13Z</time></trkpt><trkpt lat="43.779274386676235" lon="11.447134288374604"><ele>92.0</ele><time>2026-04-23T09:06:14Z</time></trkpt><trkpt lat="43.7794035098086" lon="11.447194876616802"><ele>91.5</ele><time>2026-04-23T09:06:15Z</time></trkpt><trkpt lat="43.77953595287788" lon="11.447254822411729"><ele>91.0</ele><time>2026-04-23T09:06:16Z</time></trkpt><trkpt lat="43.77966205016451" lon="11.447310886122404"><ele>91.0</ele><time>2026-04-23T09:06:17Z</time></trkpt><trkpt lat="43.7797757589312" lon="11.447371450020194"><ele>91.0</ele><time>2026-04-23T09:06:18Z</time></trkpt><trkpt lat="43.77987105802308" lon="11.447423321499496"><ele>91.0</ele><time>2026-04-23T09:06:19Z</time></trkpt><trkpt lat="43.779952857249754" lon="11.447475898657038"><ele>91.0</ele><time>2026-04-23T09:06:20Z</time></trkpt><trkpt lat="43.780018544128374" lon="11.447499958210487"><ele>91.0</ele><time>2026-04-23T09:06:21Z</time></trkpt><trkpt lat="43.780100064877836" lon="11.447563586401492"><ele>91.0</ele><time>2026-04-23T09:06:23Z</time></trkpt><trkpt lat="43.780017092440666" lon="11.447485411644713"><ele>91.0</ele><time>2026-04-23T09:06:55Z</time></trkpt><trkpt lat="43.77996397079944" lon="11.447428680721506"><ele>91.0</ele><time>2026-04-23T09:06:56Z</time></trkpt><trkpt lat="43.779899080760494" lon="11.44741007012705"><ele>91.0</ele><time>2026-04-23T09:06:57Z</time></trkpt><trkpt lat="43.779829752692464" lon="11.447371720391587"><ele>91.0</ele><time>2026-04-23T09:06:58Z</time></trkpt><trkpt lat="43.77975389170804" lon="11.447325624379937"><ele>91.0</ele><time>2026-04-23T09:06:59Z</time></trkpt><trkpt lat="43.77967351308222" lon="11.447279951722939"><ele>91.0</ele><time>2026-04-23T09:07:00Z</time></trkpt><trkpt lat="43.7795907341438" lon="11.447235920426264"><ele>91.0</ele><time>2026-04-23T09:07:01Z</time></trkpt><trkpt lat="43.77950531043636" lon="11.447198090042747"><ele>91.0</ele><time>2026-04-23T09:07:02Z</time></trkpt><trkpt lat="43.77942261441584" lon="11.447154749990421"><ele>91.0</ele><time>2026-04-23T09:07:03Z</time></trkpt><trkpt lat="43.77933587162962" lon="11.447110715653865"><ele>91.0</ele><time>2026-04-23T09:07:04Z</time></trkpt><trkpt lat="43.77924885827706" lon="11.447071098937663"><ele>91.33333333333333</ele><time>2026-04-23T09:07:05Z</time></trkpt><trkpt lat="43.77916502756266" lon="11.447021803422755"><ele>91.66666666666666</ele><time>2026-04-23T09:07:06Z</time></trkpt><trkpt lat="43.77908153731129" lon="11.446993121492975"><ele>92.0</ele><time>2026-04-23T09:07:07Z</time></trkpt><trkpt lat="43.77901003730686" lon="11.44695357211936"><ele>92.33333333333333</ele><time>2026-04-23T09:07:08Z</time></trkpt><trkpt lat="43.77892322075873" lon="11.446942656779163"><ele>92.66666666666667</ele><time>2026-04-23T09:07:10Z</time></trkpt><trkpt lat="43.77888135149124" lon="11.447064136587368"><ele>93.0</ele><time>2026-04-23T09:07:13Z</time></trkpt><trkpt lat="43.778956242367244" lon="11.447079287218283"><ele>94.0</ele><time>2026-04-23T09:07:14Z</time></trkpt><trkpt lat="43.7790082954923" lon="11.447180307007136"><ele>95.0</ele><time>2026-04-23T09:07:15Z</time></trkpt><trkpt lat="43.77909926732069" lon="11.447401372605789"><ele>96.0</ele><time>2026-04-23T09:07:17Z</time></trkpt><trkpt lat="43.77912594895245" lon="11.44750268637144"><ele>97.0</ele><time>2026-04-23T09:07:18Z</time></trkpt><trkpt lat="43.77914678241204" lon="11.447603518203003"><ele>98.0</ele><time>2026-04-23T09:07:19Z</time></trkpt><trkpt lat="43.77917420437117" lon="11.447717433160284"><ele>98.0</ele><time>2026-04-23T09:07:20Z</time></trkpt><trkpt lat="43.77920026900155" lon="11.44783583469417"><ele>98.0</ele><time>2026-04-23T09:07:21Z</time></trkpt><trkpt lat="43.77923887220395" lon="11.447965179805195"><ele>98.0</ele><time>2026-04-23T09:07:22Z</time></trkpt><trkpt lat="43.77929029768019" lon="11.44810307860274"><ele>98.0</ele><time>2026-04-23T09:07:23Z</time></trkpt><trkpt lat="43.77936339595931" lon="11.44825420051601"><ele>98.0</ele><time>2026-04-23T09:07:24Z</time></trkpt><trkpt lat="43.77943985260701" lon="11.44840833905712"><ele>97.75</ele><time>2026-04-23T09:07:25Z</time></trkpt><trkpt lat="43.77952521666057" lon="11.448564485367745"><ele>97.5</ele><time>2026-04-23T09:07:26Z</time></trkpt><trkpt lat="43.77963796597951" lon="11.448651561992412"><ele>97.25</ele><time>2026-04-23T09:07:27Z</time></trkpt><trkpt lat="43.77971369098778" lon="11.448765104941707"><ele>97.0</ele><time>2026-04-23T09:07:28Z</time></trkpt><trkpt lat="43.779791790736404" lon="11.448893982658811"><ele>101.5</ele><time>2026-04-23T09:07:29Z</time></trkpt><trkpt lat="43.77986073608789" lon="11.449056905639635"><ele>106.0</ele><time>2026-04-23T09:07:30Z</time></trkpt><trkpt lat="43.77995057787751" lon="11.449212419511472"><ele>110.5</ele><time>2026-04-23T09:07:31Z</time></trkpt><trkpt lat="43.780051698511464" lon="11.44934575217673"><ele>115.0</ele><time>2026-04-23T09:07:32Z</time></trkpt><trkpt lat="43.78015963712296" lon="11.449464152136906"><ele>115.5</ele><time>2026-04-23T09:07:33Z</time></trkpt><trkpt lat="43.78027937318322" lon="11.449573410759989"><ele>116.0</ele><time>2026-04-23T09:07:34Z</time></trkpt><trkpt lat="43.78038432099007" lon="11.44965767262932"><ele>116.5</ele><time>2026-04-23T09:07:35Z</time></trkpt><trkpt lat="43.780474393024896" lon="11.449750886379295"><ele>117.0</ele><time>2026-04-23T09:07:36Z</time></trkpt><trkpt lat="43.780554870942204" lon="11.449891045579657"><ele>117.0</ele><time>2026-04-23T09:07:37Z</time></trkpt><trkpt lat="43.78063462029169" lon="11.4500080603779"><ele>116.99999999999999</ele><time>2026-04-23T09:07:38Z</time></trkpt><trkpt lat="43.78069666553629" lon="11.450122240923841"><ele>116.99999999999999</ele><time>2026-04-23T09:07:39Z</time></trkpt><trkpt lat="43.78074678703289" lon="11.450254936278098"><ele>117.0</ele><time>2026-04-23T09:07:40Z</time></trkpt><trkpt lat="43.78078759846415" lon="11.45039418442227"><ele>117.0</ele><time>2026-04-23T09:07:41Z</time></trkpt><trkpt lat="43.78081641819925" lon="11.450541474337307"><ele>120.0</ele><time>2026-04-23T09:07:42Z</time></trkpt><trkpt lat="43.78081799476741" lon="11.450669316556926"><ele>122.99999999999999</ele><time>2026-04-23T09:07:43Z</time></trkpt><trkpt lat="43.780802002815356" lon="11.450789575431548"><ele>125.99999999999999</ele><time>2026-04-23T09:07:44Z</time></trkpt><trkpt lat="43.78075619854282" lon="11.450915532658943"><ele>129.0</ele><time>2026-04-23T09:07:45Z</time></trkpt><trkpt lat="43.78067456282317" lon="11.451028851426692"><ele>132.0</ele><time>2026-04-23T09:07:46Z</time></trkpt><trkpt lat="43.78060487567859" lon="11.451136955426486"><ele>132.0</ele><time>2026-04-23T09:07:47Z</time></trkpt><trkpt lat="43.78053088403586" lon="11.45126376083257"><ele>132.0</ele><time>2026-04-23T09:07:48Z</time></trkpt><trkpt lat="43.78046483116871" lon="11.451377843052324"><ele>132.0</ele><time>2026-04-23T09:07:49Z</time></trkpt><trkpt lat="43.78041304277254" lon="11.451516643434628"><ele>132.0</ele><time>2026-04-23T09:07:50Z</time></trkpt><trkpt lat="43.78036734636135" lon="11.451667038036112"><ele>132.25</ele><time>2026-04-23T09:07:51Z</time></trkpt><trkpt lat="43.78033201422525" lon="11.451846154168763"><ele>132.5</ele><time>2026-04-23T09:07:52Z</time></trkpt><trkpt lat="43.78030459009092" lon="11.452021370452513"><ele>132.75</ele><time>2026-04-23T09:07:53Z</time></trkpt><trkpt lat="43.78026780047731" lon="11.452198733718022"><ele>133.0</ele><time>2026-04-23T09:07:54Z</time></trkpt><trkpt lat="43.780249777546025" lon="11.45237880619885"><ele>133.5</ele><time>2026-04-23T09:07:55Z</time></trkpt><trkpt lat="43.780233936590896" lon="11.452558241617286"><ele>134.0</ele><time>2026-04-23T09:07:56Z</time></trkpt><trkpt lat="43.780236161912676" lon="11.452731599403423"><ele>134.5</ele><time>2026-04-23T09:07:57Z</time></trkpt><trkpt lat="43.78021159723558" lon="11.452900090623272"><ele>135.0</ele><time>2026-04-23T09:07:58Z</time></trkpt><trkpt lat="43.78018613915842" lon="11.453080560704876"><ele>143.0</ele><time>2026-04-23T09:07:59Z</time></trkpt><trkpt lat="43.780153422786064" lon="11.453257665831382"><ele>151.0</ele><time>2026-04-23T09:08:00Z</time></trkpt><trkpt lat="43.78010314544002" lon="11.453431818949712"><ele>159.0</ele><time>2026-04-23T09:08:01Z</time></trkpt><trkpt lat="43.780076480013726" lon="11.45361940927183"><ele>167.0</ele><time>2026-04-23T09:08:02Z</time></trkpt><trkpt lat="43.78004394949324" lon="11.453802370222046"><ele>168.25</ele><time>2026-04-23T09:08:03Z</time></trkpt><trkpt lat="43.78000640300069" lon="11.45396113814946"><ele>169.5</ele><time>2026-04-23T09:08:04Z</time></trkpt><trkpt lat="43.77996256366671" lon="11.454118694767233"><ele>170.75</ele><time>2026-04-23T09:08:05Z</time></trkpt><trkpt lat="43.779916217714856" lon="11.454278398945236"><ele>172.0</ele><time>2026-04-23T09:08:06Z</time></trkpt><trkpt lat="43.77986801878085" lon="11.454440753598128"><ele>172.0</ele><time>2026-04-23T09:08:07Z</time></trkpt><trkpt lat="43.7798217005307" lon="11.45458975879287"><ele>172.0</ele><time>2026-04-23T09:08:08Z</time></trkpt><trkpt lat="43.77978787414142" lon="11.454737114774469"><ele>172.0</ele><time>2026-04-23T09:08:09Z</time></trkpt><trkpt lat="43.77974105949745" lon="11.454860191049576"><ele>172.0</ele><time>2026-04-23T09:08:10Z</time></trkpt><trkpt lat="43.77970250849456" lon="11.454956187155439"><ele>172.0</ele><time>2026-04-23T09:08:11Z</time></trkpt><trkpt lat="43.779667008650264" lon="11.45512913869397"><ele>172.0</ele><time>2026-04-23T09:08:13Z</time></trkpt><trkpt lat="43.779645922066244" lon="11.455267908942053"><ele>172.0</ele><time>2026-04-23T09:08:14Z</time></trkpt><trkpt lat="43.77964481958563" lon="11.45540549153647"><ele>172.0</ele><time>2026-04-23T09:08:15Z</time></trkpt><trkpt lat="43.77965315002657" lon="11.455556730080742"><ele>172.0</ele><time>2026-04-23T09:08:16Z</time></trkpt><trkpt lat="43.7796635682391" lon="11.455719013872635"><ele>172.0</ele><time>2026-04-23T09:08:17Z</time></trkpt><trkpt lat="43.77966206234365" lon="11.455880945622248"><ele>173.5</ele><time>2026-04-23T09:08:18Z</time></trkpt><trkpt lat="43.77965029474683" lon="11.456051544881499"><ele>175.0</ele><time>2026-04-23T09:08:19Z</time></trkpt><trkpt lat="43.77963455242694" lon="11.456211273865916"><ele>176.5</ele><time>2026-04-23T09:08:20Z</time></trkpt><trkpt lat="43.779615564005795" lon="11.456364430332014"><ele>178.0</ele><time>2026-04-23T09:08:21Z</time></trkpt><trkpt lat="43.77958870210323" lon="11.456505895467878"><ele>178.60000000000002</ele><time>2026-04-23T09:08:22Z</time></trkpt><trkpt lat="43.779547584050576" lon="11.45662445484524"><ele>179.20000000000002</ele><time>2026-04-23T09:08:23Z</time></trkpt><trkpt lat="43.77949354779786" lon="11.456715829808502"><ele>179.8</ele><time>2026-04-23T09:08:24Z</time></trkpt><trkpt lat="43.7794193431307" lon="11.45676993227987"><ele>180.4</ele><time>2026-04-23T09:08:25Z</time></trkpt><trkpt lat="43.77931303844237" lon="11.456811412839045"><ele>181.0</ele><time>2026-04-23T09:08:26Z</time></trkpt><trkpt lat="43.77920719034499" lon="11.456867584177363"><ele>184.75</ele><time>2026-04-23T09:08:27Z</time></trkpt><trkpt lat="43.779101465438565" lon="11.45693465163109"><ele>188.5</ele><time>2026-04-23T09:08:28Z</time></trkpt><trkpt lat="43.778998915755906" lon="11.457015694743516"><ele>192.25</ele><time>2026-04-23T09:08:29Z</time></trkpt><trkpt lat="43.77889392126367" lon="11.457144094319908"><ele>196.0</ele><time>2026-04-23T09:08:30Z</time></trkpt><trkpt lat="43.778811586977525" lon="11.457299868756142"><ele>196.0</ele><time>2026-04-23T09:08:31Z</time></trkpt><trkpt lat="43.778740570703974" lon="11.4574605898674"><ele>196.0</ele><time>2026-04-23T09:08:32Z</time></trkpt><trkpt lat="43.77868788076281" lon="11.457629150596606"><ele>196.0</ele><time>2026-04-23T09:08:33Z</time></trkpt><trkpt lat="43.77865837588745" lon="11.45777664094799"><ele>196.0</ele><time>2026-04-23T09:08:34Z</time></trkpt><trkpt lat="43.778673094122574" lon="11.45792625542182"><ele>197.0</ele><time>2026-04-23T09:08:35Z</time></trkpt><trkpt lat="43.77870566850199" lon="11.458074247762124"><ele>198.0</ele><time>2026-04-23T09:08:36Z</time></trkpt><trkpt lat="43.7787646194439" lon="11.458230754988056"><ele>199.0</ele><time>2026-04-23T09:08:37Z</time></trkpt><trkpt lat="43.778790105906936" lon="11.458397968582936"><ele>200.0</ele><time>2026-04-23T09:08:38Z</time></trkpt><trkpt lat="43.77881389362575" lon="11.45855271825841"><ele>200.0</ele><time>2026-04-23T09:08:39Z</time></trkpt><trkpt lat="43.7788289926617" lon="11.458713314802765"><ele>200.0</ele><time>2026-04-23T09:08:40Z</time></trkpt><trkpt lat="43.77884022551458" lon="11.458885041585486"><ele>200.0</ele><time>2026-04-23T09:08:41Z</time></trkpt><trkpt lat="43.77881461220586" lon="11.459055609757408"><ele>200.0</ele><time>2026-04-23T09:08:42Z</time></trkpt><trkpt lat="43.77877633892344" lon="11.459186188398725"><ele>200.6</ele><time>2026-04-23T09:08:43Z</time></trkpt><trkpt lat="43.77873712340582" lon="11.45930624815394"><ele>201.2</ele><time>2026-04-23T09:08:44Z</time></trkpt><trkpt lat="43.778684953827096" lon="11.459402339263525"><ele>201.8</ele><time>2026-04-23T09:08:45Z</time></trkpt><trkpt lat="43.77861915540929" lon="11.459459690512004"><ele>202.4</ele><time>2026-04-23T09:08:46Z</time></trkpt><trkpt lat="43.77854034005359" lon="11.459527467953118"><ele>203.0</ele><time>2026-04-23T09:08:47.001Z</time></trkpt><trkpt lat="43.7784559100806" lon="11.459633380620087"><ele>208.0</ele><time>2026-04-23T09:08:48.001Z</time></trkpt><trkpt lat="43.77836871041633" lon="11.459781175123421"><ele>213.0</ele><time>2026-04-23T09:08:49.001Z</time></trkpt><trkpt lat="43.778276139683044" lon="11.459959751372537"><ele>218.0</ele><time>2026-04-23T09:08:50.001Z</time></trkpt><trkpt lat="43.77820062588994" lon="11.460145949096537"><ele>218.0</ele><time>2026-04-23T09:08:51.001Z</time></trkpt><trkpt lat="43.77810579158521" lon="11.460337776589686"><ele>218.0</ele><time>2026-04-23T09:08:52.001Z</time></trkpt><trkpt lat="43.77803248075047" lon="11.460525688879226"><ele>218.0</ele><time>2026-04-23T09:08:53.001Z</time></trkpt><trkpt lat="43.77795198993726" lon="11.460727468192774"><ele>217.66666666666669</ele><time>2026-04-23T09:08:54.001Z</time></trkpt><trkpt lat="43.777935097476885" lon="11.46096095756023"><ele>217.33333333333331</ele><time>2026-04-23T09:08:55.001Z</time></trkpt><trkpt lat="43.77791143101746" lon="11.461185920590559"><ele>217.0</ele><time>2026-04-23T09:08:56.001Z</time></trkpt><trkpt lat="43.777857152938935" lon="11.461396350213773"><ele>218.0</ele><time>2026-04-23T09:08:57.001Z</time></trkpt><trkpt lat="43.77780657424628" lon="11.461607372664751"><ele>219.0</ele><time>2026-04-23T09:08:58.001Z</time></trkpt><trkpt lat="43.77775588657061" lon="11.461805380871933"><ele>220.0</ele><time>2026-04-23T09:08:59.001Z</time></trkpt><trkpt lat="43.77770236780485" lon="11.462001163562707"><ele>225.66666666666666</ele><time>2026-04-23T09:09:00.001Z</time></trkpt><trkpt lat="43.777649065495105" lon="11.462199221208571"><ele>231.33333333333331</ele><time>2026-04-23T09:09:01.001Z</time></trkpt><trkpt lat="43.777594703855534" lon="11.462401213785302"><ele>237.0</ele><time>2026-04-23T09:09:02.001Z</time></trkpt><trkpt lat="43.77756665907899" lon="11.462624111140585"><ele>237.0</ele><time>2026-04-23T09:09:03.001Z</time></trkpt><trkpt lat="43.777526153721496" lon="11.462841451142117"><ele>237.0</ele><time>2026-04-23T09:09:04.001Z</time></trkpt><trkpt lat="43.77748885270226" lon="11.463055583271249"><ele>237.0</ele><time>2026-04-23T09:09:05.001Z</time></trkpt><trkpt lat="43.777454364591485" lon="11.463265524956116"><ele>238.0</ele><time>2026-04-23T09:09:06.001Z</time></trkpt><trkpt lat="43.77742356725413" lon="11.463470665330457"><ele>239.0</ele><time>2026-04-23T09:09:07.001Z</time></trkpt><trkpt lat="43.77738803362228" lon="11.46368365558453"><ele>240.0</ele><time>2026-04-23T09:09:08.001Z</time></trkpt><trkpt lat="43.77734359209283" lon="11.463906930112369"><ele>240.66666666666669</ele><time>2026-04-23T09:09:09.001Z</time></trkpt><trkpt lat="43.777306653573994" lon="11.464171187345713"><ele>241.33333333333334</ele><time>2026-04-23T09:09:10.001Z</time></trkpt><trkpt lat="43.777291263827685" lon="11.46442468877321"><ele>242.0</ele><time>2026-04-23T09:09:11.001Z</time></trkpt><trkpt lat="43.77729121680108" lon="11.464662174462761"><ele>243.25</ele><time>2026-04-23T09:09:12.001Z</time></trkpt><trkpt lat="43.77730403265885" lon="11.464749659861441"><ele>244.5</ele><time>2026-04-23T09:09:14.001Z</time></trkpt><trkpt lat="43.77732381350112" lon="11.464908831493673"><ele>245.75</ele><time>2026-04-23T09:09:15.001Z</time></trkpt><trkpt lat="43.7773496819805" lon="11.465090777433861"><ele>247.0</ele><time>2026-04-23T09:09:16.001Z</time></trkpt><trkpt lat="43.777363610031735" lon="11.465283318862621"><ele>250.0</ele><time>2026-04-23T09:09:17.001Z</time></trkpt><trkpt lat="43.77737830143701" lon="11.465480672482373"><ele>253.0</ele><time>2026-04-23T09:09:18.001Z</time></trkpt><trkpt lat="43.777386071008074" lon="11.465683841030776"><ele>256.0</ele><time>2026-04-23T09:09:19Z</time></trkpt><trkpt lat="43.777383822533494" lon="11.465878634679978"><ele>259.0</ele><time>2026-04-23T09:09:20Z</time></trkpt><trkpt lat="43.77738265967458" lon="11.466074765800016"><ele>259.0</ele><time>2026-04-23T09:09:21Z</time></trkpt><trkpt lat="43.777382697967994" lon="11.466272881811495"><ele>259.0</ele><time>2026-04-23T09:09:22Z</time></trkpt><trkpt lat="43.777394682433055" lon="11.4664842269062"><ele>259.0</ele><time>2026-04-23T09:09:23Z</time></trkpt><trkpt lat="43.77742603610182" lon="11.466675886756812"><ele>259.0</ele><time>2026-04-23T09:09:24Z</time></trkpt><trkpt lat="43.77746246041454" lon="11.466851106839767"><ele>259.75</ele><time>2026-04-23T09:09:25Z</time></trkpt><trkpt lat="43.77748785374408" lon="11.467027479054936"><ele>260.5</ele><time>2026-04-23T09:09:26Z</time></trkpt><trkpt lat="43.77750762450112" lon="11.46720617245124"><ele>261.25</ele><time>2026-04-23T09:09:27Z</time></trkpt><trkpt lat="43.77752408825944" lon="11.46738775373609"><ele>262.0</ele><time>2026-04-23T09:09:28Z</time></trkpt><trkpt lat="43.77749607100143" lon="11.467566307165756"><ele>262.25</ele><time>2026-04-23T09:09:29Z</time></trkpt><trkpt lat="43.77746025037311" lon="11.467743621026928"><ele>262.5</ele><time>2026-04-23T09:09:30Z</time></trkpt><trkpt lat="43.777431174531856" lon="11.467938433735297"><ele>262.75</ele><time>2026-04-23T09:09:31Z</time></trkpt><trkpt lat="43.77739055263329" lon="11.468141840951889"><ele>263.0</ele><time>2026-04-23T09:09:32Z</time></trkpt><trkpt lat="43.77738217013531" lon="11.46835971884862"><ele>263.5</ele><time>2026-04-23T09:09:33Z</time></trkpt><trkpt lat="43.777400370395036" lon="11.468585609325798"><ele>264.0</ele><time>2026-04-23T09:09:34Z</time></trkpt><trkpt lat="43.77735861150256" lon="11.468792792816748"><ele>264.5</ele><time>2026-04-23T09:09:35Z</time></trkpt><trkpt lat="43.7773517483236" lon="11.468908707688643"><ele>265.0</ele><time>2026-04-23T09:09:36Z</time></trkpt><trkpt lat="43.7773537682923" lon="11.469227344765436"><ele>267.3333333333333</ele><time>2026-04-23T09:09:37Z</time></trkpt><trkpt lat="43.7773717235557" lon="11.469488637691743"><ele>269.6666666666667</ele><time>2026-04-23T09:09:38Z</time></trkpt><trkpt lat="43.777393253071025" lon="11.469679584834148"><ele>272.0</ele><time>2026-04-23T09:09:39Z</time></trkpt><trkpt lat="43.777425555469144" lon="11.469902070516655"><ele>274.6666666666667</ele><time>2026-04-23T09:09:40Z</time></trkpt><trkpt lat="43.77746418279896" lon="11.47011783713627"><ele>277.3333333333333</ele><time>2026-04-23T09:09:41Z</time></trkpt><trkpt lat="43.77749738618915" lon="11.470330601785744"><ele>280.0</ele><time>2026-04-23T09:09:42Z</time></trkpt><trkpt lat="43.77753177369033" lon="11.470533934317299"><ele>280.5</ele><time>2026-04-23T09:09:43Z</time></trkpt><trkpt lat="43.777589788837815" lon="11.470726471515228"><ele>281.0</ele><time>2026-04-23T09:09:44Z</time></trkpt><trkpt lat="43.77766540083969" lon="11.470903224414396"><ele>281.5</ele><time>2026-04-23T09:09:45Z</time></trkpt><trkpt lat="43.77774876534337" lon="11.471068258374112"><ele>282.0</ele><time>2026-04-23T09:09:46Z</time></trkpt><trkpt lat="43.777826340115986" lon="11.471243023068858"><ele>284.8</ele><time>2026-04-23T09:09:47Z</time></trkpt><trkpt lat="43.77789964660906" lon="11.471391037843361"><ele>287.6</ele><time>2026-04-23T09:09:48Z</time></trkpt><trkpt lat="43.77797909786745" lon="11.471516874613226"><ele>290.40000000000003</ele><time>2026-04-23T09:09:49Z</time></trkpt><trkpt lat="43.77805426446183" lon="11.471600054557577"><ele>293.2</ele><time>2026-04-23T09:09:50Z</time></trkpt><trkpt lat="43.778116833316325" lon="11.471670533598159"><ele>296.0</ele><time>2026-04-23T09:09:51Z</time></trkpt><trkpt lat="43.77816594277334" lon="11.471743961979822"><ele>296.0</ele><time>2026-04-23T09:09:52Z</time></trkpt><trkpt lat="43.778196034556615" lon="11.47184635925094"><ele>296.0</ele><time>2026-04-23T09:09:53Z</time></trkpt><trkpt lat="43.77821482763431" lon="11.471952718609025"><ele>296.0</ele><time>2026-04-23T09:09:54Z</time></trkpt><trkpt lat="43.77821794947666" lon="11.472070343429909"><ele>296.0</ele><time>2026-04-23T09:09:55Z</time></trkpt><trkpt lat="43.778201471604135" lon="11.472201827736972"><ele>296.0</ele><time>2026-04-23T09:09:56Z</time></trkpt><trkpt lat="43.77821119291699" lon="11.472352566370047"><ele>296.0</ele><time>2026-04-23T09:09:57Z</time></trkpt><trkpt lat="43.77822002032216" lon="11.472486275811804"><ele>298.2</ele><time>2026-04-23T09:09:58Z</time></trkpt><trkpt lat="43.77823868199354" lon="11.472599575312028"><ele>300.40000000000003</ele><time>2026-04-23T09:10:00Z</time></trkpt><trkpt lat="43.778258261844805" lon="11.472698819362359"><ele>302.6</ele><time>2026-04-23T09:10:09Z</time></trkpt><trkpt lat="43.77832248297796" lon="11.472570544354515"><ele>304.8</ele><time>2026-04-23T09:10:14Z</time></trkpt><trkpt lat="43.778247972145145" lon="11.472597119786222"><ele>307.0</ele><time>2026-04-23T09:10:17Z</time></trkpt><trkpt lat="43.77822913824516" lon="11.472453967206391"><ele>307.0</ele><time>2026-04-23T09:10:20Z</time></trkpt><trkpt lat="43.77820148017435" lon="11.472375242228049"><ele>307.0</ele><time>2026-04-23T09:10:23Z</time></trkpt><trkpt lat="43.77813730034787" lon="11.472390912005942"><ele>307.0</ele><time>2026-04-23T09:10:25Z</time></trkpt><trkpt lat="43.77804344125138" lon="11.472457809075369"><ele>307.0</ele><time>2026-04-23T09:10:27Z</time></trkpt><trkpt lat="43.777978769034114" lon="11.472483931740657"><ele>307.0</ele><time>2026-04-23T09:10:28Z</time></trkpt><trkpt lat="43.77791401418207" lon="11.472503818339968"><ele>307.0</ele><time>2026-04-23T09:10:29Z</time></trkpt><trkpt lat="43.77782117611357" lon="11.472535450646113"><ele>307.0</ele><time>2026-04-23T09:10:31Z</time></trkpt><trkpt lat="43.77769746861079" lon="11.472582732705153"><ele>307.0</ele><time>2026-04-23T09:10:33Z</time></trkpt><trkpt lat="43.77761464655744" lon="11.472619954871302"><ele>307.0</ele><time>2026-04-23T09:10:34Z</time></trkpt><trkpt lat="43.77754449231154" lon="11.472650061910185"><ele>307.0</ele><time>2026-04-23T09:10:35Z</time></trkpt><trkpt lat="43.777460581381" lon="11.472693562399858"><ele>307.0</ele><time>2026-04-23T09:10:36Z</time></trkpt><trkpt lat="43.77737945708972" lon="11.47274034238335"><ele>307.66666666666663</ele><time>2026-04-23T09:10:37Z</time></trkpt><trkpt lat="43.777317078505796" lon="11.472773987123821"><ele>308.3333333333333</ele><time>2026-04-23T09:10:38Z</time></trkpt><trkpt lat="43.77724622961434" lon="11.472802163408048"><ele>309.0</ele><time>2026-04-23T09:10:39Z</time></trkpt><trkpt lat="43.77718351867918" lon="11.47282120229692"><ele>309.6666666666667</ele><time>2026-04-23T09:10:40Z</time></trkpt><trkpt lat="43.777119250570195" lon="11.472857207259567"><ele>310.33333333333337</ele><time>2026-04-23T09:10:41Z</time></trkpt><trkpt lat="43.77701173928972" lon="11.47287522042655"><ele>311.0</ele><time>2026-04-23T09:10:43Z</time></trkpt><trkpt lat="43.776936885421314" lon="11.472880170519316"><ele>311.0</ele><time>2026-04-23T09:10:46Z</time></trkpt><trkpt lat="43.776876954410454" lon="11.472939005864076"><ele>311.0</ele><time>2026-04-23T09:10:49Z</time></trkpt><trkpt lat="43.77689663418968" lon="11.473088819053956"><ele>311.0</ele><time>2026-04-23T09:10:51Z</time></trkpt><trkpt lat="43.77690279028176" lon="11.47318454606997"><ele>311.0</ele><time>2026-04-23T09:10:52Z</time></trkpt><trkpt lat="43.77693470466939" lon="11.473276790482892"><ele>311.0</ele><time>2026-04-23T09:10:53.001Z</time></trkpt><trkpt lat="43.77694757891197" lon="11.473366743728608"><ele>311.0</ele><time>2026-04-23T09:10:54.001Z</time></trkpt><trkpt lat="43.776948965478866" lon="11.47347678204511"><ele>314.0</ele><time>2026-04-23T09:11:04.001Z</time></trkpt><trkpt lat="43.777012883864096" lon="11.473597170031383"><ele>317.0</ele><time>2026-04-23T09:11:06.001Z</time></trkpt><trkpt lat="43.777088980729395" lon="11.473679843273558"><ele>320.0</ele><time>2026-04-23T09:11:08.001Z</time></trkpt><trkpt lat="43.77714494960938" lon="11.473733277400694"><ele>323.0</ele><time>2026-04-23T09:11:09.001Z</time></trkpt><trkpt lat="43.77722150636888" lon="11.473794657928059"><ele>326.0</ele><time>2026-04-23T09:11:10.001Z</time></trkpt><trkpt lat="43.77728158589229" lon="11.473836462266307"><ele>329.0</ele><time>2026-04-23T09:11:11Z</time></trkpt><trkpt lat="43.77737585181017" lon="11.473901728486092"><ele>329.2</ele><time>2026-04-23T09:11:13Z</time></trkpt><trkpt lat="43.777460337010304" lon="11.473956526063363"><ele>329.4</ele><time>2026-04-23T09:11:15Z</time></trkpt><trkpt lat="43.7775583577711" lon="11.47400603546948"><ele>329.6</ele><time>2026-04-23T09:11:17Z</time></trkpt><trkpt lat="43.77764009119884" lon="11.474070546575815"><ele>329.8</ele><time>2026-04-23T09:11:19Z</time></trkpt><trkpt lat="43.77776037508679" lon="11.474150146630674"><ele>330.0</ele><time>2026-04-23T09:11:21Z</time></trkpt><trkpt lat="43.77782238103338" lon="11.47417692183557"><ele>329.6</ele><time>2026-04-23T09:11:22Z</time></trkpt><trkpt lat="43.777893428742665" lon="11.474214397160699"><ele>329.2</ele><time>2026-04-23T09:11:24Z</time></trkpt><trkpt lat="43.77798140644135" lon="11.47429098571693"><ele>328.79999999999995</ele><time>2026-04-23T09:11:28Z</time></trkpt><trkpt lat="43.77799906349626" lon="11.474406193410703"><ele>328.4</ele><time>2026-04-23T09:11:29Z</time></trkpt><trkpt lat="43.77805948683949" lon="11.474530363508567"><ele>328.0</ele><time>2026-04-23T09:11:30Z</time></trkpt><trkpt lat="43.77810282370904" lon="11.474667788988782"><ele>328.0</ele><time>2026-04-23T09:11:31Z</time></trkpt><trkpt lat="43.77814551054644" lon="11.47481112841527"><ele>328.0</ele><time>2026-04-23T09:11:32Z</time></trkpt><trkpt lat="43.778179769709546" lon="11.474940332790501"><ele>328.0</ele><time>2026-04-23T09:11:33Z</time></trkpt><trkpt lat="43.77820231630909" lon="11.475061968261691"><ele>328.0</ele><time>2026-04-23T09:11:34Z</time></trkpt><trkpt lat="43.778228145999925" lon="11.475158911139705"><ele>328.0</ele><time>2026-04-23T09:11:35Z</time></trkpt><trkpt lat="43.77823263098876" lon="11.475264571947232"><ele>328.0</ele><time>2026-04-23T09:11:36Z</time></trkpt><trkpt lat="43.77825496054169" lon="11.475358770559172"><ele>328.0</ele><time>2026-04-23T09:11:37Z</time></trkpt><trkpt lat="43.778276394882226" lon="11.47544311007538"><ele>328.0</ele><time>2026-04-23T09:11:38Z</time></trkpt><trkpt lat="43.77830961952124" lon="11.47560763248946"><ele>328.0</ele><time>2026-04-23T09:11:40Z</time></trkpt><trkpt lat="43.77832213052606" lon="11.475701506224059"><ele>328.0</ele><time>2026-04-23T09:11:41Z</time></trkpt><trkpt lat="43.77835403266718" lon="11.475860268109319"><ele>328.0</ele><time>2026-04-23T09:11:43Z</time></trkpt><trkpt lat="43.778361796025415" lon="11.476019922376352"><ele>328.0</ele><time>2026-04-23T09:11:45Z</time></trkpt><trkpt lat="43.778376511934155" lon="11.476213432346173"><ele>328.0</ele><time>2026-04-23T09:11:47Z</time></trkpt><trkpt lat="43.778395849007396" lon="11.47635089575475"><ele>328.0</ele><time>2026-04-23T09:11:48Z</time></trkpt><trkpt lat="43.77842770575926" lon="11.476502161554723"><ele>328.0</ele><time>2026-04-23T09:11:49Z</time></trkpt><trkpt lat="43.778474805711944" lon="11.476669207543296"><ele>326.5</ele><time>2026-04-23T09:11:50Z</time></trkpt><trkpt lat="43.77852148688323" lon="11.47683749846478"><ele>325.0</ele><time>2026-04-23T09:11:51Z</time></trkpt><trkpt lat="43.77857657382261" lon="11.477000715077764"><ele>323.5</ele><time>2026-04-23T09:11:52Z</time></trkpt><trkpt lat="43.7786076531213" lon="11.477174623223718"><ele>322.0</ele><time>2026-04-23T09:11:53Z</time></trkpt><trkpt lat="43.77861938140819" lon="11.47733489553285"><ele>322.0</ele><time>2026-04-23T09:11:54Z</time></trkpt><trkpt lat="43.778627141860596" lon="11.477500325010347"><ele>322.0</ele><time>2026-04-23T09:11:55Z</time></trkpt><trkpt lat="43.778632249224664" lon="11.477664799965273"><ele>322.0</ele><time>2026-04-23T09:11:56Z</time></trkpt><trkpt lat="43.77864260145879" lon="11.47783461034289"><ele>322.0</ele><time>2026-04-23T09:11:57Z</time></trkpt><trkpt lat="43.77865620280824" lon="11.478003513049057"><ele>323.0</ele><time>2026-04-23T09:11:58Z</time></trkpt><trkpt lat="43.778670258558016" lon="11.478167570753739"><ele>324.0</ele><time>2026-04-23T09:11:59Z</time></trkpt><trkpt lat="43.77869375540718" lon="11.47833188547126"><ele>325.0</ele><time>2026-04-23T09:12:00Z</time></trkpt><trkpt lat="43.7787168780166" lon="11.47849781239944"><ele>326.0</ele><time>2026-04-23T09:12:01Z</time></trkpt><trkpt lat="43.778738865403255" lon="11.478670230281407"><ele>327.8</ele><time>2026-04-23T09:12:02Z</time></trkpt><trkpt lat="43.77876760729563" lon="11.478830524486309"><ele>329.6</ele><time>2026-04-23T09:12:03Z</time></trkpt><trkpt lat="43.77879986950488" lon="11.478961848991563"><ele>331.4</ele><time>2026-04-23T09:12:04Z</time></trkpt><trkpt lat="43.7788225403931" lon="11.479068189731668"><ele>333.2</ele><time>2026-04-23T09:12:05Z</time></trkpt><trkpt lat="43.77884027011944" lon="11.479191616618616"><ele>335.0</ele><time>2026-04-23T09:12:07Z</time></trkpt><trkpt lat="43.77888824186608" lon="11.479342866529569"><ele>335.0</ele><time>2026-04-23T09:12:09Z</time></trkpt><trkpt lat="43.77892783390717" lon="11.479441422954004"><ele>335.0</ele><time>2026-04-23T09:12:10Z</time></trkpt><trkpt lat="43.778990432198576" lon="11.479523308677782"><ele>335.0</ele><time>2026-04-23T09:12:11Z</time></trkpt><trkpt lat="43.77906101254798" lon="11.47958772578188"><ele>335.0</ele><time>2026-04-23T09:12:12Z</time></trkpt><trkpt lat="43.77915484491711" lon="11.479659606633259"><ele>335.0</ele><time>2026-04-23T09:12:13Z</time></trkpt><trkpt lat="43.77927762327063" lon="11.479732799707044"><ele>336.75</ele><time>2026-04-23T09:12:14Z</time></trkpt><trkpt lat="43.779389403745185" lon="11.479829745227716"><ele>338.5</ele><time>2026-04-23T09:12:15Z</time></trkpt><trkpt lat="43.77949524086737" lon="11.479925800592454"><ele>340.25</ele><time>2026-04-23T09:12:16Z</time></trkpt><trkpt lat="43.779599805396984" lon="11.48001718037727"><ele>342.0</ele><time>2026-04-23T09:12:17Z</time></trkpt><trkpt lat="43.77969472754924" lon="11.480101529120295"><ele>342.0</ele><time>2026-04-23T09:12:18Z</time></trkpt><trkpt lat="43.779784063450506" lon="11.480181228110661"><ele>342.0</ele><time>2026-04-23T09:12:19Z</time></trkpt><trkpt lat="43.779872037055206" lon="11.48026472517406"><ele>342.0</ele><time>2026-04-23T09:12:20Z</time></trkpt><trkpt lat="43.779976633211234" lon="11.480357885861508"><ele>342.0</ele><time>2026-04-23T09:12:21Z</time></trkpt><trkpt lat="43.780077436969094" lon="11.48044757766311"><ele>342.6</ele><time>2026-04-23T09:12:22Z</time></trkpt><trkpt lat="43.78014234264653" lon="11.480540683973878"><ele>343.20000000000005</ele><time>2026-04-23T09:12:23Z</time></trkpt><trkpt lat="43.78019625578196" lon="11.480651877749652"><ele>343.8</ele><time>2026-04-23T09:12:24Z</time></trkpt><trkpt lat="43.78022763232179" lon="11.480773105599411"><ele>344.4</ele><time>2026-04-23T09:12:25Z</time></trkpt><trkpt lat="43.780261775850214" lon="11.480923445721928"><ele>345.0</ele><time>2026-04-23T09:12:26Z</time></trkpt><trkpt lat="43.78029119945766" lon="11.481038973777743"><ele>345.0</ele><time>2026-04-23T09:12:27Z</time></trkpt><trkpt lat="43.78033777450189" lon="11.481154601876694"><ele>345.0</ele><time>2026-04-23T09:12:28Z</time></trkpt><trkpt lat="43.78037503033676" lon="11.481307145885209"><ele>345.0</ele><time>2026-04-23T09:12:29Z</time></trkpt><trkpt lat="43.78041883260226" lon="11.481468140033376"><ele>345.0</ele><time>2026-04-23T09:12:30Z</time></trkpt><trkpt lat="43.78046352282748" lon="11.4816235103625"><ele>345.8</ele><time>2026-04-23T09:12:31Z</time></trkpt><trkpt lat="43.78050501478051" lon="11.481767940967265"><ele>346.6</ele><time>2026-04-23T09:12:32Z</time></trkpt><trkpt lat="43.780545306205575" lon="11.4819013166775"><ele>347.4</ele><time>2026-04-23T09:12:33Z</time></trkpt><trkpt lat="43.78058305224871" lon="11.482034254726411"><ele>348.2</ele><time>2026-04-23T09:12:34Z</time></trkpt><trkpt lat="43.78062000916999" lon="11.482177892180358"><ele>349.0</ele><time>2026-04-23T09:12:35Z</time></trkpt><trkpt lat="43.78068214015261" lon="11.482315576982854"><ele>350.0</ele><time>2026-04-23T09:12:36Z</time></trkpt><trkpt lat="43.78070962267949" lon="11.482484389360188"><ele>351.0</ele><time>2026-04-23T09:12:37Z</time></trkpt><trkpt lat="43.780742996317024" lon="11.482658502566043"><ele>352.0</ele><time>2026-04-23T09:12:38Z</time></trkpt><trkpt lat="43.78079453406779" lon="11.48281337167053"><ele>353.0</ele><time>2026-04-23T09:12:39Z</time></trkpt><trkpt lat="43.78084366765543" lon="11.482944905849738"><ele>354.0</ele><time>2026-04-23T09:12:40Z</time></trkpt><trkpt lat="43.78087884348176" lon="11.483094550362269"><ele>355.0</ele><time>2026-04-23T09:12:41Z</time></trkpt><trkpt lat="43.78092415677459" lon="11.483236812395381"><ele>356.0</ele><time>2026-04-23T09:12:42Z</time></trkpt><trkpt lat="43.78098541770596" lon="11.483369938163499"><ele>357.0</ele><time>2026-04-23T09:12:43Z</time></trkpt><trkpt lat="43.781029706537524" lon="11.483515491064157"><ele>359.40000000000003</ele><time>2026-04-23T09:12:44Z</time></trkpt><trkpt lat="43.78108278348586" lon="11.48362842773143"><ele>361.8</ele><time>2026-04-23T09:12:45Z</time></trkpt><trkpt lat="43.781099698497954" lon="11.48376370544757"><ele>364.2</ele><time>2026-04-23T09:12:46Z</time></trkpt><trkpt lat="43.78113477597736" lon="11.483876242449844"><ele>366.6</ele><time>2026-04-23T09:12:47Z</time></trkpt><trkpt lat="43.78118641798149" lon="11.483976906530094"><ele>369.0</ele><time>2026-04-23T09:12:48Z</time></trkpt><trkpt lat="43.78125262540585" lon="11.48405519688881"><ele>370.4</ele><time>2026-04-23T09:12:49Z</time></trkpt><trkpt lat="43.78132701591242" lon="11.484150695079622"><ele>371.79999999999995</ele><time>2026-04-23T09:12:50Z</time></trkpt><trkpt lat="43.78141078242054" lon="11.484252455165008"><ele>373.20000000000005</ele><time>2026-04-23T09:12:51Z</time></trkpt><trkpt lat="43.781497703108904" lon="11.484356872026686"><ele>374.6</ele><time>2026-04-23T09:12:52Z</time></trkpt><trkpt lat="43.78158844026142" lon="11.484462187093849"><ele>376.0</ele><time>2026-04-23T09:12:53Z</time></trkpt><trkpt lat="43.78166830458092" lon="11.484538070944199"><ele>376.0</ele><time>2026-04-23T09:12:54Z</time></trkpt><trkpt lat="43.781743122103784" lon="11.484599163036759"><ele>376.0</ele><time>2026-04-23T09:12:55Z</time></trkpt><trkpt lat="43.781813620701456" lon="11.484665459510676"><ele>376.0</ele><time>2026-04-23T09:12:56Z</time></trkpt><trkpt lat="43.78187829862914" lon="11.484724998918253"><ele>376.0</ele><time>2026-04-23T09:12:57Z</time></trkpt><trkpt lat="43.78192848627866" lon="11.48479003281256"><ele>376.0</ele><time>2026-04-23T09:12:58Z</time></trkpt><trkpt lat="43.781935750743145" lon="11.484894667330458"><ele>376.0</ele><time>2026-04-23T09:12:59Z</time></trkpt><trkpt lat="43.78197688601808" lon="11.48499856188237"><ele>376.0</ele><time>2026-04-23T09:13:02Z</time></trkpt><trkpt lat="43.782013780018865" lon="11.48518307795905"><ele>376.0</ele><time>2026-04-23T09:13:04Z</time></trkpt><trkpt lat="43.782045624152595" lon="11.485309875705713"><ele>376.0</ele><time>2026-04-23T09:13:05Z</time></trkpt><trkpt lat="43.782086003014975" lon="11.485450755192284"><ele>376.0</ele><time>2026-04-23T09:13:06Z</time></trkpt><trkpt lat="43.78212828105292" lon="11.485592796005507"><ele>376.0</ele><time>2026-04-23T09:13:07Z</time></trkpt><trkpt lat="43.78216437307703" lon="11.485709920303572"><ele>376.0</ele><time>2026-04-23T09:13:08Z</time></trkpt><trkpt lat="43.78219592298617" lon="11.485812305021344"><ele>376.0</ele><time>2026-04-23T09:13:09Z</time></trkpt><trkpt lat="43.782221552881076" lon="11.485893863321808"><ele>376.0</ele><time>2026-04-23T09:13:10Z</time></trkpt><trkpt lat="43.782248188298745" lon="11.485976597986875"><ele>376.0</ele><time>2026-04-23T09:13:11Z</time></trkpt><trkpt lat="43.78228101999822" lon="11.486078578987112"><ele>376.0</ele><time>2026-04-23T09:13:13Z</time></trkpt><trkpt lat="43.78242046367022" lon="11.486029401744734"><ele>376.0</ele><time>2026-04-23T09:13:14Z</time></trkpt><trkpt lat="43.782533014829056" lon="11.4859900536509"><ele>376.0</ele><time>2026-04-23T09:13:16Z</time></trkpt><trkpt lat="43.78264164429858" lon="11.485992034400871"><ele>376.0</ele><time>2026-04-23T09:13:18Z</time></trkpt><trkpt lat="43.782721487113676" lon="11.486010940939968"><ele>376.0</ele><time>2026-04-23T09:13:19Z</time></trkpt><trkpt lat="43.78281686402527" lon="11.486041006934167"><ele>376.0</ele><time>2026-04-23T09:13:20Z</time></trkpt><trkpt lat="43.78292903273135" lon="11.486063696372657"><ele>374.8</ele><time>2026-04-23T09:13:21Z</time></trkpt><trkpt lat="43.78304913632708" lon="11.48609994962936"><ele>373.6</ele><time>2026-04-23T09:13:22Z</time></trkpt><trkpt lat="43.7831608580317" lon="11.486137065323362"><ele>372.4</ele><time>2026-04-23T09:13:23Z</time></trkpt><trkpt lat="43.783257164081306" lon="11.48618118704438"><ele>371.2</ele><time>2026-04-23T09:13:24Z</time></trkpt><trkpt lat="43.78333349325414" lon="11.486246324844258"><ele>370.0</ele><time>2026-04-23T09:13:25Z</time></trkpt><trkpt lat="43.783385464113856" lon="11.486348637888863"><ele>370.0</ele><time>2026-04-23T09:13:26Z</time></trkpt><trkpt lat="43.783452186485846" lon="11.486466770767851"><ele>370.0</ele><time>2026-04-23T09:13:27Z</time></trkpt><trkpt lat="43.783537845144004" lon="11.486577021464745"><ele>370.0</ele><time>2026-04-23T09:13:28Z</time></trkpt><trkpt lat="43.78361831583073" lon="11.486717385140505"><ele>370.0</ele><time>2026-04-23T09:13:29Z</time></trkpt><trkpt lat="43.78371303363841" lon="11.486871403532993"><ele>369.5</ele><time>2026-04-23T09:13:30Z</time></trkpt><trkpt lat="43.783803057349715" lon="11.487018457820398"><ele>369.0</ele><time>2026-04-23T09:13:31Z</time></trkpt><trkpt lat="43.783884996539335" lon="11.487156399108857"><ele>368.5</ele><time>2026-04-23T09:13:32Z</time></trkpt><trkpt lat="43.78396249578651" lon="11.487293740791406"><ele>368.0</ele><time>2026-04-23T09:13:33Z</time></trkpt><trkpt lat="43.78402767678018" lon="11.487413580711943"><ele>368.0</ele><time>2026-04-23T09:13:34Z</time></trkpt><trkpt lat="43.784083345244426" lon="11.48753577280533"><ele>368.0</ele><time>2026-04-23T09:13:35Z</time></trkpt><trkpt lat="43.78413592569198" lon="11.487642637139617"><ele>368.0</ele><time>2026-04-23T09:13:36Z</time></trkpt><trkpt lat="43.78419067519541" lon="11.487737546200032"><ele>368.0</ele><time>2026-04-23T09:13:37Z</time></trkpt><trkpt lat="43.784255777510324" lon="11.487841081362568"><ele>368.0</ele><time>2026-04-23T09:13:38Z</time></trkpt><trkpt lat="43.78431563265937" lon="11.487963228465743"><ele>366.25</ele><time>2026-04-23T09:13:39Z</time></trkpt><trkpt lat="43.78436206421485" lon="11.48809955024379"><ele>364.5</ele><time>2026-04-23T09:13:40Z</time></trkpt><trkpt lat="43.78441815805278" lon="11.488276538123003"><ele>362.75</ele><time>2026-04-23T09:13:41Z</time></trkpt><trkpt lat="43.784483264987976" lon="11.488463992934408"><ele>361.0</ele><time>2026-04-23T09:13:42Z</time></trkpt><trkpt lat="43.78454350622699" lon="11.488644932150043"><ele>362.8333333333333</ele><time>2026-04-23T09:13:43Z</time></trkpt><trkpt lat="43.784604628059554" lon="11.488776639995752"><ele>364.66666666666663</ele><time>2026-04-23T09:13:44Z</time></trkpt><trkpt lat="43.78465872233035" lon="11.488866606248349"><ele>366.5</ele><time>2026-04-23T09:13:45Z</time></trkpt><trkpt lat="43.784709326430736" lon="11.488948340635556"><ele>368.3333333333333</ele><time>2026-04-23T09:13:46Z</time></trkpt><trkpt lat="43.78477435675074" lon="11.489011146706732"><ele>370.1666666666667</ele><time>2026-04-23T09:13:47Z</time></trkpt><trkpt lat="43.78483956074238" lon="11.48906502244303"><ele>372.0</ele><time>2026-04-23T09:13:48Z</time></trkpt><trkpt lat="43.78490472902632" lon="11.4891226973038"><ele>372.0</ele><time>2026-04-23T09:13:49Z</time></trkpt><trkpt lat="43.78496549518887" lon="11.489177678723735"><ele>372.0</ele><time>2026-04-23T09:13:50Z</time></trkpt><trkpt lat="43.785046639400385" lon="11.489222715031014"><ele>372.0</ele><time>2026-04-23T09:13:51Z</time></trkpt><trkpt lat="43.78513266303559" lon="11.489243764141124"><ele>372.0</ele><time>2026-04-23T09:13:52Z</time></trkpt><trkpt lat="43.7852214620958" lon="11.489280923510144"><ele>372.0</ele><time>2026-04-23T09:13:53Z</time></trkpt><trkpt lat="43.785303188036956" lon="11.489341373483175"><ele>372.0</ele><time>2026-04-23T09:13:54Z</time></trkpt><trkpt lat="43.78537308577451" lon="11.489408358841466"><ele>371.20000000000005</ele><time>2026-04-23T09:13:55Z</time></trkpt><trkpt lat="43.78542997886874" lon="11.489489847494065"><ele>370.4</ele><time>2026-04-23T09:13:56Z</time></trkpt><trkpt lat="43.785487228878885" lon="11.48956734010916"><ele>369.6</ele><time>2026-04-23T09:13:57Z</time></trkpt><trkpt lat="43.78553719786242" lon="11.4896665318008"><ele>368.79999999999995</ele><time>2026-04-23T09:13:58Z</time></trkpt><trkpt lat="43.78557320467996" lon="11.489796973773382"><ele>368.0</ele><time>2026-04-23T09:13:59Z</time></trkpt><trkpt lat="43.785621780526014" lon="11.489963529870906"><ele>368.0</ele><time>2026-04-23T09:14:00Z</time></trkpt><trkpt lat="43.78568370240986" lon="11.490105527934892"><ele>368.0</ele><time>2026-04-23T09:14:01Z</time></trkpt><trkpt lat="43.7857522604419" lon="11.490225071112727"><ele>368.0</ele><time>2026-04-23T09:14:02Z</time></trkpt><trkpt lat="43.78582143689782" lon="11.490319927589844"><ele>368.0</ele><time>2026-04-23T09:14:03Z</time></trkpt><trkpt lat="43.78587354332869" lon="11.490415439223176"><ele>368.0</ele><time>2026-04-23T09:14:04Z</time></trkpt><trkpt lat="43.7859318642704" lon="11.490496255703075"><ele>368.59999999999997</ele><time>2026-04-23T09:14:05Z</time></trkpt><trkpt lat="43.78598421072411" lon="11.49058330613"><ele>369.2</ele><time>2026-04-23T09:14:06Z</time></trkpt><trkpt lat="43.786075321203796" lon="11.49059400015792"><ele>369.8</ele><time>2026-04-23T09:14:07Z</time></trkpt><trkpt lat="43.78618239141023" lon="11.490610463340808"><ele>370.4</ele><time>2026-04-23T09:14:08Z</time></trkpt><trkpt lat="43.7862971699028" lon="11.4906195155957"><ele>371.0</ele><time>2026-04-23T09:14:09Z</time></trkpt><trkpt lat="43.786384728308164" lon="11.490655115051329"><ele>371.0</ele><time>2026-04-23T09:14:10Z</time></trkpt><trkpt lat="43.786481033852844" lon="11.490681449060713"><ele>371.0</ele><time>2026-04-23T09:14:11Z</time></trkpt><trkpt lat="43.78658316460634" lon="11.49072204345827"><ele>371.0</ele><time>2026-04-23T09:14:12Z</time></trkpt><trkpt lat="43.78668028878696" lon="11.490763950661453"><ele>371.0</ele><time>2026-04-23T09:14:13Z</time></trkpt><trkpt lat="43.78675941852395" lon="11.490802284071288"><ele>371.0</ele><time>2026-04-23T09:14:14Z</time></trkpt><trkpt lat="43.78683153576713" lon="11.490894225941586"><ele>370.1666666666667</ele><time>2026-04-23T09:14:15Z</time></trkpt><trkpt lat="43.78689435411434" lon="11.490986761294685"><ele>369.33333333333337</ele><time>2026-04-23T09:14:16Z</time></trkpt><trkpt lat="43.78695922264362" lon="11.491052137937979"><ele>368.5</ele><time>2026-04-23T09:14:17Z</time></trkpt><trkpt lat="43.78703047606635" lon="11.491095123867389"><ele>367.6666666666667</ele><time>2026-04-23T09:14:18Z</time></trkpt><trkpt lat="43.78710604238104" lon="11.491039394077571"><ele>366.8333333333333</ele><time>2026-04-23T09:14:19Z</time></trkpt><trkpt lat="43.78719970623555" lon="11.491043455680765"><ele>366.0</ele><time>2026-04-23T09:14:20Z</time></trkpt><trkpt lat="43.787285064643704" lon="11.491072958882562"><ele>366.0</ele><time>2026-04-23T09:14:21Z</time></trkpt><trkpt lat="43.78739345157573" lon="11.49112339207411"><ele>366.0</ele><time>2026-04-23T09:14:22Z</time></trkpt><trkpt lat="43.78747192801063" lon="11.49123031821801"><ele>366.0</ele><time>2026-04-23T09:14:23Z</time></trkpt><trkpt lat="43.78758943173983" lon="11.491315365876277"><ele>366.0</ele><time>2026-04-23T09:14:24Z</time></trkpt><trkpt lat="43.787713216904116" lon="11.491399140302967"><ele>367.6</ele><time>2026-04-23T09:14:25Z</time></trkpt><trkpt lat="43.78783389036907" lon="11.491467797860242"><ele>369.20000000000005</ele><time>2026-04-23T09:14:26Z</time></trkpt><trkpt lat="43.78792164313656" lon="11.491544418344619"><ele>370.79999999999995</ele><time>2026-04-23T09:14:27Z</time></trkpt><trkpt lat="43.78800050699745" lon="11.491576166861917"><ele>372.4</ele><time>2026-04-23T09:14:28Z</time></trkpt><trkpt lat="43.78806464001536" lon="11.491583916356598"><ele>374.0</ele><time>2026-04-23T09:14:29Z</time></trkpt><trkpt lat="43.78820723230544" lon="11.491604092209407"><ele>374.0</ele><time>2026-04-23T09:14:31Z</time></trkpt><trkpt lat="43.78830617168441" lon="11.491614479424397"><ele>374.0</ele><time>2026-04-23T09:14:32Z</time></trkpt><trkpt lat="43.78841772930137" lon="11.491560943965121"><ele>374.0</ele><time>2026-04-23T09:14:33Z</time></trkpt><trkpt lat="43.788532781969884" lon="11.49152630885211"><ele>374.0</ele><time>2026-04-23T09:14:34Z</time></trkpt><trkpt lat="43.7886627945266" lon="11.491496024917687"><ele>374.75</ele><time>2026-04-23T09:14:35Z</time></trkpt><trkpt lat="43.78878146111173" lon="11.491449149196914"><ele>375.5</ele><time>2026-04-23T09:14:36Z</time></trkpt><trkpt lat="43.78889629233485" lon="11.491402346325648"><ele>376.25</ele><time>2026-04-23T09:14:37Z</time></trkpt><trkpt lat="43.78900587620354" lon="11.491355713266051"><ele>377.0</ele><time>2026-04-23T09:14:38Z</time></trkpt><trkpt lat="43.78910595472868" lon="11.491317564652181"><ele>376.99999999999994</ele><time>2026-04-23T09:14:39Z</time></trkpt><trkpt lat="43.789187368052666" lon="11.491284759726078"><ele>377.0</ele><time>2026-04-23T09:14:40Z</time></trkpt><trkpt lat="43.78925307507462" lon="11.491251253259978"><ele>377.0</ele><time>2026-04-23T09:14:41Z</time></trkpt><trkpt lat="43.789316592921615" lon="11.491266224644875"><ele>377.0</ele><time>2026-04-23T09:14:41.999Z</time></trkpt><trkpt lat="43.789382784122424" lon="11.491277419880046"><ele>377.0</ele><time>2026-04-23T09:14:42.999Z</time></trkpt><trkpt lat="43.78943983923388" lon="11.491331528141123"><ele>376.99999999999994</ele><time>2026-04-23T09:14:43.999Z</time></trkpt><trkpt lat="43.7895082599132" lon="11.491355940954852"><ele>377.0</ele><time>2026-04-23T09:14:44.999Z</time></trkpt><trkpt lat="43.789572621764" lon="11.49133976512624"><ele>375.8</ele><time>2026-04-23T09:14:45.999Z</time></trkpt><trkpt lat="43.78971536678806" lon="11.491349960406357"><ele>374.6</ele><time>2026-04-23T09:14:55.999Z</time></trkpt><trkpt lat="43.78976964427072" lon="11.49140501769958"><ele>373.40000000000003</ele><time>2026-04-23T09:14:56.999Z</time></trkpt><trkpt lat="43.7898310478372" lon="11.491457800559868"><ele>372.20000000000005</ele><time>2026-04-23T09:14:57.999Z</time></trkpt><trkpt lat="43.789907211518894" lon="11.491521528021172"><ele>371.0</ele><time>2026-04-23T09:14:58.999Z</time></trkpt><trkpt lat="43.79000436038253" lon="11.491597391387131"><ele>371.0</ele><time>2026-04-23T09:14:59.999Z</time></trkpt><trkpt lat="43.79009883697412" lon="11.491678520246538"><ele>371.0</ele><time>2026-04-23T09:15:00.999Z</time></trkpt><trkpt lat="43.790190624032675" lon="11.491749611571795"><ele>371.0</ele><time>2026-04-23T09:15:01.999Z</time></trkpt><trkpt lat="43.79027665180356" lon="11.491816319911727"><ele>371.0</ele><time>2026-04-23T09:15:02.999Z</time></trkpt><trkpt lat="43.79035908126687" lon="11.4918805607616"><ele>371.0</ele><time>2026-04-23T09:15:03.999Z</time></trkpt><trkpt lat="43.790444691314455" lon="11.491947198177412"><ele>370.20000000000005</ele><time>2026-04-23T09:15:05Z</time></trkpt><trkpt lat="43.790529200288844" lon="11.492014033427452"><ele>369.40000000000003</ele><time>2026-04-23T09:15:06Z</time></trkpt><trkpt lat="43.790608975068956" lon="11.492079550655399"><ele>368.6</ele><time>2026-04-23T09:15:07Z</time></trkpt><trkpt lat="43.79068293265191" lon="11.492146933851645"><ele>367.8</ele><time>2026-04-23T09:15:08Z</time></trkpt><trkpt lat="43.790760971085135" lon="11.492206583116747"><ele>367.0</ele><time>2026-04-23T09:15:09Z</time></trkpt><trkpt lat="43.79083182131957" lon="11.492277554666012"><ele>367.0</ele><time>2026-04-23T09:15:10Z</time></trkpt><trkpt lat="43.79089543416273" lon="11.492373422622228"><ele>367.0</ele><time>2026-04-23T09:15:11Z</time></trkpt><trkpt lat="43.79095406954897" lon="11.492476543246651"><ele>367.0</ele><time>2026-04-23T09:15:12Z</time></trkpt><trkpt lat="43.79102175991299" lon="11.492588425687291"><ele>367.0</ele><time>2026-04-23T09:15:13Z</time></trkpt><trkpt lat="43.7910807937818" lon="11.492693606657221"><ele>367.0</ele><time>2026-04-23T09:15:14Z</time></trkpt><trkpt lat="43.79112803183895" lon="11.492772056000591"><ele>366.20000000000005</ele><time>2026-04-23T09:15:15Z</time></trkpt><trkpt lat="43.79123870302741" lon="11.492836912210693"><ele>365.4</ele><time>2026-04-23T09:15:17Z</time></trkpt><trkpt lat="43.79136966586102" lon="11.492831811973371"><ele>364.6</ele><time>2026-04-23T09:15:19Z</time></trkpt><trkpt lat="43.791465801667414" lon="11.49279554310537"><ele>363.79999999999995</ele><time>2026-04-23T09:15:21Z</time></trkpt><trkpt lat="43.79152660886283" lon="11.492742677210886"><ele>363.0</ele><time>2026-04-23T09:15:22Z</time></trkpt><trkpt lat="43.79162214879058" lon="11.492603466674613"><ele>363.0</ele><time>2026-04-23T09:15:24Z</time></trkpt><trkpt lat="43.79170609738572" lon="11.492498964164849"><ele>363.0</ele><time>2026-04-23T09:15:25Z</time></trkpt><trkpt lat="43.791781109169726" lon="11.492353737359505"><ele>363.0</ele><time>2026-04-23T09:15:26Z</time></trkpt><trkpt lat="43.791869961347345" lon="11.492218792677997"><ele>363.0</ele><time>2026-04-23T09:15:27Z</time></trkpt><trkpt lat="43.79196223460949" lon="11.492098531458275"><ele>361.25</ele><time>2026-04-23T09:15:28Z</time></trkpt><trkpt lat="43.79204585157752" lon="11.491974405299606"><ele>359.5</ele><time>2026-04-23T09:15:29Z</time></trkpt><trkpt lat="43.79211696411494" lon="11.49185531789388"><ele>357.75</ele><time>2026-04-23T09:15:30Z</time></trkpt><trkpt lat="43.792191057615796" lon="11.491753899241862"><ele>356.0</ele><time>2026-04-23T09:15:31Z</time></trkpt><trkpt lat="43.79228147527784" lon="11.491637857977716"><ele>356.0</ele><time>2026-04-23T09:15:32Z</time></trkpt><trkpt lat="43.79236823814565" lon="11.491530531356208"><ele>356.0</ele><time>2026-04-23T09:15:33Z</time></trkpt><trkpt lat="43.79245085418627" lon="11.49143881267276"><ele>356.0</ele><time>2026-04-23T09:15:34Z</time></trkpt><trkpt lat="43.79252867842369" lon="11.491373569001468"><ele>356.0</ele><time>2026-04-23T09:15:35Z</time></trkpt><trkpt lat="43.7926046674493" lon="11.491332463743213"><ele>356.0</ele><time>2026-04-23T09:15:36Z</time></trkpt><trkpt lat="43.79269605620887" lon="11.491308256755403"><ele>356.1666666666667</ele><time>2026-04-23T09:15:37Z</time></trkpt><trkpt lat="43.79279642509582" lon="11.491286447005807"><ele>356.33333333333337</ele><time>2026-04-23T09:15:38Z</time></trkpt><trkpt lat="43.79289863811584" lon="11.49125656663419"><ele>356.5</ele><time>2026-04-23T09:15:39Z</time></trkpt><trkpt lat="43.79298349239543" lon="11.49121935600821"><ele>356.6666666666667</ele><time>2026-04-23T09:15:40Z</time></trkpt><trkpt lat="43.793051075490894" lon="11.491183413073909"><ele>356.8333333333333</ele><time>2026-04-23T09:15:41Z</time></trkpt><trkpt lat="43.793107660287646" lon="11.491131790850137"><ele>357.0</ele><time>2026-04-23T09:15:42Z</time></trkpt><trkpt lat="43.79316539157712" lon="11.491077620049166"><ele>356.20000000000005</ele><time>2026-04-23T09:15:43Z</time></trkpt><trkpt lat="43.793216706696754" lon="11.491010165148246"><ele>355.4</ele><time>2026-04-23T09:15:44Z</time></trkpt><trkpt lat="43.793280601737415" lon="11.490927541459897"><ele>354.6</ele><time>2026-04-23T09:15:45Z</time></trkpt><trkpt lat="43.79335478857266" lon="11.4908300852951"><ele>353.79999999999995</ele><time>2026-04-23T09:15:46Z</time></trkpt><trkpt lat="43.793436008736066" lon="11.490733240391041"><ele>353.0</ele><time>2026-04-23T09:15:47Z</time></trkpt><trkpt lat="43.793496817422366" lon="11.490646577678445"><ele>354.2</ele><time>2026-04-23T09:15:48Z</time></trkpt><trkpt lat="43.793536819516625" lon="11.490527772408331"><ele>355.4</ele><time>2026-04-23T09:15:49Z</time></trkpt><trkpt lat="43.79355657273659" lon="11.49040980015026"><ele>356.59999999999997</ele><time>2026-04-23T09:15:50Z</time></trkpt><trkpt lat="43.79356274259179" lon="11.490262503408923"><ele>357.79999999999995</ele><time>2026-04-23T09:15:51Z</time></trkpt><trkpt lat="43.79356726277684" lon="11.490082855533803"><ele>359.0</ele><time>2026-04-23T09:15:52Z</time></trkpt><trkpt lat="43.79358106977" lon="11.489913518285992"><ele>359.0</ele><time>2026-04-23T09:15:53Z</time></trkpt><trkpt lat="43.79359609502853" lon="11.489786117889665"><ele>359.0</ele><time>2026-04-23T09:15:54Z</time></trkpt><trkpt lat="43.79360329990868" lon="11.489698195731041"><ele>359.0</ele><time>2026-04-23T09:15:55Z</time></trkpt><trkpt lat="43.793611351528504" lon="11.489580016233482"><ele>359.0</ele><time>2026-04-23T09:15:57Z</time></trkpt><trkpt lat="43.79360647121007" lon="11.489433096204447"><ele>359.0</ele><time>2026-04-23T09:15:59Z</time></trkpt><trkpt lat="43.793586270509905" lon="11.48933382819495"><ele>359.0</ele><time>2026-04-23T09:16:00Z</time></trkpt><trkpt lat="43.7938921787854" lon="11.489185985050534"><ele>358.5</ele><time>2026-04-23T09:16:01Z</time></trkpt><trkpt lat="43.793930575796196" lon="11.48910605594381"><ele>358.0</ele><time>2026-04-23T09:16:02Z</time></trkpt><trkpt lat="43.793985825857526" lon="11.488972404957389"><ele>357.5</ele><time>2026-04-23T09:16:04Z</time></trkpt><trkpt lat="43.79401118739089" lon="11.488859217044658"><ele>357.0</ele><time>2026-04-23T09:16:06Z</time></trkpt><trkpt lat="43.794075977871756" lon="11.488814530494514"><ele>356.5</ele><time>2026-04-23T09:16:09Z</time></trkpt><trkpt lat="43.794079028099624" lon="11.488683986689631"><ele>356.0</ele><time>2026-04-23T09:16:14Z</time></trkpt><trkpt lat="43.79409794587849" lon="11.488585655837323"><ele>356.20000000000005</ele><time>2026-04-23T09:16:15Z</time></trkpt><trkpt lat="43.79415000892558" lon="11.488509116429306"><ele>356.40000000000003</ele><time>2026-04-23T09:16:16Z</time></trkpt><trkpt lat="43.79423081373121" lon="11.488416222791981"><ele>356.6</ele><time>2026-04-23T09:16:17Z</time></trkpt><trkpt lat="43.79432685766205" lon="11.48833950875535"><ele>356.8</ele><time>2026-04-23T09:16:18Z</time></trkpt><trkpt lat="43.79439719853917" lon="11.488287465292657"><ele>357.0</ele><time>2026-04-23T09:16:19Z</time></trkpt><trkpt lat="43.79448975006201" lon="11.488236661032762"><ele>357.0</ele><time>2026-04-23T09:16:21Z</time></trkpt><trkpt lat="43.794521314245905" lon="11.488152713299684"><ele>357.0</ele><time>2026-04-23T09:16:22Z</time></trkpt><trkpt lat="43.79454143756516" lon="11.488035791860794"><ele>357.0</ele><time>2026-04-23T09:16:23Z</time></trkpt><trkpt lat="43.794562538541996" lon="11.48790178262291"><ele>357.0</ele><time>2026-04-23T09:16:24Z</time></trkpt><trkpt lat="43.794570116675246" lon="11.487765065513678"><ele>357.0</ele><time>2026-04-23T09:16:25Z</time></trkpt><trkpt lat="43.794613769064235" lon="11.487651395410916"><ele>357.0</ele><time>2026-04-23T09:16:26Z</time></trkpt><trkpt lat="43.79466147501479" lon="11.487526752684554"><ele>357.20000000000005</ele><time>2026-04-23T09:16:27Z</time></trkpt><trkpt lat="43.79474164033008" lon="11.48738287048935"><ele>357.4</ele><time>2026-04-23T09:16:28Z</time></trkpt><trkpt lat="43.79479465454456" lon="11.487282532028203"><ele>357.6</ele><time>2026-04-23T09:16:29Z</time></trkpt><trkpt lat="43.79481312427686" lon="11.487169343757833"><ele>357.79999999999995</ele><time>2026-04-23T09:16:30Z</time></trkpt><trkpt lat="43.794848367759435" lon="11.48706834067819"><ele>358.0</ele><time>2026-04-23T09:16:30.999Z</time></trkpt><trkpt lat="43.79488129377813" lon="11.486990288183497"><ele>358.0</ele><time>2026-04-23T09:16:31.999Z</time></trkpt><trkpt lat="43.794938777899226" lon="11.486845284147044"><ele>358.0</ele><time>2026-04-23T09:16:33.999Z</time></trkpt><trkpt lat="43.795007756630426" lon="11.486753876446382"><ele>358.0</ele><time>2026-04-23T09:16:35.999Z</time></trkpt><trkpt lat="43.795087890229986" lon="11.486760942179808"><ele>358.0</ele><time>2026-04-23T09:16:38.999Z</time></trkpt><trkpt lat="43.7951712775827" lon="11.486851249870837"><ele>358.0</ele><time>2026-04-23T09:16:40.999Z</time></trkpt><trkpt lat="43.79521841389525" lon="11.48692271163421"><ele>358.5</ele><time>2026-04-23T09:16:41.999Z</time></trkpt><trkpt lat="43.79535076719087" lon="11.486917582057012"><ele>359.0</ele><time>2026-04-23T09:16:43.999Z</time></trkpt><trkpt lat="43.79542740388938" lon="11.48682922555032"><ele>359.5</ele><time>2026-04-23T09:16:45.999Z</time></trkpt><trkpt lat="43.79550291821848" lon="11.486762395125051"><ele>360.0</ele><time>2026-04-23T09:16:46.999Z</time></trkpt><trkpt lat="43.79562724161615" lon="11.48668417288007"><ele>360.0</ele><time>2026-04-23T09:16:48.999Z</time></trkpt><trkpt lat="43.79569512738592" lon="11.486653560253451"><ele>360.0</ele><time>2026-04-23T09:16:49.999Z</time></trkpt><trkpt lat="43.79575716017741" lon="11.486624953343513"><ele>360.0</ele><time>2026-04-23T09:16:51.999Z</time></trkpt><trkpt lat="43.79584181675251" lon="11.48660062424622"><ele>360.0</ele><time>2026-04-23T09:17:03.999Z</time></trkpt><trkpt lat="43.79593215916324" lon="11.486609979068755"><ele>360.0</ele><time>2026-04-23T09:17:05.999Z</time></trkpt><trkpt lat="43.796034714580834" lon="11.486544000377323"><ele>360.0</ele><time>2026-04-23T09:17:07.999Z</time></trkpt><trkpt lat="43.7961550430363" lon="11.486514749977937"><ele>362.4</ele><time>2026-04-23T09:17:09.999Z</time></trkpt><trkpt lat="43.79624210169571" lon="11.486519962946966"><ele>364.8</ele><time>2026-04-23T09:17:12Z</time></trkpt><trkpt lat="43.79629104529522" lon="11.486624298587092"><ele>367.20000000000005</ele><time>2026-04-23T09:17:14Z</time></trkpt><trkpt lat="43.79627904563409" lon="11.486741918640213"><ele>369.6</ele><time>2026-04-23T09:17:16Z</time></trkpt><trkpt lat="43.79621581777513" lon="11.486864752380724"><ele>372.0</ele><time>2026-04-23T09:17:18Z</time></trkpt><trkpt lat="43.79610511680912" lon="11.486966232468525"><ele>372.0</ele><time>2026-04-23T09:17:20Z</time></trkpt><trkpt lat="43.79604296938777" lon="11.487046615554782"><ele>372.0</ele><time>2026-04-23T09:17:21Z</time></trkpt><trkpt lat="43.79597387750316" lon="11.487172671181682"><ele>372.0</ele><time>2026-04-23T09:17:23Z</time></trkpt><trkpt lat="43.79595969504441" lon="11.487260646487453"><ele>372.0</ele><time>2026-04-23T09:17:24Z</time></trkpt><trkpt lat="43.79601802445795" lon="11.487393945055894"><ele>372.0</ele><time>2026-04-23T09:17:26Z</time></trkpt><trkpt lat="43.79607358270138" lon="11.487446065956425"><ele>372.0</ele><time>2026-04-23T09:17:27Z</time></trkpt><trkpt lat="43.796141457854695" lon="11.487450016862152"><ele>373.6666666666667</ele><time>2026-04-23T09:17:28Z</time></trkpt><trkpt lat="43.79621767477008" lon="11.487425984581522"><ele>375.3333333333333</ele><time>2026-04-23T09:17:29Z</time></trkpt><trkpt lat="43.79629548715909" lon="11.487372525008322"><ele>377.0</ele><time>2026-04-23T09:17:30Z</time></trkpt><trkpt lat="43.796370563670315" lon="11.4873425491452"><ele>378.66666666666663</ele><time>2026-04-23T09:17:31Z</time></trkpt><trkpt lat="43.79643664296494" lon="11.487316496051763"><ele>380.3333333333333</ele><time>2026-04-23T09:17:32Z</time></trkpt><trkpt lat="43.7964896839043" lon="11.487253503119247"><ele>382.0</ele><time>2026-04-23T09:17:33Z</time></trkpt><trkpt lat="43.796563266942684" lon="11.487209811748741"><ele>382.0</ele><time>2026-04-23T09:17:34Z</time></trkpt><trkpt lat="43.796633918009825" lon="11.487150869432933"><ele>382.0</ele><time>2026-04-23T09:17:35Z</time></trkpt><trkpt lat="43.796714247058034" lon="11.487078752882587"><ele>382.0</ele><time>2026-04-23T09:17:36Z</time></trkpt><trkpt lat="43.79678791115131" lon="11.487001568161238"><ele>382.0</ele><time>2026-04-23T09:17:37Z</time></trkpt><trkpt lat="43.79686585896503" lon="11.486912473147903"><ele>382.0</ele><time>2026-04-23T09:17:38Z</time></trkpt><trkpt lat="43.79694399996434" lon="11.48681315242088"><ele>383.20000000000005</ele><time>2026-04-23T09:17:39Z</time></trkpt><trkpt lat="43.797033943094235" lon="11.486738344735803"><ele>384.4</ele><time>2026-04-23T09:17:40Z</time></trkpt><trkpt lat="43.79709077300486" lon="11.486612938262123"><ele>385.6</ele><time>2026-04-23T09:17:41Z</time></trkpt><trkpt lat="43.79715134983597" lon="11.486486597422768"><ele>386.79999999999995</ele><time>2026-04-23T09:17:42Z</time></trkpt><trkpt lat="43.797209916709235" lon="11.486359468068292"><ele>388.0</ele><time>2026-04-23T09:17:43Z</time></trkpt><trkpt lat="43.79725787199918" lon="11.486251565251155"><ele>388.0</ele><time>2026-04-23T09:17:44Z</time></trkpt><trkpt lat="43.79733324504594" lon="11.48614692318915"><ele>388.0</ele><time>2026-04-23T09:17:45Z</time></trkpt><trkpt lat="43.79739340710138" lon="11.486069740872145"><ele>388.0</ele><time>2026-04-23T09:17:46Z</time></trkpt><trkpt lat="43.79746574969773" lon="11.486014614562073"><ele>388.0</ele><time>2026-04-23T09:17:47Z</time></trkpt><trkpt lat="43.79753462651513" lon="11.485928874850124"><ele>388.0</ele><time>2026-04-23T09:17:48Z</time></trkpt><trkpt lat="43.79760781060377" lon="11.485851433635332"><ele>388.00000000000006</ele><time>2026-04-23T09:17:49Z</time></trkpt><trkpt lat="43.797665259194076" lon="11.485775584574135"><ele>388.0</ele><time>2026-04-23T09:17:50Z</time></trkpt><trkpt lat="43.79770955800837" lon="11.485684559363676"><ele>388.0</ele><time>2026-04-23T09:17:51Z</time></trkpt><trkpt lat="43.79773993677942" lon="11.485589587017815"><ele>388.0</ele><time>2026-04-23T09:17:52Z</time></trkpt><trkpt lat="43.797782380198484" lon="11.485479503722852"><ele>388.00000000000006</ele><time>2026-04-23T09:17:53Z</time></trkpt><trkpt lat="43.79781196985332" lon="11.485378713018418"><ele>388.0</ele><time>2026-04-23T09:17:54Z</time></trkpt><trkpt lat="43.79784389802407" lon="11.485290184044738"><ele>389.2</ele><time>2026-04-23T09:17:55Z</time></trkpt><trkpt lat="43.797906178356264" lon="11.485122842078507"><ele>390.4</ele><time>2026-04-23T09:17:57Z</time></trkpt><trkpt lat="43.79795676329264" lon="11.48505336264946"><ele>391.59999999999997</ele><time>2026-04-23T09:17:58Z</time></trkpt><trkpt lat="43.798031000017815" lon="11.484969070968651"><ele>392.79999999999995</ele><time>2026-04-23T09:18:00Z</time></trkpt><trkpt lat="43.79810981163614" lon="11.484950142090868"><ele>394.0</ele><time>2026-04-23T09:18:02Z</time></trkpt><trkpt lat="43.798220901486786" lon="11.484984780596312"><ele>394.00000000000006</ele><time>2026-04-23T09:18:04Z</time></trkpt><trkpt lat="43.79829172574944" lon="11.485027895190871"><ele>394.0</ele><time>2026-04-23T09:18:05Z</time></trkpt><trkpt lat="43.798206294667025" lon="11.485004498168971"><ele>394.0</ele><time>2026-04-23T09:18:44.999Z</time></trkpt><trkpt lat="43.79813806772252" lon="11.484992948105251"><ele>394.0</ele><time>2026-04-23T09:18:46.999Z</time></trkpt><trkpt lat="43.7980650715357" lon="11.48498798287781"><ele>394.00000000000006</ele><time>2026-04-23T09:18:48.999Z</time></trkpt><trkpt lat="43.79798018216396" lon="11.485014833357228"><ele>394.0</ele><time>2026-04-23T09:18:50.999Z</time></trkpt><trkpt lat="43.79790690983114" lon="11.485071566697282"><ele>394.0</ele><time>2026-04-23T09:18:52.999Z</time></trkpt><trkpt lat="43.79785797207172" lon="11.485142706646661"><ele>394.0</ele><time>2026-04-23T09:18:54.999Z</time></trkpt><trkpt lat="43.797805715670634" lon="11.485240811760839"><ele>394.0</ele><time>2026-04-23T09:18:56.999Z</time></trkpt><trkpt lat="43.797765237732676" lon="11.485390795146262"><ele>394.0</ele><time>2026-04-23T09:18:58.999Z</time></trkpt><trkpt lat="43.79774555675353" lon="11.485485108742807"><ele>394.0</ele><time>2026-04-23T09:18:59.999Z</time></trkpt><trkpt lat="43.79770697618884" lon="11.485622951067029"><ele>393.14285714285717</ele><time>2026-04-23T09:19:01.999Z</time></trkpt><trkpt lat="43.79766647755169" lon="11.4857067565288"><ele>392.28571428571433</ele><time>2026-04-23T09:19:02.999Z</time></trkpt><trkpt lat="43.797627270417195" lon="11.485800798778026"><ele>391.42857142857144</ele><time>2026-04-23T09:19:03.999Z</time></trkpt><trkpt lat="43.79757927420345" lon="11.485867903341806"><ele>390.57142857142856</ele><time>2026-04-23T09:19:04.999Z</time></trkpt><trkpt lat="43.797520979267645" lon="11.485921849008086"><ele>389.7142857142857</ele><time>2026-04-23T09:19:05.999Z</time></trkpt><trkpt lat="43.79745874027088" lon="11.48598667913841"><ele>388.85714285714283</ele><time>2026-04-23T09:19:06.999Z</time></trkpt><trkpt lat="43.797400412271934" lon="11.486033940412788"><ele>388.0</ele><time>2026-04-23T09:19:07.999Z</time></trkpt><trkpt lat="43.79735324037535" lon="11.4861062892719"><ele>388.00000000000006</ele><time>2026-04-23T09:19:08.999Z</time></trkpt><trkpt lat="43.79729875300143" lon="11.48619234637095"><ele>388.0</ele><time>2026-04-23T09:19:09.999Z</time></trkpt><trkpt lat="43.797249829156705" lon="11.486266472512822"><ele>388.0</ele><time>2026-04-23T09:19:10.999Z</time></trkpt><trkpt lat="43.797213682671085" lon="11.486348864343494"><ele>388.0</ele><time>2026-04-23T09:19:11.999Z</time></trkpt><trkpt lat="43.79716872756625" lon="11.486439560466396"><ele>388.00000000000006</ele><time>2026-04-23T09:19:12.999Z</time></trkpt><trkpt lat="43.79712098301697" lon="11.486525362437392"><ele>388.0</ele><time>2026-04-23T09:19:13.999Z</time></trkpt><trkpt lat="43.79707010696782" lon="11.486604184571975"><ele>389.50000000000006</ele><time>2026-04-23T09:19:14.999Z</time></trkpt><trkpt lat="43.797030987344336" lon="11.486675242540457"><ele>391.0</ele><time>2026-04-23T09:19:15.999Z</time></trkpt><trkpt lat="43.79698179862451" lon="11.486757164064269"><ele>392.5</ele><time>2026-04-23T09:19:16.999Z</time></trkpt><trkpt lat="43.79691613327214" lon="11.486819256566326"><ele>394.0</ele><time>2026-04-23T09:19:17.999Z</time></trkpt><trkpt lat="43.796854303003165" lon="11.486905599657328"><ele>395.50000000000006</ele><time>2026-04-23T09:19:18.999Z</time></trkpt><trkpt lat="43.796783519684986" lon="11.486986966309123"><ele>397.0</ele><time>2026-04-23T09:19:19.999Z</time></trkpt><trkpt lat="43.79671574720857" lon="11.487058913009399"><ele>394.50000000000006</ele><time>2026-04-23T09:19:21Z</time></trkpt><trkpt lat="43.796663907757285" lon="11.487134197334619"><ele>392.0</ele><time>2026-04-23T09:19:22Z</time></trkpt><trkpt lat="43.79660637583612" lon="11.4871933913333"><ele>389.5</ele><time>2026-04-23T09:19:23Z</time></trkpt><trkpt lat="43.79653799520845" lon="11.487238290772458"><ele>387.0</ele><time>2026-04-23T09:19:24Z</time></trkpt><trkpt lat="43.79647534243427" lon="11.487274496843257"><ele>384.5</ele><time>2026-04-23T09:19:25Z</time></trkpt><trkpt lat="43.79641406141022" lon="11.48731079834129"><ele>382.0</ele><time>2026-04-23T09:19:26Z</time></trkpt><trkpt lat="43.796311471948655" lon="11.487379631335463"><ele>382.0</ele><time>2026-04-23T09:19:28Z</time></trkpt><trkpt lat="43.79621023832043" lon="11.487415845632839"><ele>382.0</ele><time>2026-04-23T09:19:30Z</time></trkpt><trkpt lat="43.79610653982351" lon="11.48743650693645"><ele>382.0</ele><time>2026-04-23T09:19:32Z</time></trkpt><trkpt lat="43.796012120737636" lon="11.487382455503955"><ele>382.0</ele><time>2026-04-23T09:19:34Z</time></trkpt><trkpt lat="43.79597161695221" lon="11.487245127752896"><ele>382.0</ele><time>2026-04-23T09:19:36Z</time></trkpt><trkpt lat="43.79600637167637" lon="11.487114014534715"><ele>380.0</ele><time>2026-04-23T09:19:38Z</time></trkpt><trkpt lat="43.7960471325954" lon="11.487045541077809"><ele>378.0</ele><time>2026-04-23T09:19:39Z</time></trkpt><trkpt lat="43.7961479862471" lon="11.486950248871306"><ele>376.0</ele><time>2026-04-23T09:19:41Z</time></trkpt><trkpt lat="43.796244365481044" lon="11.486875703154956"><ele>374.0</ele><time>2026-04-23T09:19:43Z</time></trkpt><trkpt lat="43.79630343653697" lon="11.486798118419408"><ele>372.0</ele><time>2026-04-23T09:19:45Z</time></trkpt><trkpt lat="43.796316660133584" lon="11.486691159498383"><ele>372.0</ele><time>2026-04-23T09:19:47Z</time></trkpt><trkpt lat="43.79630175902479" lon="11.486571542865441"><ele>372.0</ele><time>2026-04-23T09:19:49Z</time></trkpt><trkpt lat="43.7962339639124" lon="11.48648190827728"><ele>372.0</ele><time>2026-04-23T09:19:51Z</time></trkpt><trkpt lat="43.796169456894205" lon="11.486501724652593"><ele>372.0</ele><time>2026-04-23T09:19:53Z</time></trkpt><trkpt lat="43.79608799172046" lon="11.486533811810506"><ele>372.0</ele><time>2026-04-23T09:19:55Z</time></trkpt><trkpt lat="43.79598853454405" lon="11.486570630959983"><ele>372.0</ele><time>2026-04-23T09:19:57Z</time></trkpt><trkpt lat="43.7959059764966" lon="11.486608630035262"><ele>372.0</ele><time>2026-04-23T09:19:59Z</time></trkpt><trkpt lat="43.7958457330908" lon="11.48656807256717"><ele>372.0</ele><time>2026-04-23T09:20:02Z</time></trkpt><trkpt lat="43.79587883557228" lon="11.486474400874481"><ele>372.0</ele><time>2026-04-23T09:20:05Z</time></trkpt><trkpt lat="43.795966526052695" lon="11.486379207702091"><ele>372.0</ele><time>2026-04-23T09:20:11.999Z</time></trkpt><trkpt lat="43.796028864638174" lon="11.48629138030985"><ele>372.0</ele><time>2026-04-23T09:20:12.999Z</time></trkpt><trkpt lat="43.796086045385124" lon="11.486187293344592"><ele>372.0</ele><time>2026-04-23T09:20:13.999Z</time></trkpt><trkpt lat="43.79617109496284" lon="11.486050415019996"><ele>371.40000000000003</ele><time>2026-04-23T09:20:14.999Z</time></trkpt><trkpt lat="43.79623674680227" lon="11.485922517636977"><ele>370.8</ele><time>2026-04-23T09:20:15.999Z</time></trkpt><trkpt lat="43.79625130300349" lon="11.485828771292661"><ele>370.2</ele><time>2026-04-23T09:20:16.999Z</time></trkpt><trkpt lat="43.79628806759965" lon="11.485748909596417"><ele>369.6</ele><time>2026-04-23T09:20:17.999Z</time></trkpt><trkpt lat="43.796338655522625" lon="11.485585233546452"><ele>369.0</ele><time>2026-04-23T09:20:19.999Z</time></trkpt><trkpt lat="43.796376718802925" lon="11.485459913899865"><ele>367.0</ele><time>2026-04-23T09:20:21.999Z</time></trkpt><trkpt lat="43.7964123287631" lon="11.48537301856373"><ele>365.0</ele><time>2026-04-23T09:20:23.999Z</time></trkpt><trkpt lat="43.796544711772135" lon="11.485296451389074"><ele>363.0</ele><time>2026-04-23T09:20:25.999Z</time></trkpt><trkpt lat="43.7966282678023" lon="11.485266200627997"><ele>361.0</ele><time>2026-04-23T09:20:26.999Z</time></trkpt><trkpt lat="43.79670807102569" lon="11.485230682272647"><ele>359.0</ele><time>2026-04-23T09:20:27.999Z</time></trkpt><trkpt lat="43.79677563749221" lon="11.485183197790423"><ele>363.2</ele><time>2026-04-23T09:20:28.999Z</time></trkpt><trkpt lat="43.796856167080286" lon="11.485078960190794"><ele>367.4</ele><time>2026-04-23T09:20:30.999Z</time></trkpt><trkpt lat="43.79692294902209" lon="11.485005484364484"><ele>371.6</ele><time>2026-04-23T09:20:32.999Z</time></trkpt><trkpt lat="43.7969933896127" lon="11.484983966690821"><ele>375.8</ele><time>2026-04-23T09:20:36.999Z</time></trkpt><trkpt lat="43.79709580825079" lon="11.484962706197813"><ele>380.0</ele><time>2026-04-23T09:20:40.999Z</time></trkpt><trkpt lat="43.79715396600779" lon="11.484869940201294"><ele>380.0</ele><time>2026-04-23T09:20:42.999Z</time></trkpt><trkpt lat="43.79718763881852" lon="11.484750223028689"><ele>380.0</ele><time>2026-04-23T09:20:44.999Z</time></trkpt><trkpt lat="43.79721273026507" lon="11.484606899868385"><ele>380.0</ele><time>2026-04-23T09:20:46.999Z</time></trkpt><trkpt lat="43.79721647665986" lon="11.484499926138916"><ele>380.0</ele><time>2026-04-23T09:20:48.999Z</time></trkpt><trkpt lat="43.79722156826591" lon="11.48440314478892"><ele>380.0</ele><time>2026-04-23T09:20:49.999Z</time></trkpt><trkpt lat="43.79723215986115" lon="11.484287744421145"><ele>380.0</ele><time>2026-04-23T09:20:50.999Z</time></trkpt><trkpt lat="43.79725860947321" lon="11.484155563251539"><ele>378.6</ele><time>2026-04-23T09:20:51.999Z</time></trkpt><trkpt lat="43.79726934568779" lon="11.484033885670842"><ele>377.2</ele><time>2026-04-23T09:20:52.999Z</time></trkpt><trkpt lat="43.79729366453692" lon="11.483885992865087"><ele>375.79999999999995</ele><time>2026-04-23T09:20:54.999Z</time></trkpt><trkpt lat="43.79733958084883" lon="11.483815080111578"><ele>374.4</ele><time>2026-04-23T09:20:56.999Z</time></trkpt><trkpt lat="43.79743950030307" lon="11.483761494040495"><ele>373.0</ele><time>2026-04-23T09:20:59.999Z</time></trkpt><trkpt lat="43.79755998597238" lon="11.483688212086488"><ele>372.59999999999997</ele><time>2026-04-23T09:21:01.999Z</time></trkpt><trkpt lat="43.797639335033075" lon="11.483636977203302"><ele>372.2</ele><time>2026-04-23T09:21:02.999Z</time></trkpt><trkpt lat="43.797728632436815" lon="11.483584022870064"><ele>371.8</ele><time>2026-04-23T09:21:03.999Z</time></trkpt><trkpt lat="43.79783037166321" lon="11.483556122503424"><ele>371.4</ele><time>2026-04-23T09:21:05.999Z</time></trkpt><trkpt lat="43.79790845842983" lon="11.483578832937901"><ele>371.0</ele><time>2026-04-23T09:21:07.999Z</time></trkpt><trkpt lat="43.79800059143342" lon="11.483651323040716"><ele>371.0</ele><time>2026-04-23T09:21:38Z</time></trkpt><trkpt lat="43.79814266615003" lon="11.483741660844524"><ele>371.0</ele><time>2026-04-23T09:21:40Z</time></trkpt><trkpt lat="43.79823944989479" lon="11.483787196805217"><ele>371.0</ele><time>2026-04-23T09:21:41Z</time></trkpt><trkpt lat="43.79834969754803" lon="11.483850041668129"><ele>371.0</ele><time>2026-04-23T09:21:43Z</time></trkpt><trkpt lat="43.79841506100498" lon="11.483881120921954"><ele>371.0</ele><time>2026-04-23T09:21:44Z</time></trkpt><trkpt lat="43.79852296845349" lon="11.483942138405217"><ele>370.8</ele><time>2026-04-23T09:21:46Z</time></trkpt><trkpt lat="43.79865349117187" lon="11.484004475920418"><ele>370.6</ele><time>2026-04-23T09:21:48Z</time></trkpt><trkpt lat="43.79876124410531" lon="11.484069936332455"><ele>370.4</ele><time>2026-04-23T09:21:50Z</time></trkpt><trkpt lat="43.79883644904163" lon="11.484150252310878"><ele>370.2</ele><time>2026-04-23T09:21:52Z</time></trkpt><trkpt lat="43.79890806412212" lon="11.484183759383072"><ele>370.0</ele><time>2026-04-23T09:21:54Z</time></trkpt><trkpt lat="43.79900752493144" lon="11.484260561522424"><ele>370.0</ele><time>2026-04-23T09:21:56Z</time></trkpt><trkpt lat="43.79907640860733" lon="11.484311327121832"><ele>370.0</ele><time>2026-04-23T09:21:58Z</time></trkpt><trkpt lat="43.79915128411559" lon="11.484381901394885"><ele>370.0</ele><time>2026-04-23T09:22:01Z</time></trkpt><trkpt lat="43.799193069406485" lon="11.48446748090325"><ele>370.0</ele><time>2026-04-23T09:22:03Z</time></trkpt><trkpt lat="43.79923519144507" lon="11.484554396709376"><ele>370.0</ele><time>2026-04-23T09:22:05Z</time></trkpt><trkpt lat="43.799325964940124" lon="11.484619571560188"><ele>370.0</ele><time>2026-04-23T09:22:08Z</time></trkpt><trkpt lat="43.79942041934503" lon="11.484642680467188"><ele>371.8333333333333</ele><time>2026-04-23T09:22:10Z</time></trkpt><trkpt lat="43.79950085380182" lon="11.484687787416831"><ele>373.66666666666663</ele><time>2026-04-23T09:22:12Z</time></trkpt><trkpt lat="43.79959679011134" lon="11.484715075893462"><ele>375.5</ele><time>2026-04-23T09:22:14Z</time></trkpt><trkpt lat="43.799700849602644" lon="11.484754169561183"><ele>377.3333333333333</ele><time>2026-04-23T09:22:16Z</time></trkpt><trkpt lat="43.7997584468921" lon="11.484794556372597"><ele>379.1666666666667</ele><time>2026-04-23T09:22:18Z</time></trkpt><trkpt lat="43.7998441493919" lon="11.484760714710118"><ele>381.0</ele><time>2026-04-23T09:22:20Z</time></trkpt><trkpt lat="43.79991320786687" lon="11.484704068519683"><ele>381.0</ele><time>2026-04-23T09:22:22Z</time></trkpt><trkpt lat="43.799991715967714" lon="11.484613122686756"><ele>381.0</ele><time>2026-04-23T09:22:25Z</time></trkpt><trkpt lat="43.80005417702933" lon="11.48453678859867"><ele>381.0</ele><time>2026-04-23T09:22:27Z</time></trkpt><trkpt lat="43.80009466253138" lon="11.484410553269237"><ele>381.0</ele><time>2026-04-23T09:22:29Z</time></trkpt><trkpt lat="43.8001033444441" lon="11.484318510617427"><ele>381.0</ele><time>2026-04-23T09:22:31Z</time></trkpt><trkpt lat="43.80015033068848" lon="11.48416810690372"><ele>379.1666666666667</ele><time>2026-04-23T09:22:33Z</time></trkpt><trkpt lat="43.80018385975196" lon="11.484088463961482"><ele>377.3333333333333</ele><time>2026-04-23T09:22:34Z</time></trkpt><trkpt lat="43.80022682654633" lon="11.483986731114465"><ele>375.5</ele><time>2026-04-23T09:22:36Z</time></trkpt><trkpt lat="43.800259838391796" lon="11.483872014964179"><ele>373.66666666666663</ele><time>2026-04-23T09:22:39Z</time></trkpt><trkpt lat="43.80033300387906" lon="11.483758946845505"><ele>371.8333333333333</ele><time>2026-04-23T09:23:05Z</time></trkpt><trkpt lat="43.80040652204819" lon="11.483676681074215"><ele>370.0</ele><time>2026-04-23T09:23:07.999Z</time></trkpt><trkpt lat="43.800454547530016" lon="11.48359871494446"><ele>368.0</ele><time>2026-04-23T09:23:09.999Z</time></trkpt><trkpt lat="43.800508293972335" lon="11.483549376606334"><ele>366.0</ele><time>2026-04-23T09:23:10.999Z</time></trkpt><trkpt lat="43.80056343124" lon="11.483483274331668"><ele>364.0</ele><time>2026-04-23T09:23:11.999Z</time></trkpt><trkpt lat="43.80065119354989" lon="11.483444583283887"><ele>362.0</ele><time>2026-04-23T09:23:13.999Z</time></trkpt><trkpt lat="43.80075131450465" lon="11.483468729967782"><ele>360.0</ele><time>2026-04-23T09:23:15.999Z</time></trkpt><trkpt lat="43.80083769340734" lon="11.48348789711989"><ele>358.0</ele><time>2026-04-23T09:23:17.999Z</time></trkpt><trkpt lat="43.800917032122015" lon="11.483488423007472"><ele>358.0</ele><time>2026-04-23T09:23:19.999Z</time></trkpt><trkpt lat="43.80100486763357" lon="11.483496670451553"><ele>358.0</ele><time>2026-04-23T09:33:08Z</time></trkpt><trkpt lat="43.80106034052097" lon="11.483546019519794"><ele>358.0</ele><time>2026-04-23T09:35:44Z</time></trkpt><trkpt lat="43.80112660383629" lon="11.483566272202154"><ele>358.0</ele><time>2026-04-23T09:35:46Z</time></trkpt><trkpt lat="43.80119908359091" lon="11.483636443775016"><ele>358.0</ele><time>2026-04-23T09:35:57.999Z</time></trkpt><trkpt lat="43.80127681228606" lon="11.483737124066415"><ele>358.0</ele><time>2026-04-23T09:35:59.999Z</time></trkpt><trkpt lat="43.8013568791656" lon="11.483822115915071"><ele>358.3333333333333</ele><time>2026-04-23T09:36:01.999Z</time></trkpt><trkpt lat="43.80140820963269" lon="11.483890321951431"><ele>358.66666666666663</ele><time>2026-04-23T09:36:03.999Z</time></trkpt><trkpt lat="43.801447484919436" lon="11.483964847615837"><ele>359.0</ele><time>2026-04-23T09:36:16Z</time></trkpt><trkpt lat="43.80149321486918" lon="11.484053043022467"><ele>359.3333333333333</ele><time>2026-04-23T09:36:20Z</time></trkpt><trkpt lat="43.80152925173097" lon="11.484196701259014"><ele>359.6666666666667</ele><time>2026-04-23T09:36:23Z</time></trkpt><trkpt lat="43.801554601963694" lon="11.484306019761874"><ele>360.0</ele><time>2026-04-23T09:36:25Z</time></trkpt><trkpt lat="43.801583425892716" lon="11.484390548951124"><ele>360.0</ele><time>2026-04-23T09:36:35Z</time></trkpt><trkpt lat="43.80158083709917" lon="11.484512425943864"><ele>360.0</ele><time>2026-04-23T09:36:37Z</time></trkpt><trkpt lat="43.80155435032259" lon="11.484700909356338"><ele>360.0</ele><time>2026-04-23T09:36:39Z</time></trkpt><trkpt lat="43.8015282767828" lon="11.48479144750416"><ele>360.0</ele><time>2026-04-23T09:36:40Z</time></trkpt><trkpt lat="43.80148714978139" lon="11.484916371616714"><ele>360.0</ele><time>2026-04-23T09:36:42Z</time></trkpt><trkpt lat="43.801471133517424" lon="11.485047538816723"><ele>359.5</ele><time>2026-04-23T09:36:45Z</time></trkpt><trkpt lat="43.80146902728182" lon="11.485169961022429"><ele>359.0</ele><time>2026-04-23T09:36:47Z</time></trkpt><trkpt lat="43.801480618977784" lon="11.485260953792086"><ele>358.5</ele><time>2026-04-23T09:37:11Z</time></trkpt><trkpt lat="43.80150090648873" lon="11.485167314195019"><ele>358.0</ele><time>2026-04-23T09:37:37.999Z</time></trkpt><trkpt lat="43.801484931331665" lon="11.485059906069415"><ele>357.5</ele><time>2026-04-23T09:37:39.999Z</time></trkpt><trkpt lat="43.801506041007" lon="11.48493544336531"><ele>357.0</ele><time>2026-04-23T09:37:42.999Z</time></trkpt><trkpt lat="43.80151352947698" lon="11.484843731958298"><ele>357.0</ele><time>2026-04-23T09:37:44.999Z</time></trkpt><trkpt lat="43.80154676307732" lon="11.484727196465215"><ele>357.0</ele><time>2026-04-23T09:37:46.999Z</time></trkpt><trkpt lat="43.80158027374171" lon="11.484602112063726"><ele>357.0</ele><time>2026-04-23T09:37:48.999Z</time></trkpt><trkpt lat="43.80158712859937" lon="11.484497565170242"><ele>357.0</ele><time>2026-04-23T09:37:50.999Z</time></trkpt><trkpt lat="43.8015940810996" lon="11.484408327613345"><ele>357.0</ele><time>2026-04-23T09:37:52.999Z</time></trkpt><trkpt lat="43.80157203063921" lon="11.484304225085758"><ele>357.0</ele><time>2026-04-23T09:38:03.999Z</time></trkpt><trkpt lat="43.80154175350448" lon="11.484191951209075"><ele>357.1666666666667</ele><time>2026-04-23T09:38:05.999Z</time></trkpt><trkpt lat="43.801509677013414" lon="11.484101792413613"><ele>357.3333333333333</ele><time>2026-04-23T09:38:09.999Z</time></trkpt><trkpt lat="43.80147028238957" lon="11.483997283061885"><ele>357.5</ele><time>2026-04-23T09:38:11.999Z</time></trkpt><trkpt lat="43.80140956821491" lon="11.483923933905874"><ele>357.66666666666663</ele><time>2026-04-23T09:38:16.999Z</time></trkpt><trkpt lat="43.801359644213115" lon="11.483813380319823"><ele>357.8333333333333</ele><time>2026-04-23T09:38:19.999Z</time></trkpt><trkpt lat="43.801269304162965" lon="11.483732021413669"><ele>358.0</ele><time>2026-04-23T09:38:22.999Z</time></trkpt><trkpt lat="43.80121659309895" lon="11.48365946009741"><ele>358.0</ele><time>2026-04-23T09:38:25.999Z</time></trkpt><trkpt lat="43.80116918809441" lon="11.48358134497477"><ele>358.0</ele><time>2026-04-23T09:38:28.999Z</time></trkpt><trkpt lat="43.80109518307765" lon="11.483539099341403"><ele>358.0</ele><time>2026-04-23T09:38:31.999Z</time></trkpt><trkpt lat="43.801179948314115" lon="11.483563344146816"><ele>358.0</ele><time>2026-04-23T09:38:54.999Z</time></trkpt><trkpt lat="43.801228830735965" lon="11.483497184870773"><ele>358.0</ele><time>2026-04-23T09:38:56.999Z</time></trkpt><trkpt lat="43.801299714716116" lon="11.483427383628088"><ele>358.0</ele><time>2026-04-23T09:38:58.999Z</time></trkpt><trkpt lat="43.8013745947922" lon="11.48339551233276"><ele>358.0</ele><time>2026-04-23T09:39:01.999Z</time></trkpt><trkpt lat="43.80143901338213" lon="11.483367871201294"><ele>358.0</ele><time>2026-04-23T09:39:04.999Z</time></trkpt><trkpt lat="43.80151473400861" lon="11.483335145547265"><ele>358.0</ele><time>2026-04-23T09:39:06.999Z</time></trkpt><trkpt lat="43.80159427366798" lon="11.483283525331442"><ele>358.0</ele><time>2026-04-23T09:39:08.999Z</time></trkpt><trkpt lat="43.80167477554141" lon="11.483227606300579"><ele>358.0</ele><time>2026-04-23T09:39:11.999Z</time></trkpt><trkpt lat="43.80173541149993" lon="11.483173849334628"><ele>358.0</ele><time>2026-04-23T09:39:13.999Z</time></trkpt><trkpt lat="43.801808229977524" lon="11.483139912309252"><ele>355.79999999999995</ele><time>2026-04-23T09:39:16.999Z</time></trkpt><trkpt lat="43.801860882187746" lon="11.483052847448025"><ele>353.6</ele><time>2026-04-23T09:39:37.999Z</time></trkpt><trkpt lat="43.80187149556834" lon="11.482948170785654"><ele>351.4</ele><time>2026-04-23T09:39:40.999Z</time></trkpt><trkpt lat="43.80189542511885" lon="11.482828881960321"><ele>349.20000000000005</ele><time>2026-04-23T09:39:53.999Z</time></trkpt><trkpt lat="43.80191841447765" lon="11.482723362746539"><ele>347.0</ele><time>2026-04-23T09:39:55.999Z</time></trkpt><trkpt lat="43.80199804888071" lon="11.482551533510293"><ele>346.42857142857144</ele><time>2026-04-23T09:39:58.999Z</time></trkpt><trkpt lat="43.80203867331556" lon="11.482477228232199"><ele>345.85714285714283</ele><time>2026-04-23T09:40:00.999Z</time></trkpt><trkpt lat="43.80208611243259" lon="11.482396318375889"><ele>345.2857142857143</ele><time>2026-04-23T09:40:03.999Z</time></trkpt><trkpt lat="43.80212512516651" lon="11.482314992325035"><ele>344.7142857142857</ele><time>2026-04-23T09:40:06.999Z</time></trkpt><trkpt lat="43.80216942341386" lon="11.482251024334436"><ele>344.1428571428571</ele><time>2026-04-23T09:40:08.999Z</time></trkpt><trkpt lat="43.802242398622084" lon="11.482249848028559"><ele>343.57142857142856</ele><time>2026-04-23T09:40:10.999Z</time></trkpt><trkpt lat="43.8023255095653" lon="11.482264251143487"><ele>343.0</ele><time>2026-04-23T09:40:12.999Z</time></trkpt><trkpt lat="43.80239700372784" lon="11.482309606499838"><ele>343.0</ele><time>2026-04-23T09:40:14.999Z</time></trkpt><trkpt lat="43.8024622668487" lon="11.48230802109995"><ele>343.0</ele><time>2026-04-23T09:40:16.999Z</time></trkpt><trkpt lat="43.80254443895032" lon="11.482349792678898"><ele>343.0</ele><time>2026-04-23T09:41:57.999Z</time></trkpt><trkpt lat="43.80246586360988" lon="11.482330490593377"><ele>343.0</ele><time>2026-04-23T09:46:50.999Z</time></trkpt><trkpt lat="43.80234814274839" lon="11.482269397639357"><ele>343.0</ele><time>2026-04-23T09:46:52.999Z</time></trkpt><trkpt lat="43.80225895788094" lon="11.482244621576955"><ele>343.0</ele><time>2026-04-23T09:46:53.999Z</time></trkpt><trkpt lat="43.8021694486314" lon="11.482273646435274"><ele>343.0</ele><time>2026-04-23T09:46:55.999Z</time></trkpt><trkpt lat="43.80211130737207" lon="11.482323690276496"><ele>343.0</ele><time>2026-04-23T09:46:57.999Z</time></trkpt><trkpt lat="43.802066965333466" lon="11.482399902883838"><ele>343.0</ele><time>2026-04-23T09:47:00Z</time></trkpt><trkpt lat="43.802027244969054" lon="11.482518534747118"><ele>343.0</ele><time>2026-04-23T09:47:02Z</time></trkpt><trkpt lat="43.80196942074327" lon="11.482617415103821"><ele>343.0</ele><time>2026-04-23T09:47:04Z</time></trkpt><trkpt lat="43.80192819909033" lon="11.482730762774993"><ele>343.0</ele><time>2026-04-23T09:47:06Z</time></trkpt><trkpt lat="43.80188171357949" lon="11.482848932103563"><ele>343.0</ele><time>2026-04-23T09:47:08Z</time></trkpt><trkpt lat="43.8018498275007" lon="11.482928000250181"><ele>343.0</ele><time>2026-04-23T09:47:11Z</time></trkpt><trkpt lat="43.80181997716195" lon="11.483011388059197"><ele>343.0</ele><time>2026-04-23T09:47:30Z</time></trkpt><trkpt lat="43.80179130417764" lon="11.483123600351187"><ele>343.0</ele><time>2026-04-23T09:47:49Z</time></trkpt><trkpt lat="43.80178637127999" lon="11.48325627238645"><ele>343.0</ele><time>2026-04-23T09:47:52Z</time></trkpt><trkpt lat="43.80177453593129" lon="11.48336156791664"><ele>343.0</ele><time>2026-04-23T09:47:56Z</time></trkpt><trkpt lat="43.80178637168353" lon="11.483256705672755"><ele>345.5</ele><time>2026-04-23T09:48:33Z</time></trkpt><trkpt lat="43.80180389598977" lon="11.483167581089415"><ele>348.0</ele><time>2026-04-23T09:48:36Z</time></trkpt><trkpt lat="43.80171333989977" lon="11.483162632625962"><ele>350.5</ele><time>2026-04-23T09:48:46Z</time></trkpt><trkpt lat="43.80166330300278" lon="11.483219362261565"><ele>353.0</ele><time>2026-04-23T09:48:48Z</time></trkpt><trkpt lat="43.801599242780206" lon="11.483266074126094"><ele>355.5</ele><time>2026-04-23T09:48:50Z</time></trkpt><trkpt lat="43.8014987183324" lon="11.483321217414712"><ele>358.0</ele><time>2026-04-23T09:48:52Z</time></trkpt><trkpt lat="43.8013788803715" lon="11.48337649242554"><ele>358.0</ele><time>2026-04-23T09:48:54Z</time></trkpt><trkpt lat="43.80131053037409" lon="11.483405717137472"><ele>358.0</ele><time>2026-04-23T09:48:56Z</time></trkpt><trkpt lat="43.80124799014542" lon="11.483466462516283"><ele>358.0</ele><time>2026-04-23T09:48:58Z</time></trkpt><trkpt lat="43.80118440689801" lon="11.483511453500013"><ele>358.0</ele><time>2026-04-23T09:49:00Z</time></trkpt><trkpt lat="43.80111106672237" lon="11.483555691688911"><ele>358.0</ele><time>2026-04-23T09:49:37Z</time></trkpt><trkpt lat="43.801030286609375" lon="11.483535742543836"><ele>358.0</ele><time>2026-04-23T09:49:40Z</time></trkpt><trkpt lat="43.80096673604911" lon="11.483479813469971"><ele>358.0</ele><time>2026-04-23T09:51:42Z</time></trkpt><trkpt lat="43.800750916775755" lon="11.48346094792745"><ele>358.0</ele><time>2026-04-23T09:54:04Z</time></trkpt><trkpt lat="43.80063811972205" lon="11.48343885757628"><ele>358.0</ele><time>2026-04-23T09:54:06Z</time></trkpt><trkpt lat="43.80053112904863" lon="11.483490255390791"><ele>358.0</ele><time>2026-04-23T09:54:08Z</time></trkpt><trkpt lat="43.80047074358442" lon="11.48354680222064"><ele>358.0</ele><time>2026-04-23T09:54:09Z</time></trkpt><trkpt lat="43.80041612177095" lon="11.483614564840778"><ele>358.0</ele><time>2026-04-23T09:54:10Z</time></trkpt><trkpt lat="43.80036515275576" lon="11.48369623837295"><ele>358.0</ele><time>2026-04-23T09:54:12Z</time></trkpt><trkpt lat="43.80033438055861" lon="11.48377771981977"><ele>358.0</ele><time>2026-04-23T09:54:14Z</time></trkpt><trkpt lat="43.800275329497545" lon="11.483863987337886"><ele>358.0</ele><time>2026-04-23T09:54:16Z</time></trkpt><trkpt lat="43.80021358452695" lon="11.483941807379573"><ele>358.0</ele><time>2026-04-23T09:54:18Z</time></trkpt><trkpt lat="43.80017712876359" lon="11.484083829974173"><ele>358.66666666666663</ele><time>2026-04-23T09:54:20Z</time></trkpt><trkpt lat="43.800159042544735" lon="11.484174376865024"><ele>359.3333333333333</ele><time>2026-04-23T09:54:21Z</time></trkpt><trkpt lat="43.80012552123885" lon="11.484281263720245"><ele>360.0</ele><time>2026-04-23T09:54:23Z</time></trkpt><trkpt lat="43.80010564585173" lon="11.484423938494373"><ele>360.6666666666667</ele><time>2026-04-23T09:54:25Z</time></trkpt><trkpt lat="43.800079227080644" lon="11.484519856581013"><ele>361.33333333333337</ele><time>2026-04-23T09:54:28Z</time></trkpt><trkpt lat="43.80003503584901" lon="11.484625084527238"><ele>362.0</ele><time>2026-04-23T09:54:30Z</time></trkpt><trkpt lat="43.79997550368201" lon="11.48467674840307"><ele>365.1666666666667</ele><time>2026-04-23T09:54:37Z</time></trkpt><trkpt lat="43.79992141546703" lon="11.484750643160982"><ele>368.33333333333337</ele><time>2026-04-23T09:54:39Z</time></trkpt><trkpt lat="43.79986207583957" lon="11.484788328527271"><ele>371.5</ele><time>2026-04-23T09:54:41Z</time></trkpt><trkpt lat="43.79978798195957" lon="11.484813566071107"><ele>374.6666666666667</ele><time>2026-04-23T09:54:43Z</time></trkpt><trkpt lat="43.7997147119727" lon="11.484777713589635"><ele>377.8333333333333</ele><time>2026-04-23T09:54:44Z</time></trkpt><trkpt lat="43.7996219394767" lon="11.484716364623642"><ele>381.0</ele><time>2026-04-23T09:54:46Z</time></trkpt><trkpt lat="43.79953286698469" lon="11.484663340070039"><ele>381.0</ele><time>2026-04-23T09:54:48Z</time></trkpt><trkpt lat="43.799431670597585" lon="11.484648836084768"><ele>381.0</ele><time>2026-04-23T09:54:50Z</time></trkpt><trkpt lat="43.79933508723181" lon="11.484620783481285"><ele>381.0</ele><time>2026-04-23T09:54:52Z</time></trkpt><trkpt lat="43.799278856385406" lon="11.484581289810116"><ele>381.0</ele><time>2026-04-23T09:54:54Z</time></trkpt><trkpt lat="43.79923188942361" lon="11.484495353553179"><ele>381.0</ele><time>2026-04-23T09:54:56Z</time></trkpt><trkpt lat="43.79917438487518" lon="11.484374414195274"><ele>381.0</ele><time>2026-04-23T09:54:58Z</time></trkpt><trkpt lat="43.7990817202948" lon="11.484297718945887"><ele>378.8</ele><time>2026-04-23T09:54:59.999Z</time></trkpt><trkpt lat="43.79899135630756" lon="11.484254255854198"><ele>376.6</ele><time>2026-04-23T09:55:01.999Z</time></trkpt><trkpt lat="43.79892517899016" lon="11.484205507535707"><ele>374.4</ele><time>2026-04-23T09:55:02.999Z</time></trkpt><trkpt lat="43.798821991937565" lon="11.484119365667883"><ele>372.2</ele><time>2026-04-23T09:55:04.999Z</time></trkpt><trkpt lat="43.7987323012952" lon="11.484054537361335"><ele>370.0</ele><time>2026-04-23T09:55:06.999Z</time></trkpt><trkpt lat="43.79867395121107" lon="11.484008515902497"><ele>370.0</ele><time>2026-04-23T09:55:07.999Z</time></trkpt><trkpt lat="43.79859633354233" lon="11.483953925640435"><ele>370.0</ele><time>2026-04-23T09:55:08.999Z</time></trkpt><trkpt lat="43.798512462234164" lon="11.483920822052216"><ele>370.0</ele><time>2026-04-23T09:55:09.999Z</time></trkpt><trkpt lat="43.798446690229504" lon="11.483897985557787"><ele>370.0</ele><time>2026-04-23T09:55:10.999Z</time></trkpt><trkpt lat="43.7983772993974" lon="11.48386952305298"><ele>370.0</ele><time>2026-04-23T09:55:11.999Z</time></trkpt><trkpt lat="43.798301415272505" lon="11.483813245814085"><ele>370.0</ele><time>2026-04-23T09:55:12.999Z</time></trkpt><trkpt lat="43.798226762056665" lon="11.483778618880534"><ele>370.2</ele><time>2026-04-23T09:55:13.999Z</time></trkpt><trkpt lat="43.79815749104364" lon="11.483742403415333"><ele>370.4</ele><time>2026-04-23T09:55:14.999Z</time></trkpt><trkpt lat="43.798049451234604" lon="11.483684547033736"><ele>370.6</ele><time>2026-04-23T09:55:16.999Z</time></trkpt><trkpt lat="43.797951847667136" lon="11.483634045785047"><ele>370.8</ele><time>2026-04-23T09:55:19Z</time></trkpt><trkpt lat="43.79788580618573" lon="11.483598003937557"><ele>371.0</ele><time>2026-04-23T09:55:22Z</time></trkpt><trkpt lat="43.79774528933314" lon="11.483562648594877"><ele>371.0</ele><time>2026-04-23T09:57:06.998Z</time></trkpt><trkpt lat="43.79768126015357" lon="11.483581339196094"><ele>371.0</ele><time>2026-04-23T09:57:07.998Z</time></trkpt><trkpt lat="43.797594686868834" lon="11.483655379529202"><ele>371.0</ele><time>2026-04-23T09:57:09.998Z</time></trkpt><trkpt lat="43.79752490420327" lon="11.483691272143806"><ele>371.0</ele><time>2026-04-23T09:57:11.998Z</time></trkpt><trkpt lat="43.797451913945515" lon="11.483725105590672"><ele>371.0</ele><time>2026-04-23T09:57:13.998Z</time></trkpt><trkpt lat="43.79735210198248" lon="11.483769737914841"><ele>371.0</ele><time>2026-04-23T09:57:16.998Z</time></trkpt><trkpt lat="43.79729394292667" lon="11.483837478538923"><ele>371.33333333333337</ele><time>2026-04-23T09:57:18.999Z</time></trkpt><trkpt lat="43.797258441598366" lon="11.483948444226137"><ele>371.6666666666667</ele><time>2026-04-23T09:57:20.999Z</time></trkpt><trkpt lat="43.797234099372744" lon="11.484098634191815"><ele>372.0</ele><time>2026-04-23T09:57:22.999Z</time></trkpt><trkpt lat="43.79722883976393" lon="11.484195656944612"><ele>372.3333333333333</ele><time>2026-04-23T09:57:23.999Z</time></trkpt><trkpt lat="43.79721909460901" lon="11.48430039554593"><ele>372.66666666666663</ele><time>2026-04-23T09:57:24.999Z</time></trkpt><trkpt lat="43.79720101104821" lon="11.484396182509284"><ele>373.0</ele><time>2026-04-23T09:57:25.999Z</time></trkpt><trkpt lat="43.79717998181448" lon="11.484547756624302"><ele>374.16666666666663</ele><time>2026-04-23T09:57:27.999Z</time></trkpt><trkpt lat="43.797153526365875" lon="11.484686948591026"><ele>375.3333333333333</ele><time>2026-04-23T09:57:29.999Z</time></trkpt><trkpt lat="43.79713408253539" lon="11.484813568998078"><ele>376.5</ele><time>2026-04-23T09:57:31.999Z</time></trkpt><trkpt lat="43.7971031501055" lon="11.484912248484942"><ele>377.6666666666667</ele><time>2026-04-23T09:57:33.999Z</time></trkpt><trkpt lat="43.797045794460104" lon="11.484976133838284"><ele>378.83333333333337</ele><time>2026-04-23T09:57:35.999Z</time></trkpt><trkpt lat="43.79699262365681" lon="11.485024245429933"><ele>380.0</ele><time>2026-04-23T09:57:38.999Z</time></trkpt><trkpt lat="43.79690576536882" lon="11.485016763417555"><ele>376.5</ele><time>2026-04-23T09:57:42.999Z</time></trkpt><trkpt lat="43.79683595967524" lon="11.485050864022055"><ele>373.0</ele><time>2026-04-23T09:57:44.999Z</time></trkpt><trkpt lat="43.79677325882961" lon="11.485090214958378"><ele>369.5</ele><time>2026-04-23T09:57:46.999Z</time></trkpt><trkpt lat="43.79670412878288" lon="11.48519863060803"><ele>366.0</ele><time>2026-04-23T09:57:48.999Z</time></trkpt><trkpt lat="43.796646613045546" lon="11.485240220699083"><ele>362.5</ele><time>2026-04-23T09:57:49.999Z</time></trkpt><trkpt lat="43.79651936383398" lon="11.48530019902125"><ele>359.0</ele><time>2026-04-23T09:57:52Z</time></trkpt><trkpt lat="43.796459253886944" lon="11.485338760993248"><ele>359.0</ele><time>2026-04-23T09:57:53Z</time></trkpt><trkpt lat="43.796389339320186" lon="11.485392033478421"><ele>359.0</ele><time>2026-04-23T09:57:55Z</time></trkpt><trkpt lat="43.79635046996618" lon="11.48548444912721"><ele>359.0</ele><time>2026-04-23T09:57:57Z</time></trkpt><trkpt lat="43.79632622825461" lon="11.485581415970337"><ele>359.0</ele><time>2026-04-23T09:57:58Z</time></trkpt><trkpt lat="43.7962804029571" lon="11.485670956825738"><ele>359.0</ele><time>2026-04-23T09:57:59Z</time></trkpt><trkpt lat="43.796261566964674" lon="11.485759809947995"><ele>359.0</ele><time>2026-04-23T09:58:00Z</time></trkpt><trkpt lat="43.796230219091086" lon="11.485849499569177"><ele>359.0</ele><time>2026-04-23T09:58:01Z</time></trkpt><trkpt lat="43.796201971121555" lon="11.485936051895827"><ele>359.1666666666667</ele><time>2026-04-23T09:58:02Z</time></trkpt><trkpt lat="43.79615734247911" lon="11.485997624177703"><ele>359.33333333333337</ele><time>2026-04-23T09:58:03Z</time></trkpt><trkpt lat="43.796090834730606" lon="11.486151794181712"><ele>359.5</ele><time>2026-04-23T09:58:05Z</time></trkpt><trkpt lat="43.796039856060176" lon="11.486236592702678"><ele>359.6666666666667</ele><time>2026-04-23T09:58:06Z</time></trkpt><trkpt lat="43.79598113027869" lon="11.486324599351756"><ele>359.8333333333333</ele><time>2026-04-23T09:58:07Z</time></trkpt><trkpt lat="43.795924269579494" lon="11.486406264648755"><ele>360.0</ele><time>2026-04-23T09:58:08Z</time></trkpt><trkpt lat="43.795869706435006" lon="11.486481491739191"><ele>360.0</ele><time>2026-04-23T09:58:09Z</time></trkpt><trkpt lat="43.79581084549872" lon="11.486552372774607"><ele>360.0</ele><time>2026-04-23T09:58:10Z</time></trkpt><trkpt lat="43.795750119868416" lon="11.486614507169598"><ele>360.0</ele><time>2026-04-23T09:58:11Z</time></trkpt><trkpt lat="43.79565218607326" lon="11.486695902629709"><ele>360.0</ele><time>2026-04-23T09:58:13Z</time></trkpt><trkpt lat="43.795587722103136" lon="11.486746449400913"><ele>360.0</ele><time>2026-04-23T09:58:14Z</time></trkpt><trkpt lat="43.79548072133837" lon="11.48679721172537"><ele>360.0</ele><time>2026-04-23T09:58:16Z</time></trkpt><trkpt lat="43.79542855622732" lon="11.48684867517087"><ele>360.0</ele><time>2026-04-23T09:58:17Z</time></trkpt><trkpt lat="43.795370257613115" lon="11.486903039024202"><ele>360.0</ele><time>2026-04-23T09:58:18Z</time></trkpt><trkpt lat="43.79527500702303" lon="11.486922437667628"><ele>360.0</ele><time>2026-04-23T09:58:20Z</time></trkpt><trkpt lat="43.79522143021202" lon="11.486873311799572"><ele>360.0</ele><time>2026-04-23T09:58:21Z</time></trkpt><trkpt lat="43.79513037072719" lon="11.48678731957643"><ele>360.0</ele><time>2026-04-23T09:58:23Z</time></trkpt><trkpt lat="43.79504644332662" lon="11.48673353138647"><ele>359.6</ele><time>2026-04-23T09:58:25Z</time></trkpt><trkpt lat="43.795093271267234" lon="11.486674521486666"><ele>359.2</ele><time>2026-04-23T09:59:31Z</time></trkpt><trkpt lat="43.795023643327866" lon="11.486661741472663"><ele>358.79999999999995</ele><time>2026-04-23T10:06:27.001Z</time></trkpt><trkpt lat="43.79495986001156" lon="11.486761142901189"><ele>358.4</ele><time>2026-04-23T10:07:07.001Z</time></trkpt><trkpt lat="43.79489585851554" lon="11.486891575143323"><ele>358.0</ele><time>2026-04-23T10:07:09.001Z</time></trkpt><trkpt lat="43.79483972742864" lon="11.487024275610793"><ele>357.4</ele><time>2026-04-23T10:07:10.001Z</time></trkpt><trkpt lat="43.79480432073588" lon="11.487179831815927"><ele>356.79999999999995</ele><time>2026-04-23T10:07:11.001Z</time></trkpt><trkpt lat="43.794736585569694" lon="11.487328480727522"><ele>356.2</ele><time>2026-04-23T10:07:12.001Z</time></trkpt><trkpt lat="43.79469810554341" lon="11.487457345542749"><ele>355.6</ele><time>2026-04-23T10:07:13.001Z</time></trkpt><trkpt lat="43.79466741292616" lon="11.487583406898981"><ele>355.0</ele><time>2026-04-23T10:07:14.001Z</time></trkpt><trkpt lat="43.79463184615737" lon="11.487689919423502"><ele>355.0</ele><time>2026-04-23T10:07:15.001Z</time></trkpt><trkpt lat="43.794572431918084" lon="11.487874106209869"><ele>355.0</ele><time>2026-04-23T10:07:17.001Z</time></trkpt><trkpt lat="43.794564614380285" lon="11.487981904387725"><ele>355.0</ele><time>2026-04-23T10:07:18.002Z</time></trkpt><trkpt lat="43.79454189387171" lon="11.488071643258548"><ele>355.0</ele><time>2026-04-23T10:07:19.002Z</time></trkpt><trkpt lat="43.79447932766032" lon="11.488188629729239"><ele>355.0</ele><time>2026-04-23T10:07:21.002Z</time></trkpt><trkpt lat="43.79439282165095" lon="11.488277731137782"><ele>354.8</ele><time>2026-04-23T10:07:22.002Z</time></trkpt><trkpt lat="43.794290518357826" lon="11.48833210121378"><ele>354.6</ele><time>2026-04-23T10:07:23.002Z</time></trkpt><trkpt lat="43.794211828023606" lon="11.488401284189255"><ele>354.4</ele><time>2026-04-23T10:07:24.002Z</time></trkpt><trkpt lat="43.794146493520145" lon="11.488475931040204"><ele>354.2</ele><time>2026-04-23T10:07:25.002Z</time></trkpt><trkpt lat="43.794101986822106" lon="11.488555533099913"><ele>354.0</ele><time>2026-04-23T10:07:26.002Z</time></trkpt><trkpt lat="43.794053305721846" lon="11.488663571623038"><ele>354.0</ele><time>2026-04-23T10:07:28.002Z</time></trkpt><trkpt lat="43.794009220983746" lon="11.488731651186004"><ele>354.0</ele><time>2026-04-23T10:07:33.002Z</time></trkpt><trkpt lat="43.79395702466481" lon="11.488823826646405"><ele>354.0</ele><time>2026-04-23T10:07:47.997Z</time></trkpt><trkpt lat="43.793901326069445" lon="11.488956772098472"><ele>354.0</ele><time>2026-04-23T10:07:50.997Z</time></trkpt><trkpt lat="43.793871185397684" lon="11.4890451702596"><ele>354.0</ele><time>2026-04-23T10:07:51.997Z</time></trkpt><trkpt lat="43.79380407134783" lon="11.489157177385307"><ele>354.0</ele><time>2026-04-23T10:07:52.997Z</time></trkpt><trkpt lat="43.79393346391921" lon="11.489107080121912"><ele>354.3333333333333</ele><time>2026-04-23T10:07:53.997Z</time></trkpt><trkpt lat="43.793891588481955" lon="11.48918236907906"><ele>354.6666666666667</ele><time>2026-04-23T10:07:54.997Z</time></trkpt><trkpt lat="43.79381342573229" lon="11.489293171188677"><ele>355.0</ele><time>2026-04-23T10:07:56.998Z</time></trkpt><trkpt lat="43.79376232157379" lon="11.48935457389416"><ele>355.33333333333337</ele><time>2026-04-23T10:07:57.998Z</time></trkpt><trkpt lat="43.79371916901935" lon="11.489421667397206"><ele>355.6666666666667</ele><time>2026-04-23T10:07:58.998Z</time></trkpt><trkpt lat="43.79365264897655" lon="11.489542242219256"><ele>356.0</ele><time>2026-04-23T10:08:00.998Z</time></trkpt><trkpt lat="43.79361010073502" lon="11.489636039970907"><ele>356.6</ele><time>2026-04-23T10:08:02.998Z</time></trkpt><trkpt lat="43.7935888330136" lon="11.489756989792994"><ele>357.20000000000005</ele><time>2026-04-23T10:08:22.999Z</time></trkpt><trkpt lat="43.793569263359835" lon="11.489889086090702"><ele>357.79999999999995</ele><time>2026-04-23T10:08:23.999Z</time></trkpt><trkpt lat="43.79355504159162" lon="11.490058577753784"><ele>358.4</ele><time>2026-04-23T10:08:24.999Z</time></trkpt><trkpt lat="43.79354648845948" lon="11.49021775881538"><ele>359.0</ele><time>2026-04-23T10:08:25.999Z</time></trkpt><trkpt lat="43.79354176725561" lon="11.490344496397803"><ele>359.14285714285717</ele><time>2026-04-23T10:08:26.999Z</time></trkpt><trkpt lat="43.793533092384614" lon="11.490454939252219"><ele>359.28571428571433</ele><time>2026-04-23T10:08:27.999Z</time></trkpt><trkpt lat="43.793515488312195" lon="11.490546486299717"><ele>359.42857142857144</ele><time>2026-04-23T10:08:28.999Z</time></trkpt><trkpt lat="43.79348859421734" lon="11.49063083683844"><ele>359.57142857142856</ele><time>2026-04-23T10:08:29.999Z</time></trkpt><trkpt lat="43.79344452588249" lon="11.490702997687894"><ele>359.7142857142857</ele><time>2026-04-23T10:08:30.999Z</time></trkpt><trkpt lat="43.79337909663307" lon="11.490764521053514"><ele>359.85714285714283</ele><time>2026-04-23T10:08:31.999Z</time></trkpt><trkpt lat="43.79332086032041" lon="11.49083707565806"><ele>360.0</ele><time>2026-04-23T10:08:32.999Z</time></trkpt><trkpt lat="43.79326220441292" lon="11.490908464859677"><ele>359.5</ele><time>2026-04-23T10:08:33.999Z</time></trkpt><trkpt lat="43.79321251185989" lon="11.490967601782044"><ele>359.0</ele><time>2026-04-23T10:08:34.999Z</time></trkpt><trkpt lat="43.79313677188257" lon="11.491053009188375"><ele>358.5</ele><time>2026-04-23T10:08:36.999Z</time></trkpt><trkpt lat="43.79307458174742" lon="11.491108064211922"><ele>358.0</ele><time>2026-04-23T10:08:39Z</time></trkpt><trkpt lat="43.79300599308244" lon="11.49116139213963"><ele>357.5</ele><time>2026-04-23T10:08:41Z</time></trkpt><trkpt lat="43.792889469964805" lon="11.491217113887707"><ele>357.0</ele><time>2026-04-23T10:08:43Z</time></trkpt><trkpt lat="43.79282815671338" lon="11.491259332871477"><ele>357.0</ele><time>2026-04-23T10:08:44Z</time></trkpt><trkpt lat="43.79275632462039" lon="11.491255025498617"><ele>357.0</ele><time>2026-04-23T10:08:45Z</time></trkpt><trkpt lat="43.79268432128043" lon="11.49127120151548"><ele>357.0</ele><time>2026-04-23T10:08:46Z</time></trkpt><trkpt lat="43.7926162406739" lon="11.491313309043486"><ele>357.0</ele><time>2026-04-23T10:08:47Z</time></trkpt><trkpt lat="43.79254723304881" lon="11.491342615865873"><ele>357.0</ele><time>2026-04-23T10:08:48Z</time></trkpt><trkpt lat="43.792469632480596" lon="11.491374383417135"><ele>357.0</ele><time>2026-04-23T10:08:49Z</time></trkpt><trkpt lat="43.79239663531722" lon="11.491443236409689"><ele>356.8333333333333</ele><time>2026-04-23T10:08:50Z</time></trkpt><trkpt lat="43.792332019759854" lon="11.491520642723263"><ele>356.6666666666667</ele><time>2026-04-23T10:08:51Z</time></trkpt><trkpt lat="43.792277490531085" lon="11.491622107828759"><ele>356.5</ele><time>2026-04-23T10:08:52Z</time></trkpt><trkpt lat="43.79220865789398" lon="11.491703866804016"><ele>356.33333333333337</ele><time>2026-04-23T10:08:53Z</time></trkpt><trkpt lat="43.79214875064593" lon="11.491791392709574"><ele>356.1666666666667</ele><time>2026-04-23T10:08:54Z</time></trkpt><trkpt lat="43.79209122742732" lon="11.491879283739475"><ele>356.0</ele><time>2026-04-23T10:08:55Z</time></trkpt><trkpt lat="43.7920251976523" lon="11.491947877834068"><ele>356.0</ele><time>2026-04-23T10:08:56Z</time></trkpt><trkpt lat="43.791980232041645" lon="11.492014095586727"><ele>356.0</ele><time>2026-04-23T10:08:57Z</time></trkpt><trkpt lat="43.791886480638055" lon="11.492152497478093"><ele>356.0</ele><time>2026-04-23T10:08:59Z</time></trkpt><trkpt lat="43.791828770548406" lon="11.492237692811633"><ele>356.0</ele><time>2026-04-23T10:09:00Z</time></trkpt><trkpt lat="43.79178285427379" lon="11.492309379789964"><ele>356.0</ele><time>2026-04-23T10:09:01Z</time></trkpt><trkpt lat="43.791740802476696" lon="11.492375178667228"><ele>356.0</ele><time>2026-04-23T10:09:02Z</time></trkpt><trkpt lat="43.79165525443526" lon="11.492509037095614"><ele>357.4</ele><time>2026-04-23T10:09:04Z</time></trkpt><trkpt lat="43.79161202878308" lon="11.492572708450522"><ele>358.8</ele><time>2026-04-23T10:09:05Z</time></trkpt><trkpt lat="43.791543374276564" lon="11.492658919161144"><ele>360.2</ele><time>2026-04-23T10:09:07Z</time></trkpt><trkpt lat="43.79145706828389" lon="11.492745576346243"><ele>361.59999999999997</ele><time>2026-04-23T10:09:09Z</time></trkpt><trkpt lat="43.791360189437384" lon="11.492784612950325"><ele>363.0</ele><time>2026-04-23T10:09:11Z</time></trkpt><trkpt lat="43.79126012814925" lon="11.492788149291277"><ele>363.0</ele><time>2026-04-23T10:09:13Z</time></trkpt><trkpt lat="43.79119833838712" lon="11.492743892523954"><ele>363.0</ele><time>2026-04-23T10:09:15Z</time></trkpt><trkpt lat="43.79113764622864" lon="11.492706043580695"><ele>363.0</ele><time>2026-04-23T10:09:16Z</time></trkpt><trkpt lat="43.79109846516435" lon="11.492634798130556"><ele>363.0</ele><time>2026-04-23T10:09:17Z</time></trkpt><trkpt lat="43.79099636429551" lon="11.49251151916185"><ele>363.0</ele><time>2026-04-23T10:09:19Z</time></trkpt><trkpt lat="43.79096578614046" lon="11.492401724313542"><ele>363.0</ele><time>2026-04-23T10:09:20Z</time></trkpt><trkpt lat="43.79091321943106" lon="11.492288862933888"><ele>363.5</ele><time>2026-04-23T10:09:21Z</time></trkpt><trkpt lat="43.79086845632147" lon="11.492214410281884"><ele>364.0</ele><time>2026-04-23T10:09:22.001Z</time></trkpt><trkpt lat="43.79078547693074" lon="11.492157853689548"><ele>364.5</ele><time>2026-04-23T10:09:23.001Z</time></trkpt><trkpt lat="43.79070006916228" lon="11.492097817250984"><ele>365.0</ele><time>2026-04-23T10:09:24.001Z</time></trkpt><trkpt lat="43.79061148984643" lon="11.492057350853473"><ele>365.5</ele><time>2026-04-23T10:09:25.001Z</time></trkpt><trkpt lat="43.790540454455794" lon="11.491975372170797"><ele>366.0</ele><time>2026-04-23T10:09:26.001Z</time></trkpt><trkpt lat="43.79045306573831" lon="11.491905744562272"><ele>366.0</ele><time>2026-04-23T10:09:27.001Z</time></trkpt><trkpt lat="43.79036525716321" lon="11.49183474254701"><ele>366.0</ele><time>2026-04-23T10:09:28.001Z</time></trkpt><trkpt lat="43.7902721543911" lon="11.491759459415757"><ele>366.0</ele><time>2026-04-23T10:09:29.001Z</time></trkpt><trkpt lat="43.790173374775094" lon="11.491679890701397"><ele>366.0</ele><time>2026-04-23T10:09:30.001Z</time></trkpt><trkpt lat="43.7900612240446" lon="11.491614483056711"><ele>366.0</ele><time>2026-04-23T10:09:31.001Z</time></trkpt><trkpt lat="43.789967914190456" lon="11.491528871103608"><ele>367.0</ele><time>2026-04-23T10:09:32.001Z</time></trkpt><trkpt lat="43.78987296213277" lon="11.491452602305072"><ele>368.0</ele><time>2026-04-23T10:09:33.001Z</time></trkpt><trkpt lat="43.78980169363775" lon="11.491380169588686"><ele>369.0</ele><time>2026-04-23T10:09:34.001Z</time></trkpt><trkpt lat="43.789715504314714" lon="11.491324028951"><ele>370.0</ele><time>2026-04-23T10:09:35.001Z</time></trkpt><trkpt lat="43.78963084875208" lon="11.49129947680479"><ele>371.0</ele><time>2026-04-23T10:09:36.001Z</time></trkpt><trkpt lat="43.789549838069" lon="11.491279033775202"><ele>371.0</ele><time>2026-04-23T10:09:37.001Z</time></trkpt><trkpt lat="43.78947105060531" lon="11.491259151251834"><ele>371.0</ele><time>2026-04-23T10:09:38.001Z</time></trkpt><trkpt lat="43.78939546192992" lon="11.491254420956803"><ele>371.0</ele><time>2026-04-23T10:09:39.001Z</time></trkpt><trkpt lat="43.789282468753065" lon="11.491240371101485"><ele>371.0</ele><time>2026-04-23T10:09:40.999Z</time></trkpt><trkpt lat="43.78920092391246" lon="11.49125506812513"><ele>371.0</ele><time>2026-04-23T10:09:41.999Z</time></trkpt><trkpt lat="43.78910993123491" lon="11.491279475604527"><ele>371.0</ele><time>2026-04-23T10:09:42.999Z</time></trkpt><trkpt lat="43.78900641277895" lon="11.491325326098591"><ele>372.5</ele><time>2026-04-23T10:09:43.999Z</time></trkpt><trkpt lat="43.78890572439284" lon="11.491368310260295"><ele>374.0</ele><time>2026-04-23T10:09:44.999Z</time></trkpt><trkpt lat="43.78878635537322" lon="11.49141426715765"><ele>375.5</ele><time>2026-04-23T10:09:45.999Z</time></trkpt><trkpt lat="43.78866757420976" lon="11.49147393801945"><ele>377.0</ele><time>2026-04-23T10:09:46.999Z</time></trkpt><trkpt lat="43.788562174243374" lon="11.49149144781257"><ele>376.40000000000003</ele><time>2026-04-23T10:09:47.999Z</time></trkpt><trkpt lat="43.788468976743566" lon="11.491538962365734"><ele>375.8</ele><time>2026-04-23T10:09:48.999Z</time></trkpt><trkpt lat="43.78837243622344" lon="11.491566227474902"><ele>375.2</ele><time>2026-04-23T10:09:49.999Z</time></trkpt><trkpt lat="43.78827563778808" lon="11.491587944305264"><ele>374.6</ele><time>2026-04-23T10:09:50.999Z</time></trkpt><trkpt lat="43.78818097197424" lon="11.491551401942312"><ele>374.0</ele><time>2026-04-23T10:09:51.999Z</time></trkpt><trkpt lat="43.78808188089627" lon="11.491538551321918"><ele>374.0</ele><time>2026-04-23T10:09:52.999Z</time></trkpt><trkpt lat="43.787991958038305" lon="11.491532333509014"><ele>374.0</ele><time>2026-04-23T10:09:53.999Z</time></trkpt><trkpt lat="43.78789489311207" lon="11.491496904981522"><ele>374.0</ele><time>2026-04-23T10:09:54.999Z</time></trkpt><trkpt lat="43.78781758509415" lon="11.4914047748724"><ele>374.0</ele><time>2026-04-23T10:09:55.999Z</time></trkpt><trkpt lat="43.7876992324329" lon="11.491368318576226"><ele>374.0</ele><time>2026-04-23T10:09:56.999Z</time></trkpt><trkpt lat="43.78758938248517" lon="11.491290419930388"><ele>372.4</ele><time>2026-04-23T10:09:57.999Z</time></trkpt><trkpt lat="43.78750069825999" lon="11.491203607726218"><ele>370.79999999999995</ele><time>2026-04-23T10:09:58.999Z</time></trkpt><trkpt lat="43.7874268806306" lon="11.491120987787108"><ele>369.20000000000005</ele><time>2026-04-23T10:09:59.999Z</time></trkpt><trkpt lat="43.78734434216478" lon="11.491082457475272"><ele>367.6</ele><time>2026-04-23T10:10:01Z</time></trkpt><trkpt lat="43.78726619544262" lon="11.491032666315697"><ele>366.0</ele><time>2026-04-23T10:10:02Z</time></trkpt><trkpt lat="43.787189256055" lon="11.491002923925723"><ele>366.0</ele><time>2026-04-23T10:10:03Z</time></trkpt><trkpt lat="43.78710991932088" lon="11.491002596767071"><ele>366.0</ele><time>2026-04-23T10:10:04Z</time></trkpt><trkpt lat="43.78703719548242" lon="11.491037361493166"><ele>366.0</ele><time>2026-04-23T10:10:05Z</time></trkpt><trkpt lat="43.78692865832002" lon="11.4909970435837"><ele>366.0</ele><time>2026-04-23T10:10:07Z</time></trkpt><trkpt lat="43.78688652367184" lon="11.490899196290279"><ele>366.0</ele><time>2026-04-23T10:10:08Z</time></trkpt><trkpt lat="43.78681116511107" lon="11.490814800318676"><ele>366.0</ele><time>2026-04-23T10:10:09Z</time></trkpt><trkpt lat="43.78672183842125" lon="11.49073896598627"><ele>367.0</ele><time>2026-04-23T10:10:10Z</time></trkpt><trkpt lat="43.78660495211495" lon="11.490708284342398"><ele>368.0</ele><time>2026-04-23T10:10:11Z</time></trkpt><trkpt lat="43.78649163197345" lon="11.490666814775055"><ele>369.0</ele><time>2026-04-23T10:10:12Z</time></trkpt><trkpt lat="43.786393921840265" lon="11.490628507944505"><ele>370.0</ele><time>2026-04-23T10:10:13Z</time></trkpt><trkpt lat="43.786325746318205" lon="11.49059005426698"><ele>371.0</ele><time>2026-04-23T10:10:14Z</time></trkpt><trkpt lat="43.786238544081606" lon="11.490577680264055"><ele>371.0</ele><time>2026-04-23T10:10:15Z</time></trkpt><trkpt lat="43.786149716082654" lon="11.490583805452037"><ele>371.0</ele><time>2026-04-23T10:10:16Z</time></trkpt><trkpt lat="43.78606386004085" lon="11.490553140955868"><ele>371.0</ele><time>2026-04-23T10:10:17Z</time></trkpt><trkpt lat="43.78598602514008" lon="11.490532016301096"><ele>371.0</ele><time>2026-04-23T10:10:18Z</time></trkpt><trkpt lat="43.78592852105902" lon="11.490485486152979"><ele>371.0</ele><time>2026-04-23T10:10:19Z</time></trkpt><trkpt lat="43.785901771644504" lon="11.490389416369569"><ele>371.0</ele><time>2026-04-23T10:10:20Z</time></trkpt><trkpt lat="43.78584227452718" lon="11.49029742678737"><ele>370.25</ele><time>2026-04-23T10:10:21Z</time></trkpt><trkpt lat="43.78577464745449" lon="11.490197969585715"><ele>369.5</ele><time>2026-04-23T10:10:22Z</time></trkpt><trkpt lat="43.7857065237335" lon="11.49008788181728"><ele>368.75</ele><time>2026-04-23T10:10:23Z</time></trkpt><trkpt lat="43.785637879151224" lon="11.48993483063168"><ele>368.0</ele><time>2026-04-23T10:10:24Z</time></trkpt><trkpt lat="43.78560117816804" lon="11.489767558964429"><ele>368.0</ele><time>2026-04-23T10:10:25Z</time></trkpt><trkpt lat="43.785555286430466" lon="11.489638568226992"><ele>368.0</ele><time>2026-04-23T10:10:26Z</time></trkpt><trkpt lat="43.78552174882819" lon="11.489562569655774"><ele>368.0</ele><time>2026-04-23T10:10:27Z</time></trkpt><trkpt lat="43.785467387600406" lon="11.489472242998426"><ele>368.0</ele><time>2026-04-23T10:10:28Z</time></trkpt><trkpt lat="43.78539853286932" lon="11.489408586984837"><ele>368.0</ele><time>2026-04-23T10:10:29Z</time></trkpt><trkpt lat="43.78531258311972" lon="11.489334100182539"><ele>368.0</ele><time>2026-04-23T10:10:30Z</time></trkpt><trkpt lat="43.78521464303063" lon="11.489259946144516"><ele>368.79999999999995</ele><time>2026-04-23T10:10:31Z</time></trkpt><trkpt lat="43.785109081746235" lon="11.489203106569969"><ele>369.6</ele><time>2026-04-23T10:10:32.001Z</time></trkpt><trkpt lat="43.785008163496954" lon="11.489137296713917"><ele>370.4</ele><time>2026-04-23T10:10:33.001Z</time></trkpt><trkpt lat="43.784933457500095" lon="11.489090188533666"><ele>371.20000000000005</ele><time>2026-04-23T10:10:34.001Z</time></trkpt><trkpt lat="43.78487160526849" lon="11.489037320955527"><ele>372.0</ele><time>2026-04-23T10:10:35.001Z</time></trkpt><trkpt lat="43.784806342907004" lon="11.488992657586792"><ele>372.0</ele><time>2026-04-23T10:10:36.001Z</time></trkpt><trkpt lat="43.78474966283717" lon="11.488915797987161"><ele>372.0</ele><time>2026-04-23T10:10:38.001Z</time></trkpt><trkpt lat="43.784679671115484" lon="11.48881885339171"><ele>372.0</ele><time>2026-04-23T10:10:48.001Z</time></trkpt><trkpt lat="43.78458712490814" lon="11.488642643413478"><ele>372.0</ele><time>2026-04-23T10:10:50.001Z</time></trkpt><trkpt lat="43.784523275077305" lon="11.488512647015847"><ele>372.0</ele><time>2026-04-23T10:10:51.001Z</time></trkpt><trkpt lat="43.784466504272714" lon="11.488362903887854"><ele>371.20000000000005</ele><time>2026-04-23T10:10:52.001Z</time></trkpt><trkpt lat="43.78440458669397" lon="11.488195143047161"><ele>370.4</ele><time>2026-04-23T10:10:53.001Z</time></trkpt><trkpt lat="43.78436037601277" lon="11.488037052306431"><ele>369.6</ele><time>2026-04-23T10:10:54.001Z</time></trkpt><trkpt lat="43.784307744759" lon="11.48791457910863"><ele>368.79999999999995</ele><time>2026-04-23T10:10:55.001Z</time></trkpt><trkpt lat="43.784266576770335" lon="11.487810484257405"><ele>368.0</ele><time>2026-04-23T10:10:56.001Z</time></trkpt><trkpt lat="43.78422093735603" lon="11.487707905450558"><ele>368.0</ele><time>2026-04-23T10:10:57.001Z</time></trkpt><trkpt lat="43.7841637235772" lon="11.487625163707039"><ele>368.0</ele><time>2026-04-23T10:10:58.001Z</time></trkpt><trkpt lat="43.78410604397895" lon="11.48754532920649"><ele>368.0</ele><time>2026-04-23T10:10:59.001Z</time></trkpt><trkpt lat="43.78407096104436" lon="11.487432515441995"><ele>368.0</ele><time>2026-04-23T10:11:00.001Z</time></trkpt><trkpt lat="43.78401895444504" lon="11.487318709919021"><ele>368.0</ele><time>2026-04-23T10:11:01.001Z</time></trkpt><trkpt lat="43.78394473496456" lon="11.48720220051007"><ele>366.0</ele><time>2026-04-23T10:11:02.001Z</time></trkpt><trkpt lat="43.78388518257739" lon="11.487075904397111"><ele>364.0</ele><time>2026-04-23T10:11:03.001Z</time></trkpt><trkpt lat="43.78380352715441" lon="11.486960309096451"><ele>362.0</ele><time>2026-04-23T10:11:04.001Z</time></trkpt><trkpt lat="43.78372186728365" lon="11.486832439330948"><ele>360.0</ele><time>2026-04-23T10:11:05.001Z</time></trkpt><trkpt lat="43.78363946529496" lon="11.486707428715865"><ele>360.0</ele><time>2026-04-23T10:11:06.001Z</time></trkpt><trkpt lat="43.78355303839307" lon="11.48658735539031"><ele>360.0</ele><time>2026-04-23T10:11:07.001Z</time></trkpt><trkpt lat="43.783475241649114" lon="11.486462773632192"><ele>360.0</ele><time>2026-04-23T10:11:08.001Z</time></trkpt><trkpt lat="43.7834023173395" lon="11.486338435022185"><ele>360.0</ele><time>2026-04-23T10:11:09.001Z</time></trkpt><trkpt lat="43.78332689124941" lon="11.486224624570122"><ele>360.8</ele><time>2026-04-23T10:11:10.002Z</time></trkpt><trkpt lat="43.783243550287914" lon="11.486142389264655"><ele>361.6</ele><time>2026-04-23T10:11:11.002Z</time></trkpt><trkpt lat="43.78315038891098" lon="11.486087909755682"><ele>362.4</ele><time>2026-04-23T10:11:12.002Z</time></trkpt><trkpt lat="43.78304882027392" lon="11.48606953463061"><ele>363.2</ele><time>2026-04-23T10:11:13.002Z</time></trkpt><trkpt lat="43.782930092026746" lon="11.486030068093156"><ele>364.0</ele><time>2026-04-23T10:11:14.002Z</time></trkpt><trkpt lat="43.78282114453956" lon="11.486017259548351"><ele>364.0</ele><time>2026-04-23T10:11:15.002Z</time></trkpt><trkpt lat="43.78271520366523" lon="11.485983570451582"><ele>364.0</ele><time>2026-04-23T10:11:16.002Z</time></trkpt><trkpt lat="43.78260740014657" lon="11.485970250535996"><ele>364.0</ele><time>2026-04-23T10:11:17.002Z</time></trkpt><trkpt lat="43.78251070543786" lon="11.485975807759115"><ele>364.0</ele><time>2026-04-23T10:11:18.002Z</time></trkpt><trkpt lat="43.78242816511453" lon="11.485993213404221"><ele>364.0</ele><time>2026-04-23T10:11:19.002Z</time></trkpt><trkpt lat="43.782345177493376" lon="11.486009035706584"><ele>366.2</ele><time>2026-04-23T10:11:21.002Z</time></trkpt><trkpt lat="43.78224175107882" lon="11.485887124072466"><ele>368.4</ele><time>2026-04-23T10:11:25.002Z</time></trkpt><trkpt lat="43.78219578810038" lon="11.485737687777439"><ele>370.6</ele><time>2026-04-23T10:11:27.002Z</time></trkpt><trkpt lat="43.78217529865317" lon="11.485636535656921"><ele>372.8</ele><time>2026-04-23T10:11:28.002Z</time></trkpt><trkpt lat="43.78215929441489" lon="11.485539772843431"><ele>375.0</ele><time>2026-04-23T10:11:29.002Z</time></trkpt><trkpt lat="43.782139350477394" lon="11.48539455399315"><ele>375.0</ele><time>2026-04-23T10:11:31.002Z</time></trkpt><trkpt lat="43.78212543599056" lon="11.48530635447405"><ele>375.0</ele><time>2026-04-23T10:17:55.002Z</time></trkpt><trkpt lat="43.782061273676234" lon="11.485290940396707"><ele>375.0</ele><time>2026-04-23T10:17:58.002Z</time></trkpt><trkpt lat="43.78207022278266" lon="11.485417770561302"><ele>375.0</ele><time>2026-04-23T10:18:01.002Z</time></trkpt><trkpt lat="43.78211407384285" lon="11.485539825250068"><ele>375.0</ele><time>2026-04-23T10:18:03.002Z</time></trkpt><trkpt lat="43.78216193311806" lon="11.485671257759366"><ele>375.0</ele><time>2026-04-23T10:18:05.003Z</time></trkpt><trkpt lat="43.782187076091965" lon="11.485751483724624"><ele>375.2</ele><time>2026-04-23T10:18:06.003Z</time></trkpt><trkpt lat="43.782228968513905" lon="11.485884184804986"><ele>375.4</ele><time>2026-04-23T10:18:08.003Z</time></trkpt><trkpt lat="43.78225387298296" lon="11.485987124392217"><ele>375.6</ele><time>2026-04-23T10:18:11.003Z</time></trkpt><trkpt lat="43.78215747313985" lon="11.486094689961744"><ele>375.8</ele><time>2026-04-23T10:18:29.002Z</time></trkpt><trkpt lat="43.782089442113175" lon="11.486113484942273"><ele>376.0</ele><time>2026-04-23T10:18:30.002Z</time></trkpt><trkpt lat="43.78199726756056" lon="11.48615807840051"><ele>376.0</ele><time>2026-04-23T10:18:31.002Z</time></trkpt><trkpt lat="43.78188910674575" lon="11.486177768216026"><ele>376.0</ele><time>2026-04-23T10:18:32.002Z</time></trkpt><trkpt lat="43.78177186236856" lon="11.48620043405126"><ele>376.0</ele><time>2026-04-23T10:18:33.002Z</time></trkpt><trkpt lat="43.78168217417239" lon="11.4862236039146"><ele>376.0</ele><time>2026-04-23T10:18:34.002Z</time></trkpt><trkpt lat="43.78159603849226" lon="11.486239733024007"><ele>376.0</ele><time>2026-04-23T10:18:35.002Z</time></trkpt><trkpt lat="43.78151042217852" lon="11.486251695949838"><ele>376.0</ele><time>2026-04-23T10:18:36.002Z</time></trkpt><trkpt lat="43.78142730010907" lon="11.486272779910923"><ele>376.0</ele><time>2026-04-23T10:18:37.002Z</time></trkpt><trkpt lat="43.78136089014424" lon="11.486286918494615"><ele>376.0</ele><time>2026-04-23T10:18:38.002Z</time></trkpt><trkpt lat="43.78125502280695" lon="11.486245048145536"><ele>376.0</ele><time>2026-04-23T10:18:40.001Z</time></trkpt><trkpt lat="43.78121900953762" lon="11.48603711843252"><ele>376.0</ele><time>2026-04-23T10:18:42.001Z</time></trkpt><trkpt lat="43.78116470388563" lon="11.485866087678627"><ele>376.0</ele><time>2026-04-23T10:18:43.001Z</time></trkpt><trkpt lat="43.78109529756098" lon="11.485683725555548"><ele>376.0</ele><time>2026-04-23T10:18:44.001Z</time></trkpt><trkpt lat="43.78099901896939" lon="11.485504134981035"><ele>376.0</ele><time>2026-04-23T10:18:45.001Z</time></trkpt><trkpt lat="43.7809079098055" lon="11.485311319939079"><ele>371.66666666666663</ele><time>2026-04-23T10:18:46.001Z</time></trkpt><trkpt lat="43.780848233260336" lon="11.485095873362317"><ele>367.3333333333333</ele><time>2026-04-23T10:18:47.001Z</time></trkpt><trkpt lat="43.78076218519393" lon="11.484894645741674"><ele>363.0</ele><time>2026-04-23T10:18:48.001Z</time></trkpt><trkpt lat="43.78069533237156" lon="11.484689204881017"><ele>362.3333333333333</ele><time>2026-04-23T10:18:49.001Z</time></trkpt><trkpt lat="43.780628537613076" lon="11.484481771444454"><ele>361.66666666666663</ele><time>2026-04-23T10:18:50.001Z</time></trkpt><trkpt lat="43.78056906198841" lon="11.484288768223715"><ele>361.0</ele><time>2026-04-23T10:18:51.001Z</time></trkpt><trkpt lat="43.780506773299294" lon="11.484086692198856"><ele>361.0</ele><time>2026-04-23T10:18:52.001Z</time></trkpt><trkpt lat="43.780455085096456" lon="11.483890209368946"><ele>361.0</ele><time>2026-04-23T10:18:53.001Z</time></trkpt><trkpt lat="43.78043654300465" lon="11.483675847999008"><ele>361.0</ele><time>2026-04-23T10:18:54.001Z</time></trkpt><trkpt lat="43.78041245293472" lon="11.483437559467346"><ele>359.66666666666663</ele><time>2026-04-23T10:18:55.001Z</time></trkpt><trkpt lat="43.78040662806439" lon="11.483192827642677"><ele>358.3333333333333</ele><time>2026-04-23T10:18:56.001Z</time></trkpt><trkpt lat="43.78037060343728" lon="11.482978232777239"><ele>357.0</ele><time>2026-04-23T10:18:57.001Z</time></trkpt><trkpt lat="43.78028464462633" lon="11.482785696290255"><ele>351.6666666666667</ele><time>2026-04-23T10:18:58.001Z</time></trkpt><trkpt lat="43.78016388915928" lon="11.48260295113688"><ele>346.33333333333337</ele><time>2026-04-23T10:18:59.001Z</time></trkpt><trkpt lat="43.78004974315353" lon="11.482401395743977"><ele>341.0</ele><time>2026-04-23T10:19:00.001Z</time></trkpt><trkpt lat="43.77993422258855" lon="11.482197036853908"><ele>341.33333333333337</ele><time>2026-04-23T10:19:01.001Z</time></trkpt><trkpt lat="43.77980942509067" lon="11.482009567706802"><ele>341.6666666666667</ele><time>2026-04-23T10:19:02.001Z</time></trkpt><trkpt lat="43.779708663181616" lon="11.481802627737368"><ele>342.0</ele><time>2026-04-23T10:19:03.001Z</time></trkpt><trkpt lat="43.779611446562775" lon="11.481616992449979"><ele>342.0</ele><time>2026-04-23T10:19:04.001Z</time></trkpt><trkpt lat="43.77951087935519" lon="11.481442617020765"><ele>342.0</ele><time>2026-04-23T10:19:05.001Z</time></trkpt><trkpt lat="43.77940373823927" lon="11.481284673083982"><ele>342.0</ele><time>2026-04-23T10:19:06.001Z</time></trkpt><trkpt lat="43.77928239906937" lon="11.481160105932238"><ele>339.6666666666667</ele><time>2026-04-23T10:19:07.001Z</time></trkpt><trkpt lat="43.77913518936009" lon="11.481079461854058"><ele>337.33333333333337</ele><time>2026-04-23T10:19:08.001Z</time></trkpt><trkpt lat="43.778974614547174" lon="11.481012551752402"><ele>335.0</ele><time>2026-04-23T10:19:09.001Z</time></trkpt><trkpt lat="43.778821694429304" lon="11.480931919354788"><ele>335.0</ele><time>2026-04-23T10:19:10.001Z</time></trkpt><trkpt lat="43.77868195182594" lon="11.480821041585148"><ele>335.0</ele><time>2026-04-23T10:19:11.001Z</time></trkpt><trkpt lat="43.77856180657662" lon="11.48067452203477"><ele>335.0</ele><time>2026-04-23T10:19:12.001Z</time></trkpt><trkpt lat="43.77845948698843" lon="11.480541547601838"><ele>332.5</ele><time>2026-04-23T10:19:13.001Z</time></trkpt><trkpt lat="43.778371812743316" lon="11.480389449876506"><ele>330.0</ele><time>2026-04-23T10:19:14.001Z</time></trkpt><trkpt lat="43.77829119588082" lon="11.480238025140922"><ele>327.5</ele><time>2026-04-23T10:19:15.001Z</time></trkpt><trkpt lat="43.77820677076272" lon="11.480085818565213"><ele>325.0</ele><time>2026-04-23T10:19:16.001Z</time></trkpt><trkpt lat="43.7781238557022" lon="11.479926040282912"><ele>325.0</ele><time>2026-04-23T10:19:17.001Z</time></trkpt><trkpt lat="43.77805054463867" lon="11.479767965254005"><ele>325.0</ele><time>2026-04-23T10:19:18.001Z</time></trkpt><trkpt lat="43.777981930331705" lon="11.479617586675475"><ele>325.0</ele><time>2026-04-23T10:19:19.001Z</time></trkpt><trkpt lat="43.777912881018906" lon="11.479472059751055"><ele>325.0</ele><time>2026-04-23T10:19:20.001Z</time></trkpt><trkpt lat="43.777838522187324" lon="11.479340492378213"><ele>326.5</ele><time>2026-04-23T10:19:21.001Z</time></trkpt><trkpt lat="43.77773959576464" lon="11.47924435940448"><ele>328.0</ele><time>2026-04-23T10:19:22.001Z</time></trkpt><trkpt lat="43.777612985612585" lon="11.479195878457446"><ele>329.5</ele><time>2026-04-23T10:19:23.001Z</time></trkpt><trkpt lat="43.77747937052958" lon="11.479191696391366"><ele>331.0</ele><time>2026-04-23T10:19:24.001Z</time></trkpt><trkpt lat="43.77735713808003" lon="11.47919511372612"><ele>328.2</ele><time>2026-04-23T10:19:25.001Z</time></trkpt><trkpt lat="43.77724686068663" lon="11.479175039018633"><ele>325.40000000000003</ele><time>2026-04-23T10:19:26.001Z</time></trkpt><trkpt lat="43.777142285493305" lon="11.479151605603395"><ele>322.6</ele><time>2026-04-23T10:19:27.001Z</time></trkpt><trkpt lat="43.77703623411859" lon="11.479121427753105"><ele>319.8</ele><time>2026-04-23T10:19:28.001Z</time></trkpt><trkpt lat="43.776924631327226" lon="11.479092148773699"><ele>317.0</ele><time>2026-04-23T10:19:29.001Z</time></trkpt><trkpt lat="43.77680289518728" lon="11.479056733735334"><ele>315.0</ele><time>2026-04-23T10:19:30.001Z</time></trkpt><trkpt lat="43.77668594872741" lon="11.479021078236038"><ele>313.0</ele><time>2026-04-23T10:19:31.001Z</time></trkpt><trkpt lat="43.77657703882949" lon="11.478979164692761"><ele>311.0</ele><time>2026-04-23T10:19:32.001Z</time></trkpt><trkpt lat="43.776486790814886" lon="11.478901154607685"><ele>309.0</ele><time>2026-04-23T10:19:33.001Z</time></trkpt><trkpt lat="43.776444265916716" lon="11.478753658705239"><ele>309.0</ele><time>2026-04-23T10:19:34.001Z</time></trkpt><trkpt lat="43.7764181585007" lon="11.478599462770758"><ele>309.0</ele><time>2026-04-23T10:19:35.001Z</time></trkpt><trkpt lat="43.77638316489186" lon="11.478450179538237"><ele>309.0</ele><time>2026-04-23T10:19:36.001Z</time></trkpt><trkpt lat="43.77635805869607" lon="11.478306263855048"><ele>309.0</ele><time>2026-04-23T10:19:37.001Z</time></trkpt><trkpt lat="43.77632742616204" lon="11.478163997061134"><ele>309.0</ele><time>2026-04-23T10:19:38.001Z</time></trkpt><trkpt lat="43.776288479720236" lon="11.478019607371936"><ele>309.0</ele><time>2026-04-23T10:19:39.001Z</time></trkpt><trkpt lat="43.77623426795416" lon="11.477872321733829"><ele>309.0</ele><time>2026-04-23T10:19:40.001Z</time></trkpt><trkpt lat="43.77615880271736" lon="11.477734467917665"><ele>309.0</ele><time>2026-04-23T10:19:41.001Z</time></trkpt><trkpt lat="43.77607083588122" lon="11.47759896312888"><ele>309.0</ele><time>2026-04-23T10:19:42.001Z</time></trkpt><trkpt lat="43.77597464363099" lon="11.477466878849496"><ele>306.0</ele><time>2026-04-23T10:19:43.001Z</time></trkpt><trkpt lat="43.775878884435855" lon="11.47733836997317"><ele>303.0</ele><time>2026-04-23T10:19:44.001Z</time></trkpt><trkpt lat="43.775777463765834" lon="11.477204043592227"><ele>300.0</ele><time>2026-04-23T10:19:45.001Z</time></trkpt><trkpt lat="43.77565627170747" lon="11.47708907903759"><ele>297.0</ele><time>2026-04-23T10:19:46.001Z</time></trkpt><trkpt lat="43.77551124114099" lon="11.477010583572428"><ele>297.0</ele><time>2026-04-23T10:19:47.001Z</time></trkpt><trkpt lat="43.77536324803318" lon="11.476929889000342"><ele>297.0</ele><time>2026-04-23T10:19:48.001Z</time></trkpt><trkpt lat="43.775227771827204" lon="11.476853439021077"><ele>297.0</ele><time>2026-04-23T10:19:49.001Z</time></trkpt><trkpt lat="43.77510559919861" lon="11.476778370538705"><ele>297.0</ele><time>2026-04-23T10:19:50.001Z</time></trkpt><trkpt lat="43.77498056172383" lon="11.476695874458205"><ele>295.0</ele><time>2026-04-23T10:19:51.001Z</time></trkpt><trkpt lat="43.77484945701842" lon="11.476613788749026"><ele>293.0</ele><time>2026-04-23T10:19:52.001Z</time></trkpt><trkpt lat="43.774719658180544" lon="11.47653530798683"><ele>291.0</ele><time>2026-04-23T10:19:53.001Z</time></trkpt><trkpt lat="43.77459651045328" lon="11.476456615534634"><ele>289.0</ele><time>2026-04-23T10:19:54.001Z</time></trkpt><trkpt lat="43.774477657320716" lon="11.476383810293516"><ele>289.0</ele><time>2026-04-23T10:19:55.001Z</time></trkpt><trkpt lat="43.77435919478761" lon="11.476307891378845"><ele>289.0</ele><time>2026-04-23T10:19:56.001Z</time></trkpt><trkpt lat="43.77425781374143" lon="11.476185064744977"><ele>289.0</ele><time>2026-04-23T10:19:57.001Z</time></trkpt><trkpt lat="43.77414117747496" lon="11.476071433156989"><ele>289.0</ele><time>2026-04-23T10:19:58.001Z</time></trkpt><trkpt lat="43.77403508477946" lon="11.475932026477127"><ele>287.3333333333333</ele><time>2026-04-23T10:19:59.001Z</time></trkpt><trkpt lat="43.773919291900526" lon="11.475795586150015"><ele>285.6666666666667</ele><time>2026-04-23T10:20:00.001Z</time></trkpt><trkpt lat="43.77379646175231" lon="11.475651194593931"><ele>284.0</ele><time>2026-04-23T10:20:01.001Z</time></trkpt><trkpt lat="43.77368217982165" lon="11.475504055506113"><ele>283.6666666666667</ele><time>2026-04-23T10:20:02.001Z</time></trkpt><trkpt lat="43.77356603545121" lon="11.475376045136528"><ele>283.3333333333333</ele><time>2026-04-23T10:20:03.001Z</time></trkpt><trkpt lat="43.77344850552775" lon="11.47522863579107"><ele>283.0</ele><time>2026-04-23T10:20:04.001Z</time></trkpt><trkpt lat="43.77336147212171" lon="11.475059164910608"><ele>281.0</ele><time>2026-04-23T10:20:05.001Z</time></trkpt><trkpt lat="43.77332439773584" lon="11.474864337093566"><ele>279.0</ele><time>2026-04-23T10:20:06.001Z</time></trkpt><trkpt lat="43.77330579337223" lon="11.474662885097802"><ele>277.0</ele><time>2026-04-23T10:20:07.001Z</time></trkpt><trkpt lat="43.77327874887466" lon="11.474457425471762"><ele>275.0</ele><time>2026-04-23T10:20:08.001Z</time></trkpt><trkpt lat="43.773238976434506" lon="11.474267485908635"><ele>274.6</ele><time>2026-04-23T10:20:09.001Z</time></trkpt><trkpt lat="43.77319990192266" lon="11.474097793535462"><ele>274.2</ele><time>2026-04-23T10:20:10.002Z</time></trkpt><trkpt lat="43.77316474563005" lon="11.47395200408007"><ele>273.8</ele><time>2026-04-23T10:20:11.002Z</time></trkpt><trkpt lat="43.773133758556384" lon="11.473818532373603"><ele>273.4</ele><time>2026-04-23T10:20:12.002Z</time></trkpt><trkpt lat="43.77309639664415" lon="11.473683129784188"><ele>273.0</ele><time>2026-04-23T10:20:13.002Z</time></trkpt><trkpt lat="43.77303636306745" lon="11.473553849304336"><ele>272.75</ele><time>2026-04-23T10:20:14.002Z</time></trkpt><trkpt lat="43.77294986737676" lon="11.47343009735432"><ele>272.5</ele><time>2026-04-23T10:20:15.002Z</time></trkpt><trkpt lat="43.772847313042824" lon="11.47331951898615"><ele>272.25</ele><time>2026-04-23T10:20:16.002Z</time></trkpt><trkpt lat="43.77274256382147" lon="11.473210846976546"><ele>272.0</ele><time>2026-04-23T10:20:17.002Z</time></trkpt><trkpt lat="43.772633367832476" lon="11.473096874135845"><ele>270.25</ele><time>2026-04-23T10:20:18.002Z</time></trkpt><trkpt lat="43.77251605113602" lon="11.472984328433888"><ele>268.5</ele><time>2026-04-23T10:20:19.002Z</time></trkpt><trkpt lat="43.77239472257545" lon="11.472869322125355"><ele>266.75</ele><time>2026-04-23T10:20:20.002Z</time></trkpt><trkpt lat="43.77228753854047" lon="11.47275488487495"><ele>265.0</ele><time>2026-04-23T10:20:21.002Z</time></trkpt><trkpt lat="43.772174308021434" lon="11.472660005603421"><ele>265.0</ele><time>2026-04-23T10:20:22.002Z</time></trkpt><trkpt lat="43.77204984206614" lon="11.472582284822787"><ele>265.0</ele><time>2026-04-23T10:20:23.002Z</time></trkpt><trkpt lat="43.77190921453316" lon="11.47254878212238"><ele>265.0</ele><time>2026-04-23T10:20:24.002Z</time></trkpt><trkpt lat="43.77175938527556" lon="11.472568941249149"><ele>265.0</ele><time>2026-04-23T10:20:25.002Z</time></trkpt><trkpt lat="43.771608490128564" lon="11.472599690946693"><ele>262.5</ele><time>2026-04-23T10:20:26.002Z</time></trkpt><trkpt lat="43.771459424700524" lon="11.472642015877494"><ele>260.0</ele><time>2026-04-23T10:20:27.002Z</time></trkpt><trkpt lat="43.771318962403" lon="11.472699132377782"><ele>257.5</ele><time>2026-04-23T10:20:28.002Z</time></trkpt><trkpt lat="43.77119772890449" lon="11.472750430052788"><ele>255.0</ele><time>2026-04-23T10:20:29.002Z</time></trkpt><trkpt lat="43.771092934464164" lon="11.47276508311283"><ele>252.25</ele><time>2026-04-23T10:20:30.001Z</time></trkpt><trkpt lat="43.770995973930496" lon="11.472696719099664"><ele>249.5</ele><time>2026-04-23T10:20:31.001Z</time></trkpt><trkpt lat="43.770918003567274" lon="11.472570819239872"><ele>246.75</ele><time>2026-04-23T10:20:32.001Z</time></trkpt><trkpt lat="43.77082480499086" lon="11.472425739111458"><ele>244.0</ele><time>2026-04-23T10:20:33.001Z</time></trkpt><trkpt lat="43.77073328175499" lon="11.472297537398099"><ele>244.0</ele><time>2026-04-23T10:20:34.001Z</time></trkpt><trkpt lat="43.77063327385724" lon="11.472213632144198"><ele>244.0</ele><time>2026-04-23T10:20:35.001Z</time></trkpt><trkpt lat="43.77053422030712" lon="11.472141667436718"><ele>244.0</ele><time>2026-04-23T10:20:36.001Z</time></trkpt><trkpt lat="43.77042491962058" lon="11.4720826639429"><ele>244.0</ele><time>2026-04-23T10:20:37.001Z</time></trkpt><trkpt lat="43.770309211746216" lon="11.472021024055374"><ele>244.75</ele><time>2026-04-23T10:20:38.001Z</time></trkpt><trkpt lat="43.77019518718058" lon="11.47196043431585"><ele>245.5</ele><time>2026-04-23T10:20:39.001Z</time></trkpt><trkpt lat="43.770086348627814" lon="11.471894927959081"><ele>246.25</ele><time>2026-04-23T10:20:40.001Z</time></trkpt><trkpt lat="43.769983919447014" lon="11.471830393845307"><ele>247.0</ele><time>2026-04-23T10:20:41.001Z</time></trkpt><trkpt lat="43.76989885907261" lon="11.471723536008174"><ele>244.5</ele><time>2026-04-23T10:20:42.001Z</time></trkpt><trkpt lat="43.76979648957891" lon="11.471620236453546"><ele>242.0</ele><time>2026-04-23T10:20:43.001Z</time></trkpt><trkpt lat="43.76971383299913" lon="11.471512199920959"><ele>239.5</ele><time>2026-04-23T10:20:44.001Z</time></trkpt><trkpt lat="43.76963169199304" lon="11.47140951952944"><ele>237.0</ele><time>2026-04-23T10:20:45.001Z</time></trkpt><trkpt lat="43.769557843366165" lon="11.4713124735249"><ele>236.16666666666666</ele><time>2026-04-23T10:20:46.001Z</time></trkpt><trkpt lat="43.769492396112" lon="11.471220014438146"><ele>235.33333333333331</ele><time>2026-04-23T10:20:47.001Z</time></trkpt><trkpt lat="43.76944861302985" lon="11.471122579658129"><ele>234.5</ele><time>2026-04-23T10:20:48.001Z</time></trkpt><trkpt lat="43.76943706626997" lon="11.471003632261112"><ele>233.66666666666666</ele><time>2026-04-23T10:20:49.001Z</time></trkpt><trkpt lat="43.76946470782587" lon="11.47088781344793"><ele>232.83333333333331</ele><time>2026-04-23T10:20:50.001Z</time></trkpt><trkpt lat="43.76952722533701" lon="11.470794376032192"><ele>232.0</ele><time>2026-04-23T10:20:51.001Z</time></trkpt><trkpt lat="43.76961659988413" lon="11.47073573832523"><ele>232.0</ele><time>2026-04-23T10:20:52.001Z</time></trkpt><trkpt lat="43.76972417013311" lon="11.47071049786742"><ele>232.0</ele><time>2026-04-23T10:20:53.001Z</time></trkpt><trkpt lat="43.76981475494677" lon="11.470725203062718"><ele>232.0</ele><time>2026-04-23T10:20:54.001Z</time></trkpt><trkpt lat="43.76989781487876" lon="11.470739272454203"><ele>232.0</ele><time>2026-04-23T10:20:55.001Z</time></trkpt><trkpt lat="43.76998925789434" lon="11.470740548619215"><ele>232.0</ele><time>2026-04-23T10:20:56.001Z</time></trkpt><trkpt lat="43.77008791290701" lon="11.470732588244108"><ele>232.0</ele><time>2026-04-23T10:20:57.001Z</time></trkpt><trkpt lat="43.7701871341094" lon="11.470703663663373"><ele>232.0</ele><time>2026-04-23T10:20:58.001Z</time></trkpt><trkpt lat="43.77028137496381" lon="11.470642689870479"><ele>232.0</ele><time>2026-04-23T10:20:59.001Z</time></trkpt><trkpt lat="43.77036585965538" lon="11.470544055623723"><ele>232.0</ele><time>2026-04-23T10:21:00.001Z</time></trkpt><trkpt lat="43.770427310600915" lon="11.470406635126643"><ele>232.0</ele><time>2026-04-23T10:21:01.001Z</time></trkpt><trkpt lat="43.770453631189966" lon="11.470235695165613"><ele>230.75</ele><time>2026-04-23T10:21:02.001Z</time></trkpt><trkpt lat="43.7704514186834" lon="11.470050213471938"><ele>229.5</ele><time>2026-04-23T10:21:03.001Z</time></trkpt><trkpt lat="43.77044024698841" lon="11.469871641254343"><ele>228.25</ele><time>2026-04-23T10:21:04.001Z</time></trkpt><trkpt lat="43.770427031114764" lon="11.469665645518095"><ele>227.0</ele><time>2026-04-23T10:21:05.001Z</time></trkpt><trkpt lat="43.77040993895772" lon="11.4694367709573"><ele>224.66666666666669</ele><time>2026-04-23T10:21:06.001Z</time></trkpt><trkpt lat="43.770413081050414" lon="11.469191232001931"><ele>222.33333333333331</ele><time>2026-04-23T10:21:07Z</time></trkpt><trkpt lat="43.77039645817011" lon="11.468938564298401"><ele>220.0</ele><time>2026-04-23T10:21:08Z</time></trkpt><trkpt lat="43.770379734564074" lon="11.468685092562247"><ele>217.33333333333331</ele><time>2026-04-23T10:21:09Z</time></trkpt><trkpt lat="43.77034985965273" lon="11.468448625576727"><ele>214.66666666666669</ele><time>2026-04-23T10:21:10Z</time></trkpt><trkpt lat="43.77033991301265" lon="11.468220329414581"><ele>212.0</ele><time>2026-04-23T10:21:11Z</time></trkpt><trkpt lat="43.77032646115364" lon="11.467998660664637"><ele>210.75</ele><time>2026-04-23T10:21:12Z</time></trkpt><trkpt lat="43.77030975508876" lon="11.46778015745644"><ele>209.5</ele><time>2026-04-23T10:21:13Z</time></trkpt><trkpt lat="43.77029922191937" lon="11.467576111938138"><ele>208.25</ele><time>2026-04-23T10:21:14Z</time></trkpt><trkpt lat="43.770291380233346" lon="11.467383668828916"><ele>207.0</ele><time>2026-04-23T10:21:15Z</time></trkpt><trkpt lat="43.77029272671983" lon="11.467200353393226"><ele>206.33333333333331</ele><time>2026-04-23T10:21:16Z</time></trkpt><trkpt lat="43.77031066182303" lon="11.467030220889866"><ele>205.66666666666666</ele><time>2026-04-23T10:21:17Z</time></trkpt><trkpt lat="43.77032257235458" lon="11.466699563749996"><ele>205.0</ele><time>2026-04-23T10:21:18Z</time></trkpt><trkpt lat="43.7703288382136" lon="11.466505951589653"><ele>205.0</ele><time>2026-04-23T10:21:19Z</time></trkpt><trkpt lat="43.770338376233035" lon="11.466326579814444"><ele>205.0</ele><time>2026-04-23T10:21:20Z</time></trkpt><trkpt lat="43.770350246017394" lon="11.466153545111448"><ele>205.0</ele><time>2026-04-23T10:21:21Z</time></trkpt><trkpt lat="43.77036673269569" lon="11.465994934931114"><ele>205.0</ele><time>2026-04-23T10:21:22Z</time></trkpt><trkpt lat="43.77041790700821" lon="11.465846107690204"><ele>203.5</ele><time>2026-04-23T10:21:23Z</time></trkpt><trkpt lat="43.770456293981646" lon="11.465704780961989"><ele>202.0</ele><time>2026-04-23T10:21:24Z</time></trkpt><trkpt lat="43.770454722329205" lon="11.465538213586976"><ele>200.5</ele><time>2026-04-23T10:21:25Z</time></trkpt><trkpt lat="43.77048294688111" lon="11.465370025391909"><ele>199.0</ele><time>2026-04-23T10:21:26Z</time></trkpt><trkpt lat="43.77053613778339" lon="11.465182668111781"><ele>198.33333333333331</ele><time>2026-04-23T10:21:27Z</time></trkpt><trkpt lat="43.77058481586382" lon="11.46498467269508"><ele>197.66666666666669</ele><time>2026-04-23T10:21:28Z</time></trkpt><trkpt lat="43.770645170742455" lon="11.464789215138861"><ele>197.0</ele><time>2026-04-23T10:21:29Z</time></trkpt><trkpt lat="43.77070183692288" lon="11.464598572718183"><ele>195.33333333333334</ele><time>2026-04-23T10:21:30Z</time></trkpt><trkpt lat="43.77074557935746" lon="11.464395138634329"><ele>193.66666666666669</ele><time>2026-04-23T10:21:31Z</time></trkpt><trkpt lat="43.77076609891799" lon="11.464173775028929"><ele>192.0</ele><time>2026-04-23T10:21:32Z</time></trkpt><trkpt lat="43.770769489821745" lon="11.463935965764579"><ele>190.66666666666666</ele><time>2026-04-23T10:21:33Z</time></trkpt><trkpt lat="43.77075776650776" lon="11.463693770586318"><ele>189.33333333333331</ele><time>2026-04-23T10:21:34Z</time></trkpt><trkpt lat="43.770739554466836" lon="11.463449112370418"><ele>188.0</ele><time>2026-04-23T10:21:35Z</time></trkpt><trkpt lat="43.77072631644897" lon="11.46321140558521"><ele>188.0</ele><time>2026-04-23T10:21:36Z</time></trkpt><trkpt lat="43.77071054951943" lon="11.462982349748003"><ele>188.0</ele><time>2026-04-23T10:21:37Z</time></trkpt><trkpt lat="43.770696586834546" lon="11.462768373721273"><ele>188.0</ele><time>2026-04-23T10:21:38Z</time></trkpt><trkpt lat="43.770684956854076" lon="11.462562906909646"><ele>186.8</ele><time>2026-04-23T10:21:39Z</time></trkpt><trkpt lat="43.770667918041916" lon="11.4623732996791"><ele>185.60000000000002</ele><time>2026-04-23T10:21:40Z</time></trkpt><trkpt lat="43.770668897625285" lon="11.462225635283906"><ele>184.39999999999998</ele><time>2026-04-23T10:21:41Z</time></trkpt><trkpt lat="43.7706834820498" lon="11.462101709992371"><ele>183.2</ele><time>2026-04-23T10:21:42Z</time></trkpt><trkpt lat="43.77072622652819" lon="11.461999003924717"><ele>182.0</ele><time>2026-04-23T10:21:43Z</time></trkpt><trkpt lat="43.77081067961804" lon="11.461915982746428"><ele>181.5</ele><time>2026-04-23T10:21:44Z</time></trkpt><trkpt lat="43.770937152661375" lon="11.46186336399002"><ele>181.0</ele><time>2026-04-23T10:21:45Z</time></trkpt><trkpt lat="43.77105412304742" lon="11.46179702729022"><ele>180.5</ele><time>2026-04-23T10:21:46Z</time></trkpt><trkpt lat="43.77117108249775" lon="11.461721176442786"><ele>180.0</ele><time>2026-04-23T10:21:47Z</time></trkpt><trkpt lat="43.77128905673667" lon="11.461642108684114"><ele>180.0</ele><time>2026-04-23T10:21:48Z</time></trkpt><trkpt lat="43.771420683515515" lon="11.461562640936432"><ele>180.0</ele><time>2026-04-23T10:21:49Z</time></trkpt><trkpt lat="43.77156337705438" lon="11.461486644797759"><ele>180.0</ele><time>2026-04-23T10:21:50Z</time></trkpt><trkpt lat="43.7717165529495" lon="11.461424835674318"><ele>181.0</ele><time>2026-04-23T10:21:51Z</time></trkpt><trkpt lat="43.77186759343112" lon="11.461362294869911"><ele>182.0</ele><time>2026-04-23T10:21:52Z</time></trkpt><trkpt lat="43.77202435261808" lon="11.461312210873087"><ele>183.0</ele><time>2026-04-23T10:21:53Z</time></trkpt><trkpt lat="43.772167030293126" lon="11.46126815064991"><ele>177.5</ele><time>2026-04-23T10:21:54Z</time></trkpt><trkpt lat="43.77230223114662" lon="11.461216780324314"><ele>172.0</ele><time>2026-04-23T10:21:55Z</time></trkpt><trkpt lat="43.77242441597463" lon="11.461135941483647"><ele>166.5</ele><time>2026-04-23T10:21:56Z</time></trkpt><trkpt lat="43.772526109527824" lon="11.461026789238511"><ele>161.0</ele><time>2026-04-23T10:21:57Z</time></trkpt><trkpt lat="43.77260060726309" lon="11.460879391339553"><ele>161.0</ele><time>2026-04-23T10:21:58Z</time></trkpt><trkpt lat="43.772642695404166" lon="11.460694865348694"><ele>161.0</ele><time>2026-04-23T10:21:59Z</time></trkpt><trkpt lat="43.77266498360019" lon="11.460491116667272"><ele>161.0</ele><time>2026-04-23T10:22:00Z</time></trkpt><trkpt lat="43.77270795405686" lon="11.460298407461146"><ele>161.0</ele><time>2026-04-23T10:22:01Z</time></trkpt><trkpt lat="43.77277767003655" lon="11.460101501398341"><ele>162.5</ele><time>2026-04-23T10:22:02Z</time></trkpt><trkpt lat="43.77285961124859" lon="11.459924817024426"><ele>164.0</ele><time>2026-04-23T10:22:03Z</time></trkpt><trkpt lat="43.772923696090686" lon="11.459756808957016"><ele>165.5</ele><time>2026-04-23T10:22:04Z</time></trkpt><trkpt lat="43.77294677776821" lon="11.459573061082041"><ele>167.0</ele><time>2026-04-23T10:22:05Z</time></trkpt><trkpt lat="43.772927054733465" lon="11.45936754952435"><ele>167.0</ele><time>2026-04-23T10:22:06Z</time></trkpt><trkpt lat="43.77289513510316" lon="11.459157870859384"><ele>167.0</ele><time>2026-04-23T10:22:07Z</time></trkpt><trkpt lat="43.77289433354035" lon="11.458964838475698"><ele>167.0</ele><time>2026-04-23T10:22:08Z</time></trkpt><trkpt lat="43.772962791675035" lon="11.45876973293943"><ele>165.75</ele><time>2026-04-23T10:22:09Z</time></trkpt><trkpt lat="43.77300401455617" lon="11.458562371624364"><ele>164.5</ele><time>2026-04-23T10:22:10Z</time></trkpt><trkpt lat="43.773047641743126" lon="11.458377969235915"><ele>163.25</ele><time>2026-04-23T10:22:11Z</time></trkpt><trkpt lat="43.77305720367799" lon="11.458211133288305"><ele>162.0</ele><time>2026-04-23T10:22:12Z</time></trkpt><trkpt lat="43.77302549351355" lon="11.458037874375044"><ele>162.25</ele><time>2026-04-23T10:22:13Z</time></trkpt><trkpt lat="43.77295270948937" lon="11.45786908162424"><ele>162.5</ele><time>2026-04-23T10:22:14Z</time></trkpt><trkpt lat="43.77286271450711" lon="11.457708038037527"><ele>162.75</ele><time>2026-04-23T10:22:15Z</time></trkpt><trkpt lat="43.7727701154387" lon="11.457548203023183"><ele>163.0</ele><time>2026-04-23T10:22:16.001Z</time></trkpt><trkpt lat="43.772717295161286" lon="11.457365005763714"><ele>154.75</ele><time>2026-04-23T10:22:17.001Z</time></trkpt><trkpt lat="43.77266292975465" lon="11.45718552149239"><ele>146.5</ele><time>2026-04-23T10:22:18.001Z</time></trkpt><trkpt lat="43.77262273044426" lon="11.457002900038088"><ele>138.25</ele><time>2026-04-23T10:22:19.001Z</time></trkpt><trkpt lat="43.77260411815534" lon="11.456809498196899"><ele>130.0</ele><time>2026-04-23T10:22:20.001Z</time></trkpt><trkpt lat="43.77257503188889" lon="11.456620954328317"><ele>129.75</ele><time>2026-04-23T10:22:21.001Z</time></trkpt><trkpt lat="43.77255969411812" lon="11.456423693207906"><ele>129.5</ele><time>2026-04-23T10:22:22.001Z</time></trkpt><trkpt lat="43.772545496900094" lon="11.45623078866897"><ele>129.25</ele><time>2026-04-23T10:22:23.001Z</time></trkpt><trkpt lat="43.77253485060687" lon="11.456040212259515"><ele>129.0</ele><time>2026-04-23T10:22:24.001Z</time></trkpt><trkpt lat="43.77252304821217" lon="11.455857258613628"><ele>128.5</ele><time>2026-04-23T10:22:25.001Z</time></trkpt><trkpt lat="43.77251614132504" lon="11.455673735339897"><ele>128.0</ele><time>2026-04-23T10:22:26.001Z</time></trkpt><trkpt lat="43.772543504463435" lon="11.455500532455106"><ele>127.5</ele><time>2026-04-23T10:22:27.001Z</time></trkpt><trkpt lat="43.772610957853544" lon="11.455338262635346"><ele>127.0</ele><time>2026-04-23T10:22:28.001Z</time></trkpt><trkpt lat="43.772699411428114" lon="11.455183650600906"><ele>130.66666666666669</ele><time>2026-04-23T10:22:29.001Z</time></trkpt><trkpt lat="43.772790336864844" lon="11.455025971097411"><ele>134.33333333333334</ele><time>2026-04-23T10:22:30.001Z</time></trkpt><trkpt lat="43.77287518262449" lon="11.454846590859631"><ele>138.0</ele><time>2026-04-23T10:22:31.001Z</time></trkpt><trkpt lat="43.77295755243397" lon="11.45465285203382"><ele>134.33333333333334</ele><time>2026-04-23T10:22:32.001Z</time></trkpt><trkpt lat="43.77302780826853" lon="11.45445219466464"><ele>130.66666666666669</ele><time>2026-04-23T10:22:33.001Z</time></trkpt><trkpt lat="43.77308454982156" lon="11.454240687173609"><ele>127.0</ele><time>2026-04-23T10:22:34.001Z</time></trkpt><trkpt lat="43.77312088752648" lon="11.454019150129794"><ele>127.0</ele><time>2026-04-23T10:22:35.001Z</time></trkpt><trkpt lat="43.77316312188056" lon="11.453800354238927"><ele>127.0</ele><time>2026-04-23T10:22:36.001Z</time></trkpt><trkpt lat="43.773213075082055" lon="11.453598851545499"><ele>127.0</ele><time>2026-04-23T10:22:37.001Z</time></trkpt><trkpt lat="43.77327194254513" lon="11.45340452936445"><ele>128.0</ele><time>2026-04-23T10:22:38.001Z</time></trkpt><trkpt lat="43.7733337639223" lon="11.453227348950355"><ele>129.0</ele><time>2026-04-23T10:22:39.001Z</time></trkpt><trkpt lat="43.77340037098067" lon="11.45304850124338"><ele>130.0</ele><time>2026-04-23T10:22:40.001Z</time></trkpt><trkpt lat="43.77347143525491" lon="11.452874427400369"><ele>131.0</ele><time>2026-04-23T10:22:41.001Z</time></trkpt><trkpt lat="43.77354462093089" lon="11.452703062403524"><ele>131.0</ele><time>2026-04-23T10:22:42.001Z</time></trkpt><trkpt lat="43.77361763110503" lon="11.452526209555954"><ele>131.0</ele><time>2026-04-23T10:22:43.001Z</time></trkpt><trkpt lat="43.7736912701591" lon="11.452349354200535"><ele>131.0</ele><time>2026-04-23T10:22:44.001Z</time></trkpt><trkpt lat="43.77376155108299" lon="11.452171961091121"><ele>131.0</ele><time>2026-04-23T10:22:45.001Z</time></trkpt><trkpt lat="43.77384530418248" lon="11.452018763626196"><ele>126.5</ele><time>2026-04-23T10:22:46Z</time></trkpt><trkpt lat="43.77390749878983" lon="11.451872375809456"><ele>122.0</ele><time>2026-04-23T10:22:47Z</time></trkpt><trkpt lat="43.773954444600776" lon="11.451759931527713"><ele>117.5</ele><time>2026-04-23T10:22:48Z</time></trkpt><trkpt lat="43.773988189322665" lon="11.451678171633121"><ele>113.0</ele><time>2026-04-23T10:22:49Z</time></trkpt><trkpt lat="43.77386585321511" lon="11.451458407509298"><ele>113.0</ele><time>2026-04-23T10:22:51Z</time></trkpt><trkpt lat="43.77377647541807" lon="11.451410164768637"><ele>113.0</ele><time>2026-04-23T10:22:52Z</time></trkpt><trkpt lat="43.77367601064454" lon="11.451361089087138"><ele>113.0</ele><time>2026-04-23T10:22:53Z</time></trkpt><trkpt lat="43.77367191243306" lon="11.451154561876546"><ele>113.0</ele><time>2026-04-23T10:22:54Z</time></trkpt><trkpt lat="43.77367065457515" lon="11.450981186302283"><ele>110.5</ele><time>2026-04-23T10:22:55Z</time></trkpt><trkpt lat="43.77368465490231" lon="11.450788540073095"><ele>108.0</ele><time>2026-04-23T10:22:56Z</time></trkpt><trkpt lat="43.7736933483698" lon="11.450586078926769"><ele>105.5</ele><time>2026-04-23T10:22:57Z</time></trkpt><trkpt lat="43.77367071678764" lon="11.4503706352636"><ele>103.0</ele><time>2026-04-23T10:22:58Z</time></trkpt><trkpt lat="43.77361579919113" lon="11.45015974155734"><ele>101.66666666666667</ele><time>2026-04-23T10:22:59Z</time></trkpt><trkpt lat="43.773522699487614" lon="11.449967196984561"><ele>100.33333333333334</ele><time>2026-04-23T10:23:00Z</time></trkpt><trkpt lat="43.77340462303083" lon="11.449781880521515"><ele>99.0</ele><time>2026-04-23T10:23:01Z</time></trkpt><trkpt lat="43.77324871631461" lon="11.4496170308845"><ele>96.66666666666667</ele><time>2026-04-23T10:23:02Z</time></trkpt><trkpt lat="43.773065764509276" lon="11.449488488736696"><ele>94.33333333333334</ele><time>2026-04-23T10:23:03Z</time></trkpt><trkpt lat="43.77286680044817" lon="11.449435044983948"><ele>92.0</ele><time>2026-04-23T10:23:04Z</time></trkpt><trkpt lat="43.77268014165997" lon="11.44933904084433"><ele>90.66666666666667</ele><time>2026-04-23T10:23:05Z</time></trkpt><trkpt lat="43.77252332526967" lon="11.44921496226419"><ele>89.33333333333333</ele><time>2026-04-23T10:23:06Z</time></trkpt><trkpt lat="43.772401762093914" lon="11.449041234630858"><ele>88.0</ele><time>2026-04-23T10:23:07Z</time></trkpt><trkpt lat="43.77226365781589" lon="11.448862711895229"><ele>87.0</ele><time>2026-04-23T10:23:08Z</time></trkpt><trkpt lat="43.77215884996495" lon="11.448647217335939"><ele>86.0</ele><time>2026-04-23T10:23:09Z</time></trkpt><trkpt lat="43.77205725776504" lon="11.448417719093943"><ele>85.0</ele><time>2026-04-23T10:23:10Z</time></trkpt><trkpt lat="43.77195967180062" lon="11.448190466210143"><ele>84.66666666666666</ele><time>2026-04-23T10:23:11Z</time></trkpt><trkpt lat="43.77186425746175" lon="11.447953369943082"><ele>84.33333333333333</ele><time>2026-04-23T10:23:12Z</time></trkpt><trkpt lat="43.771772414111425" lon="11.4477160641674"><ele>84.0</ele><time>2026-04-23T10:23:13Z</time></trkpt><trkpt lat="43.77168676914522" lon="11.447473272411678"><ele>84.0</ele><time>2026-04-23T10:23:14Z</time></trkpt><trkpt lat="43.7716163100786" lon="11.447221635929031"><ele>84.0</ele><time>2026-04-23T10:23:15Z</time></trkpt><trkpt lat="43.77156331522964" lon="11.44696253166507"><ele>84.0</ele><time>2026-04-23T10:23:16Z</time></trkpt><trkpt lat="43.77152491443124" lon="11.446696750025838"><ele>84.0</ele><time>2026-04-23T10:23:17Z</time></trkpt><trkpt lat="43.77149730401929" lon="11.446421984930806"><ele>84.0</ele><time>2026-04-23T10:23:18Z</time></trkpt><trkpt lat="43.77147313566153" lon="11.446142061839797"><ele>84.0</ele><time>2026-04-23T10:23:19Z</time></trkpt><trkpt lat="43.77144824894389" lon="11.445863219989667"><ele>83.66666666666667</ele><time>2026-04-23T10:23:20Z</time></trkpt><trkpt lat="43.77142668419144" lon="11.445577918621456"><ele>83.33333333333334</ele><time>2026-04-23T10:23:21Z</time></trkpt><trkpt lat="43.77140598509155" lon="11.445283624044073"><ele>83.0</ele><time>2026-04-23T10:23:22Z</time></trkpt><trkpt lat="43.77138309223722" lon="11.444994522767699"><ele>83.0</ele><time>2026-04-23T10:23:23Z</time></trkpt><trkpt lat="43.77135912650876" lon="11.444702517974493"><ele>83.0</ele><time>2026-04-23T10:23:24Z</time></trkpt><trkpt lat="43.77133460348815" lon="11.44441159759998"><ele>83.0</ele><time>2026-04-23T10:23:25Z</time></trkpt><trkpt lat="43.77131254494509" lon="11.444114784596508"><ele>83.0</ele><time>2026-04-23T10:23:26Z</time></trkpt><trkpt lat="43.771291546812094" lon="11.443822910232052"><ele>83.0</ele><time>2026-04-23T10:23:27Z</time></trkpt><trkpt lat="43.77126776182648" lon="11.44354320430476"><ele>83.0</ele><time>2026-04-23T10:23:28Z</time></trkpt><trkpt lat="43.771242751037065" lon="11.443265288343635"><ele>82.33333333333334</ele><time>2026-04-23T10:23:29Z</time></trkpt><trkpt lat="43.77121556547703" lon="11.442994275878482"><ele>81.66666666666667</ele><time>2026-04-23T10:23:30Z</time></trkpt><trkpt lat="43.77118692650394" lon="11.442731521180297"><ele>81.0</ele><time>2026-04-23T10:23:31Z</time></trkpt><trkpt lat="43.771161371359334" lon="11.442473084620424"><ele>80.66666666666667</ele><time>2026-04-23T10:23:32Z</time></trkpt><trkpt lat="43.77113512983665" lon="11.442222719834945"><ele>80.33333333333334</ele><time>2026-04-23T10:23:33Z</time></trkpt><trkpt lat="43.77109785150777" lon="11.441985841619156"><ele>80.0</ele><time>2026-04-23T10:23:34Z</time></trkpt><trkpt lat="43.771048465841325" lon="11.441763899353338"><ele>80.0</ele><time>2026-04-23T10:23:35Z</time></trkpt><trkpt lat="43.770992598040735" lon="11.441543256594143"><ele>80.0</ele><time>2026-04-23T10:23:36Z</time></trkpt><trkpt lat="43.770936206813204" lon="11.441332172983461"><ele>80.0</ele><time>2026-04-23T10:23:37Z</time></trkpt><trkpt lat="43.77087434060659" lon="11.441118857272071"><ele>80.0</ele><time>2026-04-23T10:23:38Z</time></trkpt><trkpt lat="43.77081191315142" lon="11.440913047524948"><ele>80.0</ele><time>2026-04-23T10:23:39Z</time></trkpt><trkpt lat="43.77073646863288" lon="11.440700995301398"><ele>80.0</ele><time>2026-04-23T10:23:40Z</time></trkpt><trkpt lat="43.77065852202832" lon="11.440480079168022"><ele>80.66666666666667</ele><time>2026-04-23T10:23:41Z</time></trkpt><trkpt lat="43.77057898968037" lon="11.44025129840912"><ele>81.33333333333333</ele><time>2026-04-23T10:23:42Z</time></trkpt><trkpt lat="43.770496339056436" lon="11.440013819501269"><ele>82.0</ele><time>2026-04-23T10:23:43Z</time></trkpt><trkpt lat="43.77041418069338" lon="11.439777186762429"><ele>82.66666666666666</ele><time>2026-04-23T10:23:43.999Z</time></trkpt><trkpt lat="43.770326905729505" lon="11.439533750709183"><ele>83.33333333333333</ele><time>2026-04-23T10:23:44.999Z</time></trkpt><trkpt lat="43.77024167132711" lon="11.439299693703855"><ele>84.0</ele><time>2026-04-23T10:23:45.999Z</time></trkpt><trkpt lat="43.770165813853325" lon="11.439089784494682"><ele>83.75</ele><time>2026-04-23T10:23:46.999Z</time></trkpt><trkpt lat="43.770107644948304" lon="11.438926464766142"><ele>83.5</ele><time>2026-04-23T10:23:47.999Z</time></trkpt><trkpt lat="43.77005879975052" lon="11.438792535232484"><ele>83.25</ele><time>2026-04-23T10:23:48.999Z</time></trkpt><trkpt lat="43.770011345272394" lon="11.438666087793985"><ele>83.0</ele><time>2026-04-23T10:23:49.999Z</time></trkpt><trkpt lat="43.76995701372103" lon="11.4385035885663"><ele>83.0</ele><time>2026-04-23T10:23:50.999Z</time></trkpt><trkpt lat="43.769895071805685" lon="11.438332811995723"><ele>83.0</ele><time>2026-04-23T10:23:51.999Z</time></trkpt><trkpt lat="43.76984913355922" lon="11.438150181749114"><ele>83.0</ele><time>2026-04-23T10:23:52.999Z</time></trkpt><trkpt lat="43.76977713270327" lon="11.437967313611333"><ele>83.0</ele><time>2026-04-23T10:23:53.999Z</time></trkpt><trkpt lat="43.769720396953794" lon="11.43776051919329"><ele>83.0</ele><time>2026-04-23T10:23:54.999Z</time></trkpt><trkpt lat="43.76966702093615" lon="11.437538924251252"><ele>83.0</ele><time>2026-04-23T10:23:55.999Z</time></trkpt><trkpt lat="43.76961615647183" lon="11.437311938218937"><ele>83.0</ele><time>2026-04-23T10:23:56.999Z</time></trkpt><trkpt lat="43.76957095375658" lon="11.437082916909544"><ele>83.0</ele><time>2026-04-23T10:23:57.999Z</time></trkpt><trkpt lat="43.76952724173371" lon="11.436844376166478"><ele>83.0</ele><time>2026-04-23T10:23:58.999Z</time></trkpt><trkpt lat="43.76948634607104" lon="11.436597721606828"><ele>83.0</ele><time>2026-04-23T10:23:59.999Z</time></trkpt><trkpt lat="43.76944683668654" lon="11.43634670041179"><ele>83.33333333333334</ele><time>2026-04-23T10:24:00.999Z</time></trkpt><trkpt lat="43.76941343335824" lon="11.43608770981049"><ele>83.66666666666667</ele><time>2026-04-23T10:24:01.999Z</time></trkpt><trkpt lat="43.769381258578356" lon="11.43581798962228"><ele>84.0</ele><time>2026-04-23T10:24:02.999Z</time></trkpt><trkpt lat="43.7693620039538" lon="11.43553864893474"><ele>83.33333333333333</ele><time>2026-04-23T10:24:03.999Z</time></trkpt><trkpt lat="43.769351898157964" lon="11.435273717766682"><ele>82.66666666666666</ele><time>2026-04-23T10:24:04.999Z</time></trkpt><trkpt lat="43.76935326881185" lon="11.435001143252396"><ele>82.0</ele><time>2026-04-23T10:24:05.999Z</time></trkpt><trkpt lat="43.7693549829939" lon="11.434749853543536"><ele>82.0</ele><time>2026-04-23T10:24:06.999Z</time></trkpt><trkpt lat="43.76936995155227" lon="11.434491166376787"><ele>82.0</ele><time>2026-04-23T10:24:07.999Z</time></trkpt><trkpt lat="43.76938965949676" lon="11.434234325170324"><ele>82.0</ele><time>2026-04-23T10:24:08.999Z</time></trkpt><trkpt lat="43.76940415091479" lon="11.433980215713492"><ele>82.0</ele><time>2026-04-23T10:24:09.999Z</time></trkpt><trkpt lat="43.76943419698485" lon="11.433740792012198"><ele>82.0</ele><time>2026-04-23T10:24:10.999Z</time></trkpt><trkpt lat="43.76948583741797" lon="11.433518172092692"><ele>82.0</ele><time>2026-04-23T10:24:11.999Z</time></trkpt><trkpt lat="43.76952058571726" lon="11.433332493630632"><ele>82.0</ele><time>2026-04-23T10:24:12.999Z</time></trkpt><trkpt lat="43.76954717285058" lon="11.433148969462898"><ele>82.0</ele><time>2026-04-23T10:24:13.999Z</time></trkpt><trkpt lat="43.76959480402348" lon="11.432964747278914"><ele>82.0</ele><time>2026-04-23T10:24:14.999Z</time></trkpt><trkpt lat="43.769644375809555" lon="11.432771431259823"><ele>82.0</ele><time>2026-04-23T10:24:15.999Z</time></trkpt><trkpt lat="43.76969620877592" lon="11.432577270746558"><ele>82.0</ele><time>2026-04-23T10:24:16.999Z</time></trkpt><trkpt lat="43.7697528762584" lon="11.43238930646955"><ele>82.0</ele><time>2026-04-23T10:24:17.999Z</time></trkpt><trkpt lat="43.769813539479955" lon="11.432193775587278"><ele>82.0</ele><time>2026-04-23T10:24:18.999Z</time></trkpt><trkpt lat="43.76987987379595" lon="11.431988837250467"><ele>81.33333333333333</ele><time>2026-04-23T10:24:19.999Z</time></trkpt><trkpt lat="43.76995568215623" lon="11.431779686942457"><ele>80.66666666666667</ele><time>2026-04-23T10:24:20.999Z</time></trkpt><trkpt lat="43.77002716437122" lon="11.431557285727793"><ele>80.0</ele><time>2026-04-23T10:24:22.001Z</time></trkpt><trkpt lat="43.770111157356276" lon="11.431336825103436"><ele>79.66666666666667</ele><time>2026-04-23T10:24:23.001Z</time></trkpt><trkpt lat="43.770184791623834" lon="11.431109455680055"><ele>79.33333333333333</ele><time>2026-04-23T10:24:24.001Z</time></trkpt><trkpt lat="43.770264615826044" lon="11.430884319965406"><ele>79.0</ele><time>2026-04-23T10:24:25.001Z</time></trkpt><trkpt lat="43.77034857955275" lon="11.430660677454554"><ele>79.66666666666666</ele><time>2026-04-23T10:24:26.001Z</time></trkpt><trkpt lat="43.770429713523036" lon="11.43042344297757"><ele>80.33333333333333</ele><time>2026-04-23T10:24:27.001Z</time></trkpt><trkpt lat="43.77050836412087" lon="11.430204133951861"><ele>81.0</ele><time>2026-04-23T10:24:28.001Z</time></trkpt><trkpt lat="43.770582318369016" lon="11.429978813495424"><ele>81.0</ele><time>2026-04-23T10:24:29Z</time></trkpt><trkpt lat="43.7706609868878" lon="11.429741393607465"><ele>81.0</ele><time>2026-04-23T10:24:30Z</time></trkpt><trkpt lat="43.77073256903393" lon="11.42951637407498"><ele>81.0</ele><time>2026-04-23T10:24:31Z</time></trkpt><trkpt lat="43.7708044472033" lon="11.42929171225653"><ele>81.0</ele><time>2026-04-23T10:24:32Z</time></trkpt><trkpt lat="43.770874667030775" lon="11.42905815913836"><ele>81.0</ele><time>2026-04-23T10:24:33Z</time></trkpt><trkpt lat="43.77093541161022" lon="11.428820166090555"><ele>81.0</ele><time>2026-04-23T10:24:34Z</time></trkpt><trkpt lat="43.77099354370077" lon="11.42858983886347"><ele>81.33333333333333</ele><time>2026-04-23T10:24:35Z</time></trkpt><trkpt lat="43.771055041146326" lon="11.42835264099246"><ele>81.66666666666666</ele><time>2026-04-23T10:24:36Z</time></trkpt><trkpt lat="43.77111189301091" lon="11.428115044371232"><ele>82.0</ele><time>2026-04-23T10:24:37Z</time></trkpt><trkpt lat="43.77116510096175" lon="11.427875217042487"><ele>82.0</ele><time>2026-04-23T10:24:38Z</time></trkpt><trkpt lat="43.771221942691376" lon="11.42763285817628"><ele>82.0</ele><time>2026-04-23T10:24:39Z</time></trkpt><trkpt lat="43.77129421452112" lon="11.427366156899174"><ele>82.0</ele><time>2026-04-23T10:24:40Z</time></trkpt><trkpt lat="43.77135819510693" lon="11.427096707071888"><ele>81.66666666666666</ele><time>2026-04-23T10:24:41Z</time></trkpt><trkpt lat="43.77142591064657" lon="11.4268143534794"><ele>81.33333333333333</ele><time>2026-04-23T10:24:42Z</time></trkpt><trkpt lat="43.77149589922893" lon="11.426528526011605"><ele>81.0</ele><time>2026-04-23T10:24:43Z</time></trkpt><trkpt lat="43.77156584540155" lon="11.426235972708744"><ele>81.0</ele><time>2026-04-23T10:24:44Z</time></trkpt><trkpt lat="43.77163346518729" lon="11.425943002446537"><ele>81.0</ele><time>2026-04-23T10:24:45Z</time></trkpt><trkpt lat="43.77169828846791" lon="11.425657603839545"><ele>81.0</ele><time>2026-04-23T10:24:46Z</time></trkpt><trkpt lat="43.77176205753409" lon="11.425376752180727"><ele>81.0</ele><time>2026-04-23T10:24:47Z</time></trkpt><trkpt lat="43.771826990772524" lon="11.425094227436754"><ele>81.0</ele><time>2026-04-23T10:24:48Z</time></trkpt><trkpt lat="43.771896014422886" lon="11.424812931601961"><ele>81.0</ele><time>2026-04-23T10:24:49Z</time></trkpt><trkpt lat="43.77196398116673" lon="11.424530634344208"><ele>81.33333333333333</ele><time>2026-04-23T10:24:50Z</time></trkpt><trkpt lat="43.77203013049966" lon="11.424248513285654"><ele>81.66666666666666</ele><time>2026-04-23T10:24:51Z</time></trkpt><trkpt lat="43.77209734897006" lon="11.423966765159781"><ele>82.0</ele><time>2026-04-23T10:24:52Z</time></trkpt><trkpt lat="43.772159690869174" lon="11.423681536465308"><ele>82.0</ele><time>2026-04-23T10:24:53Z</time></trkpt><trkpt lat="43.77222408630668" lon="11.423403835260618"><ele>82.0</ele><time>2026-04-23T10:24:54Z</time></trkpt><trkpt lat="43.77229002770111" lon="11.423121976992514"><ele>82.0</ele><time>2026-04-23T10:24:55Z</time></trkpt><trkpt lat="43.772354589947255" lon="11.42284257049947"><ele>81.66666666666666</ele><time>2026-04-23T10:24:56Z</time></trkpt><trkpt lat="43.77242103985604" lon="11.422560929193969"><ele>81.33333333333333</ele><time>2026-04-23T10:24:57Z</time></trkpt><trkpt lat="43.77248450158657" lon="11.422270893519281"><ele>81.0</ele><time>2026-04-23T10:24:58Z</time></trkpt><trkpt lat="43.772549997457254" lon="11.4219807533007"><ele>81.0</ele><time>2026-04-23T10:24:59Z</time></trkpt><trkpt lat="43.772617856913385" lon="11.421689874745942"><ele>81.0</ele><time>2026-04-23T10:25:00Z</time></trkpt><trkpt lat="43.772688889161515" lon="11.421402225497634"><ele>81.0</ele><time>2026-04-23T10:25:01Z</time></trkpt><trkpt lat="43.772761660026674" lon="11.421113218172444"><ele>81.0</ele><time>2026-04-23T10:25:02Z</time></trkpt><trkpt lat="43.77283121574938" lon="11.420821529066469"><ele>81.0</ele><time>2026-04-23T10:25:03Z</time></trkpt><trkpt lat="43.77289861216657" lon="11.42052684164547"><ele>81.0</ele><time>2026-04-23T10:25:04Z</time></trkpt><trkpt lat="43.772966745978536" lon="11.420230789530406"><ele>81.0</ele><time>2026-04-23T10:25:05Z</time></trkpt><trkpt lat="43.773034774359516" lon="11.419936797722345"><ele>81.0</ele><time>2026-04-23T10:25:06Z</time></trkpt><trkpt lat="43.7731034888217" lon="11.419645467564598"><ele>81.0</ele><time>2026-04-23T10:25:07Z</time></trkpt><trkpt lat="43.773167933621096" lon="11.419353440072507"><ele>81.0</ele><time>2026-04-23T10:25:08Z</time></trkpt><trkpt lat="43.77323385982677" lon="11.419063691587365"><ele>81.0</ele><time>2026-04-23T10:25:09Z</time></trkpt><trkpt lat="43.77329777772616" lon="11.418784358986002"><ele>81.0</ele><time>2026-04-23T10:25:10Z</time></trkpt><trkpt lat="43.77336321354524" lon="11.418519386431083"><ele>81.0</ele><time>2026-04-23T10:25:11Z</time></trkpt><trkpt lat="43.77342265007682" lon="11.4182828850255"><ele>81.0</ele><time>2026-04-23T10:25:12Z</time></trkpt><trkpt lat="43.773478922189284" lon="11.418066778407628"><ele>81.0</ele><time>2026-04-23T10:25:13Z</time></trkpt><trkpt lat="43.773529702512846" lon="11.417865977391429"><ele>81.0</ele><time>2026-04-23T10:25:14Z</time></trkpt><trkpt lat="43.77359139933208" lon="11.417671805561103"><ele>81.0</ele><time>2026-04-23T10:25:15Z</time></trkpt><trkpt lat="43.77367329715836" lon="11.417488944261986"><ele>81.0</ele><time>2026-04-23T10:25:16Z</time></trkpt><trkpt lat="43.77377511267996" lon="11.417332886679475"><ele>81.0</ele><time>2026-04-23T10:25:17Z</time></trkpt><trkpt lat="43.77387719364654" lon="11.417211397839754"><ele>81.0</ele><time>2026-04-23T10:25:17.999Z</time></trkpt><trkpt lat="43.7739799113334" lon="11.417116317155916"><ele>81.0</ele><time>2026-04-23T10:25:18.999Z</time></trkpt><trkpt lat="43.77408079171091" lon="11.417048405177884"><ele>81.0</ele><time>2026-04-23T10:25:19.999Z</time></trkpt><trkpt lat="43.77419660388958" lon="11.41701544489785"><ele>81.0</ele><time>2026-04-23T10:25:20.999Z</time></trkpt><trkpt lat="43.774339379282864" lon="11.417017571882957"><ele>81.0</ele><time>2026-04-23T10:25:21.999Z</time></trkpt><trkpt lat="43.774463434208236" lon="11.416996780914719"><ele>81.0</ele><time>2026-04-23T10:25:22.999Z</time></trkpt><trkpt lat="43.77457556848087" lon="11.416948854901369"><ele>81.0</ele><time>2026-04-23T10:25:23.999Z</time></trkpt><trkpt lat="43.77464832526956" lon="11.41688409089609"><ele>81.25</ele><time>2026-04-23T10:25:24.999Z</time></trkpt><trkpt lat="43.77472939990273" lon="11.41679194079777"><ele>81.5</ele><time>2026-04-23T10:25:25.999Z</time></trkpt><trkpt lat="43.774724566672504" lon="11.416592259429265"><ele>81.75</ele><time>2026-04-23T10:25:26.999Z</time></trkpt><trkpt lat="43.77470973266423" lon="11.416433811226732"><ele>82.0</ele><time>2026-04-23T10:25:27.999Z</time></trkpt><trkpt lat="43.774658017228816" lon="11.416279767004799"><ele>81.33333333333333</ele><time>2026-04-23T10:25:28.999Z</time></trkpt><trkpt lat="43.77457551501889" lon="11.416131140666744"><ele>80.66666666666667</ele><time>2026-04-23T10:25:29.999Z</time></trkpt><trkpt lat="43.774479829529604" lon="11.41596465016966"><ele>80.0</ele><time>2026-04-23T10:25:30.999Z</time></trkpt><trkpt lat="43.7744052810674" lon="11.415760208899208"><ele>80.0</ele><time>2026-04-23T10:25:31.999Z</time></trkpt><trkpt lat="43.7743658126981" lon="11.415516348633249"><ele>80.0</ele><time>2026-04-23T10:25:32.999Z</time></trkpt><trkpt lat="43.77435373445506" lon="11.415256964533954"><ele>80.0</ele><time>2026-04-23T10:25:33.999Z</time></trkpt><trkpt lat="43.77433974809143" lon="11.41502305271756"><ele>79.33333333333334</ele><time>2026-04-23T10:25:34.999Z</time></trkpt><trkpt lat="43.77431869077264" lon="11.414794963222638"><ele>78.66666666666667</ele><time>2026-04-23T10:25:35.999Z</time></trkpt><trkpt lat="43.77429615312918" lon="11.414562910416302"><ele>78.0</ele><time>2026-04-23T10:25:36.999Z</time></trkpt><trkpt lat="43.77427438467628" lon="11.414336864981061"><ele>78.0</ele><time>2026-04-23T10:25:37.999Z</time></trkpt><trkpt lat="43.77425395518185" lon="11.41410626216729"><ele>78.0</ele><time>2026-04-23T10:25:38.999Z</time></trkpt><trkpt lat="43.774231014905986" lon="11.413867276915203"><ele>78.0</ele><time>2026-04-23T10:25:39.999Z</time></trkpt><trkpt lat="43.7742091952523" lon="11.4136365626384"><ele>78.0</ele><time>2026-04-23T10:25:40.999Z</time></trkpt><trkpt lat="43.77418882033847" lon="11.41342532394235"><ele>78.0</ele><time>2026-04-23T10:25:41.999Z</time></trkpt><trkpt lat="43.7741685818065" lon="11.41322398780406"><ele>78.0</ele><time>2026-04-23T10:25:42.999Z</time></trkpt><trkpt lat="43.77415709753547" lon="11.413035359396812"><ele>78.0</ele><time>2026-04-23T10:25:43.999Z</time></trkpt><trkpt lat="43.77416198421866" lon="11.412842621606698"><ele>78.33333333333333</ele><time>2026-04-23T10:25:44.999Z</time></trkpt><trkpt lat="43.77417782435581" lon="11.412624527395517"><ele>78.66666666666666</ele><time>2026-04-23T10:25:45.999Z</time></trkpt><trkpt lat="43.77420092523134" lon="11.412385157145021"><ele>79.0</ele><time>2026-04-23T10:25:46.999Z</time></trkpt><trkpt lat="43.7742365465516" lon="11.412138716986858"><ele>79.0</ele><time>2026-04-23T10:25:47.999Z</time></trkpt><trkpt lat="43.774296956395865" lon="11.411888595047593"><ele>79.0</ele><time>2026-04-23T10:25:48.999Z</time></trkpt><trkpt lat="43.77437734037179" lon="11.411647410541038"><ele>79.0</ele><time>2026-04-23T10:25:49.999Z</time></trkpt><trkpt lat="43.77447960444331" lon="11.411412667349563"><ele>79.66666666666666</ele><time>2026-04-23T10:25:50.999Z</time></trkpt><trkpt lat="43.774623980218664" lon="11.411217903541361"><ele>80.33333333333333</ele><time>2026-04-23T10:25:51.999Z</time></trkpt><trkpt lat="43.77476689693047" lon="11.4110195480341"><ele>81.0</ele><time>2026-04-23T10:25:52.999Z</time></trkpt><trkpt lat="43.774927600290944" lon="11.410854115946409"><ele>81.0</ele><time>2026-04-23T10:25:53.999Z</time></trkpt><trkpt lat="43.77508882330176" lon="11.410678968294402"><ele>81.0</ele><time>2026-04-23T10:25:54.999Z</time></trkpt><trkpt lat="43.77523919788166" lon="11.410492451130905"><ele>81.0</ele><time>2026-04-23T10:25:55.999Z</time></trkpt><trkpt lat="43.775382032420175" lon="11.41029277591155"><ele>80.66666666666667</ele><time>2026-04-23T10:25:56.999Z</time></trkpt><trkpt lat="43.77552279026467" lon="11.410084415857273"><ele>80.33333333333334</ele><time>2026-04-23T10:25:57.999Z</time></trkpt><trkpt lat="43.77565994951804" lon="11.409876425027088"><ele>80.0</ele><time>2026-04-23T10:25:58.999Z</time></trkpt><trkpt lat="43.775796293055116" lon="11.409669397489651"><ele>80.33333333333334</ele><time>2026-04-23T10:25:59.999Z</time></trkpt><trkpt lat="43.775941644415205" lon="11.409450974487568"><ele>80.66666666666667</ele><time>2026-04-23T10:26:00.999Z</time></trkpt><trkpt lat="43.77609048057562" lon="11.40921013072185"><ele>81.0</ele><time>2026-04-23T10:26:01.999Z</time></trkpt><trkpt lat="43.776241328437415" lon="11.408946528983584"><ele>80.0</ele><time>2026-04-23T10:26:02.999Z</time></trkpt><trkpt lat="43.776378463933526" lon="11.408676543235236"><ele>79.0</ele><time>2026-04-23T10:26:03.999Z</time></trkpt><trkpt lat="43.776521527542464" lon="11.408401648112527"><ele>79.0</ele><time>2026-04-23T10:26:04.999Z</time></trkpt><trkpt lat="43.77666161847604" lon="11.408125267601845"><ele>79.0</ele><time>2026-04-23T10:26:05.999Z</time></trkpt><trkpt lat="43.776794835016844" lon="11.407856971203774"><ele>78.5</ele><time>2026-04-23T10:26:06.999Z</time></trkpt><trkpt lat="43.77692444727346" lon="11.407592636338808"><ele>78.0</ele><time>2026-04-23T10:26:07.999Z</time></trkpt><trkpt lat="43.77705373856146" lon="11.407335981340967"><ele>77.33333333333333</ele><time>2026-04-23T10:26:08.999Z</time></trkpt><trkpt lat="43.777181011042835" lon="11.40708820909082"><ele>76.66666666666666</ele><time>2026-04-23T10:26:09.999Z</time></trkpt><trkpt lat="43.77731508297383" lon="11.40683355967627"><ele>76.0</ele><time>2026-04-23T10:26:10.999Z</time></trkpt><trkpt lat="43.77744281050121" lon="11.406583958571773"><ele>76.0</ele><time>2026-04-23T10:26:11.999Z</time></trkpt><trkpt lat="43.77756630667891" lon="11.406336769035677"><ele>76.0</ele><time>2026-04-23T10:26:12.999Z</time></trkpt><trkpt lat="43.77769105852553" lon="11.40609271371461"><ele>76.0</ele><time>2026-04-23T10:26:13.999Z</time></trkpt><trkpt lat="43.777816494064766" lon="11.405852473785378"><ele>76.0</ele><time>2026-04-23T10:26:14.999Z</time></trkpt><trkpt lat="43.77793940425377" lon="11.405616845437729"><ele>76.0</ele><time>2026-04-23T10:26:15.999Z</time></trkpt><trkpt lat="43.778058976741576" lon="11.405380784390747"><ele>76.0</ele><time>2026-04-23T10:26:16.999Z</time></trkpt><trkpt lat="43.778171154761104" lon="11.405147982418008"><ele>76.0</ele><time>2026-04-23T10:26:17.999Z</time></trkpt><trkpt lat="43.77829174214622" lon="11.404916187403817"><ele>76.0</ele><time>2026-04-23T10:26:18.999Z</time></trkpt><trkpt lat="43.77840762132784" lon="11.404684338453082"><ele>76.0</ele><time>2026-04-23T10:26:19.999Z</time></trkpt><trkpt lat="43.77852525683222" lon="11.404453427083004"><ele>76.0</ele><time>2026-04-23T10:26:20.999Z</time></trkpt><trkpt lat="43.77864117358889" lon="11.404211869476157"><ele>76.0</ele><time>2026-04-23T10:26:21.998Z</time></trkpt><trkpt lat="43.77874802780954" lon="11.403960398971277"><ele>76.0</ele><time>2026-04-23T10:26:22.998Z</time></trkpt><trkpt lat="43.77882885334092" lon="11.40369747113797"><ele>76.66666666666666</ele><time>2026-04-23T10:26:23.998Z</time></trkpt><trkpt lat="43.778894646371995" lon="11.403418703906027"><ele>77.33333333333333</ele><time>2026-04-23T10:26:24.998Z</time></trkpt><trkpt lat="43.77895205257413" lon="11.403133432133503"><ele>78.0</ele><time>2026-04-23T10:26:25.998Z</time></trkpt><trkpt lat="43.77901446603547" lon="11.402850603658544"><ele>78.33333333333333</ele><time>2026-04-23T10:26:26.998Z</time></trkpt><trkpt lat="43.779089654981114" lon="11.40257961128053"><ele>78.66666666666666</ele><time>2026-04-23T10:26:27.998Z</time></trkpt><trkpt lat="43.7791836587566" lon="11.402313272925074"><ele>79.0</ele><time>2026-04-23T10:26:28.998Z</time></trkpt><trkpt lat="43.77929945666522" lon="11.40206725874613"><ele>78.0</ele><time>2026-04-23T10:26:29.998Z</time></trkpt><trkpt lat="43.77943813341755" lon="11.401842723275344"><ele>77.0</ele><time>2026-04-23T10:26:30.998Z</time></trkpt><trkpt lat="43.77958866195598" lon="11.401634708227688"><ele>76.0</ele><time>2026-04-23T10:26:31.998Z</time></trkpt><trkpt lat="43.779752186163606" lon="11.401444747260317"><ele>75.66666666666666</ele><time>2026-04-23T10:26:32.998Z</time></trkpt><trkpt lat="43.77991873844463" lon="11.401266385384321"><ele>75.33333333333333</ele><time>2026-04-23T10:26:33.998Z</time></trkpt><trkpt lat="43.78008491991862" lon="11.401083413967598"><ele>75.0</ele><time>2026-04-23T10:26:34.998Z</time></trkpt><trkpt lat="43.78025302441809" lon="11.400896844968205"><ele>75.0</ele><time>2026-04-23T10:26:35.998Z</time></trkpt><trkpt lat="43.78042257082434" lon="11.400708286210456"><ele>75.0</ele><time>2026-04-23T10:26:36.998Z</time></trkpt><trkpt lat="43.780589651668954" lon="11.400518019542782"><ele>75.0</ele><time>2026-04-23T10:26:37.998Z</time></trkpt><trkpt lat="43.780753677177586" lon="11.400321124458017"><ele>74.66666666666667</ele><time>2026-04-23T10:26:38.998Z</time></trkpt><trkpt lat="43.78091949785557" lon="11.400126231675161"><ele>74.33333333333334</ele><time>2026-04-23T10:26:39.998Z</time></trkpt><trkpt lat="43.78109100215146" lon="11.399933615933783"><ele>74.0</ele><time>2026-04-23T10:26:40.999Z</time></trkpt><trkpt lat="43.78124059423833" lon="11.399758257473813"><ele>74.66666666666667</ele><time>2026-04-23T10:26:41.999Z</time></trkpt><trkpt lat="43.78137809644275" lon="11.39959964253141"><ele>75.33333333333333</ele><time>2026-04-23T10:26:42.999Z</time></trkpt><trkpt lat="43.78151478866374" lon="11.39945775632433"><ele>76.0</ele><time>2026-04-23T10:26:43.999Z</time></trkpt><trkpt lat="43.78164256345605" lon="11.399300360971854"><ele>76.0</ele><time>2026-04-23T10:26:44.999Z</time></trkpt><trkpt lat="43.781772900614115" lon="11.39914769451806"><ele>76.0</ele><time>2026-04-23T10:26:45.999Z</time></trkpt><trkpt lat="43.78190064518919" lon="11.398994961761879"><ele>76.0</ele><time>2026-04-23T10:26:46.999Z</time></trkpt><trkpt lat="43.78203480487558" lon="11.39884387866371"><ele>75.0</ele><time>2026-04-23T10:26:47.999Z</time></trkpt><trkpt lat="43.78216529966099" lon="11.398687496015752"><ele>74.0</ele><time>2026-04-23T10:26:48.999Z</time></trkpt><trkpt lat="43.78228744067345" lon="11.398511543442677"><ele>73.0</ele><time>2026-04-23T10:26:49.999Z</time></trkpt><trkpt lat="43.78240560433836" lon="11.39833204903341"><ele>73.0</ele><time>2026-04-23T10:26:50.999Z</time></trkpt><trkpt lat="43.78251826891868" lon="11.398143511463932"><ele>73.0</ele><time>2026-04-23T10:26:51.999Z</time></trkpt><trkpt lat="43.78262447593291" lon="11.397942065779185"><ele>73.0</ele><time>2026-04-23T10:26:52.999Z</time></trkpt><trkpt lat="43.78272886375581" lon="11.39773126893866"><ele>74.33333333333333</ele><time>2026-04-23T10:26:53.999Z</time></trkpt><trkpt lat="43.78283295158677" lon="11.397514057802567"><ele>75.66666666666667</ele><time>2026-04-23T10:26:54.999Z</time></trkpt><trkpt lat="43.78292186526488" lon="11.397292045460619"><ele>77.0</ele><time>2026-04-23T10:26:55.999Z</time></trkpt><trkpt lat="43.782997995347706" lon="11.397059927720388"><ele>77.0</ele><time>2026-04-23T10:26:56.999Z</time></trkpt><trkpt lat="43.78306111190535" lon="11.39681831679337"><ele>77.0</ele><time>2026-04-23T10:26:57.999Z</time></trkpt><trkpt lat="43.78311295440944" lon="11.396567880559964"><ele>77.0</ele><time>2026-04-23T10:26:58.999Z</time></trkpt><trkpt lat="43.783160034233134" lon="11.396307602235042"><ele>77.66666666666667</ele><time>2026-04-23T10:26:59.999Z</time></trkpt><trkpt lat="43.783209727736114" lon="11.396049239060327"><ele>78.33333333333333</ele><time>2026-04-23T10:27:00.999Z</time></trkpt><trkpt lat="43.78327287672578" lon="11.395795192200179"><ele>79.0</ele><time>2026-04-23T10:27:01.999Z</time></trkpt><trkpt lat="43.78334847184012" lon="11.395547170441873"><ele>78.33333333333333</ele><time>2026-04-23T10:27:02.999Z</time></trkpt><trkpt lat="43.783442024493176" lon="11.395316411790002"><ele>77.66666666666667</ele><time>2026-04-23T10:27:03.999Z</time></trkpt><trkpt lat="43.7835528660836" lon="11.395104025362041"><ele>77.0</ele><time>2026-04-23T10:27:04.999Z</time></trkpt><trkpt lat="43.78368080264659" lon="11.394906755552556"><ele>77.0</ele><time>2026-04-23T10:27:05.999Z</time></trkpt><trkpt lat="43.783819600404655" lon="11.394722289648108"><ele>77.0</ele><time>2026-04-23T10:27:06.999Z</time></trkpt><trkpt lat="43.783969380339435" lon="11.394551486529076"><ele>77.0</ele><time>2026-04-23T10:27:07.999Z</time></trkpt><trkpt lat="43.78412290216967" lon="11.394398790806854"><ele>79.0</ele><time>2026-04-23T10:27:08.999Z</time></trkpt><trkpt lat="43.78427792618756" lon="11.394253658187406"><ele>81.0</ele><time>2026-04-23T10:27:09.999Z</time></trkpt><trkpt lat="43.78443257175192" lon="11.394109247263957"><ele>83.0</ele><time>2026-04-23T10:27:10.999Z</time></trkpt><trkpt lat="43.78458194866944" lon="11.39396235931599"><ele>86.0</ele><time>2026-04-23T10:27:11.999Z</time></trkpt><trkpt lat="43.78472784040282" lon="11.39380559815859"><ele>89.0</ele><time>2026-04-23T10:27:12.999Z</time></trkpt><trkpt lat="43.78486676390439" lon="11.393637915104797"><ele>92.0</ele><time>2026-04-23T10:27:13.999Z</time></trkpt><trkpt lat="43.785006095917126" lon="11.393462008676766"><ele>92.0</ele><time>2026-04-23T10:27:14.999Z</time></trkpt><trkpt lat="43.78514124706308" lon="11.39327719225783"><ele>92.0</ele><time>2026-04-23T10:27:15.999Z</time></trkpt><trkpt lat="43.785270150316705" lon="11.393082803224218"><ele>92.0</ele><time>2026-04-23T10:27:16.999Z</time></trkpt><trkpt lat="43.78539122284198" lon="11.39287828700038"><ele>90.66666666666667</ele><time>2026-04-23T10:27:17.999Z</time></trkpt><trkpt lat="43.78550676814801" lon="11.392669085624279"><ele>89.33333333333333</ele><time>2026-04-23T10:27:18.999Z</time></trkpt><trkpt lat="43.78561408568309" lon="11.392454940975222"><ele>88.0</ele><time>2026-04-23T10:27:19.999Z</time></trkpt><trkpt lat="43.785708239159554" lon="11.392232103590153"><ele>89.33333333333333</ele><time>2026-04-23T10:27:20.999Z</time></trkpt><trkpt lat="43.7857978011489" lon="11.39200567595686"><ele>90.66666666666667</ele><time>2026-04-23T10:27:21.999Z</time></trkpt><trkpt lat="43.78588007297215" lon="11.39176753218709"><ele>92.0</ele><time>2026-04-23T10:27:22.999Z</time></trkpt><trkpt lat="43.78596028318848" lon="11.39152218821949"><ele>88.33333333333334</ele><time>2026-04-23T10:27:23.999Z</time></trkpt><trkpt lat="43.78604131104253" lon="11.391267779205288"><ele>84.66666666666667</ele><time>2026-04-23T10:27:24.999Z</time></trkpt><trkpt lat="43.78612332813543" lon="11.391011074421572"><ele>81.0</ele><time>2026-04-23T10:27:25.999Z</time></trkpt><trkpt lat="43.786206455258736" lon="11.39075684505995"><ele>81.33333333333333</ele><time>2026-04-23T10:27:26.999Z</time></trkpt><trkpt lat="43.786290405759594" lon="11.390507624235315"><ele>81.66666666666666</ele><time>2026-04-23T10:27:27.999Z</time></trkpt><trkpt lat="43.78636751481666" lon="11.390255112755048"><ele>82.0</ele><time>2026-04-23T10:27:28.999Z</time></trkpt><trkpt lat="43.78644459664888" lon="11.38999956352311"><ele>82.0</ele><time>2026-04-23T10:27:29.999Z</time></trkpt><trkpt lat="43.786520409226014" lon="11.389754357531686"><ele>82.0</ele><time>2026-04-23T10:27:30.999Z</time></trkpt><trkpt lat="43.786594721930385" lon="11.389517549626216"><ele>82.0</ele><time>2026-04-23T10:27:31.999Z</time></trkpt><trkpt lat="43.78666787111296" lon="11.38927556727984"><ele>83.66666666666666</ele><time>2026-04-23T10:27:32.999Z</time></trkpt><trkpt lat="43.78674312040368" lon="11.389033351901578"><ele>85.33333333333333</ele><time>2026-04-23T10:27:33.999Z</time></trkpt><trkpt lat="43.78681414998716" lon="11.388775611789331"><ele>87.0</ele><time>2026-04-23T10:27:34.999Z</time></trkpt><trkpt lat="43.7868685866056" lon="11.388503746367054"><ele>84.0</ele><time>2026-04-23T10:27:35.999Z</time></trkpt><trkpt lat="43.78690692515753" lon="11.388215837384372"><ele>81.0</ele><time>2026-04-23T10:27:36.999Z</time></trkpt><trkpt lat="43.786916058894505" lon="11.38793470837586"><ele>78.0</ele><time>2026-04-23T10:27:37.999Z</time></trkpt><trkpt lat="43.786904123400724" lon="11.387653124661323"><ele>78.0</ele><time>2026-04-23T10:27:38.999Z</time></trkpt><trkpt lat="43.78688414005059" lon="11.387369523043443"><ele>78.0</ele><time>2026-04-23T10:27:39.999Z</time></trkpt><trkpt lat="43.78686227446089" lon="11.387087153888235"><ele>78.0</ele><time>2026-04-23T10:27:40.998Z</time></trkpt><trkpt lat="43.78684353856728" lon="11.386807134951527"><ele>78.33333333333333</ele><time>2026-04-23T10:27:41.998Z</time></trkpt><trkpt lat="43.78682437986045" lon="11.386550751623538"><ele>78.66666666666666</ele><time>2026-04-23T10:27:42.998Z</time></trkpt><trkpt lat="43.786807494119635" lon="11.386290223894182"><ele>79.0</ele><time>2026-04-23T10:27:43.998Z</time></trkpt><trkpt lat="43.78679343900018" lon="11.3860298698221"><ele>79.0</ele><time>2026-04-23T10:27:44.998Z</time></trkpt><trkpt lat="43.78677880004834" lon="11.385771418449231"><ele>79.0</ele><time>2026-04-23T10:27:45.998Z</time></trkpt><trkpt lat="43.78676256178323" lon="11.385510734921931"><ele>79.0</ele><time>2026-04-23T10:27:46.998Z</time></trkpt><trkpt lat="43.786739474789606" lon="11.385244042834103"><ele>78.66666666666666</ele><time>2026-04-23T10:27:47.998Z</time></trkpt><trkpt lat="43.786707804626076" lon="11.38497982357386"><ele>78.33333333333333</ele><time>2026-04-23T10:27:48.998Z</time></trkpt><trkpt lat="43.78665458557953" lon="11.384715110228592"><ele>78.0</ele><time>2026-04-23T10:27:49.998Z</time></trkpt><trkpt lat="43.786581482143745" lon="11.384460307713047"><ele>77.33333333333333</ele><time>2026-04-23T10:27:50.998Z</time></trkpt><trkpt lat="43.78649495379531" lon="11.384227501324673"><ele>76.66666666666666</ele><time>2026-04-23T10:27:51.998Z</time></trkpt><trkpt lat="43.786397895963276" lon="11.38399843194786"><ele>76.0</ele><time>2026-04-23T10:27:52.998Z</time></trkpt><trkpt lat="43.78629020630697" lon="11.383780311992426"><ele>76.33333333333333</ele><time>2026-04-23T10:27:53.998Z</time></trkpt><trkpt lat="43.78617411421916" lon="11.383575290472812"><ele>76.66666666666667</ele><time>2026-04-23T10:27:54.998Z</time></trkpt><trkpt lat="43.786051325828815" lon="11.38337902409325"><ele>77.0</ele><time>2026-04-23T10:27:55.998Z</time></trkpt><trkpt lat="43.785925086066776" lon="11.383188517381829"><ele>75.0</ele><time>2026-04-23T10:27:56.998Z</time></trkpt><trkpt lat="43.78579219062396" lon="11.38300896840929"><ele>73.0</ele><time>2026-04-23T10:27:57.998Z</time></trkpt><trkpt lat="43.78564566890711" lon="11.382848981650806"><ele>71.0</ele><time>2026-04-23T10:27:58.998Z</time></trkpt><trkpt lat="43.785487740720214" lon="11.3827084778606"><ele>71.0</ele><time>2026-04-23T10:27:59.998Z</time></trkpt><trkpt lat="43.785322581799626" lon="11.382590508316305"><ele>71.0</ele><time>2026-04-23T10:28:00.998Z</time></trkpt><trkpt lat="43.78515457312397" lon="11.382478000069474"><ele>71.0</ele><time>2026-04-23T10:28:01.998Z</time></trkpt><trkpt lat="43.784991283306944" lon="11.382355937592292"><ele>71.0</ele><time>2026-04-23T10:28:02.998Z</time></trkpt><trkpt lat="43.78484305489283" lon="11.382196992124438"><ele>71.0</ele><time>2026-04-23T10:28:03.998Z</time></trkpt><trkpt lat="43.784724285299916" lon="11.382001827293285"><ele>71.0</ele><time>2026-04-23T10:28:04.998Z</time></trkpt><trkpt lat="43.78461582208061" lon="11.381799364258754"><ele>71.0</ele><time>2026-04-23T10:28:05.998Z</time></trkpt><trkpt lat="43.784506589489276" lon="11.381593469792133"><ele>71.0</ele><time>2026-04-23T10:28:06.998Z</time></trkpt><trkpt lat="43.78440911941014" lon="11.381367411013077"><ele>71.0</ele><time>2026-04-23T10:28:07.998Z</time></trkpt><trkpt lat="43.78430427470763" lon="11.381147081401378"><ele>73.66666666666667</ele><time>2026-04-23T10:28:08.998Z</time></trkpt><trkpt lat="43.78419775405489" lon="11.380927010900148"><ele>76.33333333333333</ele><time>2026-04-23T10:28:09.998Z</time></trkpt><trkpt lat="43.78409692662704" lon="11.380704486416413"><ele>79.0</ele><time>2026-04-23T10:28:10.998Z</time></trkpt><trkpt lat="43.78400673853696" lon="11.38047051499889"><ele>79.0</ele><time>2026-04-23T10:28:11.998Z</time></trkpt><trkpt lat="43.783925392686974" lon="11.38023119858616"><ele>79.0</ele><time>2026-04-23T10:28:12.998Z</time></trkpt><trkpt lat="43.7838514498793" lon="11.379966409878405"><ele>79.0</ele><time>2026-04-23T10:28:13.998Z</time></trkpt><trkpt lat="43.783774682213085" lon="11.379709387146333"><ele>77.66666666666666</ele><time>2026-04-23T10:28:14.998Z</time></trkpt><trkpt lat="43.78370919786875" lon="11.379444684215969"><ele>76.33333333333333</ele><time>2026-04-23T10:28:15.998Z</time></trkpt><trkpt lat="43.78365611577718" lon="11.37917155552706"><ele>75.0</ele><time>2026-04-23T10:28:16.998Z</time></trkpt><trkpt lat="43.7836098200394" lon="11.378902617656871"><ele>73.66666666666667</ele><time>2026-04-23T10:28:17.998Z</time></trkpt><trkpt lat="43.78354812235162" lon="11.378644506392236"><ele>72.33333333333334</ele><time>2026-04-23T10:28:18.998Z</time></trkpt><trkpt lat="43.78347771919222" lon="11.378381249734154"><ele>71.0</ele><time>2026-04-23T10:28:19.998Z</time></trkpt><trkpt lat="43.78339912247959" lon="11.378118355759023"><ele>78.0</ele><time>2026-04-23T10:28:20.998Z</time></trkpt><trkpt lat="43.78331796174351" lon="11.37784473881436"><ele>85.0</ele><time>2026-04-23T10:28:21.998Z</time></trkpt><trkpt lat="43.78323812489786" lon="11.377549396101468"><ele>92.0</ele><time>2026-04-23T10:28:22.998Z</time></trkpt><trkpt lat="43.78315973018361" lon="11.37719382857418"><ele>88.0</ele><time>2026-04-23T10:28:23.998Z</time></trkpt><trkpt lat="43.783076077386426" lon="11.376782062247212"><ele>84.0</ele><time>2026-04-23T10:28:24.998Z</time></trkpt><trkpt lat="43.78297117511791" lon="11.37636559912116"><ele>81.0</ele><time>2026-04-23T10:28:25.998Z</time></trkpt><trkpt lat="43.782893154233456" lon="11.376280942318227"><ele>78.0</ele><time>2026-04-23T10:28:26.998Z</time></trkpt><trkpt lat="43.78281188281147" lon="11.375980077314049"><ele>75.0</ele><time>2026-04-23T10:28:27.998Z</time></trkpt><trkpt lat="43.78274373089996" lon="11.375681584403306"><ele>73.33333333333333</ele><time>2026-04-23T10:28:28.998Z</time></trkpt><trkpt lat="43.78269341444706" lon="11.375390431706668"><ele>71.66666666666666</ele><time>2026-04-23T10:28:29.998Z</time></trkpt><trkpt lat="43.78264826381404" lon="11.375097200489662"><ele>70.0</ele><time>2026-04-23T10:28:30.998Z</time></trkpt><trkpt lat="43.78261940444411" lon="11.374801176002538"><ele>73.33333333333333</ele><time>2026-04-23T10:28:31.998Z</time></trkpt><trkpt lat="43.78261688189113" lon="11.374500699562725"><ele>76.66666666666667</ele><time>2026-04-23T10:28:32.998Z</time></trkpt><trkpt lat="43.7826062586466" lon="11.374205046963251"><ele>80.0</ele><time>2026-04-23T10:28:33.998Z</time></trkpt><trkpt lat="43.7825982312526" lon="11.373905290727533"><ele>79.66666666666667</ele><time>2026-04-23T10:28:34.998Z</time></trkpt><trkpt lat="43.782574122188116" lon="11.37361309485652"><ele>79.33333333333333</ele><time>2026-04-23T10:28:35.998Z</time></trkpt><trkpt lat="43.78257392074831" lon="11.373331734315782"><ele>79.0</ele><time>2026-04-23T10:28:36.998Z</time></trkpt><trkpt lat="43.78256745100966" lon="11.373074976341377"><ele>79.66666666666666</ele><time>2026-04-23T10:28:37.998Z</time></trkpt><trkpt lat="43.7825610615673" lon="11.372826588746461"><ele>80.33333333333333</ele><time>2026-04-23T10:28:38.998Z</time></trkpt><trkpt lat="43.78255609610382" lon="11.372570992737652"><ele>81.0</ele><time>2026-04-23T10:28:39.998Z</time></trkpt><trkpt lat="43.78255011359805" lon="11.372322927934276"><ele>80.0</ele><time>2026-04-23T10:28:40.998Z</time></trkpt><trkpt lat="43.782545668140095" lon="11.372074514347805"><ele>79.0</ele><time>2026-04-23T10:28:41.998Z</time></trkpt><trkpt lat="43.78256757751626" lon="11.371820710121929"><ele>78.0</ele><time>2026-04-23T10:28:42.998Z</time></trkpt><trkpt lat="43.782586371011114" lon="11.371589494317751"><ele>78.0</ele><time>2026-04-23T10:28:43.998Z</time></trkpt><trkpt lat="43.782592620349185" lon="11.371372365003205"><ele>78.0</ele><time>2026-04-23T10:28:44.998Z</time></trkpt><trkpt lat="43.782616505508585" lon="11.371178216285818"><ele>78.0</ele><time>2026-04-23T10:28:45.998Z</time></trkpt><trkpt lat="43.78263152046463" lon="11.371013305673744"><ele>78.0</ele><time>2026-04-23T10:28:46.998Z</time></trkpt><trkpt lat="43.782651558503005" lon="11.37086516666162"><ele>78.5</ele><time>2026-04-23T10:28:47.998Z</time></trkpt><trkpt lat="43.78266463609773" lon="11.370740294994226"><ele>79.0</ele><time>2026-04-23T10:28:48.998Z</time></trkpt><trkpt lat="43.78267951211371" lon="11.370562117963429"><ele>79.5</ele><time>2026-04-23T10:28:49.998Z</time></trkpt><trkpt lat="43.78269545835344" lon="11.370369409877346"><ele>80.0</ele><time>2026-04-23T10:28:50.998Z</time></trkpt><trkpt lat="43.78271357820733" lon="11.370161122120729"><ele>76.0</ele><time>2026-04-23T10:28:51.998Z</time></trkpt><trkpt lat="43.78273337707622" lon="11.369941129626618"><ele>72.0</ele><time>2026-04-23T10:28:52.998Z</time></trkpt><trkpt lat="43.78275397373712" lon="11.369710604686176"><ele>68.0</ele><time>2026-04-23T10:28:53.999Z</time></trkpt><trkpt lat="43.78277300064718" lon="11.369472726041746"><ele>68.0</ele><time>2026-04-23T10:28:54.999Z</time></trkpt><trkpt lat="43.78279798013676" lon="11.369231054876488"><ele>68.0</ele><time>2026-04-23T10:28:55.999Z</time></trkpt><trkpt lat="43.782823860625655" lon="11.368978649208008"><ele>68.0</ele><time>2026-04-23T10:28:56.999Z</time></trkpt><trkpt lat="43.78285346978556" lon="11.368728153950084"><ele>68.33333333333334</ele><time>2026-04-23T10:28:57.999Z</time></trkpt><trkpt lat="43.78287306505304" lon="11.368465683983327"><ele>68.66666666666667</ele><time>2026-04-23T10:28:58.999Z</time></trkpt><trkpt lat="43.78290038365248" lon="11.368187009064965"><ele>69.0</ele><time>2026-04-23T10:28:59.999Z</time></trkpt><trkpt lat="43.78291028925027" lon="11.367918108254647"><ele>69.0</ele><time>2026-04-23T10:29:00.999Z</time></trkpt><trkpt lat="43.78289822151505" lon="11.367642626291648"><ele>69.0</ele><time>2026-04-23T10:29:01.999Z</time></trkpt><trkpt lat="43.78287077271316" lon="11.367365433001515"><ele>69.0</ele><time>2026-04-23T10:29:02.999Z</time></trkpt><trkpt lat="43.78281866000991" lon="11.36710298517772"><ele>68.66666666666667</ele><time>2026-04-23T10:29:03.999Z</time></trkpt><trkpt lat="43.7827507082652" lon="11.366850771677276"><ele>68.33333333333334</ele><time>2026-04-23T10:29:04.999Z</time></trkpt><trkpt lat="43.78267178058766" lon="11.366607058614566"><ele>68.0</ele><time>2026-04-23T10:29:05.999Z</time></trkpt><trkpt lat="43.782576564555214" lon="11.366379731965049"><ele>70.0</ele><time>2026-04-23T10:29:06.999Z</time></trkpt><trkpt lat="43.78246829415892" lon="11.36616534980898"><ele>72.0</ele><time>2026-04-23T10:29:07.999Z</time></trkpt><trkpt lat="43.78234823725312" lon="11.365966389202374"><ele>74.0</ele><time>2026-04-23T10:29:08.999Z</time></trkpt><trkpt lat="43.782212381406744" lon="11.365786939882158"><ele>74.0</ele><time>2026-04-23T10:29:09.999Z</time></trkpt><trkpt lat="43.78206983388502" lon="11.365629017090566"><ele>74.0</ele><time>2026-04-23T10:29:10.999Z</time></trkpt><trkpt lat="43.78192174201266" lon="11.365474293885748"><ele>74.0</ele><time>2026-04-23T10:29:11.999Z</time></trkpt><trkpt lat="43.78177036386865" lon="11.365336481376008"><ele>75.66666666666667</ele><time>2026-04-23T10:29:12.999Z</time></trkpt><trkpt lat="43.781615983966944" lon="11.365200504328014"><ele>77.33333333333333</ele><time>2026-04-23T10:29:13.999Z</time></trkpt><trkpt lat="43.78146390393659" lon="11.36506431845467"><ele>79.0</ele><time>2026-04-23T10:29:14.999Z</time></trkpt><trkpt lat="43.78131251037034" lon="11.364931550040168"><ele>79.0</ele><time>2026-04-23T10:29:15.999Z</time></trkpt><trkpt lat="43.781156157005" lon="11.364811608767628"><ele>79.0</ele><time>2026-04-23T10:29:16.999Z</time></trkpt><trkpt lat="43.78099103314847" lon="11.364701578136689"><ele>79.0</ele><time>2026-04-23T10:29:17.999Z</time></trkpt><trkpt lat="43.78082505168899" lon="11.364600759871749"><ele>79.0</ele><time>2026-04-23T10:29:18.999Z</time></trkpt><trkpt lat="43.7806541095028" lon="11.364507765812066"><ele>79.0</ele><time>2026-04-23T10:29:19.999Z</time></trkpt><trkpt lat="43.780484709647645" lon="11.364427930315111"><ele>79.0</ele><time>2026-04-23T10:29:20.999Z</time></trkpt><trkpt lat="43.78031274656018" lon="11.364359723496147"><ele>80.0</ele><time>2026-04-23T10:29:21.999Z</time></trkpt><trkpt lat="43.780137500379126" lon="11.364296359036834"><ele>81.0</ele><time>2026-04-23T10:29:22.999Z</time></trkpt><trkpt lat="43.77996553158289" lon="11.364230603396106"><ele>82.0</ele><time>2026-04-23T10:29:23.999Z</time></trkpt><trkpt lat="43.77980453811595" lon="11.36416706346678"><ele>82.0</ele><time>2026-04-23T10:29:24.999Z</time></trkpt><trkpt lat="43.77965664416743" lon="11.36410605500268"><ele>82.0</ele><time>2026-04-23T10:29:25.999Z</time></trkpt><trkpt lat="43.77951643853215" lon="11.364051291286774"><ele>82.0</ele><time>2026-04-23T10:29:26.999Z</time></trkpt><trkpt lat="43.77938115593644" lon="11.364002417541508"><ele>82.0</ele><time>2026-04-23T10:29:27.999Z</time></trkpt><trkpt lat="43.779238689291226" lon="11.363947500418098"><ele>81.33333333333333</ele><time>2026-04-23T10:29:28.999Z</time></trkpt><trkpt lat="43.779090645933124" lon="11.363889261371378"><ele>80.66666666666667</ele><time>2026-04-23T10:29:29.999Z</time></trkpt><trkpt lat="43.77894003130552" lon="11.363841757440122"><ele>80.0</ele><time>2026-04-23T10:29:30.999Z</time></trkpt><trkpt lat="43.77878339822977" lon="11.363808749029012"><ele>78.33333333333334</ele><time>2026-04-23T10:29:31.999Z</time></trkpt><trkpt lat="43.778621489017496" lon="11.363796568422904"><ele>76.66666666666667</ele><time>2026-04-23T10:29:32.999Z</time></trkpt><trkpt lat="43.77845226687424" lon="11.363790617406679"><ele>75.0</ele><time>2026-04-23T10:29:33.999Z</time></trkpt><trkpt lat="43.7782842361774" lon="11.36379952295042"><ele>74.33333333333333</ele><time>2026-04-23T10:29:34.999Z</time></trkpt><trkpt lat="43.778120860239476" lon="11.363814499332182"><ele>73.66666666666666</ele><time>2026-04-23T10:29:35.999Z</time></trkpt><trkpt lat="43.777974852912195" lon="11.363826960694944"><ele>73.0</ele><time>2026-04-23T10:29:36.999Z</time></trkpt><trkpt lat="43.777826767124026" lon="11.363836849124219"><ele>72.0</ele><time>2026-04-23T10:29:37.999Z</time></trkpt><trkpt lat="43.77767810012965" lon="11.363837933366494"><ele>71.0</ele><time>2026-04-23T10:29:38.999Z</time></trkpt><trkpt lat="43.777526963872944" lon="11.363819740373808"><ele>70.0</ele><time>2026-04-23T10:29:39.999Z</time></trkpt><trkpt lat="43.777373014762" lon="11.36379235470377"><ele>70.0</ele><time>2026-04-23T10:29:40.999Z</time></trkpt><trkpt lat="43.777216230798835" lon="11.363763288900806"><ele>70.0</ele><time>2026-04-23T10:29:41.999Z</time></trkpt><trkpt lat="43.77707108381727" lon="11.363683167615418"><ele>70.0</ele><time>2026-04-23T10:29:42.999Z</time></trkpt><trkpt lat="43.776929314585814" lon="11.36362453500567"><ele>69.75</ele><time>2026-04-23T10:29:43.999Z</time></trkpt><trkpt lat="43.77680248652952" lon="11.363560454118026"><ele>69.5</ele><time>2026-04-23T10:29:44.999Z</time></trkpt><trkpt lat="43.77667228301751" lon="11.363492290187295"><ele>69.25</ele><time>2026-04-23T10:29:45.999Z</time></trkpt><trkpt lat="43.77653711218451" lon="11.36342152579744"><ele>69.0</ele><time>2026-04-23T10:29:46.999Z</time></trkpt><trkpt lat="43.776404868823306" lon="11.363351180719652"><ele>69.0</ele><time>2026-04-23T10:29:47.999Z</time></trkpt><trkpt lat="43.776283758487395" lon="11.363286066368419"><ele>69.0</ele><time>2026-04-23T10:29:48.999Z</time></trkpt><trkpt lat="43.776158059439645" lon="11.363220583968186"><ele>69.0</ele><time>2026-04-23T10:29:49.999Z</time></trkpt><trkpt lat="43.77602670935182" lon="11.363153358788992"><ele>69.0</ele><time>2026-04-23T10:29:50.999Z</time></trkpt><trkpt lat="43.77589213616657" lon="11.363088280722321"><ele>69.0</ele><time>2026-04-23T10:29:51.999Z</time></trkpt><trkpt lat="43.77575784227689" lon="11.363052572412668"><ele>69.0</ele><time>2026-04-23T10:29:52.999Z</time></trkpt><trkpt lat="43.775635766892165" lon="11.363006922292037"><ele>69.0</ele><time>2026-04-23T10:29:53.999Z</time></trkpt><trkpt lat="43.7755168932931" lon="11.362975536907607"><ele>69.0</ele><time>2026-04-23T10:29:54.999Z</time></trkpt><trkpt lat="43.7754064576447" lon="11.362923068205694"><ele>68.5</ele><time>2026-04-23T10:29:55.999Z</time></trkpt><trkpt lat="43.775284740312095" lon="11.3628899604434"><ele>68.0</ele><time>2026-04-23T10:29:56.999Z</time></trkpt><trkpt lat="43.775154171251735" lon="11.36285435838272"><ele>67.5</ele><time>2026-04-23T10:29:57.999Z</time></trkpt><trkpt lat="43.77501777607686" lon="11.3628171676931"><ele>67.0</ele><time>2026-04-23T10:29:58.999Z</time></trkpt><trkpt lat="43.77488003947634" lon="11.362779611229474"><ele>66.75</ele><time>2026-04-23T10:29:59.999Z</time></trkpt><trkpt lat="43.774740956518066" lon="11.36274168773106"><ele>66.5</ele><time>2026-04-23T10:30:00.999Z</time></trkpt><trkpt lat="43.77460085477897" lon="11.362702854983013"><ele>66.25</ele><time>2026-04-23T10:30:01.999Z</time></trkpt><trkpt lat="43.774471348762845" lon="11.362666541915267"><ele>66.0</ele><time>2026-04-23T10:30:02.999Z</time></trkpt><trkpt lat="43.77435048847276" lon="11.362632653147314"><ele>66.0</ele><time>2026-04-23T10:30:03.999Z</time></trkpt><trkpt lat="43.774238247899916" lon="11.362601181339944"><ele>66.0</ele><time>2026-04-23T10:30:04.999Z</time></trkpt><trkpt lat="43.77412677607684" lon="11.362570090354577"><ele>66.0</ele><time>2026-04-23T10:30:05.999Z</time></trkpt><trkpt lat="43.77402398792186" lon="11.362542894726708"><ele>66.0</ele><time>2026-04-23T10:30:06.999Z</time></trkpt><trkpt lat="43.773932424215225" lon="11.362518668840588"><ele>66.0</ele><time>2026-04-23T10:30:07.999Z</time></trkpt><trkpt lat="43.77384121236802" lon="11.362517296292971"><ele>66.0</ele><time>2026-04-23T10:30:08.999Z</time></trkpt><trkpt lat="43.77376640185964" lon="11.36248371212293"><ele>66.0</ele><time>2026-04-23T10:30:09.999Z</time></trkpt><trkpt lat="43.77368419192234" lon="11.36246814487486"><ele>66.0</ele><time>2026-04-23T10:30:10.999Z</time></trkpt><trkpt lat="43.77359308737159" lon="11.362450710110567"><ele>66.0</ele><time>2026-04-23T10:30:11.999Z</time></trkpt><trkpt lat="43.77349315784165" lon="11.362401401399866"><ele>66.0</ele><time>2026-04-23T10:30:12.999Z</time></trkpt><trkpt lat="43.773390717478165" lon="11.362373769457571"><ele>66.75</ele><time>2026-04-23T10:30:13.999Z</time></trkpt><trkpt lat="43.77327800474745" lon="11.362343366701573"><ele>67.5</ele><time>2026-04-23T10:30:14.999Z</time></trkpt><trkpt lat="43.77314767678392" lon="11.362308244236312"><ele>68.25</ele><time>2026-04-23T10:30:15.999Z</time></trkpt><trkpt lat="43.7729998676704" lon="11.362271520281952"><ele>69.0</ele><time>2026-04-23T10:30:16.999Z</time></trkpt><trkpt lat="43.77285465589665" lon="11.362233767550975"><ele>68.75</ele><time>2026-04-23T10:30:17.999Z</time></trkpt><trkpt lat="43.77272668844592" lon="11.362193938849614"><ele>68.5</ele><time>2026-04-23T10:30:18.999Z</time></trkpt><trkpt lat="43.772614315771015" lon="11.36215411840581"><ele>68.25</ele><time>2026-04-23T10:30:19.999Z</time></trkpt><trkpt lat="43.772506966899606" lon="11.362124544589037"><ele>68.0</ele><time>2026-04-23T10:30:20.999Z</time></trkpt><trkpt lat="43.77241142367429" lon="11.362032039852041"><ele>68.0</ele><time>2026-04-23T10:30:21.999Z</time></trkpt><trkpt lat="43.77232463344717" lon="11.361952213133966"><ele>68.0</ele><time>2026-04-23T10:30:22.999Z</time></trkpt><trkpt lat="43.772237894530136" lon="11.361836221713727"><ele>68.0</ele><time>2026-04-23T10:30:23.999Z</time></trkpt><trkpt lat="43.772191891471394" lon="11.361696360335813"><ele>68.0</ele><time>2026-04-23T10:30:24.999Z</time></trkpt><trkpt lat="43.77215567846523" lon="11.361536410101042"><ele>65.75</ele><time>2026-04-23T10:30:25.999Z</time></trkpt><trkpt lat="43.77212158554103" lon="11.361355602627595"><ele>63.5</ele><time>2026-04-23T10:30:26.999Z</time></trkpt><trkpt lat="43.77207862517579" lon="11.361183885693498"><ele>61.25</ele><time>2026-04-23T10:30:27.999Z</time></trkpt><trkpt lat="43.7720222771002" lon="11.361012542187394"><ele>59.0</ele><time>2026-04-23T10:30:28.999Z</time></trkpt><trkpt lat="43.77195610927158" lon="11.360843247709722"><ele>59.0</ele><time>2026-04-23T10:30:29.999Z</time></trkpt><trkpt lat="43.77188711761048" lon="11.360668937097724"><ele>59.0</ele><time>2026-04-23T10:30:30.999Z</time></trkpt><trkpt lat="43.77182659431727" lon="11.360487030679844"><ele>59.0</ele><time>2026-04-23T10:30:31.999Z</time></trkpt><trkpt lat="43.77179122696104" lon="11.360295508861336"><ele>59.0</ele><time>2026-04-23T10:30:32.999Z</time></trkpt><trkpt lat="43.77177021816718" lon="11.360093707744085"><ele>61.5</ele><time>2026-04-23T10:30:33.999Z</time></trkpt><trkpt lat="43.771762401472564" lon="11.359899608459388"><ele>64.0</ele><time>2026-04-23T10:30:34.999Z</time></trkpt><trkpt lat="43.77174954639142" lon="11.359713381289227"><ele>66.5</ele><time>2026-04-23T10:30:35.999Z</time></trkpt><trkpt lat="43.77172250810622" lon="11.35955096638218"><ele>69.0</ele><time>2026-04-23T10:30:36.999Z</time></trkpt><trkpt lat="43.77170822039081" lon="11.359387698020521"><ele>69.0</ele><time>2026-04-23T10:30:37.999Z</time></trkpt><trkpt lat="43.771705506753904" lon="11.359205833080594"><ele>69.0</ele><time>2026-04-23T10:30:38.999Z</time></trkpt><trkpt lat="43.77168045174265" lon="11.359008596165506"><ele>69.0</ele><time>2026-04-23T10:30:39.998Z</time></trkpt><trkpt lat="43.77165661502445" lon="11.358805401262877"><ele>69.0</ele><time>2026-04-23T10:30:40.998Z</time></trkpt><trkpt lat="43.77163457898531" lon="11.35860905708888"><ele>68.75</ele><time>2026-04-23T10:30:41.998Z</time></trkpt><trkpt lat="43.77160628129783" lon="11.358420773345928"><ele>68.5</ele><time>2026-04-23T10:30:42.998Z</time></trkpt><trkpt lat="43.771587194224196" lon="11.358261697947782"><ele>68.25</ele><time>2026-04-23T10:30:43.998Z</time></trkpt><trkpt lat="43.77156688152494" lon="11.358113578136171"><ele>68.0</ele><time>2026-04-23T10:30:44.999Z</time></trkpt><trkpt lat="43.77154458977989" lon="11.357951129327304"><ele>68.0</ele><time>2026-04-23T10:30:45.999Z</time></trkpt><trkpt lat="43.771525283289904" lon="11.357774934344366"><ele>68.0</ele><time>2026-04-23T10:30:46.999Z</time></trkpt><trkpt lat="43.771515892631676" lon="11.357577280475597"><ele>68.0</ele><time>2026-04-23T10:30:47.999Z</time></trkpt><trkpt lat="43.771545351334034" lon="11.357368744056975"><ele>68.0</ele><time>2026-04-23T10:30:48.999Z</time></trkpt><trkpt lat="43.771559182706724" lon="11.357145572509072"><ele>67.66666666666667</ele><time>2026-04-23T10:30:49.999Z</time></trkpt><trkpt lat="43.771591921944236" lon="11.35692957646088"><ele>67.33333333333333</ele><time>2026-04-23T10:30:50.999Z</time></trkpt><trkpt lat="43.77161811132735" lon="11.356704280488676"><ele>67.0</ele><time>2026-04-23T10:30:51.999Z</time></trkpt><trkpt lat="43.771629285447645" lon="11.356466711680007"><ele>66.66666666666666</ele><time>2026-04-23T10:30:52.999Z</time></trkpt><trkpt lat="43.771631978249815" lon="11.356217040438134"><ele>66.33333333333333</ele><time>2026-04-23T10:30:53.999Z</time></trkpt><trkpt lat="43.77162062351967" lon="11.355971470459643"><ele>66.0</ele><time>2026-04-23T10:30:54.999Z</time></trkpt><trkpt lat="43.77159847919901" lon="11.355747943025975"><ele>66.0</ele><time>2026-04-23T10:30:55.999Z</time></trkpt><trkpt lat="43.771567534421436" lon="11.355528886915764"><ele>66.0</ele><time>2026-04-23T10:30:56.999Z</time></trkpt><trkpt lat="43.771546540356425" lon="11.355290111171069"><ele>66.0</ele><time>2026-04-23T10:30:57.999Z</time></trkpt><trkpt lat="43.77151395475456" lon="11.355055857047494"><ele>66.0</ele><time>2026-04-23T10:30:58.999Z</time></trkpt><trkpt lat="43.77148214335717" lon="11.354854441569644"><ele>66.0</ele><time>2026-04-23T10:30:59.999Z</time></trkpt><trkpt lat="43.77144748561183" lon="11.354657955688712"><ele>66.0</ele><time>2026-04-23T10:31:00.999Z</time></trkpt><trkpt lat="43.77138910129001" lon="11.354460173151804"><ele>66.0</ele><time>2026-04-23T10:31:01.999Z</time></trkpt><trkpt lat="43.77134013010966" lon="11.354240254387543"><ele>65.33333333333333</ele><time>2026-04-23T10:31:02.999Z</time></trkpt><trkpt lat="43.77127484748607" lon="11.354020657301698"><ele>64.66666666666666</ele><time>2026-04-23T10:31:03.999Z</time></trkpt><trkpt lat="43.77120236273751" lon="11.353795180833083"><ele>64.0</ele><time>2026-04-23T10:31:04.999Z</time></trkpt><trkpt lat="43.77116321003092" lon="11.353533215683251"><ele>64.0</ele><time>2026-04-23T10:31:05.999Z</time></trkpt><trkpt lat="43.7710893827381" lon="11.353288760914127"><ele>64.0</ele><time>2026-04-23T10:31:06.999Z</time></trkpt><trkpt lat="43.771015063914945" lon="11.353042781536596"><ele>64.0</ele><time>2026-04-23T10:31:07.999Z</time></trkpt><trkpt lat="43.77094019453851" lon="11.352800456690538"><ele>64.33333333333333</ele><time>2026-04-23T10:31:08.999Z</time></trkpt><trkpt lat="43.770856201914896" lon="11.352568604820728"><ele>64.66666666666667</ele><time>2026-04-23T10:31:09.999Z</time></trkpt><trkpt lat="43.77079306629387" lon="11.352354822674865"><ele>65.0</ele><time>2026-04-23T10:31:10.999Z</time></trkpt><trkpt lat="43.77072592239076" lon="11.352152361093426"><ele>65.0</ele><time>2026-04-23T10:31:11.999Z</time></trkpt><trkpt lat="43.77065298263747" lon="11.351968604909409"><ele>65.0</ele><time>2026-04-23T10:31:12.999Z</time></trkpt><trkpt lat="43.77057242256177" lon="11.351794251988418"><ele>65.0</ele><time>2026-04-23T10:31:13.999Z</time></trkpt><trkpt lat="43.77048540796027" lon="11.35161942872264"><ele>65.0</ele><time>2026-04-23T10:31:14.999Z</time></trkpt><trkpt lat="43.770426795850035" lon="11.35143717783518"><ele>65.0</ele><time>2026-04-23T10:31:15.999Z</time></trkpt><trkpt lat="43.77035417357991" lon="11.351259831131632"><ele>65.0</ele><time>2026-04-23T10:31:16.999Z</time></trkpt><trkpt lat="43.77027981088753" lon="11.351078234382788"><ele>65.0</ele><time>2026-04-23T10:31:17.999Z</time></trkpt><trkpt lat="43.770199383772145" lon="11.35087959586946"><ele>65.0</ele><time>2026-04-23T10:31:18.999Z</time></trkpt><trkpt lat="43.77011688884052" lon="11.350674714396812"><ele>65.0</ele><time>2026-04-23T10:31:19.999Z</time></trkpt><trkpt lat="43.770038992106905" lon="11.350481252414996"><ele>65.0</ele><time>2026-04-23T10:31:20.999Z</time></trkpt><trkpt lat="43.76997079758281" lon="11.35031188639775"><ele>65.0</ele><time>2026-04-23T10:31:21.999Z</time></trkpt><trkpt lat="43.76991023531934" lon="11.350161475746301"><ele>65.0</ele><time>2026-04-23T10:31:22.999Z</time></trkpt><trkpt lat="43.76984976770654" lon="11.350011300405882"><ele>65.0</ele><time>2026-04-23T10:31:23.999Z</time></trkpt><trkpt lat="43.769787458351885" lon="11.34985823078952"><ele>65.0</ele><time>2026-04-23T10:31:24.999Z</time></trkpt><trkpt lat="43.769725859550086" lon="11.349712045449948"><ele>64.5</ele><time>2026-04-23T10:31:25.999Z</time></trkpt><trkpt lat="43.76966488250988" lon="11.349565815188724"><ele>64.0</ele><time>2026-04-23T10:31:26.999Z</time></trkpt><trkpt lat="43.769606549077594" lon="11.349426109323758"><ele>63.5</ele><time>2026-04-23T10:31:27.999Z</time></trkpt><trkpt lat="43.7695479482202" lon="11.349285763370569"><ele>63.0</ele><time>2026-04-23T10:31:28.999Z</time></trkpt><trkpt lat="43.769491080764254" lon="11.349149514037267"><ele>63.0</ele><time>2026-04-23T10:31:29.999Z</time></trkpt><trkpt lat="43.76942301564471" lon="11.34901557161738"><ele>63.0</ele><time>2026-04-23T10:31:30.999Z</time></trkpt><trkpt lat="43.76936261418516" lon="11.348859177911343"><ele>63.0</ele><time>2026-04-23T10:31:31.999Z</time></trkpt><trkpt lat="43.76929331714048" lon="11.348705740906247"><ele>63.0</ele><time>2026-04-23T10:31:32.999Z</time></trkpt><trkpt lat="43.769230342639304" lon="11.34852277836825"><ele>63.66666666666667</ele><time>2026-04-23T10:31:33.999Z</time></trkpt><trkpt lat="43.76914524364439" lon="11.348317783330435"><ele>64.33333333333334</ele><time>2026-04-23T10:31:34.999Z</time></trkpt><trkpt lat="43.76904403782437" lon="11.348098288067016"><ele>65.0</ele><time>2026-04-23T10:31:35.999Z</time></trkpt><trkpt lat="43.768949043142655" lon="11.34786965552849"><ele>65.0</ele><time>2026-04-23T10:31:36.999Z</time></trkpt><trkpt lat="43.768871233577265" lon="11.347677639815863"><ele>65.0</ele><time>2026-04-23T10:31:37.999Z</time></trkpt><trkpt lat="43.76880692163581" lon="11.34749050387848"><ele>65.0</ele><time>2026-04-23T10:31:38.999Z</time></trkpt><trkpt lat="43.76873642463533" lon="11.347316744256329"><ele>64.75</ele><time>2026-04-23T10:31:39.999Z</time></trkpt><trkpt lat="43.76867493399519" lon="11.347166168858179"><ele>64.5</ele><time>2026-04-23T10:31:40.999Z</time></trkpt><trkpt lat="43.76860335118965" lon="11.346991733960417"><ele>64.25</ele><time>2026-04-23T10:31:41.999Z</time></trkpt><trkpt lat="43.76852353445117" lon="11.346797234108717"><ele>64.0</ele><time>2026-04-23T10:31:42.999Z</time></trkpt><trkpt lat="43.76844156383378" lon="11.34659758985322"><ele>64.66666666666666</ele><time>2026-04-23T10:31:43.999Z</time></trkpt><trkpt lat="43.76834176018735" lon="11.34639495897157"><ele>65.33333333333333</ele><time>2026-04-23T10:31:44.999Z</time></trkpt><trkpt lat="43.768260139768635" lon="11.34618103933043"><ele>66.0</ele><time>2026-04-23T10:31:45.999Z</time></trkpt><trkpt lat="43.768176462126405" lon="11.345978511949136"><ele>66.0</ele><time>2026-04-23T10:31:46.999Z</time></trkpt><trkpt lat="43.768097992270235" lon="11.345795820234523"><ele>66.0</ele><time>2026-04-23T10:31:47.999Z</time></trkpt><trkpt lat="43.76802075299199" lon="11.345637488171665"><ele>66.0</ele><time>2026-04-23T10:31:48.999Z</time></trkpt><trkpt lat="43.76793704055693" lon="11.345482899210214"><ele>66.0</ele><time>2026-04-23T10:31:49.999Z</time></trkpt><trkpt lat="43.76784821969704" lon="11.345332529159274"><ele>66.66666666666667</ele><time>2026-04-23T10:31:50.999Z</time></trkpt><trkpt lat="43.767749241663985" lon="11.34518781578435"><ele>67.33333333333334</ele><time>2026-04-23T10:31:51.999Z</time></trkpt><trkpt lat="43.767638029221885" lon="11.345043382515884"><ele>68.0</ele><time>2026-04-23T10:31:52.999Z</time></trkpt><trkpt lat="43.767527870356226" lon="11.34486605853228"><ele>66.33333333333334</ele><time>2026-04-23T10:31:53.999Z</time></trkpt><trkpt lat="43.76740172778097" lon="11.344690599912452"><ele>64.66666666666667</ele><time>2026-04-23T10:31:54.999Z</time></trkpt><trkpt lat="43.76727453467703" lon="11.344514510213974"><ele>63.0</ele><time>2026-04-23T10:31:55.999Z</time></trkpt><trkpt lat="43.76713414025746" lon="11.344340355048441"><ele>63.0</ele><time>2026-04-23T10:31:56.999Z</time></trkpt><trkpt lat="43.76700071842764" lon="11.344154079945472"><ele>63.0</ele><time>2026-04-23T10:31:57.999Z</time></trkpt><trkpt lat="43.76686784091757" lon="11.343966454309678"><ele>63.0</ele><time>2026-04-23T10:31:58.999Z</time></trkpt><trkpt lat="43.76674275332126" lon="11.343783989407033"><ele>64.0</ele><time>2026-04-23T10:31:59.999Z</time></trkpt><trkpt lat="43.76661400030345" lon="11.343611427557205"><ele>65.0</ele><time>2026-04-23T10:32:00.999Z</time></trkpt><trkpt lat="43.76648331736149" lon="11.34342872695656"><ele>66.0</ele><time>2026-04-23T10:32:01.999Z</time></trkpt><trkpt lat="43.766354922286574" lon="11.343248675238941"><ele>66.0</ele><time>2026-04-23T10:32:02.999Z</time></trkpt><trkpt lat="43.76621931501645" lon="11.343064132565818"><ele>66.0</ele><time>2026-04-23T10:32:03.999Z</time></trkpt><trkpt lat="43.76608363207711" lon="11.342881555536861"><ele>66.0</ele><time>2026-04-23T10:32:04.999Z</time></trkpt><trkpt lat="43.76594781924498" lon="11.342695622571805"><ele>66.33333333333333</ele><time>2026-04-23T10:32:05.999Z</time></trkpt><trkpt lat="43.765814844119106" lon="11.342506084793774"><ele>66.66666666666666</ele><time>2026-04-23T10:32:06.999Z</time></trkpt><trkpt lat="43.76569281712641" lon="11.342314196225825"><ele>67.0</ele><time>2026-04-23T10:32:07.999Z</time></trkpt><trkpt lat="43.765577788454344" lon="11.342107928197148"><ele>67.0</ele><time>2026-04-23T10:32:08.999Z</time></trkpt><trkpt lat="43.765490605601904" lon="11.341876074507292"><ele>67.0</ele><time>2026-04-23T10:32:09.999Z</time></trkpt><trkpt lat="43.76539126855841" lon="11.34167447926104"><ele>67.0</ele><time>2026-04-23T10:32:10.999Z</time></trkpt><trkpt lat="43.76530461555464" lon="11.34147627297238"><ele>66.25</ele><time>2026-04-23T10:32:11.999Z</time></trkpt><trkpt lat="43.76523553714491" lon="11.34131934873843"><ele>65.5</ele><time>2026-04-23T10:32:12.999Z</time></trkpt><trkpt lat="43.765159784399444" lon="11.341162014404096"><ele>64.75</ele><time>2026-04-23T10:32:13.999Z</time></trkpt><trkpt lat="43.76506715355413" lon="11.340994257454291"><ele>64.0</ele><time>2026-04-23T10:32:14.999Z</time></trkpt><trkpt lat="43.764964136423146" lon="11.340809562038999"><ele>63.666666666666664</ele><time>2026-04-23T10:32:15.999Z</time></trkpt><trkpt lat="43.76486236198946" lon="11.34060961349962"><ele>63.33333333333333</ele><time>2026-04-23T10:32:16.999Z</time></trkpt><trkpt lat="43.764758712727556" lon="11.340397847623782"><ele>63.0</ele><time>2026-04-23T10:32:17.999Z</time></trkpt><trkpt lat="43.764665634897426" lon="11.340176736091784"><ele>63.0</ele><time>2026-04-23T10:32:18.999Z</time></trkpt><trkpt lat="43.764577847795834" lon="11.339966678712479"><ele>63.0</ele><time>2026-04-23T10:32:19.999Z</time></trkpt><trkpt lat="43.76449708321019" lon="11.339771578693615"><ele>63.0</ele><time>2026-04-23T10:32:20.999Z</time></trkpt><trkpt lat="43.76442372142908" lon="11.339573376839661"><ele>66.33333333333333</ele><time>2026-04-23T10:32:21.999Z</time></trkpt><trkpt lat="43.764353738923326" lon="11.339374243985501"><ele>69.66666666666666</ele><time>2026-04-23T10:32:22.999Z</time></trkpt><trkpt lat="43.764303378788036" lon="11.339163501668324"><ele>73.0</ele><time>2026-04-23T10:32:23.999Z</time></trkpt><trkpt lat="43.76423192206745" lon="11.338945387447014"><ele>71.33333333333333</ele><time>2026-04-23T10:32:24.999Z</time></trkpt><trkpt lat="43.76414445561355" lon="11.33872909061245"><ele>69.66666666666667</ele><time>2026-04-23T10:32:25.999Z</time></trkpt><trkpt lat="43.76407299882831" lon="11.338491496898493"><ele>68.0</ele><time>2026-04-23T10:32:26.999Z</time></trkpt><trkpt lat="43.76400128342528" lon="11.338245837057906"><ele>68.0</ele><time>2026-04-23T10:32:27.999Z</time></trkpt><trkpt lat="43.76392571276538" lon="11.338026238903236"><ele>68.0</ele><time>2026-04-23T10:32:28.999Z</time></trkpt><trkpt lat="43.76385456736527" lon="11.337831043823234"><ele>68.0</ele><time>2026-04-23T10:32:29.999Z</time></trkpt><trkpt lat="43.76379125145156" lon="11.337611779137985"><ele>68.0</ele><time>2026-04-23T10:32:30.999Z</time></trkpt><trkpt lat="43.76371863227853" lon="11.337384307892172"><ele>68.0</ele><time>2026-04-23T10:32:31.999Z</time></trkpt><trkpt lat="43.763644491578894" lon="11.337156963044631"><ele>68.0</ele><time>2026-04-23T10:32:32.999Z</time></trkpt><trkpt lat="43.763559333551605" lon="11.336939550796519"><ele>69.66666666666667</ele><time>2026-04-23T10:32:33.999Z</time></trkpt><trkpt lat="43.76348773945929" lon="11.336715577303579"><ele>71.33333333333333</ele><time>2026-04-23T10:32:34.999Z</time></trkpt><trkpt lat="43.76340695825343" lon="11.336494315669142"><ele>73.0</ele><time>2026-04-23T10:32:35.999Z</time></trkpt><trkpt lat="43.76332298647452" lon="11.336297546365431"><ele>73.0</ele><time>2026-04-23T10:32:36.999Z</time></trkpt><trkpt lat="43.763235543911385" lon="11.33613830929908"><ele>73.0</ele><time>2026-04-23T10:32:37.999Z</time></trkpt><trkpt lat="43.76315200809028" lon="11.335989915993462"><ele>73.0</ele><time>2026-04-23T10:32:38.999Z</time></trkpt><trkpt lat="43.76307648570705" lon="11.335851198721526"><ele>73.0</ele><time>2026-04-23T10:32:39.999Z</time></trkpt><trkpt lat="43.763002270459296" lon="11.335725566272956"><ele>73.0</ele><time>2026-04-23T10:32:40.999Z</time></trkpt><trkpt lat="43.76292791720486" lon="11.335609937511412"><ele>73.0</ele><time>2026-04-23T10:32:41.999Z</time></trkpt><trkpt lat="43.762858433704274" lon="11.3355104597492"><ele>73.0</ele><time>2026-04-23T10:32:42.999Z</time></trkpt><trkpt lat="43.76278797130331" lon="11.335403372612685"><ele>73.0</ele><time>2026-04-23T10:32:43.999Z</time></trkpt><trkpt lat="43.76271495204538" lon="11.335299530789051"><ele>73.0</ele><time>2026-04-23T10:32:44.999Z</time></trkpt><trkpt lat="43.762656542582064" lon="11.335215702898951"><ele>73.0</ele><time>2026-04-23T10:32:45.999Z</time></trkpt><trkpt lat="43.76261449104877" lon="11.335144407498678"><ele>73.0</ele><time>2026-04-23T10:32:46.999Z</time></trkpt><trkpt lat="43.762547914171876" lon="11.335035101808279"><ele>73.0</ele><time>2026-04-23T10:32:47.999Z</time></trkpt><trkpt lat="43.76246483389865" lon="11.33490039016229"><ele>73.0</ele><time>2026-04-23T10:32:48.999Z</time></trkpt><trkpt lat="43.76236854005671" lon="11.334747273377019"><ele>73.0</ele><time>2026-04-23T10:32:49.999Z</time></trkpt><trkpt lat="43.76227148798071" lon="11.334567260318579"><ele>72.33333333333333</ele><time>2026-04-23T10:32:50.999Z</time></trkpt><trkpt lat="43.76216620070893" lon="11.33437588782978"><ele>71.66666666666667</ele><time>2026-04-23T10:32:51.999Z</time></trkpt><trkpt lat="43.76205645281322" lon="11.334190724851291"><ele>71.0</ele><time>2026-04-23T10:32:52.999Z</time></trkpt><trkpt lat="43.761936521360255" lon="11.334009119763529"><ele>71.0</ele><time>2026-04-23T10:32:53.999Z</time></trkpt><trkpt lat="43.761816076271835" lon="11.333813948359095"><ele>71.0</ele><time>2026-04-23T10:32:54.999Z</time></trkpt><trkpt lat="43.76170286463105" lon="11.333631221204682"><ele>71.0</ele><time>2026-04-23T10:32:55.999Z</time></trkpt><trkpt lat="43.76161360343129" lon="11.333440605365942"><ele>71.0</ele><time>2026-04-23T10:32:56.999Z</time></trkpt><trkpt lat="43.76153683981765" lon="11.333242171845729"><ele>71.0</ele><time>2026-04-23T10:32:57.999Z</time></trkpt><trkpt lat="43.76146466087151" lon="11.333023131731277"><ele>71.0</ele><time>2026-04-23T10:32:58.999Z</time></trkpt><trkpt lat="43.761393730507585" lon="11.332801172042696"><ele>70.66666666666667</ele><time>2026-04-23T10:32:59.999Z</time></trkpt><trkpt lat="43.76132129783831" lon="11.332574492424957"><ele>70.33333333333333</ele><time>2026-04-23T10:33:00.999Z</time></trkpt><trkpt lat="43.76124997650815" lon="11.33234005747535"><ele>70.0</ele><time>2026-04-23T10:33:01.999Z</time></trkpt><trkpt lat="43.76119825437477" lon="11.332105982879192"><ele>70.0</ele><time>2026-04-23T10:33:02.999Z</time></trkpt><trkpt lat="43.76113482534461" lon="11.331889757771338"><ele>70.0</ele><time>2026-04-23T10:33:03.999Z</time></trkpt><trkpt lat="43.761056016450496" lon="11.331678445908812"><ele>70.0</ele><time>2026-04-23T10:33:04.999Z</time></trkpt><trkpt lat="43.76099494109037" lon="11.331461478103355"><ele>70.33333333333333</ele><time>2026-04-23T10:33:05.999Z</time></trkpt><trkpt lat="43.76093452045016" lon="11.331243156677573"><ele>70.66666666666667</ele><time>2026-04-23T10:33:06.999Z</time></trkpt><trkpt lat="43.76087487597755" lon="11.331016193363595"><ele>71.0</ele><time>2026-04-23T10:33:07.999Z</time></trkpt><trkpt lat="43.760816023148195" lon="11.330795577754321"><ele>71.0</ele><time>2026-04-23T10:33:08.999Z</time></trkpt><trkpt lat="43.76075634522074" lon="11.330574483808546"><ele>71.0</ele><time>2026-04-23T10:33:09.999Z</time></trkpt><trkpt lat="43.76068936863023" lon="11.330350857475844"><ele>71.0</ele><time>2026-04-23T10:33:10.999Z</time></trkpt><trkpt lat="43.760616968551766" lon="11.330136091714214"><ele>70.66666666666667</ele><time>2026-04-23T10:33:11.999Z</time></trkpt><trkpt lat="43.760543174522596" lon="11.329917895420264"><ele>70.33333333333333</ele><time>2026-04-23T10:33:12.999Z</time></trkpt><trkpt lat="43.76045747418799" lon="11.329706207641992"><ele>70.0</ele><time>2026-04-23T10:33:13.999Z</time></trkpt><trkpt lat="43.7603637081355" lon="11.32950468740631"><ele>70.0</ele><time>2026-04-23T10:33:14.999Z</time></trkpt><trkpt lat="43.76025886161148" lon="11.329313448128085"><ele>70.0</ele><time>2026-04-23T10:33:15.999Z</time></trkpt><trkpt lat="43.76014237409499" lon="11.329143220631472"><ele>70.0</ele><time>2026-04-23T10:33:16.999Z</time></trkpt><trkpt lat="43.76002003419806" lon="11.328984651147072"><ele>70.0</ele><time>2026-04-23T10:33:17.999Z</time></trkpt><trkpt lat="43.75989515427572" lon="11.328830039987611"><ele>70.0</ele><time>2026-04-23T10:33:18.999Z</time></trkpt><trkpt lat="43.75976723978871" lon="11.328688795115198"><ele>70.0</ele><time>2026-04-23T10:33:19.999Z</time></trkpt><trkpt lat="43.75963281696949" lon="11.328568980205139"><ele>70.0</ele><time>2026-04-23T10:33:20.999Z</time></trkpt><trkpt lat="43.75950020711326" lon="11.328471746601316"><ele>70.0</ele><time>2026-04-23T10:33:21.999Z</time></trkpt><trkpt lat="43.759377566037806" lon="11.328391602829049"><ele>70.0</ele><time>2026-04-23T10:33:22.999Z</time></trkpt><trkpt lat="43.75925717831981" lon="11.328327672207447"><ele>70.0</ele><time>2026-04-23T10:33:23.999Z</time></trkpt><trkpt lat="43.7591459679829" lon="11.328264567820485"><ele>69.8</ele><time>2026-04-23T10:33:24.999Z</time></trkpt><trkpt lat="43.75903916876644" lon="11.328199593785055"><ele>69.6</ele><time>2026-04-23T10:33:25.999Z</time></trkpt><trkpt lat="43.75893242009509" lon="11.32814143930485"><ele>69.4</ele><time>2026-04-23T10:33:26.999Z</time></trkpt><trkpt lat="43.758834977270794" lon="11.328097468548895"><ele>69.2</ele><time>2026-04-23T10:33:27.999Z</time></trkpt><trkpt lat="43.75873128906557" lon="11.328046111097716"><ele>69.0</ele><time>2026-04-23T10:33:28.999Z</time></trkpt><trkpt lat="43.75861762040555" lon="11.327976246812197"><ele>70.0</ele><time>2026-04-23T10:33:30Z</time></trkpt><trkpt lat="43.75849984541429" lon="11.327896135195664"><ele>71.0</ele><time>2026-04-23T10:33:31Z</time></trkpt><trkpt lat="43.75837082547514" lon="11.327823684899599"><ele>72.0</ele><time>2026-04-23T10:33:32Z</time></trkpt><trkpt lat="43.75824274512692" lon="11.327767726511912"><ele>73.0</ele><time>2026-04-23T10:33:33Z</time></trkpt><trkpt lat="43.75810742350535" lon="11.327715935998356"><ele>73.0</ele><time>2026-04-23T10:33:34Z</time></trkpt><trkpt lat="43.757973496221716" lon="11.327652343464688"><ele>73.0</ele><time>2026-04-23T10:33:35Z</time></trkpt><trkpt lat="43.75784045165727" lon="11.3275910220485"><ele>73.0</ele><time>2026-04-23T10:33:36Z</time></trkpt><trkpt lat="43.75770615122079" lon="11.327525523501365"><ele>73.0</ele><time>2026-04-23T10:33:37Z</time></trkpt><trkpt lat="43.75757296369607" lon="11.327455292143927"><ele>73.25</ele><time>2026-04-23T10:33:38Z</time></trkpt><trkpt lat="43.75743761353897" lon="11.327386324694062"><ele>73.5</ele><time>2026-04-23T10:33:39Z</time></trkpt><trkpt lat="43.75730121476738" lon="11.32731928848546"><ele>73.75</ele><time>2026-04-23T10:33:40Z</time></trkpt><trkpt lat="43.75717148919845" lon="11.327254763069607"><ele>74.0</ele><time>2026-04-23T10:33:41Z</time></trkpt><trkpt lat="43.75704868850015" lon="11.327185120603495"><ele>73.5</ele><time>2026-04-23T10:33:42Z</time></trkpt><trkpt lat="43.7569346113438" lon="11.327107518289758"><ele>73.0</ele><time>2026-04-23T10:33:43Z</time></trkpt><trkpt lat="43.75683910347308" lon="11.327004097800664"><ele>72.5</ele><time>2026-04-23T10:33:44Z</time></trkpt><trkpt lat="43.75676546299594" lon="11.326871538964012"><ele>72.0</ele><time>2026-04-23T10:33:45Z</time></trkpt><trkpt lat="43.756701901724284" lon="11.32669511992548"><ele>72.0</ele><time>2026-04-23T10:33:46Z</time></trkpt><trkpt lat="43.75665586348987" lon="11.326505764089688"><ele>72.0</ele><time>2026-04-23T10:33:47Z</time></trkpt><trkpt lat="43.75663363702076" lon="11.326297355108192"><ele>72.0</ele><time>2026-04-23T10:33:48Z</time></trkpt><trkpt lat="43.75663172670016" lon="11.326069124841084"><ele>71.0</ele><time>2026-04-23T10:33:49Z</time></trkpt><trkpt lat="43.75661393850403" lon="11.325840158911305"><ele>70.0</ele><time>2026-04-23T10:33:50Z</time></trkpt><trkpt lat="43.756558914271615" lon="11.325626690415207"><ele>69.0</ele><time>2026-04-23T10:33:51Z</time></trkpt><trkpt lat="43.75646217832536" lon="11.325429167545193"><ele>68.33333333333333</ele><time>2026-04-23T10:33:52Z</time></trkpt><trkpt lat="43.75636357691617" lon="11.325226961695398"><ele>67.66666666666666</ele><time>2026-04-23T10:33:53Z</time></trkpt><trkpt lat="43.75630519334294" lon="11.324998213145891"><ele>67.0</ele><time>2026-04-23T10:33:54Z</time></trkpt><trkpt lat="43.75628872077385" lon="11.324751944823012"><ele>67.0</ele><time>2026-04-23T10:33:55Z</time></trkpt><trkpt lat="43.7563107148867" lon="11.324503876650537"><ele>67.0</ele><time>2026-04-23T10:33:56Z</time></trkpt><trkpt lat="43.75635386331247" lon="11.32426152536113"><ele>67.0</ele><time>2026-04-23T10:33:57Z</time></trkpt><trkpt lat="43.75639532844266" lon="11.32401615003132"><ele>66.66666666666666</ele><time>2026-04-23T10:33:58Z</time></trkpt><trkpt lat="43.75643265480089" lon="11.323761150167462"><ele>66.33333333333333</ele><time>2026-04-23T10:33:59Z</time></trkpt><trkpt lat="43.75646500156259" lon="11.32351682823469"><ele>66.0</ele><time>2026-04-23T10:34:00Z</time></trkpt><trkpt lat="43.75649579773592" lon="11.323268560139535"><ele>65.33333333333333</ele><time>2026-04-23T10:34:01Z</time></trkpt><trkpt lat="43.756523861063755" lon="11.32302271466164"><ele>64.66666666666666</ele><time>2026-04-23T10:34:02Z</time></trkpt><trkpt lat="43.75654601511829" lon="11.322781276380907"><ele>64.0</ele><time>2026-04-23T10:34:03Z</time></trkpt><trkpt lat="43.756562769951984" lon="11.322538514505057"><ele>64.0</ele><time>2026-04-23T10:34:04Z</time></trkpt><trkpt lat="43.756572140912716" lon="11.322297166757101"><ele>64.0</ele><time>2026-04-23T10:34:05Z</time></trkpt><trkpt lat="43.75657738711746" lon="11.322060386275403"><ele>64.0</ele><time>2026-04-23T10:34:06Z</time></trkpt><trkpt lat="43.756581146646276" lon="11.321822031206588"><ele>63.666666666666664</ele><time>2026-04-23T10:34:07Z</time></trkpt><trkpt lat="43.75657318649407" lon="11.321573001413842"><ele>63.33333333333333</ele><time>2026-04-23T10:34:08Z</time></trkpt><trkpt lat="43.756555033012845" lon="11.321318412426203"><ele>63.0</ele><time>2026-04-23T10:34:09Z</time></trkpt><trkpt lat="43.756528354552536" lon="11.321060352700046"><ele>62.66666666666667</ele><time>2026-04-23T10:34:10Z</time></trkpt><trkpt lat="43.75649583834836" lon="11.320804490508682"><ele>62.333333333333336</ele><time>2026-04-23T10:34:11Z</time></trkpt><trkpt lat="43.756458054782115" lon="11.320545779751637"><ele>62.0</ele><time>2026-04-23T10:34:12Z</time></trkpt><trkpt lat="43.75642118974273" lon="11.320284987616525"><ele>62.0</ele><time>2026-04-23T10:34:13Z</time></trkpt><trkpt lat="43.756384633975415" lon="11.320026184063654"><ele>62.0</ele><time>2026-04-23T10:34:14Z</time></trkpt><trkpt lat="43.75634547699192" lon="11.319772192303692"><ele>62.0</ele><time>2026-04-23T10:34:15Z</time></trkpt><trkpt lat="43.75630821710862" lon="11.31951895592069"><ele>62.0</ele><time>2026-04-23T10:34:16Z</time></trkpt><trkpt lat="43.75627169273749" lon="11.31927237209455"><ele>62.0</ele><time>2026-04-23T10:34:17Z</time></trkpt><trkpt lat="43.75623677572035" lon="11.31903951857357"><ele>62.0</ele><time>2026-04-23T10:34:18Z</time></trkpt><trkpt lat="43.756201246845805" lon="11.318835370937688"><ele>62.25</ele><time>2026-04-23T10:34:19Z</time></trkpt><trkpt lat="43.75616454748495" lon="11.318627395629003"><ele>62.5</ele><time>2026-04-23T10:34:20Z</time></trkpt><trkpt lat="43.75613457067187" lon="11.31843636890129"><ele>62.75</ele><time>2026-04-23T10:34:21Z</time></trkpt><trkpt lat="43.756110233002666" lon="11.318258229606718"><ele>63.0</ele><time>2026-04-23T10:34:22Z</time></trkpt><trkpt lat="43.756082567344876" lon="11.318091042386355"><ele>63.0</ele><time>2026-04-23T10:34:23Z</time></trkpt><trkpt lat="43.756057596338614" lon="11.317944573639494"><ele>63.0</ele><time>2026-04-23T10:34:24Z</time></trkpt><trkpt lat="43.756060189068094" lon="11.317839689828057"><ele>63.0</ele><time>2026-04-23T10:34:25Z</time></trkpt><trkpt lat="43.75607191961752" lon="11.317747358428075"><ele>63.0</ele><time>2026-04-23T10:34:26Z</time></trkpt><trkpt lat="43.7561180572431" lon="11.317602577684989"><ele>63.0</ele><time>2026-04-23T10:34:27Z</time></trkpt><trkpt lat="43.75618579117035" lon="11.317484503202701"><ele>63.0</ele><time>2026-04-23T10:34:28Z</time></trkpt><trkpt lat="43.75620432170515" lon="11.317347094984836"><ele>63.0</ele><time>2026-04-23T10:34:29Z</time></trkpt><trkpt lat="43.756171568310435" lon="11.31721148880032"><ele>63.0</ele><time>2026-04-23T10:34:30Z</time></trkpt><trkpt lat="43.75610093690947" lon="11.317088228338868"><ele>63.0</ele><time>2026-04-23T10:34:31Z</time></trkpt><trkpt lat="43.756009183379554" lon="11.316972294681356"><ele>63.0</ele><time>2026-04-23T10:34:32Z</time></trkpt><trkpt lat="43.75592601168456" lon="11.316839730939256"><ele>62.75</ele><time>2026-04-23T10:34:33Z</time></trkpt><trkpt lat="43.75586726796917" lon="11.316658801690348"><ele>62.5</ele><time>2026-04-23T10:34:34Z</time></trkpt><trkpt lat="43.755845006590725" lon="11.316449968464514"><ele>62.25</ele><time>2026-04-23T10:34:35Z</time></trkpt><trkpt lat="43.755810376404476" lon="11.316261745821603"><ele>62.0</ele><time>2026-04-23T10:34:36Z</time></trkpt><trkpt lat="43.75572821170163" lon="11.316120939564767"><ele>62.0</ele><time>2026-04-23T10:34:37Z</time></trkpt><trkpt lat="43.755660872399325" lon="11.315978008812413"><ele>62.0</ele><time>2026-04-23T10:34:38Z</time></trkpt><trkpt lat="43.755616523520786" lon="11.315792450945759"><ele>62.0</ele><time>2026-04-23T10:34:39Z</time></trkpt><trkpt lat="43.75567097142728" lon="11.315552098172411"><ele>62.0</ele><time>2026-04-23T10:34:40Z</time></trkpt><trkpt lat="43.755636026059946" lon="11.315315295997898"><ele>61.66666666666667</ele><time>2026-04-23T10:34:41Z</time></trkpt><trkpt lat="43.75560026035258" lon="11.315083436900085"><ele>61.33333333333333</ele><time>2026-04-23T10:34:42Z</time></trkpt><trkpt lat="43.75556245795237" lon="11.314842516889115"><ele>61.0</ele><time>2026-04-23T10:34:43Z</time></trkpt><trkpt lat="43.75552381883162" lon="11.314591364509702"><ele>60.33333333333333</ele><time>2026-04-23T10:34:44Z</time></trkpt><trkpt lat="43.75548420210918" lon="11.314330094843147"><ele>59.66666666666667</ele><time>2026-04-23T10:34:45Z</time></trkpt><trkpt lat="43.75544462667115" lon="11.314069097993695"><ele>59.0</ele><time>2026-04-23T10:34:46Z</time></trkpt><trkpt lat="43.75540478244051" lon="11.313806606273255"><ele>59.0</ele><time>2026-04-23T10:34:47Z</time></trkpt><trkpt lat="43.755365753404654" lon="11.31354961917597"><ele>59.0</ele><time>2026-04-23T10:34:48Z</time></trkpt><trkpt lat="43.755326711059354" lon="11.313292543625332"><ele>59.0</ele><time>2026-04-23T10:34:49Z</time></trkpt><trkpt lat="43.75529178726005" lon="11.313056918694981"><ele>59.333333333333336</ele><time>2026-04-23T10:34:50Z</time></trkpt><trkpt lat="43.75525967794031" lon="11.31284030996972"><ele>59.66666666666667</ele><time>2026-04-23T10:34:51Z</time></trkpt><trkpt lat="43.755228498389954" lon="11.31262997339706"><ele>60.0</ele><time>2026-04-23T10:34:51.999Z</time></trkpt><trkpt lat="43.755195728326555" lon="11.312408244389077"><ele>59.66666666666667</ele><time>2026-04-23T10:34:52.999Z</time></trkpt><trkpt lat="43.755164985279706" lon="11.31219243242617"><ele>59.333333333333336</ele><time>2026-04-23T10:34:53.999Z</time></trkpt><trkpt lat="43.75513936392664" lon="11.31197581945822"><ele>59.0</ele><time>2026-04-23T10:34:54.999Z</time></trkpt><trkpt lat="43.755116269123384" lon="11.311755231287588"><ele>59.0</ele><time>2026-04-23T10:34:55.999Z</time></trkpt><trkpt lat="43.75509426252037" lon="11.311537131461806"><ele>59.0</ele><time>2026-04-23T10:34:56.999Z</time></trkpt><trkpt lat="43.75507543948677" lon="11.311318962675372"><ele>59.0</ele><time>2026-04-23T10:34:57.999Z</time></trkpt><trkpt lat="43.75506160714019" lon="11.311098313061011"><ele>58.66666666666667</ele><time>2026-04-23T10:34:58.999Z</time></trkpt><trkpt lat="43.75505117374893" lon="11.310882417197359"><ele>58.33333333333333</ele><time>2026-04-23T10:34:59.999Z</time></trkpt><trkpt lat="43.75504184919433" lon="11.31066218340852"><ele>58.0</ele><time>2026-04-23T10:35:00.999Z</time></trkpt><trkpt lat="43.75503530760741" lon="11.310439939311324"><ele>58.0</ele><time>2026-04-23T10:35:01.999Z</time></trkpt><trkpt lat="43.755033498483975" lon="11.3102209033498"><ele>58.0</ele><time>2026-04-23T10:35:02.999Z</time></trkpt><trkpt lat="43.75503202405027" lon="11.310008258758833"><ele>58.0</ele><time>2026-04-23T10:35:03.999Z</time></trkpt><trkpt lat="43.75503140659004" lon="11.309810396925968"><ele>58.25</ele><time>2026-04-23T10:35:04.999Z</time></trkpt><trkpt lat="43.75503081513449" lon="11.309620868686027"><ele>58.5</ele><time>2026-04-23T10:35:05.999Z</time></trkpt><trkpt lat="43.755037265587056" lon="11.309444459523256"><ele>58.75</ele><time>2026-04-23T10:35:06.999Z</time></trkpt><trkpt lat="43.755046418147934" lon="11.309274136353553"><ele>59.0</ele><time>2026-04-23T10:35:07.999Z</time></trkpt><trkpt lat="43.75505740822579" lon="11.309091740501167"><ele>59.0</ele><time>2026-04-23T10:35:08.999Z</time></trkpt><trkpt lat="43.75506647324946" lon="11.30895150427915"><ele>59.00000000000001</ele><time>2026-04-23T10:35:09.999Z</time></trkpt><trkpt lat="43.75507666984913" lon="11.308802075137187"><ele>59.00000000000001</ele><time>2026-04-23T10:35:10.999Z</time></trkpt><trkpt lat="43.755085923772846" lon="11.30866646065915"><ele>59.0</ele><time>2026-04-23T10:35:11.999Z</time></trkpt><trkpt lat="43.755097293991064" lon="11.308515513742925"><ele>59.0</ele><time>2026-04-23T10:35:12.999Z</time></trkpt><trkpt lat="43.75510876122985" lon="11.308370054923806"><ele>59.0</ele><time>2026-04-23T10:35:13.999Z</time></trkpt><trkpt lat="43.75512333007678" lon="11.308229050246332"><ele>59.00000000000001</ele><time>2026-04-23T10:35:14.999Z</time></trkpt><trkpt lat="43.75514004214016" lon="11.308086840987581"><ele>59.00000000000001</ele><time>2026-04-23T10:35:15.999Z</time></trkpt><trkpt lat="43.75515748648134" lon="11.307955090779934"><ele>59.0</ele><time>2026-04-23T10:35:16.999Z</time></trkpt><trkpt lat="43.75517717140631" lon="11.307811693662375"><ele>59.0</ele><time>2026-04-23T10:35:17.999Z</time></trkpt><trkpt lat="43.75519510046599" lon="11.307681087349863"><ele>58.833333333333336</ele><time>2026-04-23T10:35:18.999Z</time></trkpt><trkpt lat="43.75521069251116" lon="11.307569532632028"><ele>58.66666666666667</ele><time>2026-04-23T10:35:19.999Z</time></trkpt><trkpt lat="43.75522796411172" lon="11.3074621071456"><ele>58.5</ele><time>2026-04-23T10:35:20.999Z</time></trkpt><trkpt lat="43.75524475280376" lon="11.307357685123854"><ele>58.33333333333333</ele><time>2026-04-23T10:35:21.999Z</time></trkpt><trkpt lat="43.755259539089245" lon="11.307267717416691"><ele>58.166666666666664</ele><time>2026-04-23T10:35:22.999Z</time></trkpt><trkpt lat="43.75527463244818" lon="11.307179679010417"><ele>58.0</ele><time>2026-04-23T10:35:24Z</time></trkpt><trkpt lat="43.755302746124684" lon="11.307018184324312"><ele>58.0</ele><time>2026-04-23T10:35:26Z</time></trkpt><trkpt lat="43.75532690853026" lon="11.306885138921754"><ele>58.0</ele><time>2026-04-23T10:35:28Z</time></trkpt><trkpt lat="43.75535187980976" lon="11.306752097396734"><ele>58.0</ele><time>2026-04-23T10:35:30Z</time></trkpt><trkpt lat="43.75536651805754" lon="11.306641739114289"><ele>58.0</ele><time>2026-04-23T10:35:32Z</time></trkpt><trkpt lat="43.75540257582907" lon="11.306519051524987"><ele>58.0</ele><time>2026-04-23T10:36:07Z</time></trkpt><trkpt lat="43.75542584592065" lon="11.306414597493925"><ele>58.0</ele><time>2026-04-23T10:36:08Z</time></trkpt><trkpt lat="43.75544682252274" lon="11.306313362802179"><ele>58.0</ele><time>2026-04-23T10:36:09Z</time></trkpt><trkpt lat="43.755474752087366" lon="11.306179105156971"><ele>58.0</ele><time>2026-04-23T10:36:10Z</time></trkpt><trkpt lat="43.755505254432464" lon="11.306043576330085"><ele>58.0</ele><time>2026-04-23T10:36:11Z</time></trkpt><trkpt lat="43.75553646026642" lon="11.305904520057563"><ele>58.0</ele><time>2026-04-23T10:36:12Z</time></trkpt><trkpt lat="43.75556263218647" lon="11.305762873013535"><ele>58.0</ele><time>2026-04-23T10:36:13Z</time></trkpt><trkpt lat="43.755593941521695" lon="11.305601920923218"><ele>58.0</ele><time>2026-04-23T10:36:14Z</time></trkpt><trkpt lat="43.755627200390094" lon="11.305433168892348"><ele>58.0</ele><time>2026-04-23T10:36:15Z</time></trkpt><trkpt lat="43.75566154604659" lon="11.305266164835306"><ele>58.0</ele><time>2026-04-23T10:36:16Z</time></trkpt><trkpt lat="43.75569352083234" lon="11.305102932096604"><ele>57.75</ele><time>2026-04-23T10:36:17Z</time></trkpt><trkpt lat="43.75572540971216" lon="11.304932270271845"><ele>57.5</ele><time>2026-04-23T10:36:18Z</time></trkpt><trkpt lat="43.75575804867432" lon="11.304774305773412"><ele>57.25</ele><time>2026-04-23T10:36:19Z</time></trkpt><trkpt lat="43.75578896796901" lon="11.30462119181951"><ele>57.0</ele><time>2026-04-23T10:36:20Z</time></trkpt><trkpt lat="43.755822466955046" lon="11.304459518287146"><ele>57.2</ele><time>2026-04-23T10:36:21Z</time></trkpt><trkpt lat="43.755853997356695" lon="11.304300079787716"><ele>57.400000000000006</ele><time>2026-04-23T10:36:22Z</time></trkpt><trkpt lat="43.755884090385166" lon="11.304139937975739"><ele>57.599999999999994</ele><time>2026-04-23T10:36:23Z</time></trkpt><trkpt lat="43.75591099444895" lon="11.303997584025907"><ele>57.8</ele><time>2026-04-23T10:36:24Z</time></trkpt><trkpt lat="43.75593347333729" lon="11.30386567686514"><ele>58.0</ele><time>2026-04-23T10:36:25Z</time></trkpt><trkpt lat="43.75594964179944" lon="11.303731014508777"><ele>58.0</ele><time>2026-04-23T10:36:26Z</time></trkpt><trkpt lat="43.75596838230949" lon="11.303591124138581"><ele>58.0</ele><time>2026-04-23T10:36:27Z</time></trkpt><trkpt lat="43.756011251277826" lon="11.303445117072302"><ele>58.0</ele><time>2026-04-23T10:36:28Z</time></trkpt><trkpt lat="43.75604015314015" lon="11.303291126477925"><ele>58.0</ele><time>2026-04-23T10:36:29Z</time></trkpt><trkpt lat="43.756069913916996" lon="11.303132319575425"><ele>58.0</ele><time>2026-04-23T10:36:30Z</time></trkpt><trkpt lat="43.756100949883255" lon="11.302966887843914"><ele>58.0</ele><time>2026-04-23T10:36:31Z</time></trkpt><trkpt lat="43.75613238654772" lon="11.302803570134278"><ele>58.0</ele><time>2026-04-23T10:36:32Z</time></trkpt><trkpt lat="43.75616660555147" lon="11.302633083805596"><ele>58.0</ele><time>2026-04-23T10:36:33Z</time></trkpt><trkpt lat="43.756201579758894" lon="11.302460074860953"><ele>58.0</ele><time>2026-04-23T10:36:34Z</time></trkpt><trkpt lat="43.756234081075064" lon="11.302301927183983"><ele>58.0</ele><time>2026-04-23T10:36:35Z</time></trkpt><trkpt lat="43.75626562654122" lon="11.302149398729279"><ele>58.0</ele><time>2026-04-23T10:36:36Z</time></trkpt><trkpt lat="43.756294776923035" lon="11.302011235651866"><ele>58.0</ele><time>2026-04-23T10:36:37Z</time></trkpt><trkpt lat="43.75631325979001" lon="11.301851628848203"><ele>57.8</ele><time>2026-04-23T10:36:38Z</time></trkpt><trkpt lat="43.756354723119124" lon="11.301739584732116"><ele>57.599999999999994</ele><time>2026-04-23T10:36:39Z</time></trkpt><trkpt lat="43.75639260554315" lon="11.301612843308352"><ele>57.400000000000006</ele><time>2026-04-23T10:36:40Z</time></trkpt><trkpt lat="43.7564537110025" lon="11.30150008396399"><ele>57.2</ele><time>2026-04-23T10:36:41Z</time></trkpt><trkpt lat="43.75648564219806" lon="11.301383490600077"><ele>57.0</ele><time>2026-04-23T10:36:42Z</time></trkpt><trkpt lat="43.75651231121907" lon="11.301251312961808"><ele>57.0</ele><time>2026-04-23T10:36:43Z</time></trkpt><trkpt lat="43.75655336461722" lon="11.301127359698574"><ele>57.0</ele><time>2026-04-23T10:36:44Z</time></trkpt><trkpt lat="43.75657351071098" lon="11.301017343632543"><ele>57.0</ele><time>2026-04-23T10:36:45Z</time></trkpt><trkpt lat="43.75659242619496" lon="11.300919024722196"><ele>57.0</ele><time>2026-04-23T10:36:46Z</time></trkpt><trkpt lat="43.75660599597157" lon="11.300832475461256"><ele>57.0</ele><time>2026-04-23T10:36:47Z</time></trkpt><trkpt lat="43.75662466219127" lon="11.300737952901112"><ele>57.0</ele><time>2026-04-23T10:36:49Z</time></trkpt><trkpt lat="43.75664783403831" lon="11.300573733440354"><ele>57.0</ele><time>2026-04-23T10:36:51Z</time></trkpt><trkpt lat="43.756668413707104" lon="11.300470597315664"><ele>57.0</ele><time>2026-04-23T10:36:52Z</time></trkpt><trkpt lat="43.756688438649505" lon="11.30038717288942"><ele>57.0</ele><time>2026-04-23T10:36:53Z</time></trkpt><trkpt lat="43.75670547312824" lon="11.300284656875357"><ele>57.0</ele><time>2026-04-23T10:36:54Z</time></trkpt><trkpt lat="43.756736291664275" lon="11.300135688109965"><ele>57.0</ele><time>2026-04-23T10:36:55Z</time></trkpt><trkpt lat="43.75676564092345" lon="11.299993821480435"><ele>57.0</ele><time>2026-04-23T10:36:56Z</time></trkpt><trkpt lat="43.75679138065934" lon="11.299871560429478"><ele>57.0</ele><time>2026-04-23T10:36:57Z</time></trkpt><trkpt lat="43.75679961769938" lon="11.299764972259089"><ele>57.0</ele><time>2026-04-23T10:36:57.999Z</time></trkpt><trkpt lat="43.756815230363195" lon="11.299648694662501"><ele>57.0</ele><time>2026-04-23T10:36:59.999Z</time></trkpt><trkpt lat="43.75683089478023" lon="11.299502144937138"><ele>57.0</ele><time>2026-04-23T10:37:31Z</time></trkpt><trkpt lat="43.75684657157049" lon="11.29940556948361"><ele>57.0</ele><time>2026-04-23T10:37:32Z</time></trkpt><trkpt lat="43.75686682208927" lon="11.299296805631696"><ele>57.0</ele><time>2026-04-23T10:37:33Z</time></trkpt><trkpt lat="43.7568864289416" lon="11.299194975417056"><ele>57.0</ele><time>2026-04-23T10:37:34Z</time></trkpt><trkpt lat="43.75690539750343" lon="11.299102838510617"><ele>57.0</ele><time>2026-04-23T10:37:35Z</time></trkpt><trkpt lat="43.75693379514346" lon="11.298954228813127"><ele>57.0</ele><time>2026-04-23T10:37:37Z</time></trkpt><trkpt lat="43.75682163106427" lon="11.298829071984008"><ele>57.0</ele><time>2026-04-23T10:37:41Z</time></trkpt><trkpt lat="43.75669529881228" lon="11.29879504761166"><ele>57.6</ele><time>2026-04-23T10:37:43Z</time></trkpt><trkpt lat="43.756617490932804" lon="11.298737098387305"><ele>58.2</ele><time>2026-04-23T10:37:44Z</time></trkpt><trkpt lat="43.756539433082395" lon="11.298686382055113"><ele>58.8</ele><time>2026-04-23T10:37:45Z</time></trkpt><trkpt lat="43.75645063571553" lon="11.298632517232809"><ele>59.4</ele><time>2026-04-23T10:37:46Z</time></trkpt><trkpt lat="43.75634960965075" lon="11.298604068091532"><ele>60.0</ele><time>2026-04-23T10:37:48Z</time></trkpt><trkpt lat="43.75626026218939" lon="11.29856899322039"><ele>60.0</ele><time>2026-04-23T10:37:49Z</time></trkpt><trkpt lat="43.756176757397924" lon="11.298531403906521"><ele>60.0</ele><time>2026-04-23T10:37:50Z</time></trkpt><trkpt lat="43.75609849593688" lon="11.29848624957628"><ele>60.0</ele><time>2026-04-23T10:37:51Z</time></trkpt><trkpt lat="43.75603550871337" lon="11.298432920661707"><ele>60.0</ele><time>2026-04-23T10:37:52Z</time></trkpt><trkpt lat="43.755982381334896" lon="11.298361416024617"><ele>60.0</ele><time>2026-04-23T10:37:53Z</time></trkpt><trkpt lat="43.75595690443278" lon="11.298252016322836"><ele>60.0</ele><time>2026-04-23T10:37:54Z</time></trkpt><trkpt lat="43.755953392750264" lon="11.298096894091165"><ele>59.75</ele><time>2026-04-23T10:37:55Z</time></trkpt><trkpt lat="43.755952627222435" lon="11.297923834162345"><ele>59.5</ele><time>2026-04-23T10:37:56Z</time></trkpt><trkpt lat="43.75594340459252" lon="11.297751203848993"><ele>59.25</ele><time>2026-04-23T10:37:57Z</time></trkpt><trkpt lat="43.75593490032437" lon="11.297591814365994"><ele>59.0</ele><time>2026-04-23T10:37:58Z</time></trkpt><trkpt lat="43.755951077375315" lon="11.297448634009966"><ele>59.0</ele><time>2026-04-23T10:37:59Z</time></trkpt><trkpt lat="43.755981521688504" lon="11.297306729520363"><ele>59.00000000000001</ele><time>2026-04-23T10:38:00Z</time></trkpt><trkpt lat="43.7560086996556" lon="11.29717787326135"><ele>59.00000000000001</ele><time>2026-04-23T10:38:01Z</time></trkpt><trkpt lat="43.75603656257781" lon="11.297092944654423"><ele>59.0</ele><time>2026-04-23T10:38:02Z</time></trkpt><trkpt lat="43.756170466702905" lon="11.297134496742448"><ele>59.0</ele><time>2026-04-23T10:38:04Z</time></trkpt><trkpt lat="43.75626820031164" lon="11.297147249633273"><ele>58.800000000000004</ele><time>2026-04-23T10:38:05Z</time></trkpt><trkpt lat="43.75634740678053" lon="11.297142565985796"><ele>58.60000000000001</ele><time>2026-04-23T10:38:06Z</time></trkpt><trkpt lat="43.756429378092406" lon="11.297046827411528"><ele>58.4</ele><time>2026-04-23T10:38:07Z</time></trkpt><trkpt lat="43.75641083592092" lon="11.296859567762944"><ele>58.2</ele><time>2026-04-23T10:38:08Z</time></trkpt><trkpt lat="43.75639703128299" lon="11.296752927077096"><ele>58.0</ele><time>2026-04-23T10:38:09Z</time></trkpt><trkpt lat="43.75638689252086" lon="11.296601744850047"><ele>58.0</ele><time>2026-04-23T10:38:11Z</time></trkpt><trkpt lat="43.7563797684877" lon="11.296473134596386"><ele>58.0</ele><time>2026-04-23T10:38:12Z</time></trkpt><trkpt lat="43.75636639123508" lon="11.296327201944559"><ele>58.0</ele><time>2026-04-23T10:38:13Z</time></trkpt><trkpt lat="43.75635568352094" lon="11.296151478456494"><ele>58.0</ele><time>2026-04-23T10:38:14Z</time></trkpt><trkpt lat="43.75634660147209" lon="11.295961929518054"><ele>58.0</ele><time>2026-04-23T10:38:15Z</time></trkpt><trkpt lat="43.75633457082362" lon="11.295747285344877"><ele>58.0</ele><time>2026-04-23T10:38:16Z</time></trkpt><trkpt lat="43.75634162493722" lon="11.295538886823257"><ele>58.0</ele><time>2026-04-23T10:38:17Z</time></trkpt><trkpt lat="43.75632923771278" lon="11.295313119378127"><ele>58.0</ele><time>2026-04-23T10:38:18Z</time></trkpt><trkpt lat="43.756318594076156" lon="11.295104773754034"><ele>58.0</ele><time>2026-04-23T10:38:19Z</time></trkpt><trkpt lat="43.75629184432604" lon="11.29491498642031"><ele>58.0</ele><time>2026-04-23T10:38:20Z</time></trkpt><trkpt lat="43.756273319259705" lon="11.29474077073589"><ele>58.0</ele><time>2026-04-23T10:38:21Z</time></trkpt><trkpt lat="43.75630969583382" lon="11.294581470844534"><ele>57.599999999999994</ele><time>2026-04-23T10:38:22Z</time></trkpt><trkpt lat="43.75633447568682" lon="11.294457901673505"><ele>57.199999999999996</ele><time>2026-04-23T10:38:23Z</time></trkpt><trkpt lat="43.75620987654345" lon="11.29436188294548"><ele>56.8</ele><time>2026-04-23T10:38:25Z</time></trkpt><trkpt lat="43.756134598381166" lon="11.294350243160805"><ele>56.4</ele><time>2026-04-23T10:38:26Z</time></trkpt><trkpt lat="43.75605846698778" lon="11.29433090187718"><ele>56.0</ele><time>2026-04-23T10:38:27Z</time></trkpt><trkpt lat="43.75599246876741" lon="11.294314134928591"><ele>56.00000000000001</ele><time>2026-04-23T10:38:28Z</time></trkpt><trkpt lat="43.75591786936774" lon="11.294313246833289"><ele>56.0</ele><time>2026-04-23T10:38:30Z</time></trkpt><trkpt lat="43.75591935522537" lon="11.294482902094156"><ele>56.0</ele><time>2026-04-23T10:38:31Z</time></trkpt><trkpt lat="43.75590625261205" lon="11.294578122584374"><ele>56.0</ele><time>2026-04-23T10:38:33Z</time></trkpt><trkpt lat="43.75586854822217" lon="11.294717652521623"><ele>56.00000000000001</ele><time>2026-04-23T10:38:35Z</time></trkpt><trkpt lat="43.755852847074884" lon="11.294809681817336"><ele>56.0</ele><time>2026-04-23T10:38:37Z</time></trkpt><trkpt lat="43.75573660287935" lon="11.294729045915332"><ele>56.0</ele><time>2026-04-23T10:38:38Z</time></trkpt><trkpt lat="43.755662543191654" lon="11.294698329297852"><ele>55.99999999999999</ele><time>2026-04-23T10:38:39Z</time></trkpt><trkpt lat="43.75557361517321" lon="11.294652840381788"><ele>55.99999999999999</ele><time>2026-04-23T10:38:40Z</time></trkpt><trkpt lat="43.755473525749004" lon="11.294605313120936"><ele>56.0</ele><time>2026-04-23T10:38:41Z</time></trkpt><trkpt lat="43.755375517144" lon="11.29454954565669"><ele>56.0</ele><time>2026-04-23T10:38:42Z</time></trkpt><trkpt lat="43.755274402869404" lon="11.294505232812615"><ele>56.5</ele><time>2026-04-23T10:38:43Z</time></trkpt><trkpt lat="43.755159780365794" lon="11.294456316700659"><ele>57.0</ele><time>2026-04-23T10:38:44Z</time></trkpt><trkpt lat="43.75502383530162" lon="11.2943908101041"><ele>57.5</ele><time>2026-04-23T10:38:45Z</time></trkpt><trkpt lat="43.75487638968468" lon="11.29432484789149"><ele>58.0</ele><time>2026-04-23T10:38:46Z</time></trkpt><trkpt lat="43.75472448881042" lon="11.294243143342088"><ele>58.0</ele><time>2026-04-23T10:38:47Z</time></trkpt><trkpt lat="43.75457533602761" lon="11.294169653591956"><ele>58.0</ele><time>2026-04-23T10:38:48Z</time></trkpt><trkpt lat="43.75443178591951" lon="11.294101535970066"><ele>58.0</ele><time>2026-04-23T10:38:49Z</time></trkpt><trkpt lat="43.75429823517521" lon="11.294060571757862"><ele>58.0</ele><time>2026-04-23T10:38:50Z</time></trkpt><trkpt lat="43.754177733482486" lon="11.294053031115231"><ele>58.0</ele><time>2026-04-23T10:38:51Z</time></trkpt><trkpt lat="43.75407317425682" lon="11.294024594003885"><ele>58.0</ele><time>2026-04-23T10:38:52Z</time></trkpt><trkpt lat="43.75397173128755" lon="11.294002231799867"><ele>58.0</ele><time>2026-04-23T10:38:53Z</time></trkpt><trkpt lat="43.753876809149055" lon="11.293974700943211"><ele>58.0</ele><time>2026-04-23T10:38:54Z</time></trkpt><trkpt lat="43.753771003239486" lon="11.293954423776837"><ele>58.0</ele><time>2026-04-23T10:38:55Z</time></trkpt><trkpt lat="43.75366070078449" lon="11.29390427478095"><ele>58.0</ele><time>2026-04-23T10:38:56Z</time></trkpt><trkpt lat="43.75355903401655" lon="11.293850680960807"><ele>58.0</ele><time>2026-04-23T10:38:57Z</time></trkpt><trkpt lat="43.75347015765428" lon="11.293811525911547"><ele>58.0</ele><time>2026-04-23T10:38:58Z</time></trkpt><trkpt lat="43.753385231744964" lon="11.293766205247369"><ele>58.0</ele><time>2026-04-23T10:38:59Z</time></trkpt><trkpt lat="43.753290291826566" lon="11.293709808771457"><ele>58.0</ele><time>2026-04-23T10:39:00Z</time></trkpt><trkpt lat="43.75317573987892" lon="11.293652430227699"><ele>58.25</ele><time>2026-04-23T10:39:01.001Z</time></trkpt><trkpt lat="43.75304141112473" lon="11.293607818451239"><ele>58.5</ele><time>2026-04-23T10:39:02.001Z</time></trkpt><trkpt lat="43.75289179808958" lon="11.29355111639894"><ele>58.75</ele><time>2026-04-23T10:39:03.001Z</time></trkpt><trkpt lat="43.75274510302946" lon="11.29349162097733"><ele>59.0</ele><time>2026-04-23T10:39:03.999Z</time></trkpt><trkpt lat="43.75259643381285" lon="11.293461977985164"><ele>59.0</ele><time>2026-04-23T10:39:04.999Z</time></trkpt><trkpt lat="43.7524691962083" lon="11.293443981746051"><ele>59.0</ele><time>2026-04-23T10:39:05.999Z</time></trkpt><trkpt lat="43.75235302802784" lon="11.293425067953905"><ele>59.0</ele><time>2026-04-23T10:39:06.999Z</time></trkpt><trkpt lat="43.75224769814786" lon="11.293404958151623"><ele>59.0</ele><time>2026-04-23T10:39:07.999Z</time></trkpt><trkpt lat="43.752145067972634" lon="11.293389499396255"><ele>59.00000000000001</ele><time>2026-04-23T10:39:08.999Z</time></trkpt><trkpt lat="43.75204764643226" lon="11.293379158205227"><ele>59.0</ele><time>2026-04-23T10:39:09.999Z</time></trkpt><trkpt lat="43.75195755104988" lon="11.293356821914466"><ele>59.0</ele><time>2026-04-23T10:39:10.999Z</time></trkpt><trkpt lat="43.75187269192465" lon="11.293323463946518"><ele>59.0</ele><time>2026-04-23T10:39:12Z</time></trkpt><trkpt lat="43.75179431762555" lon="11.293291220030243"><ele>59.00000000000001</ele><time>2026-04-23T10:39:13Z</time></trkpt><trkpt lat="43.7517326163558" lon="11.293263947593323"><ele>59.0</ele><time>2026-04-23T10:39:14Z</time></trkpt><trkpt lat="43.75172301023936" lon="11.293065527644258"><ele>59.0</ele><time>2026-04-23T10:39:16Z</time></trkpt><trkpt lat="43.75176414641414" lon="11.292967476525984"><ele>59.00000000000001</ele><time>2026-04-23T10:39:17Z</time></trkpt><trkpt lat="43.75182197356541" lon="11.29285163709674"><ele>59.00000000000001</ele><time>2026-04-23T10:39:18Z</time></trkpt><trkpt lat="43.751877693190764" lon="11.292739385814691"><ele>59.0</ele><time>2026-04-23T10:39:19Z</time></trkpt><trkpt lat="43.75194219546378" lon="11.292598640567384"><ele>59.0</ele><time>2026-04-23T10:39:20Z</time></trkpt><trkpt lat="43.75200115649428" lon="11.29244095734949"><ele>59.0</ele><time>2026-04-23T10:39:21Z</time></trkpt><trkpt lat="43.752060421896246" lon="11.29227706014649"><ele>59.0</ele><time>2026-04-23T10:39:22Z</time></trkpt><trkpt lat="43.75211111499894" lon="11.29210475251431"><ele>59.0</ele><time>2026-04-23T10:39:23Z</time></trkpt><trkpt lat="43.752189400663305" lon="11.29192929748923"><ele>59.0</ele><time>2026-04-23T10:39:24Z</time></trkpt><trkpt lat="43.75227490182823" lon="11.291762480887357"><ele>58.75</ele><time>2026-04-23T10:39:25Z</time></trkpt><trkpt lat="43.752351864793646" lon="11.291593308858415"><ele>58.5</ele><time>2026-04-23T10:39:26Z</time></trkpt><trkpt lat="43.75243533552557" lon="11.29142304119149"><ele>58.25</ele><time>2026-04-23T10:39:27Z</time></trkpt><trkpt lat="43.752526371218984" lon="11.291261572432676"><ele>58.0</ele><time>2026-04-23T10:39:28Z</time></trkpt><trkpt lat="43.75262643260996" lon="11.291113539173924"><ele>57.75</ele><time>2026-04-23T10:39:29Z</time></trkpt><trkpt lat="43.752726788600924" lon="11.290986987997522"><ele>57.5</ele><time>2026-04-23T10:39:30Z</time></trkpt><trkpt lat="43.75282733865826" lon="11.290882062807016"><ele>57.25</ele><time>2026-04-23T10:39:31Z</time></trkpt><trkpt lat="43.75292150280526" lon="11.290784381831719"><ele>57.0</ele><time>2026-04-23T10:39:32Z</time></trkpt><trkpt lat="43.75301404220527" lon="11.290683841791921"><ele>57.0</ele><time>2026-04-23T10:39:33Z</time></trkpt><trkpt lat="43.753086311655075" lon="11.290601558679441"><ele>57.0</ele><time>2026-04-23T10:39:34Z</time></trkpt><trkpt lat="43.75314578007392" lon="11.29050114361458"><ele>57.0</ele><time>2026-04-23T10:39:35Z</time></trkpt><trkpt lat="43.75321413614665" lon="11.290398346636948"><ele>57.0</ele><time>2026-04-23T10:39:36Z</time></trkpt><trkpt lat="43.7532755655286" lon="11.290305086171188"><ele>57.0</ele><time>2026-04-23T10:39:37Z</time></trkpt><trkpt lat="43.753336170439255" lon="11.290215724294022"><ele>56.8</ele><time>2026-04-23T10:39:38Z</time></trkpt><trkpt lat="43.75338592283191" lon="11.29013810816745"><ele>56.6</ele><time>2026-04-23T10:39:39Z</time></trkpt><trkpt lat="43.75353572126481" lon="11.290161656356192"><ele>56.39999999999999</ele><time>2026-04-23T10:39:41Z</time></trkpt><trkpt lat="43.75363526887719" lon="11.290188188123809"><ele>56.199999999999996</ele><time>2026-04-23T10:39:42Z</time></trkpt><trkpt lat="43.753720376786546" lon="11.290239975536661"><ele>56.0</ele><time>2026-04-23T10:39:43Z</time></trkpt><trkpt lat="43.753796768302216" lon="11.290268090868556"><ele>56.0</ele><time>2026-04-23T10:39:44Z</time></trkpt><trkpt lat="43.75390771506828" lon="11.290223669985386"><ele>56.0</ele><time>2026-04-23T10:39:46Z</time></trkpt><trkpt lat="43.75400096797542" lon="11.290129110035354"><ele>56.0</ele><time>2026-04-23T10:40:05Z</time></trkpt><trkpt lat="43.75399822086742" lon="11.290428364086186"><ele>56.0</ele><time>2026-04-23T10:40:15.016Z</time></trkpt><trkpt lat="43.75401124143897" lon="11.290651034196049"><ele>56.0</ele><time>2026-04-23T10:40:42.507Z</time></trkpt></trkseg></trk></gpx>